<?xml version="1.0" encoding="UTF-8" standalone="no" ?>
<gpx xmlns="http://www.topografix.com/GPX/1/1" xmlns:xsi="http://www.w3.org/2001/XMLSchema-instance" xsi:schemaLocation="http://www.topografix.com/GPX/1/1 http://www.topografix.com/GPX/1/1/gpx.xsd" version="1.1" creator="VisuGPX - https://www.visugpx.com">
  <metadata>
    <name>2018-05-16 Bike ride-Ambérieux-Rancé O 36k</name>
    <desc><![CDATA[2018-05-16 Bike ride-Ambérieux-Rancé O 36k]]></desc>
  </metadata>
  <wpt lat="45.92452" lon="4.73707">
    <ele>174</ele>
    <name><![CDATA[2018-05-16 11:57 (Start)]]></name>
  </wpt>
  <wpt lat="45.9246" lon="4.73707">
    <ele>174</ele>
    <name><![CDATA[2018-05-16 11:57 (End)]]></name>
  </wpt>
  <trk>
    <name><![CDATA[2018-05-16 11:57]]></name>
    <trkseg>
      <trkpt lat="45.92452" lon="4.73707">
        <ele>174</ele>
        <time>2018-05-16T09:57:05.019Z</time>
      </trkpt>
      <trkpt lat="45.92454" lon="4.73709">
        <ele>174</ele>
        <time>2018-05-16T09:57:13Z</time>
      </trkpt>
      <trkpt lat="45.92454" lon="4.73709">
        <ele>174</ele>
        <time>2018-05-16T09:57:14Z</time>
      </trkpt>
      <trkpt lat="45.92455" lon="4.73709">
        <ele>174</ele>
        <time>2018-05-16T09:57:15Z</time>
      </trkpt>
      <trkpt lat="45.92462" lon="4.73703">
        <ele>174</ele>
        <time>2018-05-16T09:57:27Z</time>
      </trkpt>
      <trkpt lat="45.92462" lon="4.73701">
        <ele>174</ele>
        <time>2018-05-16T09:57:28Z</time>
      </trkpt>
      <trkpt lat="45.92464" lon="4.73691">
        <ele>174</ele>
        <time>2018-05-16T09:57:31Z</time>
      </trkpt>
      <trkpt lat="45.92464" lon="4.73687">
        <ele>174</ele>
        <time>2018-05-16T09:57:32Z</time>
      </trkpt>
      <trkpt lat="45.92465" lon="4.73679">
        <ele>174</ele>
        <time>2018-05-16T09:57:34Z</time>
      </trkpt>
      <trkpt lat="45.92466" lon="4.73674">
        <ele>174</ele>
        <time>2018-05-16T09:57:35Z</time>
      </trkpt>
      <trkpt lat="45.92467" lon="4.73663">
        <ele>174</ele>
        <time>2018-05-16T09:57:37Z</time>
      </trkpt>
      <trkpt lat="45.92468" lon="4.73661">
        <ele>174</ele>
        <time>2018-05-16T09:57:39.382Z</time>
      </trkpt>
      <trkpt lat="45.9247" lon="4.73653">
        <ele>174</ele>
        <time>2018-05-16T09:57:39Z</time>
      </trkpt>
      <trkpt lat="45.92473" lon="4.73641">
        <ele>174</ele>
        <time>2018-05-16T09:57:40Z</time>
      </trkpt>
      <trkpt lat="45.92477" lon="4.73638">
        <ele>174</ele>
        <time>2018-05-16T09:57:42Z</time>
      </trkpt>
      <trkpt lat="45.92484" lon="4.73637">
        <ele>174</ele>
        <time>2018-05-16T09:57:43Z</time>
      </trkpt>
      <trkpt lat="45.92492" lon="4.73639">
        <ele>174</ele>
        <time>2018-05-16T09:57:45Z</time>
      </trkpt>
      <trkpt lat="45.92497" lon="4.73639">
        <ele>174</ele>
        <time>2018-05-16T09:57:46Z</time>
      </trkpt>
      <trkpt lat="45.92501" lon="4.73639">
        <ele>174</ele>
        <time>2018-05-16T09:57:47Z</time>
      </trkpt>
      <trkpt lat="45.92507" lon="4.7364">
        <ele>174</ele>
        <time>2018-05-16T09:57:48Z</time>
      </trkpt>
      <trkpt lat="45.92512" lon="4.7364">
        <ele>174</ele>
        <time>2018-05-16T09:57:49Z</time>
      </trkpt>
      <trkpt lat="45.92518" lon="4.73638">
        <ele>173</ele>
        <time>2018-05-16T09:57:50Z</time>
      </trkpt>
      <trkpt lat="45.92524" lon="4.73638">
        <ele>173</ele>
        <time>2018-05-16T09:57:51Z</time>
      </trkpt>
      <trkpt lat="45.92529" lon="4.73638">
        <ele>173</ele>
        <time>2018-05-16T09:57:52Z</time>
      </trkpt>
      <trkpt lat="45.92535" lon="4.73637">
        <ele>173</ele>
        <time>2018-05-16T09:57:53Z</time>
      </trkpt>
      <trkpt lat="45.9254" lon="4.73637">
        <ele>173</ele>
        <time>2018-05-16T09:57:54Z</time>
      </trkpt>
      <trkpt lat="45.92546" lon="4.73636">
        <ele>173</ele>
        <time>2018-05-16T09:57:55Z</time>
      </trkpt>
      <trkpt lat="45.92551" lon="4.73633">
        <ele>173</ele>
        <time>2018-05-16T09:57:56Z</time>
      </trkpt>
      <trkpt lat="45.92556" lon="4.7363">
        <ele>173</ele>
        <time>2018-05-16T09:57:57Z</time>
      </trkpt>
      <trkpt lat="45.9256" lon="4.73629">
        <ele>173</ele>
        <time>2018-05-16T09:57:58Z</time>
      </trkpt>
      <trkpt lat="45.92565" lon="4.73627">
        <ele>173</ele>
        <time>2018-05-16T09:57:59Z</time>
      </trkpt>
      <trkpt lat="45.9257" lon="4.73626">
        <ele>173</ele>
        <time>2018-05-16T09:58:00Z</time>
      </trkpt>
      <trkpt lat="45.92575" lon="4.73625">
        <ele>173</ele>
        <time>2018-05-16T09:58:01Z</time>
      </trkpt>
      <trkpt lat="45.92581" lon="4.73624">
        <ele>173</ele>
        <time>2018-05-16T09:58:02Z</time>
      </trkpt>
      <trkpt lat="45.92586" lon="4.73623">
        <ele>173</ele>
        <time>2018-05-16T09:58:03Z</time>
      </trkpt>
      <trkpt lat="45.92591" lon="4.73621">
        <ele>173</ele>
        <time>2018-05-16T09:58:04Z</time>
      </trkpt>
      <trkpt lat="45.92596" lon="4.73622">
        <ele>173</ele>
        <time>2018-05-16T09:58:05Z</time>
      </trkpt>
      <trkpt lat="45.92601" lon="4.73622">
        <ele>173</ele>
        <time>2018-05-16T09:58:06Z</time>
      </trkpt>
      <trkpt lat="45.92608" lon="4.73622">
        <ele>173</ele>
        <time>2018-05-16T09:58:07Z</time>
      </trkpt>
      <trkpt lat="45.92614" lon="4.73623">
        <ele>173</ele>
        <time>2018-05-16T09:58:08Z</time>
      </trkpt>
      <trkpt lat="45.92617" lon="4.73629">
        <ele>173</ele>
        <time>2018-05-16T09:58:09Z</time>
      </trkpt>
      <trkpt lat="45.9262" lon="4.73634">
        <ele>173</ele>
        <time>2018-05-16T09:58:10Z</time>
      </trkpt>
      <trkpt lat="45.92623" lon="4.7364">
        <ele>173</ele>
        <time>2018-05-16T09:58:11Z</time>
      </trkpt>
      <trkpt lat="45.92627" lon="4.73647">
        <ele>173</ele>
        <time>2018-05-16T09:58:12Z</time>
      </trkpt>
      <trkpt lat="45.92629" lon="4.73654">
        <ele>173</ele>
        <time>2018-05-16T09:58:13Z</time>
      </trkpt>
      <trkpt lat="45.92632" lon="4.73661">
        <ele>173</ele>
        <time>2018-05-16T09:58:14Z</time>
      </trkpt>
      <trkpt lat="45.92635" lon="4.73666">
        <ele>173</ele>
        <time>2018-05-16T09:58:15Z</time>
      </trkpt>
      <trkpt lat="45.92639" lon="4.73673">
        <ele>173</ele>
        <time>2018-05-16T09:58:16Z</time>
      </trkpt>
      <trkpt lat="45.92642" lon="4.73679">
        <ele>173</ele>
        <time>2018-05-16T09:58:17Z</time>
      </trkpt>
      <trkpt lat="45.92645" lon="4.73684">
        <ele>173</ele>
        <time>2018-05-16T09:58:18Z</time>
      </trkpt>
      <trkpt lat="45.92649" lon="4.73688">
        <ele>173</ele>
        <time>2018-05-16T09:58:19Z</time>
      </trkpt>
      <trkpt lat="45.92653" lon="4.73692">
        <ele>173</ele>
        <time>2018-05-16T09:58:20Z</time>
      </trkpt>
      <trkpt lat="45.92657" lon="4.73695">
        <ele>173</ele>
        <time>2018-05-16T09:58:21Z</time>
      </trkpt>
      <trkpt lat="45.92661" lon="4.73698">
        <ele>173</ele>
        <time>2018-05-16T09:58:22Z</time>
      </trkpt>
      <trkpt lat="45.92666" lon="4.73701">
        <ele>173</ele>
        <time>2018-05-16T09:58:23Z</time>
      </trkpt>
      <trkpt lat="45.92671" lon="4.73705">
        <ele>174</ele>
        <time>2018-05-16T09:58:24Z</time>
      </trkpt>
      <trkpt lat="45.9268" lon="4.73706">
        <ele>173</ele>
        <time>2018-05-16T09:58:26Z</time>
      </trkpt>
      <trkpt lat="45.92686" lon="4.73709">
        <ele>173</ele>
        <time>2018-05-16T09:58:27Z</time>
      </trkpt>
      <trkpt lat="45.9269" lon="4.73711">
        <ele>173</ele>
        <time>2018-05-16T09:58:28Z</time>
      </trkpt>
      <trkpt lat="45.92697" lon="4.73714">
        <ele>173</ele>
        <time>2018-05-16T09:58:29Z</time>
      </trkpt>
      <trkpt lat="45.92703" lon="4.73715">
        <ele>173</ele>
        <time>2018-05-16T09:58:30Z</time>
      </trkpt>
      <trkpt lat="45.92709" lon="4.73716">
        <ele>173</ele>
        <time>2018-05-16T09:58:31Z</time>
      </trkpt>
      <trkpt lat="45.92714" lon="4.73717">
        <ele>173</ele>
        <time>2018-05-16T09:58:32Z</time>
      </trkpt>
      <trkpt lat="45.92719" lon="4.73718">
        <ele>173</ele>
        <time>2018-05-16T09:58:33Z</time>
      </trkpt>
      <trkpt lat="45.92725" lon="4.73719">
        <ele>173</ele>
        <time>2018-05-16T09:58:34Z</time>
      </trkpt>
      <trkpt lat="45.9273" lon="4.7372">
        <ele>173</ele>
        <time>2018-05-16T09:58:35Z</time>
      </trkpt>
      <trkpt lat="45.92735" lon="4.73722">
        <ele>173</ele>
        <time>2018-05-16T09:58:36Z</time>
      </trkpt>
      <trkpt lat="45.9274" lon="4.73723">
        <ele>173</ele>
        <time>2018-05-16T09:58:37Z</time>
      </trkpt>
      <trkpt lat="45.92745" lon="4.73724">
        <ele>173</ele>
        <time>2018-05-16T09:58:38Z</time>
      </trkpt>
      <trkpt lat="45.9275" lon="4.73726">
        <ele>172</ele>
        <time>2018-05-16T09:58:39Z</time>
      </trkpt>
      <trkpt lat="45.92757" lon="4.73729">
        <ele>172</ele>
        <time>2018-05-16T09:58:40Z</time>
      </trkpt>
      <trkpt lat="45.92762" lon="4.73731">
        <ele>172</ele>
        <time>2018-05-16T09:58:41Z</time>
      </trkpt>
      <trkpt lat="45.92769" lon="4.73734">
        <ele>172</ele>
        <time>2018-05-16T09:58:44Z</time>
      </trkpt>
      <trkpt lat="45.92778" lon="4.7374">
        <ele>172</ele>
        <time>2018-05-16T09:58:45Z</time>
      </trkpt>
      <trkpt lat="45.92783" lon="4.73746">
        <ele>172</ele>
        <time>2018-05-16T09:58:48Z</time>
      </trkpt>
      <trkpt lat="45.92785" lon="4.73749">
        <ele>172</ele>
        <time>2018-05-16T09:58:49Z</time>
      </trkpt>
      <trkpt lat="45.9279" lon="4.73753">
        <ele>173</ele>
        <time>2018-05-16T09:58:50Z</time>
      </trkpt>
      <trkpt lat="45.92794" lon="4.73756">
        <ele>173</ele>
        <time>2018-05-16T09:58:51Z</time>
      </trkpt>
      <trkpt lat="45.92799" lon="4.7376">
        <ele>173</ele>
        <time>2018-05-16T09:58:52Z</time>
      </trkpt>
      <trkpt lat="45.92803" lon="4.73762">
        <ele>173</ele>
        <time>2018-05-16T09:58:53Z</time>
      </trkpt>
      <trkpt lat="45.92808" lon="4.73765">
        <ele>173</ele>
        <time>2018-05-16T09:58:54Z</time>
      </trkpt>
      <trkpt lat="45.92812" lon="4.73769">
        <ele>173</ele>
        <time>2018-05-16T09:58:55Z</time>
      </trkpt>
      <trkpt lat="45.92817" lon="4.73772">
        <ele>173</ele>
        <time>2018-05-16T09:58:56Z</time>
      </trkpt>
      <trkpt lat="45.92823" lon="4.73775">
        <ele>173</ele>
        <time>2018-05-16T09:58:57Z</time>
      </trkpt>
      <trkpt lat="45.92828" lon="4.73778">
        <ele>173</ele>
        <time>2018-05-16T09:58:58Z</time>
      </trkpt>
      <trkpt lat="45.92833" lon="4.73782">
        <ele>173</ele>
        <time>2018-05-16T09:58:59Z</time>
      </trkpt>
      <trkpt lat="45.92839" lon="4.73787">
        <ele>173</ele>
        <time>2018-05-16T09:59:00Z</time>
      </trkpt>
      <trkpt lat="45.92843" lon="4.73791">
        <ele>173</ele>
        <time>2018-05-16T09:59:01Z</time>
      </trkpt>
      <trkpt lat="45.92848" lon="4.73797">
        <ele>173</ele>
        <time>2018-05-16T09:59:02Z</time>
      </trkpt>
      <trkpt lat="45.92852" lon="4.73803">
        <ele>173</ele>
        <time>2018-05-16T09:59:03Z</time>
      </trkpt>
      <trkpt lat="45.92854" lon="4.73811">
        <ele>173</ele>
        <time>2018-05-16T09:59:04Z</time>
      </trkpt>
      <trkpt lat="45.92856" lon="4.73818">
        <ele>173</ele>
        <time>2018-05-16T09:59:05Z</time>
      </trkpt>
      <trkpt lat="45.92859" lon="4.73825">
        <ele>173</ele>
        <time>2018-05-16T09:59:06Z</time>
      </trkpt>
      <trkpt lat="45.9286" lon="4.73832">
        <ele>173</ele>
        <time>2018-05-16T09:59:07Z</time>
      </trkpt>
      <trkpt lat="45.92864" lon="4.7384">
        <ele>173</ele>
        <time>2018-05-16T09:59:08Z</time>
      </trkpt>
      <trkpt lat="45.92867" lon="4.73848">
        <ele>173</ele>
        <time>2018-05-16T09:59:09Z</time>
      </trkpt>
      <trkpt lat="45.92869" lon="4.73856">
        <ele>173</ele>
        <time>2018-05-16T09:59:10Z</time>
      </trkpt>
      <trkpt lat="45.9287" lon="4.73864">
        <ele>173</ele>
        <time>2018-05-16T09:59:11Z</time>
      </trkpt>
      <trkpt lat="45.9287" lon="4.73872">
        <ele>173</ele>
        <time>2018-05-16T09:59:12Z</time>
      </trkpt>
      <trkpt lat="45.92872" lon="4.7388">
        <ele>173</ele>
        <time>2018-05-16T09:59:13Z</time>
      </trkpt>
      <trkpt lat="45.92877" lon="4.73889">
        <ele>173</ele>
        <time>2018-05-16T09:59:14Z</time>
      </trkpt>
      <trkpt lat="45.92879" lon="4.73897">
        <ele>173</ele>
        <time>2018-05-16T09:59:15Z</time>
      </trkpt>
      <trkpt lat="45.9288" lon="4.73905">
        <ele>173</ele>
        <time>2018-05-16T09:59:16Z</time>
      </trkpt>
      <trkpt lat="45.9288" lon="4.73912">
        <ele>173</ele>
        <time>2018-05-16T09:59:17Z</time>
      </trkpt>
      <trkpt lat="45.9288" lon="4.73921">
        <ele>172</ele>
        <time>2018-05-16T09:59:18Z</time>
      </trkpt>
      <trkpt lat="45.92881" lon="4.73926">
        <ele>172</ele>
        <time>2018-05-16T09:59:19Z</time>
      </trkpt>
      <trkpt lat="45.92881" lon="4.73934">
        <ele>172</ele>
        <time>2018-05-16T09:59:20Z</time>
      </trkpt>
      <trkpt lat="45.92882" lon="4.73941">
        <ele>172</ele>
        <time>2018-05-16T09:59:21Z</time>
      </trkpt>
      <trkpt lat="45.92882" lon="4.73948">
        <ele>172</ele>
        <time>2018-05-16T09:59:22Z</time>
      </trkpt>
      <trkpt lat="45.92881" lon="4.73956">
        <ele>172</ele>
        <time>2018-05-16T09:59:23Z</time>
      </trkpt>
      <trkpt lat="45.92881" lon="4.73962">
        <ele>172</ele>
        <time>2018-05-16T09:59:24Z</time>
      </trkpt>
      <trkpt lat="45.92881" lon="4.73971">
        <ele>172</ele>
        <time>2018-05-16T09:59:25Z</time>
      </trkpt>
      <trkpt lat="45.92881" lon="4.73979">
        <ele>172</ele>
        <time>2018-05-16T09:59:26Z</time>
      </trkpt>
      <trkpt lat="45.9288" lon="4.73986">
        <ele>172</ele>
        <time>2018-05-16T09:59:27Z</time>
      </trkpt>
      <trkpt lat="45.92878" lon="4.73994">
        <ele>172</ele>
        <time>2018-05-16T09:59:28Z</time>
      </trkpt>
      <trkpt lat="45.92876" lon="4.74001">
        <ele>172</ele>
        <time>2018-05-16T09:59:29Z</time>
      </trkpt>
      <trkpt lat="45.92874" lon="4.74008">
        <ele>172</ele>
        <time>2018-05-16T09:59:30Z</time>
      </trkpt>
      <trkpt lat="45.92873" lon="4.74015">
        <ele>172</ele>
        <time>2018-05-16T09:59:31Z</time>
      </trkpt>
      <trkpt lat="45.92872" lon="4.74022">
        <ele>172</ele>
        <time>2018-05-16T09:59:32Z</time>
      </trkpt>
      <trkpt lat="45.92871" lon="4.7403">
        <ele>172</ele>
        <time>2018-05-16T09:59:33Z</time>
      </trkpt>
      <trkpt lat="45.92869" lon="4.74038">
        <ele>172</ele>
        <time>2018-05-16T09:59:34Z</time>
      </trkpt>
      <trkpt lat="45.92865" lon="4.74044">
        <ele>172</ele>
        <time>2018-05-16T09:59:35Z</time>
      </trkpt>
      <trkpt lat="45.92861" lon="4.7405">
        <ele>172</ele>
        <time>2018-05-16T09:59:36Z</time>
      </trkpt>
      <trkpt lat="45.92858" lon="4.74057">
        <ele>172</ele>
        <time>2018-05-16T09:59:37Z</time>
      </trkpt>
      <trkpt lat="45.92853" lon="4.74062">
        <ele>172</ele>
        <time>2018-05-16T09:59:38Z</time>
      </trkpt>
      <trkpt lat="45.92849" lon="4.74069">
        <ele>172</ele>
        <time>2018-05-16T09:59:39Z</time>
      </trkpt>
      <trkpt lat="45.92845" lon="4.74074">
        <ele>172</ele>
        <time>2018-05-16T09:59:40Z</time>
      </trkpt>
      <trkpt lat="45.92841" lon="4.7408">
        <ele>171</ele>
        <time>2018-05-16T09:59:41Z</time>
      </trkpt>
      <trkpt lat="45.92837" lon="4.74085">
        <ele>171</ele>
        <time>2018-05-16T09:59:42Z</time>
      </trkpt>
      <trkpt lat="45.92832" lon="4.7409">
        <ele>171</ele>
        <time>2018-05-16T09:59:43Z</time>
      </trkpt>
      <trkpt lat="45.92828" lon="4.74094">
        <ele>171</ele>
        <time>2018-05-16T09:59:44Z</time>
      </trkpt>
      <trkpt lat="45.92824" lon="4.74098">
        <ele>171</ele>
        <time>2018-05-16T09:59:45Z</time>
      </trkpt>
      <trkpt lat="45.92819" lon="4.74102">
        <ele>171</ele>
        <time>2018-05-16T09:59:46Z</time>
      </trkpt>
      <trkpt lat="45.92814" lon="4.74108">
        <ele>172</ele>
        <time>2018-05-16T09:59:47Z</time>
      </trkpt>
      <trkpt lat="45.9281" lon="4.74113">
        <ele>172</ele>
        <time>2018-05-16T09:59:48Z</time>
      </trkpt>
      <trkpt lat="45.92805" lon="4.74118">
        <ele>172</ele>
        <time>2018-05-16T09:59:49Z</time>
      </trkpt>
      <trkpt lat="45.928" lon="4.74123">
        <ele>172</ele>
        <time>2018-05-16T09:59:50Z</time>
      </trkpt>
      <trkpt lat="45.92795" lon="4.74128">
        <ele>172</ele>
        <time>2018-05-16T09:59:51Z</time>
      </trkpt>
      <trkpt lat="45.92791" lon="4.74133">
        <ele>172</ele>
        <time>2018-05-16T09:59:52Z</time>
      </trkpt>
      <trkpt lat="45.92788" lon="4.74138">
        <ele>172</ele>
        <time>2018-05-16T09:59:53Z</time>
      </trkpt>
      <trkpt lat="45.92783" lon="4.74141">
        <ele>172</ele>
        <time>2018-05-16T09:59:54Z</time>
      </trkpt>
      <trkpt lat="45.92779" lon="4.74146">
        <ele>172</ele>
        <time>2018-05-16T09:59:55Z</time>
      </trkpt>
      <trkpt lat="45.92774" lon="4.7415">
        <ele>172</ele>
        <time>2018-05-16T09:59:56Z</time>
      </trkpt>
      <trkpt lat="45.9277" lon="4.74155">
        <ele>172</ele>
        <time>2018-05-16T09:59:57Z</time>
      </trkpt>
      <trkpt lat="45.92765" lon="4.74159">
        <ele>172</ele>
        <time>2018-05-16T09:59:58Z</time>
      </trkpt>
      <trkpt lat="45.92761" lon="4.74164">
        <ele>172</ele>
        <time>2018-05-16T09:59:59Z</time>
      </trkpt>
      <trkpt lat="45.92757" lon="4.74169">
        <ele>172</ele>
        <time>2018-05-16T10:00:00Z</time>
      </trkpt>
      <trkpt lat="45.92752" lon="4.74174">
        <ele>172</ele>
        <time>2018-05-16T10:00:01Z</time>
      </trkpt>
      <trkpt lat="45.92748" lon="4.74178">
        <ele>172</ele>
        <time>2018-05-16T10:00:02Z</time>
      </trkpt>
      <trkpt lat="45.92744" lon="4.74183">
        <ele>172</ele>
        <time>2018-05-16T10:00:03Z</time>
      </trkpt>
      <trkpt lat="45.9274" lon="4.74188">
        <ele>172</ele>
        <time>2018-05-16T10:00:04Z</time>
      </trkpt>
      <trkpt lat="45.92736" lon="4.74194">
        <ele>171</ele>
        <time>2018-05-16T10:00:05Z</time>
      </trkpt>
      <trkpt lat="45.92732" lon="4.74199">
        <ele>171</ele>
        <time>2018-05-16T10:00:06Z</time>
      </trkpt>
      <trkpt lat="45.92728" lon="4.74205">
        <ele>171</ele>
        <time>2018-05-16T10:00:07Z</time>
      </trkpt>
      <trkpt lat="45.92724" lon="4.7421">
        <ele>171</ele>
        <time>2018-05-16T10:00:08Z</time>
      </trkpt>
      <trkpt lat="45.92721" lon="4.74216">
        <ele>171</ele>
        <time>2018-05-16T10:00:09Z</time>
      </trkpt>
      <trkpt lat="45.92716" lon="4.74221">
        <ele>171</ele>
        <time>2018-05-16T10:00:10Z</time>
      </trkpt>
      <trkpt lat="45.92712" lon="4.74227">
        <ele>171</ele>
        <time>2018-05-16T10:00:11Z</time>
      </trkpt>
      <trkpt lat="45.92709" lon="4.74233">
        <ele>171</ele>
        <time>2018-05-16T10:00:12Z</time>
      </trkpt>
      <trkpt lat="45.92705" lon="4.74239">
        <ele>171</ele>
        <time>2018-05-16T10:00:13Z</time>
      </trkpt>
      <trkpt lat="45.92701" lon="4.74245">
        <ele>171</ele>
        <time>2018-05-16T10:00:14Z</time>
      </trkpt>
      <trkpt lat="45.92698" lon="4.74251">
        <ele>171</ele>
        <time>2018-05-16T10:00:15Z</time>
      </trkpt>
      <trkpt lat="45.92694" lon="4.74257">
        <ele>171</ele>
        <time>2018-05-16T10:00:16Z</time>
      </trkpt>
      <trkpt lat="45.92691" lon="4.74263">
        <ele>171</ele>
        <time>2018-05-16T10:00:17Z</time>
      </trkpt>
      <trkpt lat="45.92687" lon="4.74268">
        <ele>171</ele>
        <time>2018-05-16T10:00:18Z</time>
      </trkpt>
      <trkpt lat="45.92684" lon="4.74274">
        <ele>171</ele>
        <time>2018-05-16T10:00:19Z</time>
      </trkpt>
      <trkpt lat="45.9268" lon="4.7428">
        <ele>171</ele>
        <time>2018-05-16T10:00:20Z</time>
      </trkpt>
      <trkpt lat="45.92676" lon="4.74285">
        <ele>171</ele>
        <time>2018-05-16T10:00:21Z</time>
      </trkpt>
      <trkpt lat="45.92673" lon="4.74291">
        <ele>171</ele>
        <time>2018-05-16T10:00:22Z</time>
      </trkpt>
      <trkpt lat="45.9267" lon="4.74298">
        <ele>171</ele>
        <time>2018-05-16T10:00:23Z</time>
      </trkpt>
      <trkpt lat="45.92667" lon="4.74305">
        <ele>171</ele>
        <time>2018-05-16T10:00:24Z</time>
      </trkpt>
      <trkpt lat="45.92663" lon="4.74311">
        <ele>171</ele>
        <time>2018-05-16T10:00:25Z</time>
      </trkpt>
      <trkpt lat="45.92661" lon="4.74317">
        <ele>171</ele>
        <time>2018-05-16T10:00:26Z</time>
      </trkpt>
      <trkpt lat="45.92658" lon="4.74323">
        <ele>171</ele>
        <time>2018-05-16T10:00:27Z</time>
      </trkpt>
      <trkpt lat="45.92654" lon="4.74329">
        <ele>171</ele>
        <time>2018-05-16T10:00:28Z</time>
      </trkpt>
      <trkpt lat="45.9265" lon="4.74336">
        <ele>171</ele>
        <time>2018-05-16T10:00:29Z</time>
      </trkpt>
      <trkpt lat="45.92646" lon="4.74342">
        <ele>171</ele>
        <time>2018-05-16T10:00:30Z</time>
      </trkpt>
      <trkpt lat="45.92643" lon="4.74349">
        <ele>171</ele>
        <time>2018-05-16T10:00:31Z</time>
      </trkpt>
      <trkpt lat="45.92639" lon="4.74355">
        <ele>171</ele>
        <time>2018-05-16T10:00:32Z</time>
      </trkpt>
      <trkpt lat="45.92635" lon="4.74362">
        <ele>171</ele>
        <time>2018-05-16T10:00:33Z</time>
      </trkpt>
      <trkpt lat="45.92632" lon="4.74369">
        <ele>171</ele>
        <time>2018-05-16T10:00:34Z</time>
      </trkpt>
      <trkpt lat="45.92628" lon="4.74374">
        <ele>171</ele>
        <time>2018-05-16T10:00:35Z</time>
      </trkpt>
      <trkpt lat="45.92624" lon="4.74381">
        <ele>170</ele>
        <time>2018-05-16T10:00:36Z</time>
      </trkpt>
      <trkpt lat="45.92621" lon="4.74387">
        <ele>170</ele>
        <time>2018-05-16T10:00:37Z</time>
      </trkpt>
      <trkpt lat="45.92618" lon="4.74394">
        <ele>170</ele>
        <time>2018-05-16T10:00:38Z</time>
      </trkpt>
      <trkpt lat="45.92614" lon="4.74402">
        <ele>170</ele>
        <time>2018-05-16T10:00:39Z</time>
      </trkpt>
      <trkpt lat="45.92611" lon="4.74408">
        <ele>170</ele>
        <time>2018-05-16T10:00:40Z</time>
      </trkpt>
      <trkpt lat="45.92608" lon="4.74414">
        <ele>170</ele>
        <time>2018-05-16T10:00:41Z</time>
      </trkpt>
      <trkpt lat="45.92604" lon="4.74421">
        <ele>170</ele>
        <time>2018-05-16T10:00:42Z</time>
      </trkpt>
      <trkpt lat="45.926" lon="4.74428">
        <ele>170</ele>
        <time>2018-05-16T10:00:43Z</time>
      </trkpt>
      <trkpt lat="45.92596" lon="4.74434">
        <ele>170</ele>
        <time>2018-05-16T10:00:44Z</time>
      </trkpt>
      <trkpt lat="45.92594" lon="4.74441">
        <ele>170</ele>
        <time>2018-05-16T10:00:45Z</time>
      </trkpt>
      <trkpt lat="45.9259" lon="4.74448">
        <ele>170</ele>
        <time>2018-05-16T10:00:46Z</time>
      </trkpt>
      <trkpt lat="45.92586" lon="4.74454">
        <ele>170</ele>
        <time>2018-05-16T10:00:47Z</time>
      </trkpt>
      <trkpt lat="45.92583" lon="4.7446">
        <ele>170</ele>
        <time>2018-05-16T10:00:48Z</time>
      </trkpt>
      <trkpt lat="45.92579" lon="4.74467">
        <ele>170</ele>
        <time>2018-05-16T10:00:49Z</time>
      </trkpt>
      <trkpt lat="45.92576" lon="4.74474">
        <ele>170</ele>
        <time>2018-05-16T10:00:50Z</time>
      </trkpt>
      <trkpt lat="45.92572" lon="4.74481">
        <ele>170</ele>
        <time>2018-05-16T10:00:51Z</time>
      </trkpt>
      <trkpt lat="45.92568" lon="4.74488">
        <ele>170</ele>
        <time>2018-05-16T10:00:52Z</time>
      </trkpt>
      <trkpt lat="45.92564" lon="4.74495">
        <ele>170</ele>
        <time>2018-05-16T10:00:53Z</time>
      </trkpt>
      <trkpt lat="45.9256" lon="4.74502">
        <ele>170</ele>
        <time>2018-05-16T10:00:54Z</time>
      </trkpt>
      <trkpt lat="45.92556" lon="4.7451">
        <ele>170</ele>
        <time>2018-05-16T10:00:55Z</time>
      </trkpt>
      <trkpt lat="45.92553" lon="4.74516">
        <ele>170</ele>
        <time>2018-05-16T10:00:56Z</time>
      </trkpt>
      <trkpt lat="45.92549" lon="4.74523">
        <ele>170</ele>
        <time>2018-05-16T10:00:57Z</time>
      </trkpt>
      <trkpt lat="45.92545" lon="4.7453">
        <ele>170</ele>
        <time>2018-05-16T10:00:58Z</time>
      </trkpt>
      <trkpt lat="45.92541" lon="4.74537">
        <ele>171</ele>
        <time>2018-05-16T10:00:59Z</time>
      </trkpt>
      <trkpt lat="45.92537" lon="4.74543">
        <ele>171</ele>
        <time>2018-05-16T10:01:00Z</time>
      </trkpt>
      <trkpt lat="45.92532" lon="4.74549">
        <ele>171</ele>
        <time>2018-05-16T10:01:01Z</time>
      </trkpt>
      <trkpt lat="45.92528" lon="4.74555">
        <ele>171</ele>
        <time>2018-05-16T10:01:02Z</time>
      </trkpt>
      <trkpt lat="45.92524" lon="4.74561">
        <ele>171</ele>
        <time>2018-05-16T10:01:03Z</time>
      </trkpt>
      <trkpt lat="45.92519" lon="4.74567">
        <ele>171</ele>
        <time>2018-05-16T10:01:04Z</time>
      </trkpt>
      <trkpt lat="45.92515" lon="4.74573">
        <ele>171</ele>
        <time>2018-05-16T10:01:05Z</time>
      </trkpt>
      <trkpt lat="45.92511" lon="4.74578">
        <ele>171</ele>
        <time>2018-05-16T10:01:06Z</time>
      </trkpt>
      <trkpt lat="45.92506" lon="4.74584">
        <ele>171</ele>
        <time>2018-05-16T10:01:07Z</time>
      </trkpt>
      <trkpt lat="45.92502" lon="4.74589">
        <ele>171</ele>
        <time>2018-05-16T10:01:08Z</time>
      </trkpt>
      <trkpt lat="45.92498" lon="4.74594">
        <ele>171</ele>
        <time>2018-05-16T10:01:09Z</time>
      </trkpt>
      <trkpt lat="45.92493" lon="4.74599">
        <ele>171</ele>
        <time>2018-05-16T10:01:10Z</time>
      </trkpt>
      <trkpt lat="45.92489" lon="4.74605">
        <ele>171</ele>
        <time>2018-05-16T10:01:11Z</time>
      </trkpt>
      <trkpt lat="45.92484" lon="4.7461">
        <ele>171</ele>
        <time>2018-05-16T10:01:12Z</time>
      </trkpt>
      <trkpt lat="45.9248" lon="4.74616">
        <ele>171</ele>
        <time>2018-05-16T10:01:13Z</time>
      </trkpt>
      <trkpt lat="45.92476" lon="4.74622">
        <ele>171</ele>
        <time>2018-05-16T10:01:14Z</time>
      </trkpt>
      <trkpt lat="45.92472" lon="4.74628">
        <ele>171</ele>
        <time>2018-05-16T10:01:15Z</time>
      </trkpt>
      <trkpt lat="45.92468" lon="4.74634">
        <ele>171</ele>
        <time>2018-05-16T10:01:16Z</time>
      </trkpt>
      <trkpt lat="45.92464" lon="4.7464">
        <ele>171</ele>
        <time>2018-05-16T10:01:17Z</time>
      </trkpt>
      <trkpt lat="45.9246" lon="4.74647">
        <ele>171</ele>
        <time>2018-05-16T10:01:18Z</time>
      </trkpt>
      <trkpt lat="45.92456" lon="4.74654">
        <ele>171</ele>
        <time>2018-05-16T10:01:19Z</time>
      </trkpt>
      <trkpt lat="45.92453" lon="4.7466">
        <ele>171</ele>
        <time>2018-05-16T10:01:20Z</time>
      </trkpt>
      <trkpt lat="45.92451" lon="4.74666">
        <ele>171</ele>
        <time>2018-05-16T10:01:21Z</time>
      </trkpt>
      <trkpt lat="45.92447" lon="4.74676">
        <ele>171</ele>
        <time>2018-05-16T10:01:22Z</time>
      </trkpt>
      <trkpt lat="45.92443" lon="4.74682">
        <ele>171</ele>
        <time>2018-05-16T10:01:23Z</time>
      </trkpt>
      <trkpt lat="45.9244" lon="4.74691">
        <ele>171</ele>
        <time>2018-05-16T10:01:24Z</time>
      </trkpt>
      <trkpt lat="45.92438" lon="4.74696">
        <ele>171</ele>
        <time>2018-05-16T10:01:25Z</time>
      </trkpt>
      <trkpt lat="45.92434" lon="4.74703">
        <ele>171</ele>
        <time>2018-05-16T10:01:26Z</time>
      </trkpt>
      <trkpt lat="45.92431" lon="4.7471">
        <ele>171</ele>
        <time>2018-05-16T10:01:27Z</time>
      </trkpt>
      <trkpt lat="45.92428" lon="4.74717">
        <ele>171</ele>
        <time>2018-05-16T10:01:28Z</time>
      </trkpt>
      <trkpt lat="45.92426" lon="4.74724">
        <ele>171</ele>
        <time>2018-05-16T10:01:29Z</time>
      </trkpt>
      <trkpt lat="45.92423" lon="4.74732">
        <ele>171</ele>
        <time>2018-05-16T10:01:30Z</time>
      </trkpt>
      <trkpt lat="45.9242" lon="4.7474">
        <ele>172</ele>
        <time>2018-05-16T10:01:31Z</time>
      </trkpt>
      <trkpt lat="45.92418" lon="4.74747">
        <ele>172</ele>
        <time>2018-05-16T10:01:32Z</time>
      </trkpt>
      <trkpt lat="45.92415" lon="4.74755">
        <ele>172</ele>
        <time>2018-05-16T10:01:33Z</time>
      </trkpt>
      <trkpt lat="45.92413" lon="4.74762">
        <ele>172</ele>
        <time>2018-05-16T10:01:34Z</time>
      </trkpt>
      <trkpt lat="45.92412" lon="4.74769">
        <ele>172</ele>
        <time>2018-05-16T10:01:35Z</time>
      </trkpt>
      <trkpt lat="45.9241" lon="4.74775">
        <ele>171</ele>
        <time>2018-05-16T10:01:36Z</time>
      </trkpt>
      <trkpt lat="45.92408" lon="4.74783">
        <ele>171</ele>
        <time>2018-05-16T10:01:37Z</time>
      </trkpt>
      <trkpt lat="45.92407" lon="4.7479">
        <ele>171</ele>
        <time>2018-05-16T10:01:38Z</time>
      </trkpt>
      <trkpt lat="45.92406" lon="4.74797">
        <ele>171</ele>
        <time>2018-05-16T10:01:39Z</time>
      </trkpt>
      <trkpt lat="45.92405" lon="4.74803">
        <ele>171</ele>
        <time>2018-05-16T10:01:40Z</time>
      </trkpt>
      <trkpt lat="45.92403" lon="4.74811">
        <ele>171</ele>
        <time>2018-05-16T10:01:41Z</time>
      </trkpt>
      <trkpt lat="45.92401" lon="4.74817">
        <ele>171</ele>
        <time>2018-05-16T10:01:42Z</time>
      </trkpt>
      <trkpt lat="45.924" lon="4.74825">
        <ele>171</ele>
        <time>2018-05-16T10:01:43Z</time>
      </trkpt>
      <trkpt lat="45.92398" lon="4.74832">
        <ele>171</ele>
        <time>2018-05-16T10:01:44Z</time>
      </trkpt>
      <trkpt lat="45.92395" lon="4.7484">
        <ele>171</ele>
        <time>2018-05-16T10:01:45Z</time>
      </trkpt>
      <trkpt lat="45.92393" lon="4.74847">
        <ele>171</ele>
        <time>2018-05-16T10:01:46Z</time>
      </trkpt>
      <trkpt lat="45.9239" lon="4.74855">
        <ele>171</ele>
        <time>2018-05-16T10:01:47Z</time>
      </trkpt>
      <trkpt lat="45.92387" lon="4.74862">
        <ele>171</ele>
        <time>2018-05-16T10:01:48Z</time>
      </trkpt>
      <trkpt lat="45.92385" lon="4.74869">
        <ele>171</ele>
        <time>2018-05-16T10:01:49Z</time>
      </trkpt>
      <trkpt lat="45.92382" lon="4.74876">
        <ele>171</ele>
        <time>2018-05-16T10:01:50Z</time>
      </trkpt>
      <trkpt lat="45.9238" lon="4.74883">
        <ele>171</ele>
        <time>2018-05-16T10:01:51Z</time>
      </trkpt>
      <trkpt lat="45.92377" lon="4.74891">
        <ele>171</ele>
        <time>2018-05-16T10:01:52Z</time>
      </trkpt>
      <trkpt lat="45.92374" lon="4.74898">
        <ele>171</ele>
        <time>2018-05-16T10:01:53Z</time>
      </trkpt>
      <trkpt lat="45.92371" lon="4.74906">
        <ele>171</ele>
        <time>2018-05-16T10:01:54Z</time>
      </trkpt>
      <trkpt lat="45.92369" lon="4.74914">
        <ele>171</ele>
        <time>2018-05-16T10:01:55Z</time>
      </trkpt>
      <trkpt lat="45.92366" lon="4.74922">
        <ele>170</ele>
        <time>2018-05-16T10:01:56Z</time>
      </trkpt>
      <trkpt lat="45.92363" lon="4.74929">
        <ele>170</ele>
        <time>2018-05-16T10:01:57Z</time>
      </trkpt>
      <trkpt lat="45.9236" lon="4.74937">
        <ele>170</ele>
        <time>2018-05-16T10:01:58Z</time>
      </trkpt>
      <trkpt lat="45.92357" lon="4.74945">
        <ele>170</ele>
        <time>2018-05-16T10:01:59Z</time>
      </trkpt>
      <trkpt lat="45.92354" lon="4.74952">
        <ele>170</ele>
        <time>2018-05-16T10:02:00Z</time>
      </trkpt>
      <trkpt lat="45.92351" lon="4.74961">
        <ele>170</ele>
        <time>2018-05-16T10:02:01Z</time>
      </trkpt>
      <trkpt lat="45.92347" lon="4.74967">
        <ele>170</ele>
        <time>2018-05-16T10:02:02Z</time>
      </trkpt>
      <trkpt lat="45.92344" lon="4.74974">
        <ele>170</ele>
        <time>2018-05-16T10:02:03Z</time>
      </trkpt>
      <trkpt lat="45.9234" lon="4.74982">
        <ele>170</ele>
        <time>2018-05-16T10:02:04Z</time>
      </trkpt>
      <trkpt lat="45.92338" lon="4.74989">
        <ele>170</ele>
        <time>2018-05-16T10:02:05Z</time>
      </trkpt>
      <trkpt lat="45.92336" lon="4.74996">
        <ele>170</ele>
        <time>2018-05-16T10:02:06Z</time>
      </trkpt>
      <trkpt lat="45.92332" lon="4.75003">
        <ele>170</ele>
        <time>2018-05-16T10:02:07Z</time>
      </trkpt>
      <trkpt lat="45.9233" lon="4.7501">
        <ele>171</ele>
        <time>2018-05-16T10:02:08Z</time>
      </trkpt>
      <trkpt lat="45.92326" lon="4.75018">
        <ele>171</ele>
        <time>2018-05-16T10:02:09Z</time>
      </trkpt>
      <trkpt lat="45.92322" lon="4.75025">
        <ele>171</ele>
        <time>2018-05-16T10:02:10Z</time>
      </trkpt>
      <trkpt lat="45.92318" lon="4.75033">
        <ele>171</ele>
        <time>2018-05-16T10:02:11Z</time>
      </trkpt>
      <trkpt lat="45.92314" lon="4.7504">
        <ele>172</ele>
        <time>2018-05-16T10:02:12Z</time>
      </trkpt>
      <trkpt lat="45.92311" lon="4.75047">
        <ele>172</ele>
        <time>2018-05-16T10:02:13Z</time>
      </trkpt>
      <trkpt lat="45.92306" lon="4.75053">
        <ele>172</ele>
        <time>2018-05-16T10:02:14Z</time>
      </trkpt>
      <trkpt lat="45.92303" lon="4.75058">
        <ele>172</ele>
        <time>2018-05-16T10:02:15Z</time>
      </trkpt>
      <trkpt lat="45.92299" lon="4.75063">
        <ele>172</ele>
        <time>2018-05-16T10:02:16Z</time>
      </trkpt>
      <trkpt lat="45.92294" lon="4.75068">
        <ele>172</ele>
        <time>2018-05-16T10:02:17Z</time>
      </trkpt>
      <trkpt lat="45.92289" lon="4.75072">
        <ele>172</ele>
        <time>2018-05-16T10:02:18Z</time>
      </trkpt>
      <trkpt lat="45.92285" lon="4.75078">
        <ele>172</ele>
        <time>2018-05-16T10:02:19Z</time>
      </trkpt>
      <trkpt lat="45.9228" lon="4.75082">
        <ele>172</ele>
        <time>2018-05-16T10:02:20Z</time>
      </trkpt>
      <trkpt lat="45.92275" lon="4.75087">
        <ele>173</ele>
        <time>2018-05-16T10:02:21Z</time>
      </trkpt>
      <trkpt lat="45.9227" lon="4.75091">
        <ele>173</ele>
        <time>2018-05-16T10:02:22Z</time>
      </trkpt>
      <trkpt lat="45.92267" lon="4.75097">
        <ele>173</ele>
        <time>2018-05-16T10:02:23Z</time>
      </trkpt>
      <trkpt lat="45.92262" lon="4.75102">
        <ele>173</ele>
        <time>2018-05-16T10:02:24Z</time>
      </trkpt>
      <trkpt lat="45.92259" lon="4.75107">
        <ele>174</ele>
        <time>2018-05-16T10:02:25Z</time>
      </trkpt>
      <trkpt lat="45.92255" lon="4.75112">
        <ele>174</ele>
        <time>2018-05-16T10:02:26Z</time>
      </trkpt>
      <trkpt lat="45.92251" lon="4.75117">
        <ele>174</ele>
        <time>2018-05-16T10:02:27Z</time>
      </trkpt>
      <trkpt lat="45.92247" lon="4.75123">
        <ele>174</ele>
        <time>2018-05-16T10:02:28Z</time>
      </trkpt>
      <trkpt lat="45.92242" lon="4.75128">
        <ele>174</ele>
        <time>2018-05-16T10:02:29Z</time>
      </trkpt>
      <trkpt lat="45.92239" lon="4.75133">
        <ele>174</ele>
        <time>2018-05-16T10:02:30Z</time>
      </trkpt>
      <trkpt lat="45.92236" lon="4.75139">
        <ele>174</ele>
        <time>2018-05-16T10:02:31Z</time>
      </trkpt>
      <trkpt lat="45.92232" lon="4.75146">
        <ele>174</ele>
        <time>2018-05-16T10:02:32Z</time>
      </trkpt>
      <trkpt lat="45.92229" lon="4.75152">
        <ele>174</ele>
        <time>2018-05-16T10:02:33Z</time>
      </trkpt>
      <trkpt lat="45.92226" lon="4.75158">
        <ele>174</ele>
        <time>2018-05-16T10:02:34Z</time>
      </trkpt>
      <trkpt lat="45.92223" lon="4.75165">
        <ele>174</ele>
        <time>2018-05-16T10:02:35Z</time>
      </trkpt>
      <trkpt lat="45.9222" lon="4.75171">
        <ele>175</ele>
        <time>2018-05-16T10:02:36Z</time>
      </trkpt>
      <trkpt lat="45.92218" lon="4.75178">
        <ele>175</ele>
        <time>2018-05-16T10:02:37Z</time>
      </trkpt>
      <trkpt lat="45.92216" lon="4.75185">
        <ele>175</ele>
        <time>2018-05-16T10:02:38Z</time>
      </trkpt>
      <trkpt lat="45.92214" lon="4.75191">
        <ele>175</ele>
        <time>2018-05-16T10:02:39Z</time>
      </trkpt>
      <trkpt lat="45.92212" lon="4.75198">
        <ele>175</ele>
        <time>2018-05-16T10:02:40Z</time>
      </trkpt>
      <trkpt lat="45.92211" lon="4.75205">
        <ele>175</ele>
        <time>2018-05-16T10:02:41Z</time>
      </trkpt>
      <trkpt lat="45.9221" lon="4.75213">
        <ele>175</ele>
        <time>2018-05-16T10:02:42Z</time>
      </trkpt>
      <trkpt lat="45.9221" lon="4.7522">
        <ele>175</ele>
        <time>2018-05-16T10:02:43Z</time>
      </trkpt>
      <trkpt lat="45.92209" lon="4.75227">
        <ele>175</ele>
        <time>2018-05-16T10:02:44Z</time>
      </trkpt>
      <trkpt lat="45.92209" lon="4.75233">
        <ele>175</ele>
        <time>2018-05-16T10:02:45Z</time>
      </trkpt>
      <trkpt lat="45.92209" lon="4.75241">
        <ele>175</ele>
        <time>2018-05-16T10:02:46Z</time>
      </trkpt>
      <trkpt lat="45.92208" lon="4.75247">
        <ele>175</ele>
        <time>2018-05-16T10:02:47Z</time>
      </trkpt>
      <trkpt lat="45.92207" lon="4.7526">
        <ele>176</ele>
        <time>2018-05-16T10:02:49Z</time>
      </trkpt>
      <trkpt lat="45.92206" lon="4.75266">
        <ele>176</ele>
        <time>2018-05-16T10:02:50Z</time>
      </trkpt>
      <trkpt lat="45.92207" lon="4.75273">
        <ele>176</ele>
        <time>2018-05-16T10:02:51Z</time>
      </trkpt>
      <trkpt lat="45.92207" lon="4.75279">
        <ele>176</ele>
        <time>2018-05-16T10:02:52Z</time>
      </trkpt>
      <trkpt lat="45.92207" lon="4.75292">
        <ele>176</ele>
        <time>2018-05-16T10:02:54Z</time>
      </trkpt>
      <trkpt lat="45.92207" lon="4.75299">
        <ele>176</ele>
        <time>2018-05-16T10:02:55Z</time>
      </trkpt>
      <trkpt lat="45.92207" lon="4.75305">
        <ele>176</ele>
        <time>2018-05-16T10:02:56Z</time>
      </trkpt>
      <trkpt lat="45.92206" lon="4.75312">
        <ele>176</ele>
        <time>2018-05-16T10:02:57Z</time>
      </trkpt>
      <trkpt lat="45.92206" lon="4.75325">
        <ele>176</ele>
        <time>2018-05-16T10:02:59Z</time>
      </trkpt>
      <trkpt lat="45.92205" lon="4.75331">
        <ele>176</ele>
        <time>2018-05-16T10:03:00Z</time>
      </trkpt>
      <trkpt lat="45.92202" lon="4.75342">
        <ele>177</ele>
        <time>2018-05-16T10:03:02Z</time>
      </trkpt>
      <trkpt lat="45.922" lon="4.75349">
        <ele>177</ele>
        <time>2018-05-16T10:03:03Z</time>
      </trkpt>
      <trkpt lat="45.92197" lon="4.75357">
        <ele>177</ele>
        <time>2018-05-16T10:03:04Z</time>
      </trkpt>
      <trkpt lat="45.92195" lon="4.75362">
        <ele>177</ele>
        <time>2018-05-16T10:03:05Z</time>
      </trkpt>
      <trkpt lat="45.92192" lon="4.75369">
        <ele>177</ele>
        <time>2018-05-16T10:03:06Z</time>
      </trkpt>
      <trkpt lat="45.92189" lon="4.75375">
        <ele>177</ele>
        <time>2018-05-16T10:03:07Z</time>
      </trkpt>
      <trkpt lat="45.92187" lon="4.75382">
        <ele>177</ele>
        <time>2018-05-16T10:03:08Z</time>
      </trkpt>
      <trkpt lat="45.92184" lon="4.7539">
        <ele>177</ele>
        <time>2018-05-16T10:03:09Z</time>
      </trkpt>
      <trkpt lat="45.92182" lon="4.75398">
        <ele>177</ele>
        <time>2018-05-16T10:03:10Z</time>
      </trkpt>
      <trkpt lat="45.92178" lon="4.75405">
        <ele>177</ele>
        <time>2018-05-16T10:03:11Z</time>
      </trkpt>
      <trkpt lat="45.92174" lon="4.75414">
        <ele>178</ele>
        <time>2018-05-16T10:03:12Z</time>
      </trkpt>
      <trkpt lat="45.92172" lon="4.75423">
        <ele>177</ele>
        <time>2018-05-16T10:03:13Z</time>
      </trkpt>
      <trkpt lat="45.92169" lon="4.75431">
        <ele>177</ele>
        <time>2018-05-16T10:03:14Z</time>
      </trkpt>
      <trkpt lat="45.92166" lon="4.75439">
        <ele>177</ele>
        <time>2018-05-16T10:03:15Z</time>
      </trkpt>
      <trkpt lat="45.92164" lon="4.75447">
        <ele>177</ele>
        <time>2018-05-16T10:03:16Z</time>
      </trkpt>
      <trkpt lat="45.9216" lon="4.75455">
        <ele>176</ele>
        <time>2018-05-16T10:03:17Z</time>
      </trkpt>
      <trkpt lat="45.92158" lon="4.75463">
        <ele>176</ele>
        <time>2018-05-16T10:03:18Z</time>
      </trkpt>
      <trkpt lat="45.92155" lon="4.75472">
        <ele>176</ele>
        <time>2018-05-16T10:03:19Z</time>
      </trkpt>
      <trkpt lat="45.92151" lon="4.7548">
        <ele>176</ele>
        <time>2018-05-16T10:03:20Z</time>
      </trkpt>
      <trkpt lat="45.92149" lon="4.75488">
        <ele>176</ele>
        <time>2018-05-16T10:03:21Z</time>
      </trkpt>
      <trkpt lat="45.92145" lon="4.75495">
        <ele>175</ele>
        <time>2018-05-16T10:03:22Z</time>
      </trkpt>
      <trkpt lat="45.92141" lon="4.75501">
        <ele>174</ele>
        <time>2018-05-16T10:03:23Z</time>
      </trkpt>
      <trkpt lat="45.92137" lon="4.75508">
        <ele>174</ele>
        <time>2018-05-16T10:03:24Z</time>
      </trkpt>
      <trkpt lat="45.92133" lon="4.75516">
        <ele>174</ele>
        <time>2018-05-16T10:03:25Z</time>
      </trkpt>
      <trkpt lat="45.92129" lon="4.75523">
        <ele>174</ele>
        <time>2018-05-16T10:03:26Z</time>
      </trkpt>
      <trkpt lat="45.92124" lon="4.75529">
        <ele>174</ele>
        <time>2018-05-16T10:03:27Z</time>
      </trkpt>
      <trkpt lat="45.92122" lon="4.75538">
        <ele>174</ele>
        <time>2018-05-16T10:03:28Z</time>
      </trkpt>
      <trkpt lat="45.92119" lon="4.75545">
        <ele>174</ele>
        <time>2018-05-16T10:03:29Z</time>
      </trkpt>
      <trkpt lat="45.92115" lon="4.75552">
        <ele>174</ele>
        <time>2018-05-16T10:03:30Z</time>
      </trkpt>
      <trkpt lat="45.92112" lon="4.75559">
        <ele>174</ele>
        <time>2018-05-16T10:03:31Z</time>
      </trkpt>
      <trkpt lat="45.9211" lon="4.75567">
        <ele>174</ele>
        <time>2018-05-16T10:03:32Z</time>
      </trkpt>
      <trkpt lat="45.9211" lon="4.75575">
        <ele>174</ele>
        <time>2018-05-16T10:03:33Z</time>
      </trkpt>
      <trkpt lat="45.92111" lon="4.75582">
        <ele>174</ele>
        <time>2018-05-16T10:03:34Z</time>
      </trkpt>
      <trkpt lat="45.92114" lon="4.75589">
        <ele>174</ele>
        <time>2018-05-16T10:03:35Z</time>
      </trkpt>
      <trkpt lat="45.92121" lon="4.75595">
        <ele>174</ele>
        <time>2018-05-16T10:03:36Z</time>
      </trkpt>
      <trkpt lat="45.92126" lon="4.75599">
        <ele>174</ele>
        <time>2018-05-16T10:03:37Z</time>
      </trkpt>
      <trkpt lat="45.92129" lon="4.75604">
        <ele>174</ele>
        <time>2018-05-16T10:03:38Z</time>
      </trkpt>
      <trkpt lat="45.92132" lon="4.75608">
        <ele>174</ele>
        <time>2018-05-16T10:03:39Z</time>
      </trkpt>
      <trkpt lat="45.92137" lon="4.75611">
        <ele>174</ele>
        <time>2018-05-16T10:03:40Z</time>
      </trkpt>
      <trkpt lat="45.92142" lon="4.75617">
        <ele>174</ele>
        <time>2018-05-16T10:03:41Z</time>
      </trkpt>
      <trkpt lat="45.92146" lon="4.75621">
        <ele>174</ele>
        <time>2018-05-16T10:03:42Z</time>
      </trkpt>
      <trkpt lat="45.92151" lon="4.75627">
        <ele>174</ele>
        <time>2018-05-16T10:03:43Z</time>
      </trkpt>
      <trkpt lat="45.92156" lon="4.75632">
        <ele>174</ele>
        <time>2018-05-16T10:03:44Z</time>
      </trkpt>
      <trkpt lat="45.92161" lon="4.75637">
        <ele>174</ele>
        <time>2018-05-16T10:03:45Z</time>
      </trkpt>
      <trkpt lat="45.92165" lon="4.75642">
        <ele>174</ele>
        <time>2018-05-16T10:03:46Z</time>
      </trkpt>
      <trkpt lat="45.92171" lon="4.7565">
        <ele>174</ele>
        <time>2018-05-16T10:03:47Z</time>
      </trkpt>
      <trkpt lat="45.92175" lon="4.75655">
        <ele>174</ele>
        <time>2018-05-16T10:03:48Z</time>
      </trkpt>
      <trkpt lat="45.92179" lon="4.7566">
        <ele>174</ele>
        <time>2018-05-16T10:03:49Z</time>
      </trkpt>
      <trkpt lat="45.92184" lon="4.75664">
        <ele>174</ele>
        <time>2018-05-16T10:03:50Z</time>
      </trkpt>
      <trkpt lat="45.92188" lon="4.75669">
        <ele>174</ele>
        <time>2018-05-16T10:03:51Z</time>
      </trkpt>
      <trkpt lat="45.92193" lon="4.75673">
        <ele>174</ele>
        <time>2018-05-16T10:03:52Z</time>
      </trkpt>
      <trkpt lat="45.92197" lon="4.75675">
        <ele>174</ele>
        <time>2018-05-16T10:03:53Z</time>
      </trkpt>
      <trkpt lat="45.92202" lon="4.75679">
        <ele>174</ele>
        <time>2018-05-16T10:03:54Z</time>
      </trkpt>
      <trkpt lat="45.92207" lon="4.75683">
        <ele>174</ele>
        <time>2018-05-16T10:03:55Z</time>
      </trkpt>
      <trkpt lat="45.92211" lon="4.75688">
        <ele>174</ele>
        <time>2018-05-16T10:03:56Z</time>
      </trkpt>
      <trkpt lat="45.92214" lon="4.75693">
        <ele>174</ele>
        <time>2018-05-16T10:03:57Z</time>
      </trkpt>
      <trkpt lat="45.92219" lon="4.75697">
        <ele>174</ele>
        <time>2018-05-16T10:03:58Z</time>
      </trkpt>
      <trkpt lat="45.92224" lon="4.75703">
        <ele>174</ele>
        <time>2018-05-16T10:03:59Z</time>
      </trkpt>
      <trkpt lat="45.92229" lon="4.75708">
        <ele>174</ele>
        <time>2018-05-16T10:04:00Z</time>
      </trkpt>
      <trkpt lat="45.92233" lon="4.75714">
        <ele>174</ele>
        <time>2018-05-16T10:04:01Z</time>
      </trkpt>
      <trkpt lat="45.92236" lon="4.7572">
        <ele>174</ele>
        <time>2018-05-16T10:04:02Z</time>
      </trkpt>
      <trkpt lat="45.92239" lon="4.75726">
        <ele>174</ele>
        <time>2018-05-16T10:04:03Z</time>
      </trkpt>
      <trkpt lat="45.92242" lon="4.75731">
        <ele>174</ele>
        <time>2018-05-16T10:04:04Z</time>
      </trkpt>
      <trkpt lat="45.92244" lon="4.75738">
        <ele>174</ele>
        <time>2018-05-16T10:04:05Z</time>
      </trkpt>
      <trkpt lat="45.92246" lon="4.75745">
        <ele>174</ele>
        <time>2018-05-16T10:04:06Z</time>
      </trkpt>
      <trkpt lat="45.92247" lon="4.75752">
        <ele>174</ele>
        <time>2018-05-16T10:04:07Z</time>
      </trkpt>
      <trkpt lat="45.9225" lon="4.75764">
        <ele>174</ele>
        <time>2018-05-16T10:04:09Z</time>
      </trkpt>
      <trkpt lat="45.92252" lon="4.75771">
        <ele>174</ele>
        <time>2018-05-16T10:04:10Z</time>
      </trkpt>
      <trkpt lat="45.92254" lon="4.75783">
        <ele>174</ele>
        <time>2018-05-16T10:04:12Z</time>
      </trkpt>
      <trkpt lat="45.92254" lon="4.7579">
        <ele>174</ele>
        <time>2018-05-16T10:04:13Z</time>
      </trkpt>
      <trkpt lat="45.92256" lon="4.75797">
        <ele>174</ele>
        <time>2018-05-16T10:04:14Z</time>
      </trkpt>
      <trkpt lat="45.92257" lon="4.75804">
        <ele>174</ele>
        <time>2018-05-16T10:04:15Z</time>
      </trkpt>
      <trkpt lat="45.9226" lon="4.7581">
        <ele>174</ele>
        <time>2018-05-16T10:04:16Z</time>
      </trkpt>
      <trkpt lat="45.92262" lon="4.75815">
        <ele>174</ele>
        <time>2018-05-16T10:04:17Z</time>
      </trkpt>
      <trkpt lat="45.92266" lon="4.75821">
        <ele>174</ele>
        <time>2018-05-16T10:04:18Z</time>
      </trkpt>
      <trkpt lat="45.9227" lon="4.75826">
        <ele>174</ele>
        <time>2018-05-16T10:04:19Z</time>
      </trkpt>
      <trkpt lat="45.92274" lon="4.75831">
        <ele>174</ele>
        <time>2018-05-16T10:04:20Z</time>
      </trkpt>
      <trkpt lat="45.92279" lon="4.75835">
        <ele>173</ele>
        <time>2018-05-16T10:04:21Z</time>
      </trkpt>
      <trkpt lat="45.92285" lon="4.75839">
        <ele>173</ele>
        <time>2018-05-16T10:04:22Z</time>
      </trkpt>
      <trkpt lat="45.9229" lon="4.75843">
        <ele>173</ele>
        <time>2018-05-16T10:04:23Z</time>
      </trkpt>
      <trkpt lat="45.92296" lon="4.75846">
        <ele>173</ele>
        <time>2018-05-16T10:04:24Z</time>
      </trkpt>
      <trkpt lat="45.92301" lon="4.75849">
        <ele>173</ele>
        <time>2018-05-16T10:04:25Z</time>
      </trkpt>
      <trkpt lat="45.92307" lon="4.75853">
        <ele>173</ele>
        <time>2018-05-16T10:04:26Z</time>
      </trkpt>
      <trkpt lat="45.92312" lon="4.75855">
        <ele>173</ele>
        <time>2018-05-16T10:04:27Z</time>
      </trkpt>
      <trkpt lat="45.92317" lon="4.75859">
        <ele>173</ele>
        <time>2018-05-16T10:04:28Z</time>
      </trkpt>
      <trkpt lat="45.92323" lon="4.75863">
        <ele>173</ele>
        <time>2018-05-16T10:04:29Z</time>
      </trkpt>
      <trkpt lat="45.92328" lon="4.75866">
        <ele>173</ele>
        <time>2018-05-16T10:04:30Z</time>
      </trkpt>
      <trkpt lat="45.92335" lon="4.7587">
        <ele>173</ele>
        <time>2018-05-16T10:04:31Z</time>
      </trkpt>
      <trkpt lat="45.9234" lon="4.75873">
        <ele>173</ele>
        <time>2018-05-16T10:04:32Z</time>
      </trkpt>
      <trkpt lat="45.92346" lon="4.75876">
        <ele>173</ele>
        <time>2018-05-16T10:04:33Z</time>
      </trkpt>
      <trkpt lat="45.92351" lon="4.75879">
        <ele>173</ele>
        <time>2018-05-16T10:04:34Z</time>
      </trkpt>
      <trkpt lat="45.92357" lon="4.75883">
        <ele>173</ele>
        <time>2018-05-16T10:04:35Z</time>
      </trkpt>
      <trkpt lat="45.92362" lon="4.75887">
        <ele>173</ele>
        <time>2018-05-16T10:04:36Z</time>
      </trkpt>
      <trkpt lat="45.92367" lon="4.75889">
        <ele>173</ele>
        <time>2018-05-16T10:04:37Z</time>
      </trkpt>
      <trkpt lat="45.92372" lon="4.75893">
        <ele>173</ele>
        <time>2018-05-16T10:04:38Z</time>
      </trkpt>
      <trkpt lat="45.92377" lon="4.75897">
        <ele>173</ele>
        <time>2018-05-16T10:04:39Z</time>
      </trkpt>
      <trkpt lat="45.92382" lon="4.759">
        <ele>173</ele>
        <time>2018-05-16T10:04:40Z</time>
      </trkpt>
      <trkpt lat="45.92387" lon="4.75903">
        <ele>173</ele>
        <time>2018-05-16T10:04:41Z</time>
      </trkpt>
      <trkpt lat="45.92393" lon="4.75906">
        <ele>173</ele>
        <time>2018-05-16T10:04:42Z</time>
      </trkpt>
      <trkpt lat="45.92398" lon="4.7591">
        <ele>173</ele>
        <time>2018-05-16T10:04:43Z</time>
      </trkpt>
      <trkpt lat="45.92402" lon="4.75913">
        <ele>172</ele>
        <time>2018-05-16T10:04:44Z</time>
      </trkpt>
      <trkpt lat="45.92407" lon="4.75917">
        <ele>172</ele>
        <time>2018-05-16T10:04:45Z</time>
      </trkpt>
      <trkpt lat="45.92411" lon="4.75921">
        <ele>172</ele>
        <time>2018-05-16T10:04:46Z</time>
      </trkpt>
      <trkpt lat="45.92415" lon="4.75924">
        <ele>172</ele>
        <time>2018-05-16T10:04:47Z</time>
      </trkpt>
      <trkpt lat="45.9242" lon="4.75928">
        <ele>172</ele>
        <time>2018-05-16T10:04:48Z</time>
      </trkpt>
      <trkpt lat="45.92425" lon="4.75931">
        <ele>172</ele>
        <time>2018-05-16T10:04:49Z</time>
      </trkpt>
      <trkpt lat="45.92429" lon="4.75935">
        <ele>172</ele>
        <time>2018-05-16T10:04:50Z</time>
      </trkpt>
      <trkpt lat="45.92433" lon="4.75938">
        <ele>172</ele>
        <time>2018-05-16T10:04:51Z</time>
      </trkpt>
      <trkpt lat="45.9244" lon="4.75945">
        <ele>172</ele>
        <time>2018-05-16T10:04:53Z</time>
      </trkpt>
      <trkpt lat="45.92444" lon="4.75949">
        <ele>172</ele>
        <time>2018-05-16T10:04:54Z</time>
      </trkpt>
      <trkpt lat="45.92451" lon="4.75954">
        <ele>172</ele>
        <time>2018-05-16T10:04:56Z</time>
      </trkpt>
      <trkpt lat="45.92455" lon="4.75957">
        <ele>172</ele>
        <time>2018-05-16T10:04:57Z</time>
      </trkpt>
      <trkpt lat="45.92462" lon="4.75963">
        <ele>172</ele>
        <time>2018-05-16T10:04:59Z</time>
      </trkpt>
      <trkpt lat="45.92466" lon="4.75966">
        <ele>172</ele>
        <time>2018-05-16T10:05:00Z</time>
      </trkpt>
      <trkpt lat="45.92474" lon="4.75972">
        <ele>172</ele>
        <time>2018-05-16T10:05:02Z</time>
      </trkpt>
      <trkpt lat="45.92477" lon="4.75974">
        <ele>172</ele>
        <time>2018-05-16T10:05:03Z</time>
      </trkpt>
      <trkpt lat="45.92484" lon="4.7598">
        <ele>172</ele>
        <time>2018-05-16T10:05:05Z</time>
      </trkpt>
      <trkpt lat="45.92488" lon="4.75983">
        <ele>172</ele>
        <time>2018-05-16T10:05:06Z</time>
      </trkpt>
      <trkpt lat="45.92495" lon="4.75989">
        <ele>172</ele>
        <time>2018-05-16T10:05:08Z</time>
      </trkpt>
      <trkpt lat="45.92499" lon="4.75991">
        <ele>172</ele>
        <time>2018-05-16T10:05:09Z</time>
      </trkpt>
      <trkpt lat="45.92505" lon="4.75996">
        <ele>172</ele>
        <time>2018-05-16T10:05:11Z</time>
      </trkpt>
      <trkpt lat="45.92508" lon="4.75999">
        <ele>172</ele>
        <time>2018-05-16T10:05:12Z</time>
      </trkpt>
      <trkpt lat="45.92512" lon="4.76002">
        <ele>172</ele>
        <time>2018-05-16T10:05:14Z</time>
      </trkpt>
      <trkpt lat="45.92517" lon="4.76006">
        <ele>172</ele>
        <time>2018-05-16T10:05:15Z</time>
      </trkpt>
      <trkpt lat="45.92525" lon="4.7601">
        <ele>172</ele>
        <time>2018-05-16T10:05:17Z</time>
      </trkpt>
      <trkpt lat="45.92528" lon="4.76013">
        <ele>172</ele>
        <time>2018-05-16T10:05:18Z</time>
      </trkpt>
      <trkpt lat="45.92532" lon="4.76016">
        <ele>172</ele>
        <time>2018-05-16T10:05:19Z</time>
      </trkpt>
      <trkpt lat="45.92536" lon="4.76019">
        <ele>172</ele>
        <time>2018-05-16T10:05:20Z</time>
      </trkpt>
      <trkpt lat="45.9254" lon="4.76022">
        <ele>172</ele>
        <time>2018-05-16T10:05:21Z</time>
      </trkpt>
      <trkpt lat="45.92545" lon="4.76026">
        <ele>172</ele>
        <time>2018-05-16T10:05:22Z</time>
      </trkpt>
      <trkpt lat="45.9255" lon="4.7603">
        <ele>172</ele>
        <time>2018-05-16T10:05:23Z</time>
      </trkpt>
      <trkpt lat="45.92554" lon="4.76033">
        <ele>172</ele>
        <time>2018-05-16T10:05:24Z</time>
      </trkpt>
      <trkpt lat="45.92559" lon="4.76036">
        <ele>172</ele>
        <time>2018-05-16T10:05:25Z</time>
      </trkpt>
      <trkpt lat="45.92564" lon="4.7604">
        <ele>172</ele>
        <time>2018-05-16T10:05:26Z</time>
      </trkpt>
      <trkpt lat="45.92569" lon="4.76044">
        <ele>171</ele>
        <time>2018-05-16T10:05:27Z</time>
      </trkpt>
      <trkpt lat="45.92574" lon="4.76047">
        <ele>171</ele>
        <time>2018-05-16T10:05:28Z</time>
      </trkpt>
      <trkpt lat="45.9258" lon="4.7605">
        <ele>171</ele>
        <time>2018-05-16T10:05:29Z</time>
      </trkpt>
      <trkpt lat="45.92585" lon="4.76054">
        <ele>171</ele>
        <time>2018-05-16T10:05:30Z</time>
      </trkpt>
      <trkpt lat="45.9259" lon="4.76058">
        <ele>171</ele>
        <time>2018-05-16T10:05:31Z</time>
      </trkpt>
      <trkpt lat="45.92595" lon="4.76061">
        <ele>171</ele>
        <time>2018-05-16T10:05:32Z</time>
      </trkpt>
      <trkpt lat="45.92602" lon="4.76066">
        <ele>171</ele>
        <time>2018-05-16T10:05:33Z</time>
      </trkpt>
      <trkpt lat="45.92607" lon="4.7607">
        <ele>171</ele>
        <time>2018-05-16T10:05:34Z</time>
      </trkpt>
      <trkpt lat="45.92611" lon="4.76074">
        <ele>171</ele>
        <time>2018-05-16T10:05:35Z</time>
      </trkpt>
      <trkpt lat="45.92616" lon="4.76078">
        <ele>171</ele>
        <time>2018-05-16T10:05:36Z</time>
      </trkpt>
      <trkpt lat="45.92621" lon="4.76081">
        <ele>171</ele>
        <time>2018-05-16T10:05:37Z</time>
      </trkpt>
      <trkpt lat="45.92627" lon="4.76084">
        <ele>170</ele>
        <time>2018-05-16T10:05:38Z</time>
      </trkpt>
      <trkpt lat="45.92634" lon="4.76089">
        <ele>170</ele>
        <time>2018-05-16T10:05:39Z</time>
      </trkpt>
      <trkpt lat="45.92639" lon="4.76093">
        <ele>170</ele>
        <time>2018-05-16T10:05:40Z</time>
      </trkpt>
      <trkpt lat="45.92645" lon="4.76098">
        <ele>170</ele>
        <time>2018-05-16T10:05:41Z</time>
      </trkpt>
      <trkpt lat="45.92651" lon="4.76102">
        <ele>170</ele>
        <time>2018-05-16T10:05:42Z</time>
      </trkpt>
      <trkpt lat="45.92658" lon="4.76107">
        <ele>170</ele>
        <time>2018-05-16T10:05:43Z</time>
      </trkpt>
      <trkpt lat="45.92665" lon="4.76111">
        <ele>170</ele>
        <time>2018-05-16T10:05:44Z</time>
      </trkpt>
      <trkpt lat="45.92672" lon="4.76116">
        <ele>169</ele>
        <time>2018-05-16T10:05:45Z</time>
      </trkpt>
      <trkpt lat="45.92679" lon="4.76119">
        <ele>169</ele>
        <time>2018-05-16T10:05:46Z</time>
      </trkpt>
      <trkpt lat="45.92687" lon="4.76124">
        <ele>169</ele>
        <time>2018-05-16T10:05:47Z</time>
      </trkpt>
      <trkpt lat="45.92693" lon="4.76128">
        <ele>169</ele>
        <time>2018-05-16T10:05:48Z</time>
      </trkpt>
      <trkpt lat="45.927" lon="4.76132">
        <ele>169</ele>
        <time>2018-05-16T10:05:49Z</time>
      </trkpt>
      <trkpt lat="45.92707" lon="4.76137">
        <ele>169</ele>
        <time>2018-05-16T10:05:50Z</time>
      </trkpt>
      <trkpt lat="45.92715" lon="4.76142">
        <ele>168</ele>
        <time>2018-05-16T10:05:51Z</time>
      </trkpt>
      <trkpt lat="45.92721" lon="4.76146">
        <ele>168</ele>
        <time>2018-05-16T10:05:52Z</time>
      </trkpt>
      <trkpt lat="45.92728" lon="4.76151">
        <ele>168</ele>
        <time>2018-05-16T10:05:53Z</time>
      </trkpt>
      <trkpt lat="45.92735" lon="4.76158">
        <ele>168</ele>
        <time>2018-05-16T10:05:54Z</time>
      </trkpt>
      <trkpt lat="45.92743" lon="4.76164">
        <ele>167</ele>
        <time>2018-05-16T10:05:55Z</time>
      </trkpt>
      <trkpt lat="45.92749" lon="4.76169">
        <ele>167</ele>
        <time>2018-05-16T10:05:56Z</time>
      </trkpt>
      <trkpt lat="45.92756" lon="4.76174">
        <ele>167</ele>
        <time>2018-05-16T10:05:57Z</time>
      </trkpt>
      <trkpt lat="45.92762" lon="4.76179">
        <ele>167</ele>
        <time>2018-05-16T10:05:58Z</time>
      </trkpt>
      <trkpt lat="45.92767" lon="4.76184">
        <ele>167</ele>
        <time>2018-05-16T10:05:59Z</time>
      </trkpt>
      <trkpt lat="45.92774" lon="4.76189">
        <ele>168</ele>
        <time>2018-05-16T10:06:00Z</time>
      </trkpt>
      <trkpt lat="45.92779" lon="4.76193">
        <ele>168</ele>
        <time>2018-05-16T10:06:01Z</time>
      </trkpt>
      <trkpt lat="45.92783" lon="4.76199">
        <ele>168</ele>
        <time>2018-05-16T10:06:02Z</time>
      </trkpt>
      <trkpt lat="45.92789" lon="4.76202">
        <ele>168</ele>
        <time>2018-05-16T10:06:03Z</time>
      </trkpt>
      <trkpt lat="45.92793" lon="4.76207">
        <ele>168</ele>
        <time>2018-05-16T10:06:04Z</time>
      </trkpt>
      <trkpt lat="45.92798" lon="4.76211">
        <ele>168</ele>
        <time>2018-05-16T10:06:05Z</time>
      </trkpt>
      <trkpt lat="45.92802" lon="4.76216">
        <ele>168</ele>
        <time>2018-05-16T10:06:06Z</time>
      </trkpt>
      <trkpt lat="45.92807" lon="4.7622">
        <ele>168</ele>
        <time>2018-05-16T10:06:07Z</time>
      </trkpt>
      <trkpt lat="45.92813" lon="4.76225">
        <ele>168</ele>
        <time>2018-05-16T10:06:08Z</time>
      </trkpt>
      <trkpt lat="45.92819" lon="4.76231">
        <ele>168</ele>
        <time>2018-05-16T10:06:09Z</time>
      </trkpt>
      <trkpt lat="45.92824" lon="4.76236">
        <ele>168</ele>
        <time>2018-05-16T10:06:10Z</time>
      </trkpt>
      <trkpt lat="45.92827" lon="4.7624">
        <ele>168</ele>
        <time>2018-05-16T10:06:11Z</time>
      </trkpt>
      <trkpt lat="45.92832" lon="4.76242">
        <ele>169</ele>
        <time>2018-05-16T10:06:12Z</time>
      </trkpt>
      <trkpt lat="45.92837" lon="4.76246">
        <ele>169</ele>
        <time>2018-05-16T10:06:13Z</time>
      </trkpt>
      <trkpt lat="45.92842" lon="4.76251">
        <ele>169</ele>
        <time>2018-05-16T10:06:14Z</time>
      </trkpt>
      <trkpt lat="45.92844" lon="4.76256">
        <ele>169</ele>
        <time>2018-05-16T10:06:15Z</time>
      </trkpt>
      <trkpt lat="45.92848" lon="4.7626">
        <ele>169</ele>
        <time>2018-05-16T10:06:16Z</time>
      </trkpt>
      <trkpt lat="45.92856" lon="4.76267">
        <ele>169</ele>
        <time>2018-05-16T10:06:18Z</time>
      </trkpt>
      <trkpt lat="45.9286" lon="4.76271">
        <ele>169</ele>
        <time>2018-05-16T10:06:19Z</time>
      </trkpt>
      <trkpt lat="45.92864" lon="4.76276">
        <ele>169</ele>
        <time>2018-05-16T10:06:20Z</time>
      </trkpt>
      <trkpt lat="45.92869" lon="4.76281">
        <ele>169</ele>
        <time>2018-05-16T10:06:21Z</time>
      </trkpt>
      <trkpt lat="45.92876" lon="4.76286">
        <ele>169</ele>
        <time>2018-05-16T10:06:22Z</time>
      </trkpt>
      <trkpt lat="45.92881" lon="4.7629">
        <ele>169</ele>
        <time>2018-05-16T10:06:23Z</time>
      </trkpt>
      <trkpt lat="45.92885" lon="4.76295">
        <ele>169</ele>
        <time>2018-05-16T10:06:24Z</time>
      </trkpt>
      <trkpt lat="45.92889" lon="4.763">
        <ele>169</ele>
        <time>2018-05-16T10:06:25Z</time>
      </trkpt>
      <trkpt lat="45.92895" lon="4.76305">
        <ele>169</ele>
        <time>2018-05-16T10:06:26Z</time>
      </trkpt>
      <trkpt lat="45.92899" lon="4.7631">
        <ele>169</ele>
        <time>2018-05-16T10:06:27Z</time>
      </trkpt>
      <trkpt lat="45.92902" lon="4.76312">
        <ele>169</ele>
        <time>2018-05-16T10:06:28Z</time>
      </trkpt>
      <trkpt lat="45.92908" lon="4.76318">
        <ele>169</ele>
        <time>2018-05-16T10:06:29Z</time>
      </trkpt>
      <trkpt lat="45.92912" lon="4.76322">
        <ele>169</ele>
        <time>2018-05-16T10:06:30Z</time>
      </trkpt>
      <trkpt lat="45.92916" lon="4.76325">
        <ele>169</ele>
        <time>2018-05-16T10:06:31Z</time>
      </trkpt>
      <trkpt lat="45.9292" lon="4.76329">
        <ele>169</ele>
        <time>2018-05-16T10:06:32Z</time>
      </trkpt>
      <trkpt lat="45.92925" lon="4.76334">
        <ele>169</ele>
        <time>2018-05-16T10:06:33Z</time>
      </trkpt>
      <trkpt lat="45.92929" lon="4.76339">
        <ele>169</ele>
        <time>2018-05-16T10:06:34Z</time>
      </trkpt>
      <trkpt lat="45.92935" lon="4.76343">
        <ele>169</ele>
        <time>2018-05-16T10:06:35Z</time>
      </trkpt>
      <trkpt lat="45.9294" lon="4.76348">
        <ele>169</ele>
        <time>2018-05-16T10:06:36Z</time>
      </trkpt>
      <trkpt lat="45.92945" lon="4.76352">
        <ele>169</ele>
        <time>2018-05-16T10:06:37Z</time>
      </trkpt>
      <trkpt lat="45.92948" lon="4.76355">
        <ele>169</ele>
        <time>2018-05-16T10:06:38Z</time>
      </trkpt>
      <trkpt lat="45.92953" lon="4.7636">
        <ele>169</ele>
        <time>2018-05-16T10:06:39Z</time>
      </trkpt>
      <trkpt lat="45.92957" lon="4.76362">
        <ele>169</ele>
        <time>2018-05-16T10:06:40Z</time>
      </trkpt>
      <trkpt lat="45.92962" lon="4.76366">
        <ele>169</ele>
        <time>2018-05-16T10:06:41Z</time>
      </trkpt>
      <trkpt lat="45.92967" lon="4.76372">
        <ele>169</ele>
        <time>2018-05-16T10:06:42Z</time>
      </trkpt>
      <trkpt lat="45.92972" lon="4.76376">
        <ele>169</ele>
        <time>2018-05-16T10:06:43Z</time>
      </trkpt>
      <trkpt lat="45.92977" lon="4.76381">
        <ele>169</ele>
        <time>2018-05-16T10:06:44Z</time>
      </trkpt>
      <trkpt lat="45.9298" lon="4.76384">
        <ele>169</ele>
        <time>2018-05-16T10:06:45Z</time>
      </trkpt>
      <trkpt lat="45.92986" lon="4.76389">
        <ele>169</ele>
        <time>2018-05-16T10:06:46Z</time>
      </trkpt>
      <trkpt lat="45.92991" lon="4.76393">
        <ele>169</ele>
        <time>2018-05-16T10:06:47Z</time>
      </trkpt>
      <trkpt lat="45.92994" lon="4.76398">
        <ele>169</ele>
        <time>2018-05-16T10:06:48Z</time>
      </trkpt>
      <trkpt lat="45.92998" lon="4.76403">
        <ele>169</ele>
        <time>2018-05-16T10:06:49Z</time>
      </trkpt>
      <trkpt lat="45.93002" lon="4.76403">
        <ele>169</ele>
        <time>2018-05-16T10:06:50Z</time>
      </trkpt>
      <trkpt lat="45.93007" lon="4.76408">
        <ele>169</ele>
        <time>2018-05-16T10:06:51Z</time>
      </trkpt>
      <trkpt lat="45.93012" lon="4.76412">
        <ele>169</ele>
        <time>2018-05-16T10:06:52Z</time>
      </trkpt>
      <trkpt lat="45.93022" lon="4.76418">
        <ele>169</ele>
        <time>2018-05-16T10:06:53Z</time>
      </trkpt>
      <trkpt lat="45.93025" lon="4.76423">
        <ele>169</ele>
        <time>2018-05-16T10:06:54Z</time>
      </trkpt>
      <trkpt lat="45.93029" lon="4.76429">
        <ele>169</ele>
        <time>2018-05-16T10:06:55Z</time>
      </trkpt>
      <trkpt lat="45.93033" lon="4.76433">
        <ele>169</ele>
        <time>2018-05-16T10:06:56Z</time>
      </trkpt>
      <trkpt lat="45.93037" lon="4.76437">
        <ele>169</ele>
        <time>2018-05-16T10:06:57Z</time>
      </trkpt>
      <trkpt lat="45.93042" lon="4.76442">
        <ele>169</ele>
        <time>2018-05-16T10:06:58Z</time>
      </trkpt>
      <trkpt lat="45.93047" lon="4.76447">
        <ele>169</ele>
        <time>2018-05-16T10:06:59Z</time>
      </trkpt>
      <trkpt lat="45.9305" lon="4.76452">
        <ele>169</ele>
        <time>2018-05-16T10:07:00Z</time>
      </trkpt>
      <trkpt lat="45.93055" lon="4.76457">
        <ele>169</ele>
        <time>2018-05-16T10:07:01Z</time>
      </trkpt>
      <trkpt lat="45.93059" lon="4.76462">
        <ele>169</ele>
        <time>2018-05-16T10:07:02Z</time>
      </trkpt>
      <trkpt lat="45.93062" lon="4.76466">
        <ele>169</ele>
        <time>2018-05-16T10:07:03Z</time>
      </trkpt>
      <trkpt lat="45.93066" lon="4.7647">
        <ele>169</ele>
        <time>2018-05-16T10:07:04Z</time>
      </trkpt>
      <trkpt lat="45.93073" lon="4.76474">
        <ele>169</ele>
        <time>2018-05-16T10:07:05Z</time>
      </trkpt>
      <trkpt lat="45.93077" lon="4.76479">
        <ele>169</ele>
        <time>2018-05-16T10:07:06Z</time>
      </trkpt>
      <trkpt lat="45.93081" lon="4.76483">
        <ele>169</ele>
        <time>2018-05-16T10:07:07Z</time>
      </trkpt>
      <trkpt lat="45.93086" lon="4.76487">
        <ele>170</ele>
        <time>2018-05-16T10:07:08Z</time>
      </trkpt>
      <trkpt lat="45.93091" lon="4.76491">
        <ele>170</ele>
        <time>2018-05-16T10:07:09Z</time>
      </trkpt>
      <trkpt lat="45.93095" lon="4.76495">
        <ele>170</ele>
        <time>2018-05-16T10:07:10Z</time>
      </trkpt>
      <trkpt lat="45.93101" lon="4.76499">
        <ele>170</ele>
        <time>2018-05-16T10:07:11Z</time>
      </trkpt>
      <trkpt lat="45.93104" lon="4.76506">
        <ele>170</ele>
        <time>2018-05-16T10:07:12Z</time>
      </trkpt>
      <trkpt lat="45.93107" lon="4.76512">
        <ele>170</ele>
        <time>2018-05-16T10:07:13Z</time>
      </trkpt>
      <trkpt lat="45.93113" lon="4.76517">
        <ele>170</ele>
        <time>2018-05-16T10:07:14Z</time>
      </trkpt>
      <trkpt lat="45.93118" lon="4.76522">
        <ele>170</ele>
        <time>2018-05-16T10:07:15Z</time>
      </trkpt>
      <trkpt lat="45.93125" lon="4.76526">
        <ele>170</ele>
        <time>2018-05-16T10:07:16Z</time>
      </trkpt>
      <trkpt lat="45.9313" lon="4.7653">
        <ele>170</ele>
        <time>2018-05-16T10:07:17Z</time>
      </trkpt>
      <trkpt lat="45.93134" lon="4.76536">
        <ele>170</ele>
        <time>2018-05-16T10:07:18Z</time>
      </trkpt>
      <trkpt lat="45.93139" lon="4.76542">
        <ele>170</ele>
        <time>2018-05-16T10:07:19Z</time>
      </trkpt>
      <trkpt lat="45.93146" lon="4.7655">
        <ele>170</ele>
        <time>2018-05-16T10:07:21Z</time>
      </trkpt>
      <trkpt lat="45.93151" lon="4.76555">
        <ele>170</ele>
        <time>2018-05-16T10:07:22Z</time>
      </trkpt>
      <trkpt lat="45.93159" lon="4.76563">
        <ele>170</ele>
        <time>2018-05-16T10:07:23Z</time>
      </trkpt>
      <trkpt lat="45.93164" lon="4.76572">
        <ele>170</ele>
        <time>2018-05-16T10:07:25Z</time>
      </trkpt>
      <trkpt lat="45.93167" lon="4.76577">
        <ele>171</ele>
        <time>2018-05-16T10:07:26Z</time>
      </trkpt>
      <trkpt lat="45.93174" lon="4.76582">
        <ele>170</ele>
        <time>2018-05-16T10:07:27Z</time>
      </trkpt>
      <trkpt lat="45.93178" lon="4.76586">
        <ele>171</ele>
        <time>2018-05-16T10:07:28Z</time>
      </trkpt>
      <trkpt lat="45.93183" lon="4.7659">
        <ele>171</ele>
        <time>2018-05-16T10:07:29Z</time>
      </trkpt>
      <trkpt lat="45.93186" lon="4.76595">
        <ele>171</ele>
        <time>2018-05-16T10:07:30Z</time>
      </trkpt>
      <trkpt lat="45.9319" lon="4.766">
        <ele>170</ele>
        <time>2018-05-16T10:07:31Z</time>
      </trkpt>
      <trkpt lat="45.93195" lon="4.76605">
        <ele>170</ele>
        <time>2018-05-16T10:07:32Z</time>
      </trkpt>
      <trkpt lat="45.932" lon="4.76609">
        <ele>170</ele>
        <time>2018-05-16T10:07:33Z</time>
      </trkpt>
      <trkpt lat="45.93205" lon="4.76614">
        <ele>170</ele>
        <time>2018-05-16T10:07:34Z</time>
      </trkpt>
      <trkpt lat="45.93209" lon="4.76618">
        <ele>170</ele>
        <time>2018-05-16T10:07:35Z</time>
      </trkpt>
      <trkpt lat="45.93214" lon="4.76624">
        <ele>170</ele>
        <time>2018-05-16T10:07:36Z</time>
      </trkpt>
      <trkpt lat="45.93218" lon="4.76629">
        <ele>170</ele>
        <time>2018-05-16T10:07:37Z</time>
      </trkpt>
      <trkpt lat="45.93223" lon="4.76633">
        <ele>171</ele>
        <time>2018-05-16T10:07:38Z</time>
      </trkpt>
      <trkpt lat="45.93228" lon="4.76637">
        <ele>171</ele>
        <time>2018-05-16T10:07:39Z</time>
      </trkpt>
      <trkpt lat="45.93235" lon="4.76641">
        <ele>171</ele>
        <time>2018-05-16T10:07:40Z</time>
      </trkpt>
      <trkpt lat="45.93239" lon="4.76645">
        <ele>171</ele>
        <time>2018-05-16T10:07:41Z</time>
      </trkpt>
      <trkpt lat="45.93245" lon="4.76652">
        <ele>171</ele>
        <time>2018-05-16T10:07:42Z</time>
      </trkpt>
      <trkpt lat="45.93249" lon="4.76654">
        <ele>171</ele>
        <time>2018-05-16T10:07:43Z</time>
      </trkpt>
      <trkpt lat="45.93254" lon="4.7666">
        <ele>171</ele>
        <time>2018-05-16T10:07:44Z</time>
      </trkpt>
      <trkpt lat="45.93259" lon="4.76666">
        <ele>171</ele>
        <time>2018-05-16T10:07:45Z</time>
      </trkpt>
      <trkpt lat="45.93264" lon="4.7667">
        <ele>172</ele>
        <time>2018-05-16T10:07:46Z</time>
      </trkpt>
      <trkpt lat="45.93269" lon="4.76676">
        <ele>172</ele>
        <time>2018-05-16T10:07:47Z</time>
      </trkpt>
      <trkpt lat="45.93273" lon="4.7668">
        <ele>172</ele>
        <time>2018-05-16T10:07:48Z</time>
      </trkpt>
      <trkpt lat="45.93277" lon="4.76687">
        <ele>172</ele>
        <time>2018-05-16T10:07:49Z</time>
      </trkpt>
      <trkpt lat="45.93281" lon="4.76692">
        <ele>172</ele>
        <time>2018-05-16T10:07:50Z</time>
      </trkpt>
      <trkpt lat="45.93285" lon="4.76696">
        <ele>172</ele>
        <time>2018-05-16T10:07:51Z</time>
      </trkpt>
      <trkpt lat="45.9329" lon="4.76697">
        <ele>172</ele>
        <time>2018-05-16T10:07:52Z</time>
      </trkpt>
      <trkpt lat="45.93295" lon="4.76703">
        <ele>172</ele>
        <time>2018-05-16T10:07:53Z</time>
      </trkpt>
      <trkpt lat="45.933" lon="4.76707">
        <ele>172</ele>
        <time>2018-05-16T10:07:54Z</time>
      </trkpt>
      <trkpt lat="45.93305" lon="4.76711">
        <ele>172</ele>
        <time>2018-05-16T10:07:55Z</time>
      </trkpt>
      <trkpt lat="45.9331" lon="4.76714">
        <ele>172</ele>
        <time>2018-05-16T10:07:56Z</time>
      </trkpt>
      <trkpt lat="45.93315" lon="4.76719">
        <ele>172</ele>
        <time>2018-05-16T10:07:57Z</time>
      </trkpt>
      <trkpt lat="45.93318" lon="4.76724">
        <ele>172</ele>
        <time>2018-05-16T10:07:58Z</time>
      </trkpt>
      <trkpt lat="45.93323" lon="4.76729">
        <ele>172</ele>
        <time>2018-05-16T10:07:59Z</time>
      </trkpt>
      <trkpt lat="45.93327" lon="4.76734">
        <ele>172</ele>
        <time>2018-05-16T10:08:00Z</time>
      </trkpt>
      <trkpt lat="45.93331" lon="4.76738">
        <ele>172</ele>
        <time>2018-05-16T10:08:01Z</time>
      </trkpt>
      <trkpt lat="45.93335" lon="4.76742">
        <ele>173</ele>
        <time>2018-05-16T10:08:02Z</time>
      </trkpt>
      <trkpt lat="45.9334" lon="4.76746">
        <ele>173</ele>
        <time>2018-05-16T10:08:03Z</time>
      </trkpt>
      <trkpt lat="45.93344" lon="4.76751">
        <ele>173</ele>
        <time>2018-05-16T10:08:04Z</time>
      </trkpt>
      <trkpt lat="45.9335" lon="4.76756">
        <ele>172</ele>
        <time>2018-05-16T10:08:05Z</time>
      </trkpt>
      <trkpt lat="45.93354" lon="4.7676">
        <ele>172</ele>
        <time>2018-05-16T10:08:06Z</time>
      </trkpt>
      <trkpt lat="45.93359" lon="4.76764">
        <ele>172</ele>
        <time>2018-05-16T10:08:07Z</time>
      </trkpt>
      <trkpt lat="45.93363" lon="4.76769">
        <ele>172</ele>
        <time>2018-05-16T10:08:08Z</time>
      </trkpt>
      <trkpt lat="45.93367" lon="4.76773">
        <ele>172</ele>
        <time>2018-05-16T10:08:09Z</time>
      </trkpt>
      <trkpt lat="45.93372" lon="4.76777">
        <ele>172</ele>
        <time>2018-05-16T10:08:10Z</time>
      </trkpt>
      <trkpt lat="45.93376" lon="4.76782">
        <ele>172</ele>
        <time>2018-05-16T10:08:11Z</time>
      </trkpt>
      <trkpt lat="45.93381" lon="4.76788">
        <ele>172</ele>
        <time>2018-05-16T10:08:12Z</time>
      </trkpt>
      <trkpt lat="45.93385" lon="4.76793">
        <ele>172</ele>
        <time>2018-05-16T10:08:13Z</time>
      </trkpt>
      <trkpt lat="45.93389" lon="4.76799">
        <ele>172</ele>
        <time>2018-05-16T10:08:14Z</time>
      </trkpt>
      <trkpt lat="45.93394" lon="4.76804">
        <ele>172</ele>
        <time>2018-05-16T10:08:15Z</time>
      </trkpt>
      <trkpt lat="45.93399" lon="4.76808">
        <ele>172</ele>
        <time>2018-05-16T10:08:16Z</time>
      </trkpt>
      <trkpt lat="45.93403" lon="4.76815">
        <ele>172</ele>
        <time>2018-05-16T10:08:17Z</time>
      </trkpt>
      <trkpt lat="45.93407" lon="4.76821">
        <ele>172</ele>
        <time>2018-05-16T10:08:18Z</time>
      </trkpt>
      <trkpt lat="45.93411" lon="4.76826">
        <ele>172</ele>
        <time>2018-05-16T10:08:19Z</time>
      </trkpt>
      <trkpt lat="45.93414" lon="4.76833">
        <ele>172</ele>
        <time>2018-05-16T10:08:20Z</time>
      </trkpt>
      <trkpt lat="45.93417" lon="4.7684">
        <ele>172</ele>
        <time>2018-05-16T10:08:21Z</time>
      </trkpt>
      <trkpt lat="45.9342" lon="4.76848">
        <ele>171</ele>
        <time>2018-05-16T10:08:22Z</time>
      </trkpt>
      <trkpt lat="45.93423" lon="4.76855">
        <ele>171</ele>
        <time>2018-05-16T10:08:23Z</time>
      </trkpt>
      <trkpt lat="45.93426" lon="4.76862">
        <ele>171</ele>
        <time>2018-05-16T10:08:24Z</time>
      </trkpt>
      <trkpt lat="45.93429" lon="4.76869">
        <ele>171</ele>
        <time>2018-05-16T10:08:25Z</time>
      </trkpt>
      <trkpt lat="45.93432" lon="4.76876">
        <ele>171</ele>
        <time>2018-05-16T10:08:26Z</time>
      </trkpt>
      <trkpt lat="45.93434" lon="4.76881">
        <ele>171</ele>
        <time>2018-05-16T10:08:27Z</time>
      </trkpt>
      <trkpt lat="45.93436" lon="4.76889">
        <ele>171</ele>
        <time>2018-05-16T10:08:28Z</time>
      </trkpt>
      <trkpt lat="45.93438" lon="4.76897">
        <ele>170</ele>
        <time>2018-05-16T10:08:29Z</time>
      </trkpt>
      <trkpt lat="45.9344" lon="4.76907">
        <ele>170</ele>
        <time>2018-05-16T10:08:30Z</time>
      </trkpt>
      <trkpt lat="45.93443" lon="4.76918">
        <ele>170</ele>
        <time>2018-05-16T10:08:31Z</time>
      </trkpt>
      <trkpt lat="45.93445" lon="4.76927">
        <ele>170</ele>
        <time>2018-05-16T10:08:32Z</time>
      </trkpt>
      <trkpt lat="45.93448" lon="4.76935">
        <ele>170</ele>
        <time>2018-05-16T10:08:33Z</time>
      </trkpt>
      <trkpt lat="45.93449" lon="4.76944">
        <ele>170</ele>
        <time>2018-05-16T10:08:34Z</time>
      </trkpt>
      <trkpt lat="45.93451" lon="4.76953">
        <ele>170</ele>
        <time>2018-05-16T10:08:35Z</time>
      </trkpt>
      <trkpt lat="45.93452" lon="4.76962">
        <ele>170</ele>
        <time>2018-05-16T10:08:36Z</time>
      </trkpt>
      <trkpt lat="45.93454" lon="4.76971">
        <ele>170</ele>
        <time>2018-05-16T10:08:37Z</time>
      </trkpt>
      <trkpt lat="45.93455" lon="4.7698">
        <ele>170</ele>
        <time>2018-05-16T10:08:38Z</time>
      </trkpt>
      <trkpt lat="45.93456" lon="4.76989">
        <ele>170</ele>
        <time>2018-05-16T10:08:39Z</time>
      </trkpt>
      <trkpt lat="45.93457" lon="4.76996">
        <ele>170</ele>
        <time>2018-05-16T10:08:40Z</time>
      </trkpt>
      <trkpt lat="45.93459" lon="4.77005">
        <ele>170</ele>
        <time>2018-05-16T10:08:41Z</time>
      </trkpt>
      <trkpt lat="45.9346" lon="4.77013">
        <ele>170</ele>
        <time>2018-05-16T10:08:42Z</time>
      </trkpt>
      <trkpt lat="45.93461" lon="4.77021">
        <ele>170</ele>
        <time>2018-05-16T10:08:43Z</time>
      </trkpt>
      <trkpt lat="45.93463" lon="4.77029">
        <ele>170</ele>
        <time>2018-05-16T10:08:44Z</time>
      </trkpt>
      <trkpt lat="45.93464" lon="4.77037">
        <ele>170</ele>
        <time>2018-05-16T10:08:45Z</time>
      </trkpt>
      <trkpt lat="45.93466" lon="4.77044">
        <ele>170</ele>
        <time>2018-05-16T10:08:46Z</time>
      </trkpt>
      <trkpt lat="45.93467" lon="4.77051">
        <ele>170</ele>
        <time>2018-05-16T10:08:47Z</time>
      </trkpt>
      <trkpt lat="45.93467" lon="4.77058">
        <ele>170</ele>
        <time>2018-05-16T10:08:48Z</time>
      </trkpt>
      <trkpt lat="45.93469" lon="4.77065">
        <ele>170</ele>
        <time>2018-05-16T10:08:49Z</time>
      </trkpt>
      <trkpt lat="45.9347" lon="4.77071">
        <ele>170</ele>
        <time>2018-05-16T10:08:50Z</time>
      </trkpt>
      <trkpt lat="45.93472" lon="4.77077">
        <ele>170</ele>
        <time>2018-05-16T10:08:51Z</time>
      </trkpt>
      <trkpt lat="45.93472" lon="4.77084">
        <ele>169</ele>
        <time>2018-05-16T10:08:52Z</time>
      </trkpt>
      <trkpt lat="45.93473" lon="4.77091">
        <ele>169</ele>
        <time>2018-05-16T10:08:53Z</time>
      </trkpt>
      <trkpt lat="45.93475" lon="4.77099">
        <ele>169</ele>
        <time>2018-05-16T10:08:54Z</time>
      </trkpt>
      <trkpt lat="45.93476" lon="4.77106">
        <ele>169</ele>
        <time>2018-05-16T10:08:55Z</time>
      </trkpt>
      <trkpt lat="45.93476" lon="4.77114">
        <ele>169</ele>
        <time>2018-05-16T10:08:56Z</time>
      </trkpt>
      <trkpt lat="45.93479" lon="4.77121">
        <ele>169</ele>
        <time>2018-05-16T10:08:57Z</time>
      </trkpt>
      <trkpt lat="45.9348" lon="4.77129">
        <ele>169</ele>
        <time>2018-05-16T10:08:58Z</time>
      </trkpt>
      <trkpt lat="45.93482" lon="4.77138">
        <ele>169</ele>
        <time>2018-05-16T10:08:59Z</time>
      </trkpt>
      <trkpt lat="45.93484" lon="4.77146">
        <ele>169</ele>
        <time>2018-05-16T10:09:00Z</time>
      </trkpt>
      <trkpt lat="45.93486" lon="4.77154">
        <ele>169</ele>
        <time>2018-05-16T10:09:01Z</time>
      </trkpt>
      <trkpt lat="45.93487" lon="4.77163">
        <ele>169</ele>
        <time>2018-05-16T10:09:02Z</time>
      </trkpt>
      <trkpt lat="45.93488" lon="4.77169">
        <ele>169</ele>
        <time>2018-05-16T10:09:03Z</time>
      </trkpt>
      <trkpt lat="45.9349" lon="4.77177">
        <ele>169</ele>
        <time>2018-05-16T10:09:04Z</time>
      </trkpt>
      <trkpt lat="45.93492" lon="4.77185">
        <ele>169</ele>
        <time>2018-05-16T10:09:05Z</time>
      </trkpt>
      <trkpt lat="45.93493" lon="4.77194">
        <ele>169</ele>
        <time>2018-05-16T10:09:06Z</time>
      </trkpt>
      <trkpt lat="45.93495" lon="4.77202">
        <ele>169</ele>
        <time>2018-05-16T10:09:07Z</time>
      </trkpt>
      <trkpt lat="45.93496" lon="4.77211">
        <ele>169</ele>
        <time>2018-05-16T10:09:08Z</time>
      </trkpt>
      <trkpt lat="45.93497" lon="4.77219">
        <ele>169</ele>
        <time>2018-05-16T10:09:09Z</time>
      </trkpt>
      <trkpt lat="45.93498" lon="4.77226">
        <ele>170</ele>
        <time>2018-05-16T10:09:10Z</time>
      </trkpt>
      <trkpt lat="45.93501" lon="4.77234">
        <ele>169</ele>
        <time>2018-05-16T10:09:11Z</time>
      </trkpt>
      <trkpt lat="45.93503" lon="4.77243">
        <ele>170</ele>
        <time>2018-05-16T10:09:12Z</time>
      </trkpt>
      <trkpt lat="45.93505" lon="4.77251">
        <ele>170</ele>
        <time>2018-05-16T10:09:13Z</time>
      </trkpt>
      <trkpt lat="45.93508" lon="4.77261">
        <ele>170</ele>
        <time>2018-05-16T10:09:14Z</time>
      </trkpt>
      <trkpt lat="45.93511" lon="4.77267">
        <ele>170</ele>
        <time>2018-05-16T10:09:15Z</time>
      </trkpt>
      <trkpt lat="45.93512" lon="4.77273">
        <ele>170</ele>
        <time>2018-05-16T10:09:16Z</time>
      </trkpt>
      <trkpt lat="45.93513" lon="4.7728">
        <ele>170</ele>
        <time>2018-05-16T10:09:17Z</time>
      </trkpt>
      <trkpt lat="45.93515" lon="4.77288">
        <ele>170</ele>
        <time>2018-05-16T10:09:18Z</time>
      </trkpt>
      <trkpt lat="45.93516" lon="4.77294">
        <ele>170</ele>
        <time>2018-05-16T10:09:19Z</time>
      </trkpt>
      <trkpt lat="45.93517" lon="4.77301">
        <ele>170</ele>
        <time>2018-05-16T10:09:20Z</time>
      </trkpt>
      <trkpt lat="45.93518" lon="4.77308">
        <ele>170</ele>
        <time>2018-05-16T10:09:21Z</time>
      </trkpt>
      <trkpt lat="45.93521" lon="4.77314">
        <ele>170</ele>
        <time>2018-05-16T10:09:22Z</time>
      </trkpt>
      <trkpt lat="45.93523" lon="4.77322">
        <ele>170</ele>
        <time>2018-05-16T10:09:23Z</time>
      </trkpt>
      <trkpt lat="45.93523" lon="4.77327">
        <ele>170</ele>
        <time>2018-05-16T10:09:24Z</time>
      </trkpt>
      <trkpt lat="45.93524" lon="4.77334">
        <ele>170</ele>
        <time>2018-05-16T10:09:25Z</time>
      </trkpt>
      <trkpt lat="45.93526" lon="4.77342">
        <ele>170</ele>
        <time>2018-05-16T10:09:26Z</time>
      </trkpt>
      <trkpt lat="45.93527" lon="4.7735">
        <ele>170</ele>
        <time>2018-05-16T10:09:27Z</time>
      </trkpt>
      <trkpt lat="45.93529" lon="4.77357">
        <ele>170</ele>
        <time>2018-05-16T10:09:28Z</time>
      </trkpt>
      <trkpt lat="45.9353" lon="4.77364">
        <ele>170</ele>
        <time>2018-05-16T10:09:29Z</time>
      </trkpt>
      <trkpt lat="45.93532" lon="4.77371">
        <ele>170</ele>
        <time>2018-05-16T10:09:30Z</time>
      </trkpt>
      <trkpt lat="45.93533" lon="4.77378">
        <ele>170</ele>
        <time>2018-05-16T10:09:31Z</time>
      </trkpt>
      <trkpt lat="45.93535" lon="4.77384">
        <ele>170</ele>
        <time>2018-05-16T10:09:32Z</time>
      </trkpt>
      <trkpt lat="45.93537" lon="4.77391">
        <ele>170</ele>
        <time>2018-05-16T10:09:33Z</time>
      </trkpt>
      <trkpt lat="45.93539" lon="4.77399">
        <ele>170</ele>
        <time>2018-05-16T10:09:34Z</time>
      </trkpt>
      <trkpt lat="45.9354" lon="4.77406">
        <ele>170</ele>
        <time>2018-05-16T10:09:35Z</time>
      </trkpt>
      <trkpt lat="45.93542" lon="4.77415">
        <ele>170</ele>
        <time>2018-05-16T10:09:36Z</time>
      </trkpt>
      <trkpt lat="45.93542" lon="4.77426">
        <ele>170</ele>
        <time>2018-05-16T10:09:38Z</time>
      </trkpt>
      <trkpt lat="45.93547" lon="4.77436">
        <ele>169</ele>
        <time>2018-05-16T10:09:39Z</time>
      </trkpt>
      <trkpt lat="45.93548" lon="4.77443">
        <ele>169</ele>
        <time>2018-05-16T10:09:40Z</time>
      </trkpt>
      <trkpt lat="45.9355" lon="4.77452">
        <ele>169</ele>
        <time>2018-05-16T10:09:41Z</time>
      </trkpt>
      <trkpt lat="45.93552" lon="4.77461">
        <ele>169</ele>
        <time>2018-05-16T10:09:42Z</time>
      </trkpt>
      <trkpt lat="45.93555" lon="4.77469">
        <ele>169</ele>
        <time>2018-05-16T10:09:43Z</time>
      </trkpt>
      <trkpt lat="45.93556" lon="4.77476">
        <ele>169</ele>
        <time>2018-05-16T10:09:44Z</time>
      </trkpt>
      <trkpt lat="45.93559" lon="4.77482">
        <ele>169</ele>
        <time>2018-05-16T10:09:45Z</time>
      </trkpt>
      <trkpt lat="45.93561" lon="4.77491">
        <ele>169</ele>
        <time>2018-05-16T10:09:46Z</time>
      </trkpt>
      <trkpt lat="45.93562" lon="4.77498">
        <ele>169</ele>
        <time>2018-05-16T10:09:47Z</time>
      </trkpt>
      <trkpt lat="45.93565" lon="4.77506">
        <ele>169</ele>
        <time>2018-05-16T10:09:48Z</time>
      </trkpt>
      <trkpt lat="45.93566" lon="4.77512">
        <ele>169</ele>
        <time>2018-05-16T10:09:49Z</time>
      </trkpt>
      <trkpt lat="45.93568" lon="4.7752">
        <ele>169</ele>
        <time>2018-05-16T10:09:50Z</time>
      </trkpt>
      <trkpt lat="45.93569" lon="4.77527">
        <ele>169</ele>
        <time>2018-05-16T10:09:51Z</time>
      </trkpt>
      <trkpt lat="45.93571" lon="4.77533">
        <ele>169</ele>
        <time>2018-05-16T10:09:52Z</time>
      </trkpt>
      <trkpt lat="45.93572" lon="4.77541">
        <ele>169</ele>
        <time>2018-05-16T10:09:53Z</time>
      </trkpt>
      <trkpt lat="45.93573" lon="4.77548">
        <ele>169</ele>
        <time>2018-05-16T10:09:54Z</time>
      </trkpt>
      <trkpt lat="45.93576" lon="4.77555">
        <ele>169</ele>
        <time>2018-05-16T10:09:55Z</time>
      </trkpt>
      <trkpt lat="45.93577" lon="4.77564">
        <ele>169</ele>
        <time>2018-05-16T10:09:56Z</time>
      </trkpt>
      <trkpt lat="45.93579" lon="4.77571">
        <ele>170</ele>
        <time>2018-05-16T10:09:57Z</time>
      </trkpt>
      <trkpt lat="45.93582" lon="4.77579">
        <ele>170</ele>
        <time>2018-05-16T10:09:58Z</time>
      </trkpt>
      <trkpt lat="45.93584" lon="4.77586">
        <ele>170</ele>
        <time>2018-05-16T10:09:59Z</time>
      </trkpt>
      <trkpt lat="45.93586" lon="4.77593">
        <ele>170</ele>
        <time>2018-05-16T10:10:00Z</time>
      </trkpt>
      <trkpt lat="45.9359" lon="4.77602">
        <ele>170</ele>
        <time>2018-05-16T10:10:01Z</time>
      </trkpt>
      <trkpt lat="45.93593" lon="4.7761">
        <ele>170</ele>
        <time>2018-05-16T10:10:02Z</time>
      </trkpt>
      <trkpt lat="45.93595" lon="4.77616">
        <ele>170</ele>
        <time>2018-05-16T10:10:03Z</time>
      </trkpt>
      <trkpt lat="45.93598" lon="4.77625">
        <ele>169</ele>
        <time>2018-05-16T10:10:04Z</time>
      </trkpt>
      <trkpt lat="45.936" lon="4.77632">
        <ele>169</ele>
        <time>2018-05-16T10:10:05Z</time>
      </trkpt>
      <trkpt lat="45.93603" lon="4.77639">
        <ele>169</ele>
        <time>2018-05-16T10:10:06Z</time>
      </trkpt>
      <trkpt lat="45.93606" lon="4.77646">
        <ele>169</ele>
        <time>2018-05-16T10:10:07Z</time>
      </trkpt>
      <trkpt lat="45.93608" lon="4.77652">
        <ele>169</ele>
        <time>2018-05-16T10:10:08Z</time>
      </trkpt>
      <trkpt lat="45.93611" lon="4.77657">
        <ele>169</ele>
        <time>2018-05-16T10:10:09Z</time>
      </trkpt>
      <trkpt lat="45.93614" lon="4.77665">
        <ele>169</ele>
        <time>2018-05-16T10:10:10Z</time>
      </trkpt>
      <trkpt lat="45.93617" lon="4.77669">
        <ele>169</ele>
        <time>2018-05-16T10:10:11Z</time>
      </trkpt>
      <trkpt lat="45.9362" lon="4.77676">
        <ele>169</ele>
        <time>2018-05-16T10:10:12Z</time>
      </trkpt>
      <trkpt lat="45.93623" lon="4.77682">
        <ele>169</ele>
        <time>2018-05-16T10:10:13Z</time>
      </trkpt>
      <trkpt lat="45.93626" lon="4.77689">
        <ele>169</ele>
        <time>2018-05-16T10:10:14Z</time>
      </trkpt>
      <trkpt lat="45.93629" lon="4.77695">
        <ele>169</ele>
        <time>2018-05-16T10:10:15Z</time>
      </trkpt>
      <trkpt lat="45.93632" lon="4.77701">
        <ele>169</ele>
        <time>2018-05-16T10:10:16Z</time>
      </trkpt>
      <trkpt lat="45.93634" lon="4.77707">
        <ele>170</ele>
        <time>2018-05-16T10:10:17Z</time>
      </trkpt>
      <trkpt lat="45.93637" lon="4.77713">
        <ele>170</ele>
        <time>2018-05-16T10:10:18Z</time>
      </trkpt>
      <trkpt lat="45.9364" lon="4.77717">
        <ele>170</ele>
        <time>2018-05-16T10:10:19Z</time>
      </trkpt>
      <trkpt lat="45.93644" lon="4.77726">
        <ele>170</ele>
        <time>2018-05-16T10:10:21Z</time>
      </trkpt>
      <trkpt lat="45.93647" lon="4.7773">
        <ele>170</ele>
        <time>2018-05-16T10:10:22Z</time>
      </trkpt>
      <trkpt lat="45.93653" lon="4.7774">
        <ele>170</ele>
        <time>2018-05-16T10:10:24Z</time>
      </trkpt>
      <trkpt lat="45.93655" lon="4.77744">
        <ele>170</ele>
        <time>2018-05-16T10:10:25Z</time>
      </trkpt>
      <trkpt lat="45.93661" lon="4.77753">
        <ele>171</ele>
        <time>2018-05-16T10:10:27Z</time>
      </trkpt>
      <trkpt lat="45.93664" lon="4.77757">
        <ele>171</ele>
        <time>2018-05-16T10:10:28Z</time>
      </trkpt>
      <trkpt lat="45.93668" lon="4.77763">
        <ele>170</ele>
        <time>2018-05-16T10:10:30Z</time>
      </trkpt>
      <trkpt lat="45.93671" lon="4.77767">
        <ele>170</ele>
        <time>2018-05-16T10:10:31Z</time>
      </trkpt>
      <trkpt lat="45.93676" lon="4.77774">
        <ele>170</ele>
        <time>2018-05-16T10:10:33Z</time>
      </trkpt>
      <trkpt lat="45.93679" lon="4.77778">
        <ele>170</ele>
        <time>2018-05-16T10:10:34Z</time>
      </trkpt>
      <trkpt lat="45.93684" lon="4.77786">
        <ele>170</ele>
        <time>2018-05-16T10:10:36Z</time>
      </trkpt>
      <trkpt lat="45.93687" lon="4.7779">
        <ele>170</ele>
        <time>2018-05-16T10:10:37Z</time>
      </trkpt>
      <trkpt lat="45.93692" lon="4.77797">
        <ele>169</ele>
        <time>2018-05-16T10:10:39Z</time>
      </trkpt>
      <trkpt lat="45.93695" lon="4.77801">
        <ele>169</ele>
        <time>2018-05-16T10:10:40Z</time>
      </trkpt>
      <trkpt lat="45.93701" lon="4.77809">
        <ele>169</ele>
        <time>2018-05-16T10:10:42Z</time>
      </trkpt>
      <trkpt lat="45.93704" lon="4.77813">
        <ele>169</ele>
        <time>2018-05-16T10:10:43Z</time>
      </trkpt>
      <trkpt lat="45.9371" lon="4.7782">
        <ele>169</ele>
        <time>2018-05-16T10:10:45Z</time>
      </trkpt>
      <trkpt lat="45.93713" lon="4.77824">
        <ele>169</ele>
        <time>2018-05-16T10:10:46Z</time>
      </trkpt>
      <trkpt lat="45.93719" lon="4.77832">
        <ele>168</ele>
        <time>2018-05-16T10:10:48Z</time>
      </trkpt>
      <trkpt lat="45.93722" lon="4.77836">
        <ele>167</ele>
        <time>2018-05-16T10:10:49Z</time>
      </trkpt>
      <trkpt lat="45.93728" lon="4.77843">
        <ele>167</ele>
        <time>2018-05-16T10:10:51Z</time>
      </trkpt>
      <trkpt lat="45.93731" lon="4.77846">
        <ele>167</ele>
        <time>2018-05-16T10:10:52Z</time>
      </trkpt>
      <trkpt lat="45.93737" lon="4.77854">
        <ele>167</ele>
        <time>2018-05-16T10:10:54Z</time>
      </trkpt>
      <trkpt lat="45.9374" lon="4.77858">
        <ele>167</ele>
        <time>2018-05-16T10:10:55Z</time>
      </trkpt>
      <trkpt lat="45.93747" lon="4.77865">
        <ele>167</ele>
        <time>2018-05-16T10:10:57Z</time>
      </trkpt>
      <trkpt lat="45.9375" lon="4.77869">
        <ele>167</ele>
        <time>2018-05-16T10:10:58Z</time>
      </trkpt>
      <trkpt lat="45.93756" lon="4.77878">
        <ele>166</ele>
        <time>2018-05-16T10:11:00Z</time>
      </trkpt>
      <trkpt lat="45.93759" lon="4.77882">
        <ele>166</ele>
        <time>2018-05-16T10:11:01Z</time>
      </trkpt>
      <trkpt lat="45.93766" lon="4.7789">
        <ele>166</ele>
        <time>2018-05-16T10:11:03Z</time>
      </trkpt>
      <trkpt lat="45.93769" lon="4.77894">
        <ele>166</ele>
        <time>2018-05-16T10:11:04Z</time>
      </trkpt>
      <trkpt lat="45.93773" lon="4.77899">
        <ele>166</ele>
        <time>2018-05-16T10:11:05Z</time>
      </trkpt>
      <trkpt lat="45.93776" lon="4.77904">
        <ele>166</ele>
        <time>2018-05-16T10:11:06Z</time>
      </trkpt>
      <trkpt lat="45.93781" lon="4.7791">
        <ele>166</ele>
        <time>2018-05-16T10:11:07Z</time>
      </trkpt>
      <trkpt lat="45.93784" lon="4.77915">
        <ele>166</ele>
        <time>2018-05-16T10:11:08Z</time>
      </trkpt>
      <trkpt lat="45.93788" lon="4.77919">
        <ele>168</ele>
        <time>2018-05-16T10:11:09Z</time>
      </trkpt>
      <trkpt lat="45.93791" lon="4.77924">
        <ele>168</ele>
        <time>2018-05-16T10:11:10Z</time>
      </trkpt>
      <trkpt lat="45.93794" lon="4.77928">
        <ele>168</ele>
        <time>2018-05-16T10:11:11Z</time>
      </trkpt>
      <trkpt lat="45.93798" lon="4.77933">
        <ele>168</ele>
        <time>2018-05-16T10:11:12Z</time>
      </trkpt>
      <trkpt lat="45.93801" lon="4.77937">
        <ele>169</ele>
        <time>2018-05-16T10:11:13Z</time>
      </trkpt>
      <trkpt lat="45.93805" lon="4.77941">
        <ele>169</ele>
        <time>2018-05-16T10:11:14Z</time>
      </trkpt>
      <trkpt lat="45.93809" lon="4.77947">
        <ele>169</ele>
        <time>2018-05-16T10:11:15Z</time>
      </trkpt>
      <trkpt lat="45.93812" lon="4.77953">
        <ele>170</ele>
        <time>2018-05-16T10:11:16Z</time>
      </trkpt>
      <trkpt lat="45.93816" lon="4.77958">
        <ele>170</ele>
        <time>2018-05-16T10:11:17Z</time>
      </trkpt>
      <trkpt lat="45.93821" lon="4.77963">
        <ele>171</ele>
        <time>2018-05-16T10:11:18Z</time>
      </trkpt>
      <trkpt lat="45.93826" lon="4.77968">
        <ele>171</ele>
        <time>2018-05-16T10:11:19Z</time>
      </trkpt>
      <trkpt lat="45.93829" lon="4.77974">
        <ele>172</ele>
        <time>2018-05-16T10:11:20Z</time>
      </trkpt>
      <trkpt lat="45.93833" lon="4.77979">
        <ele>178</ele>
        <time>2018-05-16T10:11:21Z</time>
      </trkpt>
      <trkpt lat="45.93836" lon="4.77985">
        <ele>178</ele>
        <time>2018-05-16T10:11:22Z</time>
      </trkpt>
      <trkpt lat="45.93841" lon="4.77997">
        <ele>179</ele>
        <time>2018-05-16T10:11:23Z</time>
      </trkpt>
      <trkpt lat="45.93842" lon="4.78005">
        <ele>181</ele>
        <time>2018-05-16T10:11:24Z</time>
      </trkpt>
      <trkpt lat="45.93842" lon="4.78012">
        <ele>181</ele>
        <time>2018-05-16T10:11:25Z</time>
      </trkpt>
      <trkpt lat="45.93843" lon="4.7802">
        <ele>182</ele>
        <time>2018-05-16T10:11:26Z</time>
      </trkpt>
      <trkpt lat="45.93845" lon="4.78029">
        <ele>182</ele>
        <time>2018-05-16T10:11:27Z</time>
      </trkpt>
      <trkpt lat="45.93847" lon="4.78036">
        <ele>182</ele>
        <time>2018-05-16T10:11:28Z</time>
      </trkpt>
      <trkpt lat="45.93848" lon="4.78043">
        <ele>183</ele>
        <time>2018-05-16T10:11:29Z</time>
      </trkpt>
      <trkpt lat="45.93847" lon="4.78054">
        <ele>182</ele>
        <time>2018-05-16T10:11:31Z</time>
      </trkpt>
      <trkpt lat="45.93846" lon="4.78061">
        <ele>182</ele>
        <time>2018-05-16T10:11:32Z</time>
      </trkpt>
      <trkpt lat="45.93845" lon="4.78069">
        <ele>182</ele>
        <time>2018-05-16T10:11:33Z</time>
      </trkpt>
      <trkpt lat="45.93844" lon="4.78076">
        <ele>182</ele>
        <time>2018-05-16T10:11:34Z</time>
      </trkpt>
      <trkpt lat="45.93847" lon="4.78083">
        <ele>182</ele>
        <time>2018-05-16T10:11:35Z</time>
      </trkpt>
      <trkpt lat="45.93846" lon="4.78089">
        <ele>183</ele>
        <time>2018-05-16T10:11:36Z</time>
      </trkpt>
      <trkpt lat="45.93842" lon="4.78094">
        <ele>183</ele>
        <time>2018-05-16T10:11:37Z</time>
      </trkpt>
      <trkpt lat="45.9384" lon="4.78102">
        <ele>183</ele>
        <time>2018-05-16T10:11:38Z</time>
      </trkpt>
      <trkpt lat="45.93838" lon="4.78108">
        <ele>184</ele>
        <time>2018-05-16T10:11:39Z</time>
      </trkpt>
      <trkpt lat="45.93836" lon="4.78115">
        <ele>184</ele>
        <time>2018-05-16T10:11:40Z</time>
      </trkpt>
      <trkpt lat="45.93834" lon="4.78122">
        <ele>184</ele>
        <time>2018-05-16T10:11:41Z</time>
      </trkpt>
      <trkpt lat="45.93835" lon="4.78132">
        <ele>184</ele>
        <time>2018-05-16T10:11:42Z</time>
      </trkpt>
      <trkpt lat="45.93832" lon="4.78144">
        <ele>180</ele>
        <time>2018-05-16T10:11:44Z</time>
      </trkpt>
      <trkpt lat="45.9383" lon="4.78149">
        <ele>180</ele>
        <time>2018-05-16T10:11:45Z</time>
      </trkpt>
      <trkpt lat="45.93827" lon="4.78159">
        <ele>181</ele>
        <time>2018-05-16T10:11:48Z</time>
      </trkpt>
      <trkpt lat="45.93823" lon="4.78167">
        <ele>182</ele>
        <time>2018-05-16T10:11:49Z</time>
      </trkpt>
      <trkpt lat="45.93821" lon="4.78176">
        <ele>182</ele>
        <time>2018-05-16T10:11:51Z</time>
      </trkpt>
      <trkpt lat="45.93818" lon="4.78183">
        <ele>182</ele>
        <time>2018-05-16T10:11:52Z</time>
      </trkpt>
      <trkpt lat="45.93816" lon="4.78192">
        <ele>182</ele>
        <time>2018-05-16T10:11:54Z</time>
      </trkpt>
      <trkpt lat="45.93814" lon="4.78197">
        <ele>182</ele>
        <time>2018-05-16T10:11:55Z</time>
      </trkpt>
      <trkpt lat="45.93812" lon="4.78207">
        <ele>182</ele>
        <time>2018-05-16T10:11:57Z</time>
      </trkpt>
      <trkpt lat="45.93811" lon="4.78212">
        <ele>182</ele>
        <time>2018-05-16T10:11:58Z</time>
      </trkpt>
      <trkpt lat="45.93806" lon="4.78223">
        <ele>182</ele>
        <time>2018-05-16T10:12:00Z</time>
      </trkpt>
      <trkpt lat="45.93801" lon="4.78229">
        <ele>182</ele>
        <time>2018-05-16T10:12:01Z</time>
      </trkpt>
      <trkpt lat="45.93798" lon="4.78234">
        <ele>182</ele>
        <time>2018-05-16T10:12:02Z</time>
      </trkpt>
      <trkpt lat="45.93795" lon="4.78239">
        <ele>182</ele>
        <time>2018-05-16T10:12:03Z</time>
      </trkpt>
      <trkpt lat="45.93793" lon="4.78247">
        <ele>182</ele>
        <time>2018-05-16T10:12:04Z</time>
      </trkpt>
      <trkpt lat="45.93791" lon="4.78255">
        <ele>183</ele>
        <time>2018-05-16T10:12:05Z</time>
      </trkpt>
      <trkpt lat="45.93789" lon="4.78261">
        <ele>183</ele>
        <time>2018-05-16T10:12:06Z</time>
      </trkpt>
      <trkpt lat="45.93788" lon="4.78269">
        <ele>183</ele>
        <time>2018-05-16T10:12:07Z</time>
      </trkpt>
      <trkpt lat="45.93787" lon="4.78276">
        <ele>183</ele>
        <time>2018-05-16T10:12:08Z</time>
      </trkpt>
      <trkpt lat="45.93785" lon="4.78283">
        <ele>183</ele>
        <time>2018-05-16T10:12:09Z</time>
      </trkpt>
      <trkpt lat="45.93783" lon="4.7829">
        <ele>183</ele>
        <time>2018-05-16T10:12:10Z</time>
      </trkpt>
      <trkpt lat="45.9378" lon="4.78298">
        <ele>183</ele>
        <time>2018-05-16T10:12:11Z</time>
      </trkpt>
      <trkpt lat="45.93778" lon="4.78306">
        <ele>183</ele>
        <time>2018-05-16T10:12:12Z</time>
      </trkpt>
      <trkpt lat="45.93777" lon="4.78312">
        <ele>183</ele>
        <time>2018-05-16T10:12:13Z</time>
      </trkpt>
      <trkpt lat="45.93775" lon="4.7832">
        <ele>183</ele>
        <time>2018-05-16T10:12:14Z</time>
      </trkpt>
      <trkpt lat="45.93773" lon="4.78327">
        <ele>183</ele>
        <time>2018-05-16T10:12:15Z</time>
      </trkpt>
      <trkpt lat="45.93771" lon="4.78336">
        <ele>183</ele>
        <time>2018-05-16T10:12:16Z</time>
      </trkpt>
      <trkpt lat="45.93769" lon="4.78344">
        <ele>183</ele>
        <time>2018-05-16T10:12:17Z</time>
      </trkpt>
      <trkpt lat="45.93768" lon="4.78352">
        <ele>183</ele>
        <time>2018-05-16T10:12:18Z</time>
      </trkpt>
      <trkpt lat="45.93765" lon="4.7836">
        <ele>183</ele>
        <time>2018-05-16T10:12:19Z</time>
      </trkpt>
      <trkpt lat="45.93763" lon="4.78368">
        <ele>183</ele>
        <time>2018-05-16T10:12:20Z</time>
      </trkpt>
      <trkpt lat="45.93762" lon="4.78377">
        <ele>183</ele>
        <time>2018-05-16T10:12:21Z</time>
      </trkpt>
      <trkpt lat="45.93759" lon="4.78385">
        <ele>183</ele>
        <time>2018-05-16T10:12:22Z</time>
      </trkpt>
      <trkpt lat="45.93757" lon="4.78393">
        <ele>183</ele>
        <time>2018-05-16T10:12:23Z</time>
      </trkpt>
      <trkpt lat="45.93756" lon="4.78403">
        <ele>182</ele>
        <time>2018-05-16T10:12:24Z</time>
      </trkpt>
      <trkpt lat="45.93753" lon="4.78411">
        <ele>182</ele>
        <time>2018-05-16T10:12:25Z</time>
      </trkpt>
      <trkpt lat="45.9375" lon="4.78419">
        <ele>181</ele>
        <time>2018-05-16T10:12:26Z</time>
      </trkpt>
      <trkpt lat="45.93747" lon="4.78428">
        <ele>180</ele>
        <time>2018-05-16T10:12:27Z</time>
      </trkpt>
      <trkpt lat="45.93746" lon="4.78436">
        <ele>180</ele>
        <time>2018-05-16T10:12:28Z</time>
      </trkpt>
      <trkpt lat="45.93743" lon="4.78446">
        <ele>180</ele>
        <time>2018-05-16T10:12:29Z</time>
      </trkpt>
      <trkpt lat="45.93739" lon="4.78454">
        <ele>180</ele>
        <time>2018-05-16T10:12:30Z</time>
      </trkpt>
      <trkpt lat="45.93736" lon="4.78463">
        <ele>180</ele>
        <time>2018-05-16T10:12:31Z</time>
      </trkpt>
      <trkpt lat="45.93733" lon="4.78472">
        <ele>180</ele>
        <time>2018-05-16T10:12:32Z</time>
      </trkpt>
      <trkpt lat="45.93732" lon="4.7848">
        <ele>180</ele>
        <time>2018-05-16T10:12:33Z</time>
      </trkpt>
      <trkpt lat="45.9373" lon="4.78489">
        <ele>180</ele>
        <time>2018-05-16T10:12:34Z</time>
      </trkpt>
      <trkpt lat="45.93727" lon="4.78499">
        <ele>180</ele>
        <time>2018-05-16T10:12:35Z</time>
      </trkpt>
      <trkpt lat="45.93725" lon="4.78508">
        <ele>179</ele>
        <time>2018-05-16T10:12:36Z</time>
      </trkpt>
      <trkpt lat="45.93723" lon="4.78516">
        <ele>179</ele>
        <time>2018-05-16T10:12:37Z</time>
      </trkpt>
      <trkpt lat="45.9372" lon="4.78526">
        <ele>178</ele>
        <time>2018-05-16T10:12:38Z</time>
      </trkpt>
      <trkpt lat="45.93719" lon="4.78536">
        <ele>178</ele>
        <time>2018-05-16T10:12:39Z</time>
      </trkpt>
      <trkpt lat="45.93717" lon="4.78546">
        <ele>178</ele>
        <time>2018-05-16T10:12:40Z</time>
      </trkpt>
      <trkpt lat="45.93715" lon="4.78555">
        <ele>178</ele>
        <time>2018-05-16T10:12:41Z</time>
      </trkpt>
      <trkpt lat="45.93713" lon="4.78564">
        <ele>178</ele>
        <time>2018-05-16T10:12:42Z</time>
      </trkpt>
      <trkpt lat="45.93711" lon="4.78573">
        <ele>177</ele>
        <time>2018-05-16T10:12:43Z</time>
      </trkpt>
      <trkpt lat="45.93709" lon="4.78582">
        <ele>177</ele>
        <time>2018-05-16T10:12:44Z</time>
      </trkpt>
      <trkpt lat="45.93707" lon="4.7859">
        <ele>176</ele>
        <time>2018-05-16T10:12:45Z</time>
      </trkpt>
      <trkpt lat="45.93706" lon="4.78596">
        <ele>176</ele>
        <time>2018-05-16T10:12:46Z</time>
      </trkpt>
      <trkpt lat="45.93704" lon="4.78602">
        <ele>176</ele>
        <time>2018-05-16T10:12:47Z</time>
      </trkpt>
      <trkpt lat="45.93702" lon="4.78608">
        <ele>176</ele>
        <time>2018-05-16T10:12:48Z</time>
      </trkpt>
      <trkpt lat="45.937" lon="4.78615">
        <ele>176</ele>
        <time>2018-05-16T10:12:49Z</time>
      </trkpt>
      <trkpt lat="45.937" lon="4.78625">
        <ele>176</ele>
        <time>2018-05-16T10:12:51Z</time>
      </trkpt>
      <trkpt lat="45.93705" lon="4.78631">
        <ele>176</ele>
        <time>2018-05-16T10:12:52Z</time>
      </trkpt>
      <trkpt lat="45.93712" lon="4.78633">
        <ele>176</ele>
        <time>2018-05-16T10:12:54Z</time>
      </trkpt>
      <trkpt lat="45.93715" lon="4.78633">
        <ele>176</ele>
        <time>2018-05-16T10:12:55Z</time>
      </trkpt>
      <trkpt lat="45.93722" lon="4.78634">
        <ele>177</ele>
        <time>2018-05-16T10:12:56Z</time>
      </trkpt>
      <trkpt lat="45.93726" lon="4.78633">
        <ele>177</ele>
        <time>2018-05-16T10:12:57Z</time>
      </trkpt>
      <trkpt lat="45.93733" lon="4.7863">
        <ele>177</ele>
        <time>2018-05-16T10:12:59Z</time>
      </trkpt>
      <trkpt lat="45.93737" lon="4.78628">
        <ele>177</ele>
        <time>2018-05-16T10:13:00Z</time>
      </trkpt>
      <trkpt lat="45.93745" lon="4.78626">
        <ele>177</ele>
        <time>2018-05-16T10:13:03Z</time>
      </trkpt>
      <trkpt lat="45.93748" lon="4.78626">
        <ele>177</ele>
        <time>2018-05-16T10:13:04Z</time>
      </trkpt>
      <trkpt lat="45.93756" lon="4.78623">
        <ele>181</ele>
        <time>2018-05-16T10:13:07Z</time>
      </trkpt>
      <trkpt lat="45.93764" lon="4.78621">
        <ele>181</ele>
        <time>2018-05-16T10:13:08Z</time>
      </trkpt>
      <trkpt lat="45.93773" lon="4.78619">
        <ele>181</ele>
        <time>2018-05-16T10:13:12Z</time>
      </trkpt>
      <trkpt lat="45.93776" lon="4.78619">
        <ele>181</ele>
        <time>2018-05-16T10:13:13Z</time>
      </trkpt>
      <trkpt lat="45.93784" lon="4.78616">
        <ele>182</ele>
        <time>2018-05-16T10:13:16Z</time>
      </trkpt>
      <trkpt lat="45.93788" lon="4.78616">
        <ele>182</ele>
        <time>2018-05-16T10:13:17Z</time>
      </trkpt>
      <trkpt lat="45.93794" lon="4.78614">
        <ele>182</ele>
        <time>2018-05-16T10:13:19Z</time>
      </trkpt>
      <trkpt lat="45.93803" lon="4.78611">
        <ele>183</ele>
        <time>2018-05-16T10:13:20Z</time>
      </trkpt>
      <trkpt lat="45.93811" lon="4.78609">
        <ele>183</ele>
        <time>2018-05-16T10:13:23Z</time>
      </trkpt>
      <trkpt lat="45.93814" lon="4.78608">
        <ele>183</ele>
        <time>2018-05-16T10:13:24Z</time>
      </trkpt>
      <trkpt lat="45.93821" lon="4.78606">
        <ele>184</ele>
        <time>2018-05-16T10:13:27Z</time>
      </trkpt>
      <trkpt lat="45.93824" lon="4.78605">
        <ele>184</ele>
        <time>2018-05-16T10:13:28Z</time>
      </trkpt>
      <trkpt lat="45.93832" lon="4.78602">
        <ele>184</ele>
        <time>2018-05-16T10:13:31Z</time>
      </trkpt>
      <trkpt lat="45.93835" lon="4.78602">
        <ele>187</ele>
        <time>2018-05-16T10:13:32Z</time>
      </trkpt>
      <trkpt lat="45.93841" lon="4.78601">
        <ele>188</ele>
        <time>2018-05-16T10:13:35Z</time>
      </trkpt>
      <trkpt lat="45.93844" lon="4.786">
        <ele>188</ele>
        <time>2018-05-16T10:13:36Z</time>
      </trkpt>
      <trkpt lat="45.93851" lon="4.78597">
        <ele>188</ele>
        <time>2018-05-16T10:13:39Z</time>
      </trkpt>
      <trkpt lat="45.93853" lon="4.78596">
        <ele>188</ele>
        <time>2018-05-16T10:13:40Z</time>
      </trkpt>
      <trkpt lat="45.93861" lon="4.78594">
        <ele>188</ele>
        <time>2018-05-16T10:13:43Z</time>
      </trkpt>
      <trkpt lat="45.93863" lon="4.78594">
        <ele>188</ele>
        <time>2018-05-16T10:13:44Z</time>
      </trkpt>
      <trkpt lat="45.9387" lon="4.78592">
        <ele>189</ele>
        <time>2018-05-16T10:13:47Z</time>
      </trkpt>
      <trkpt lat="45.93873" lon="4.78592">
        <ele>189</ele>
        <time>2018-05-16T10:13:48Z</time>
      </trkpt>
      <trkpt lat="45.9388" lon="4.78591">
        <ele>189</ele>
        <time>2018-05-16T10:13:51Z</time>
      </trkpt>
      <trkpt lat="45.93882" lon="4.7859">
        <ele>189</ele>
        <time>2018-05-16T10:13:52Z</time>
      </trkpt>
      <trkpt lat="45.93889" lon="4.78588">
        <ele>190</ele>
        <time>2018-05-16T10:13:55Z</time>
      </trkpt>
      <trkpt lat="45.93891" lon="4.78588">
        <ele>190</ele>
        <time>2018-05-16T10:13:56Z</time>
      </trkpt>
      <trkpt lat="45.939" lon="4.78587">
        <ele>191</ele>
        <time>2018-05-16T10:14:00Z</time>
      </trkpt>
      <trkpt lat="45.93902" lon="4.78586">
        <ele>191</ele>
        <time>2018-05-16T10:14:01Z</time>
      </trkpt>
      <trkpt lat="45.93909" lon="4.78584">
        <ele>192</ele>
        <time>2018-05-16T10:14:04Z</time>
      </trkpt>
      <trkpt lat="45.93911" lon="4.78583">
        <ele>193</ele>
        <time>2018-05-16T10:14:05Z</time>
      </trkpt>
      <trkpt lat="45.93917" lon="4.78579">
        <ele>194</ele>
        <time>2018-05-16T10:14:08Z</time>
      </trkpt>
      <trkpt lat="45.9392" lon="4.78577">
        <ele>194</ele>
        <time>2018-05-16T10:14:09Z</time>
      </trkpt>
      <trkpt lat="45.93926" lon="4.78572">
        <ele>195</ele>
        <time>2018-05-16T10:14:12Z</time>
      </trkpt>
      <trkpt lat="45.93928" lon="4.78571">
        <ele>196</ele>
        <time>2018-05-16T10:14:13Z</time>
      </trkpt>
      <trkpt lat="45.93932" lon="4.78574">
        <ele>196</ele>
        <time>2018-05-16T10:14:16Z</time>
      </trkpt>
      <trkpt lat="45.93935" lon="4.78582">
        <ele>196</ele>
        <time>2018-05-16T10:14:17Z</time>
      </trkpt>
      <trkpt lat="45.93934" lon="4.78593">
        <ele>195</ele>
        <time>2018-05-16T10:14:19Z</time>
      </trkpt>
      <trkpt lat="45.93934" lon="4.78599">
        <ele>195</ele>
        <time>2018-05-16T10:14:20Z</time>
      </trkpt>
      <trkpt lat="45.93934" lon="4.7861">
        <ele>195</ele>
        <time>2018-05-16T10:14:22Z</time>
      </trkpt>
      <trkpt lat="45.93934" lon="4.78616">
        <ele>195</ele>
        <time>2018-05-16T10:14:23Z</time>
      </trkpt>
      <trkpt lat="45.93934" lon="4.78627">
        <ele>195</ele>
        <time>2018-05-16T10:14:25Z</time>
      </trkpt>
      <trkpt lat="45.93934" lon="4.78634">
        <ele>195</ele>
        <time>2018-05-16T10:14:26Z</time>
      </trkpt>
      <trkpt lat="45.93935" lon="4.7864">
        <ele>195</ele>
        <time>2018-05-16T10:14:27Z</time>
      </trkpt>
      <trkpt lat="45.93935" lon="4.78647">
        <ele>194</ele>
        <time>2018-05-16T10:14:28Z</time>
      </trkpt>
      <trkpt lat="45.93935" lon="4.78659">
        <ele>194</ele>
        <time>2018-05-16T10:14:30Z</time>
      </trkpt>
      <trkpt lat="45.93935" lon="4.78665">
        <ele>194</ele>
        <time>2018-05-16T10:14:31Z</time>
      </trkpt>
      <trkpt lat="45.93936" lon="4.78676">
        <ele>193</ele>
        <time>2018-05-16T10:14:33Z</time>
      </trkpt>
      <trkpt lat="45.93936" lon="4.78682">
        <ele>193</ele>
        <time>2018-05-16T10:14:34Z</time>
      </trkpt>
      <trkpt lat="45.93936" lon="4.78694">
        <ele>194</ele>
        <time>2018-05-16T10:14:36Z</time>
      </trkpt>
      <trkpt lat="45.93936" lon="4.787">
        <ele>194</ele>
        <time>2018-05-16T10:14:37Z</time>
      </trkpt>
      <trkpt lat="45.93936" lon="4.78706">
        <ele>194</ele>
        <time>2018-05-16T10:14:38Z</time>
      </trkpt>
      <trkpt lat="45.93936" lon="4.78714">
        <ele>194</ele>
        <time>2018-05-16T10:14:39Z</time>
      </trkpt>
      <trkpt lat="45.93935" lon="4.78727">
        <ele>194</ele>
        <time>2018-05-16T10:14:41Z</time>
      </trkpt>
      <trkpt lat="45.93935" lon="4.78733">
        <ele>193</ele>
        <time>2018-05-16T10:14:42Z</time>
      </trkpt>
      <trkpt lat="45.93935" lon="4.7874">
        <ele>193</ele>
        <time>2018-05-16T10:14:43Z</time>
      </trkpt>
      <trkpt lat="45.93935" lon="4.78746">
        <ele>193</ele>
        <time>2018-05-16T10:14:44Z</time>
      </trkpt>
      <trkpt lat="45.93933" lon="4.78753">
        <ele>193</ele>
        <time>2018-05-16T10:14:45Z</time>
      </trkpt>
      <trkpt lat="45.93934" lon="4.7876">
        <ele>193</ele>
        <time>2018-05-16T10:14:46Z</time>
      </trkpt>
      <trkpt lat="45.93934" lon="4.78772">
        <ele>193</ele>
        <time>2018-05-16T10:14:48Z</time>
      </trkpt>
      <trkpt lat="45.93934" lon="4.78778">
        <ele>194</ele>
        <time>2018-05-16T10:14:49Z</time>
      </trkpt>
      <trkpt lat="45.93934" lon="4.7879">
        <ele>194</ele>
        <time>2018-05-16T10:14:51Z</time>
      </trkpt>
      <trkpt lat="45.93934" lon="4.78797">
        <ele>194</ele>
        <time>2018-05-16T10:14:52Z</time>
      </trkpt>
      <trkpt lat="45.93934" lon="4.78809">
        <ele>194</ele>
        <time>2018-05-16T10:14:54Z</time>
      </trkpt>
      <trkpt lat="45.93934" lon="4.78816">
        <ele>193</ele>
        <time>2018-05-16T10:14:55Z</time>
      </trkpt>
      <trkpt lat="45.93934" lon="4.78823">
        <ele>193</ele>
        <time>2018-05-16T10:14:56Z</time>
      </trkpt>
      <trkpt lat="45.93935" lon="4.7883">
        <ele>193</ele>
        <time>2018-05-16T10:14:57Z</time>
      </trkpt>
      <trkpt lat="45.93935" lon="4.78841">
        <ele>193</ele>
        <time>2018-05-16T10:14:59Z</time>
      </trkpt>
      <trkpt lat="45.93935" lon="4.78847">
        <ele>193</ele>
        <time>2018-05-16T10:15:00Z</time>
      </trkpt>
      <trkpt lat="45.93936" lon="4.78858">
        <ele>193</ele>
        <time>2018-05-16T10:15:02Z</time>
      </trkpt>
      <trkpt lat="45.93936" lon="4.78865">
        <ele>194</ele>
        <time>2018-05-16T10:15:03Z</time>
      </trkpt>
      <trkpt lat="45.93937" lon="4.78872">
        <ele>194</ele>
        <time>2018-05-16T10:15:04Z</time>
      </trkpt>
      <trkpt lat="45.93937" lon="4.78879">
        <ele>193</ele>
        <time>2018-05-16T10:15:05Z</time>
      </trkpt>
      <trkpt lat="45.93937" lon="4.78885">
        <ele>193</ele>
        <time>2018-05-16T10:15:06Z</time>
      </trkpt>
      <trkpt lat="45.93938" lon="4.78893">
        <ele>193</ele>
        <time>2018-05-16T10:15:07Z</time>
      </trkpt>
      <trkpt lat="45.93938" lon="4.789">
        <ele>193</ele>
        <time>2018-05-16T10:15:08Z</time>
      </trkpt>
      <trkpt lat="45.93938" lon="4.78907">
        <ele>193</ele>
        <time>2018-05-16T10:15:09Z</time>
      </trkpt>
      <trkpt lat="45.93938" lon="4.78914">
        <ele>193</ele>
        <time>2018-05-16T10:15:10Z</time>
      </trkpt>
      <trkpt lat="45.93939" lon="4.7892">
        <ele>193</ele>
        <time>2018-05-16T10:15:11Z</time>
      </trkpt>
      <trkpt lat="45.9394" lon="4.78928">
        <ele>193</ele>
        <time>2018-05-16T10:15:12Z</time>
      </trkpt>
      <trkpt lat="45.9394" lon="4.78935">
        <ele>193</ele>
        <time>2018-05-16T10:15:13Z</time>
      </trkpt>
      <trkpt lat="45.93941" lon="4.78947">
        <ele>194</ele>
        <time>2018-05-16T10:15:15Z</time>
      </trkpt>
      <trkpt lat="45.93941" lon="4.78953">
        <ele>194</ele>
        <time>2018-05-16T10:15:16Z</time>
      </trkpt>
      <trkpt lat="45.93942" lon="4.78966">
        <ele>194</ele>
        <time>2018-05-16T10:15:18Z</time>
      </trkpt>
      <trkpt lat="45.93942" lon="4.78972">
        <ele>194</ele>
        <time>2018-05-16T10:15:19Z</time>
      </trkpt>
      <trkpt lat="45.93942" lon="4.78978">
        <ele>194</ele>
        <time>2018-05-16T10:15:20Z</time>
      </trkpt>
      <trkpt lat="45.93943" lon="4.78985">
        <ele>194</ele>
        <time>2018-05-16T10:15:21Z</time>
      </trkpt>
      <trkpt lat="45.93943" lon="4.78997">
        <ele>194</ele>
        <time>2018-05-16T10:15:23Z</time>
      </trkpt>
      <trkpt lat="45.93944" lon="4.79004">
        <ele>194</ele>
        <time>2018-05-16T10:15:24Z</time>
      </trkpt>
      <trkpt lat="45.93944" lon="4.79015">
        <ele>195</ele>
        <time>2018-05-16T10:15:26Z</time>
      </trkpt>
      <trkpt lat="45.93944" lon="4.79021">
        <ele>195</ele>
        <time>2018-05-16T10:15:27Z</time>
      </trkpt>
      <trkpt lat="45.93944" lon="4.79034">
        <ele>195</ele>
        <time>2018-05-16T10:15:29Z</time>
      </trkpt>
      <trkpt lat="45.93945" lon="4.7904">
        <ele>195</ele>
        <time>2018-05-16T10:15:30Z</time>
      </trkpt>
      <trkpt lat="45.93945" lon="4.79053">
        <ele>196</ele>
        <time>2018-05-16T10:15:32Z</time>
      </trkpt>
      <trkpt lat="45.93946" lon="4.79059">
        <ele>196</ele>
        <time>2018-05-16T10:15:33Z</time>
      </trkpt>
      <trkpt lat="45.93946" lon="4.79071">
        <ele>195</ele>
        <time>2018-05-16T10:15:35Z</time>
      </trkpt>
      <trkpt lat="45.93946" lon="4.79076">
        <ele>195</ele>
        <time>2018-05-16T10:15:36Z</time>
      </trkpt>
      <trkpt lat="45.93946" lon="4.79088">
        <ele>196</ele>
        <time>2018-05-16T10:15:38Z</time>
      </trkpt>
      <trkpt lat="45.93947" lon="4.79095">
        <ele>196</ele>
        <time>2018-05-16T10:15:39Z</time>
      </trkpt>
      <trkpt lat="45.93947" lon="4.79107">
        <ele>196</ele>
        <time>2018-05-16T10:15:41Z</time>
      </trkpt>
      <trkpt lat="45.93948" lon="4.79113">
        <ele>196</ele>
        <time>2018-05-16T10:15:42Z</time>
      </trkpt>
      <trkpt lat="45.93949" lon="4.79126">
        <ele>197</ele>
        <time>2018-05-16T10:15:44Z</time>
      </trkpt>
      <trkpt lat="45.93949" lon="4.79132">
        <ele>197</ele>
        <time>2018-05-16T10:15:45Z</time>
      </trkpt>
      <trkpt lat="45.93949" lon="4.79144">
        <ele>197</ele>
        <time>2018-05-16T10:15:47Z</time>
      </trkpt>
      <trkpt lat="45.93949" lon="4.7915">
        <ele>196</ele>
        <time>2018-05-16T10:15:48Z</time>
      </trkpt>
      <trkpt lat="45.9395" lon="4.79162">
        <ele>196</ele>
        <time>2018-05-16T10:15:50Z</time>
      </trkpt>
      <trkpt lat="45.9395" lon="4.79168">
        <ele>197</ele>
        <time>2018-05-16T10:15:51Z</time>
      </trkpt>
      <trkpt lat="45.93951" lon="4.79181">
        <ele>197</ele>
        <time>2018-05-16T10:15:53Z</time>
      </trkpt>
      <trkpt lat="45.93951" lon="4.79187">
        <ele>197</ele>
        <time>2018-05-16T10:15:54Z</time>
      </trkpt>
      <trkpt lat="45.93951" lon="4.79199">
        <ele>197</ele>
        <time>2018-05-16T10:15:56Z</time>
      </trkpt>
      <trkpt lat="45.93951" lon="4.79205">
        <ele>197</ele>
        <time>2018-05-16T10:15:57Z</time>
      </trkpt>
      <trkpt lat="45.9395" lon="4.79217">
        <ele>197</ele>
        <time>2018-05-16T10:15:59Z</time>
      </trkpt>
      <trkpt lat="45.9395" lon="4.79223">
        <ele>197</ele>
        <time>2018-05-16T10:16:00Z</time>
      </trkpt>
      <trkpt lat="45.9395" lon="4.7923">
        <ele>197</ele>
        <time>2018-05-16T10:16:01Z</time>
      </trkpt>
      <trkpt lat="45.9395" lon="4.79237">
        <ele>197</ele>
        <time>2018-05-16T10:16:02Z</time>
      </trkpt>
      <trkpt lat="45.9395" lon="4.79243">
        <ele>197</ele>
        <time>2018-05-16T10:16:03Z</time>
      </trkpt>
      <trkpt lat="45.93952" lon="4.7925">
        <ele>197</ele>
        <time>2018-05-16T10:16:04Z</time>
      </trkpt>
      <trkpt lat="45.93953" lon="4.79262">
        <ele>198</ele>
        <time>2018-05-16T10:16:06Z</time>
      </trkpt>
      <trkpt lat="45.93954" lon="4.79269">
        <ele>198</ele>
        <time>2018-05-16T10:16:07Z</time>
      </trkpt>
      <trkpt lat="45.93953" lon="4.79279">
        <ele>198</ele>
        <time>2018-05-16T10:16:09Z</time>
      </trkpt>
      <trkpt lat="45.93953" lon="4.79285">
        <ele>198</ele>
        <time>2018-05-16T10:16:10Z</time>
      </trkpt>
      <trkpt lat="45.93953" lon="4.79297">
        <ele>198</ele>
        <time>2018-05-16T10:16:12Z</time>
      </trkpt>
      <trkpt lat="45.93954" lon="4.79304">
        <ele>199</ele>
        <time>2018-05-16T10:16:13Z</time>
      </trkpt>
      <trkpt lat="45.93954" lon="4.79316">
        <ele>199</ele>
        <time>2018-05-16T10:16:15Z</time>
      </trkpt>
      <trkpt lat="45.93954" lon="4.79322">
        <ele>199</ele>
        <time>2018-05-16T10:16:16Z</time>
      </trkpt>
      <trkpt lat="45.93955" lon="4.79333">
        <ele>199</ele>
        <time>2018-05-16T10:16:18Z</time>
      </trkpt>
      <trkpt lat="45.93954" lon="4.79339">
        <ele>200</ele>
        <time>2018-05-16T10:16:19Z</time>
      </trkpt>
      <trkpt lat="45.93954" lon="4.79351">
        <ele>201</ele>
        <time>2018-05-16T10:16:21Z</time>
      </trkpt>
      <trkpt lat="45.93954" lon="4.79356">
        <ele>201</ele>
        <time>2018-05-16T10:16:22Z</time>
      </trkpt>
      <trkpt lat="45.93954" lon="4.79365">
        <ele>201</ele>
        <time>2018-05-16T10:16:24Z</time>
      </trkpt>
      <trkpt lat="45.93953" lon="4.79372">
        <ele>201</ele>
        <time>2018-05-16T10:16:25Z</time>
      </trkpt>
      <trkpt lat="45.93953" lon="4.79385">
        <ele>201</ele>
        <time>2018-05-16T10:16:27Z</time>
      </trkpt>
      <trkpt lat="45.93952" lon="4.79391">
        <ele>201</ele>
        <time>2018-05-16T10:16:28Z</time>
      </trkpt>
      <trkpt lat="45.93953" lon="4.79403">
        <ele>201</ele>
        <time>2018-05-16T10:16:30Z</time>
      </trkpt>
      <trkpt lat="45.93953" lon="4.79409">
        <ele>201</ele>
        <time>2018-05-16T10:16:31Z</time>
      </trkpt>
      <trkpt lat="45.93954" lon="4.7942">
        <ele>202</ele>
        <time>2018-05-16T10:16:33Z</time>
      </trkpt>
      <trkpt lat="45.93954" lon="4.79423">
        <ele>202</ele>
        <time>2018-05-16T10:16:34Z</time>
      </trkpt>
      <trkpt lat="45.93954" lon="4.79431">
        <ele>202</ele>
        <time>2018-05-16T10:16:35Z</time>
      </trkpt>
      <trkpt lat="45.93953" lon="4.79436">
        <ele>202</ele>
        <time>2018-05-16T10:16:36Z</time>
      </trkpt>
      <trkpt lat="45.93954" lon="4.79447">
        <ele>203</ele>
        <time>2018-05-16T10:16:38Z</time>
      </trkpt>
      <trkpt lat="45.93955" lon="4.79453">
        <ele>203</ele>
        <time>2018-05-16T10:16:39Z</time>
      </trkpt>
      <trkpt lat="45.93956" lon="4.79466">
        <ele>203</ele>
        <time>2018-05-16T10:16:41Z</time>
      </trkpt>
      <trkpt lat="45.93956" lon="4.79472">
        <ele>203</ele>
        <time>2018-05-16T10:16:42Z</time>
      </trkpt>
      <trkpt lat="45.93957" lon="4.79484">
        <ele>203</ele>
        <time>2018-05-16T10:16:44Z</time>
      </trkpt>
      <trkpt lat="45.93957" lon="4.7949">
        <ele>203</ele>
        <time>2018-05-16T10:16:45Z</time>
      </trkpt>
      <trkpt lat="45.93958" lon="4.79502">
        <ele>204</ele>
        <time>2018-05-16T10:16:47Z</time>
      </trkpt>
      <trkpt lat="45.93958" lon="4.79508">
        <ele>204</ele>
        <time>2018-05-16T10:16:48Z</time>
      </trkpt>
      <trkpt lat="45.9396" lon="4.7952">
        <ele>205</ele>
        <time>2018-05-16T10:16:50Z</time>
      </trkpt>
      <trkpt lat="45.9396" lon="4.79525">
        <ele>205</ele>
        <time>2018-05-16T10:16:51Z</time>
      </trkpt>
      <trkpt lat="45.93961" lon="4.79536">
        <ele>205</ele>
        <time>2018-05-16T10:16:53Z</time>
      </trkpt>
      <trkpt lat="45.93961" lon="4.79542">
        <ele>205</ele>
        <time>2018-05-16T10:16:54Z</time>
      </trkpt>
      <trkpt lat="45.93962" lon="4.79553">
        <ele>205</ele>
        <time>2018-05-16T10:16:56Z</time>
      </trkpt>
      <trkpt lat="45.93962" lon="4.79559">
        <ele>206</ele>
        <time>2018-05-16T10:16:57Z</time>
      </trkpt>
      <trkpt lat="45.93962" lon="4.7957">
        <ele>206</ele>
        <time>2018-05-16T10:16:59Z</time>
      </trkpt>
      <trkpt lat="45.93963" lon="4.79576">
        <ele>206</ele>
        <time>2018-05-16T10:17:00Z</time>
      </trkpt>
      <trkpt lat="45.93963" lon="4.79587">
        <ele>207</ele>
        <time>2018-05-16T10:17:02Z</time>
      </trkpt>
      <trkpt lat="45.93963" lon="4.79592">
        <ele>207</ele>
        <time>2018-05-16T10:17:03Z</time>
      </trkpt>
      <trkpt lat="45.93964" lon="4.79602">
        <ele>207</ele>
        <time>2018-05-16T10:17:05Z</time>
      </trkpt>
      <trkpt lat="45.93964" lon="4.79608">
        <ele>207</ele>
        <time>2018-05-16T10:17:06Z</time>
      </trkpt>
      <trkpt lat="45.93965" lon="4.79619">
        <ele>207</ele>
        <time>2018-05-16T10:17:08Z</time>
      </trkpt>
      <trkpt lat="45.93965" lon="4.79625">
        <ele>207</ele>
        <time>2018-05-16T10:17:09Z</time>
      </trkpt>
      <trkpt lat="45.93966" lon="4.79636">
        <ele>207</ele>
        <time>2018-05-16T10:17:11Z</time>
      </trkpt>
      <trkpt lat="45.93967" lon="4.79641">
        <ele>207</ele>
        <time>2018-05-16T10:17:12Z</time>
      </trkpt>
      <trkpt lat="45.93967" lon="4.79652">
        <ele>208</ele>
        <time>2018-05-16T10:17:14Z</time>
      </trkpt>
      <trkpt lat="45.93967" lon="4.79658">
        <ele>208</ele>
        <time>2018-05-16T10:17:15Z</time>
      </trkpt>
      <trkpt lat="45.93969" lon="4.7967">
        <ele>207</ele>
        <time>2018-05-16T10:17:17Z</time>
      </trkpt>
      <trkpt lat="45.93969" lon="4.79676">
        <ele>207</ele>
        <time>2018-05-16T10:17:18Z</time>
      </trkpt>
      <trkpt lat="45.93969" lon="4.79687">
        <ele>207</ele>
        <time>2018-05-16T10:17:20Z</time>
      </trkpt>
      <trkpt lat="45.93969" lon="4.79693">
        <ele>207</ele>
        <time>2018-05-16T10:17:21Z</time>
      </trkpt>
      <trkpt lat="45.93969" lon="4.79704">
        <ele>207</ele>
        <time>2018-05-16T10:17:23Z</time>
      </trkpt>
      <trkpt lat="45.9397" lon="4.7971">
        <ele>207</ele>
        <time>2018-05-16T10:17:24Z</time>
      </trkpt>
      <trkpt lat="45.93972" lon="4.79721">
        <ele>207</ele>
        <time>2018-05-16T10:17:26Z</time>
      </trkpt>
      <trkpt lat="45.93973" lon="4.79727">
        <ele>207</ele>
        <time>2018-05-16T10:17:27Z</time>
      </trkpt>
      <trkpt lat="45.93974" lon="4.79739">
        <ele>207</ele>
        <time>2018-05-16T10:17:29Z</time>
      </trkpt>
      <trkpt lat="45.93975" lon="4.79745">
        <ele>207</ele>
        <time>2018-05-16T10:17:30Z</time>
      </trkpt>
      <trkpt lat="45.93976" lon="4.79751">
        <ele>207</ele>
        <time>2018-05-16T10:17:31Z</time>
      </trkpt>
      <trkpt lat="45.93976" lon="4.79758">
        <ele>207</ele>
        <time>2018-05-16T10:17:32Z</time>
      </trkpt>
      <trkpt lat="45.93977" lon="4.79764">
        <ele>207</ele>
        <time>2018-05-16T10:17:33Z</time>
      </trkpt>
      <trkpt lat="45.93976" lon="4.79772">
        <ele>206</ele>
        <time>2018-05-16T10:17:34Z</time>
      </trkpt>
      <trkpt lat="45.93976" lon="4.79779">
        <ele>206</ele>
        <time>2018-05-16T10:17:35Z</time>
      </trkpt>
      <trkpt lat="45.93979" lon="4.79786">
        <ele>207</ele>
        <time>2018-05-16T10:17:36Z</time>
      </trkpt>
      <trkpt lat="45.93979" lon="4.79793">
        <ele>207</ele>
        <time>2018-05-16T10:17:37Z</time>
      </trkpt>
      <trkpt lat="45.93978" lon="4.79799">
        <ele>207</ele>
        <time>2018-05-16T10:17:38Z</time>
      </trkpt>
      <trkpt lat="45.93977" lon="4.79811">
        <ele>207</ele>
        <time>2018-05-16T10:17:40Z</time>
      </trkpt>
      <trkpt lat="45.93977" lon="4.79818">
        <ele>207</ele>
        <time>2018-05-16T10:17:41Z</time>
      </trkpt>
      <trkpt lat="45.93975" lon="4.7983">
        <ele>207</ele>
        <time>2018-05-16T10:17:43Z</time>
      </trkpt>
      <trkpt lat="45.93974" lon="4.79837">
        <ele>207</ele>
        <time>2018-05-16T10:17:44Z</time>
      </trkpt>
      <trkpt lat="45.93972" lon="4.79844">
        <ele>207</ele>
        <time>2018-05-16T10:17:45Z</time>
      </trkpt>
      <trkpt lat="45.93971" lon="4.79851">
        <ele>206</ele>
        <time>2018-05-16T10:17:46Z</time>
      </trkpt>
      <trkpt lat="45.9397" lon="4.79857">
        <ele>206</ele>
        <time>2018-05-16T10:17:47Z</time>
      </trkpt>
      <trkpt lat="45.93969" lon="4.79864">
        <ele>206</ele>
        <time>2018-05-16T10:17:48Z</time>
      </trkpt>
      <trkpt lat="45.93966" lon="4.79875">
        <ele>206</ele>
        <time>2018-05-16T10:17:50Z</time>
      </trkpt>
      <trkpt lat="45.93964" lon="4.79881">
        <ele>206</ele>
        <time>2018-05-16T10:17:51Z</time>
      </trkpt>
      <trkpt lat="45.93962" lon="4.79888">
        <ele>206</ele>
        <time>2018-05-16T10:17:52Z</time>
      </trkpt>
      <trkpt lat="45.93961" lon="4.79894">
        <ele>206</ele>
        <time>2018-05-16T10:17:53Z</time>
      </trkpt>
      <trkpt lat="45.93958" lon="4.79901">
        <ele>206</ele>
        <time>2018-05-16T10:17:54Z</time>
      </trkpt>
      <trkpt lat="45.93956" lon="4.79907">
        <ele>205</ele>
        <time>2018-05-16T10:17:55Z</time>
      </trkpt>
      <trkpt lat="45.93954" lon="4.79914">
        <ele>205</ele>
        <time>2018-05-16T10:17:56Z</time>
      </trkpt>
      <trkpt lat="45.93952" lon="4.79921">
        <ele>205</ele>
        <time>2018-05-16T10:17:57Z</time>
      </trkpt>
      <trkpt lat="45.9395" lon="4.79933">
        <ele>205</ele>
        <time>2018-05-16T10:17:59Z</time>
      </trkpt>
      <trkpt lat="45.9395" lon="4.7994">
        <ele>205</ele>
        <time>2018-05-16T10:18:00Z</time>
      </trkpt>
      <trkpt lat="45.93948" lon="4.79947">
        <ele>205</ele>
        <time>2018-05-16T10:18:01Z</time>
      </trkpt>
      <trkpt lat="45.93948" lon="4.79953">
        <ele>205</ele>
        <time>2018-05-16T10:18:02Z</time>
      </trkpt>
      <trkpt lat="45.93946" lon="4.79958">
        <ele>205</ele>
        <time>2018-05-16T10:18:03Z</time>
      </trkpt>
      <trkpt lat="45.93945" lon="4.79965">
        <ele>205</ele>
        <time>2018-05-16T10:18:04Z</time>
      </trkpt>
      <trkpt lat="45.93943" lon="4.79971">
        <ele>205</ele>
        <time>2018-05-16T10:18:05Z</time>
      </trkpt>
      <trkpt lat="45.93942" lon="4.79978">
        <ele>205</ele>
        <time>2018-05-16T10:18:06Z</time>
      </trkpt>
      <trkpt lat="45.93941" lon="4.79985">
        <ele>204</ele>
        <time>2018-05-16T10:18:07Z</time>
      </trkpt>
      <trkpt lat="45.93941" lon="4.79992">
        <ele>204</ele>
        <time>2018-05-16T10:18:08Z</time>
      </trkpt>
      <trkpt lat="45.9394" lon="4.79999">
        <ele>204</ele>
        <time>2018-05-16T10:18:09Z</time>
      </trkpt>
      <trkpt lat="45.9394" lon="4.80006">
        <ele>206</ele>
        <time>2018-05-16T10:18:10Z</time>
      </trkpt>
      <trkpt lat="45.93939" lon="4.80012">
        <ele>206</ele>
        <time>2018-05-16T10:18:11Z</time>
      </trkpt>
      <trkpt lat="45.93939" lon="4.80019">
        <ele>206</ele>
        <time>2018-05-16T10:18:12Z</time>
      </trkpt>
      <trkpt lat="45.93938" lon="4.80026">
        <ele>206</ele>
        <time>2018-05-16T10:18:13Z</time>
      </trkpt>
      <trkpt lat="45.93938" lon="4.80034">
        <ele>207</ele>
        <time>2018-05-16T10:18:14Z</time>
      </trkpt>
      <trkpt lat="45.93938" lon="4.80041">
        <ele>207</ele>
        <time>2018-05-16T10:18:15Z</time>
      </trkpt>
      <trkpt lat="45.93937" lon="4.80048">
        <ele>207</ele>
        <time>2018-05-16T10:18:16Z</time>
      </trkpt>
      <trkpt lat="45.93939" lon="4.80055">
        <ele>207</ele>
        <time>2018-05-16T10:18:17Z</time>
      </trkpt>
      <trkpt lat="45.93939" lon="4.80063">
        <ele>207</ele>
        <time>2018-05-16T10:18:18Z</time>
      </trkpt>
      <trkpt lat="45.93938" lon="4.80069">
        <ele>207</ele>
        <time>2018-05-16T10:18:19Z</time>
      </trkpt>
      <trkpt lat="45.93938" lon="4.80076">
        <ele>207</ele>
        <time>2018-05-16T10:18:20Z</time>
      </trkpt>
      <trkpt lat="45.93939" lon="4.80083">
        <ele>207</ele>
        <time>2018-05-16T10:18:21Z</time>
      </trkpt>
      <trkpt lat="45.9394" lon="4.8009">
        <ele>208</ele>
        <time>2018-05-16T10:18:22Z</time>
      </trkpt>
      <trkpt lat="45.9394" lon="4.80097">
        <ele>208</ele>
        <time>2018-05-16T10:18:23Z</time>
      </trkpt>
      <trkpt lat="45.93941" lon="4.80105">
        <ele>208</ele>
        <time>2018-05-16T10:18:24Z</time>
      </trkpt>
      <trkpt lat="45.93941" lon="4.80112">
        <ele>209</ele>
        <time>2018-05-16T10:18:25Z</time>
      </trkpt>
      <trkpt lat="45.93942" lon="4.8012">
        <ele>209</ele>
        <time>2018-05-16T10:18:26Z</time>
      </trkpt>
      <trkpt lat="45.93943" lon="4.80127">
        <ele>209</ele>
        <time>2018-05-16T10:18:27Z</time>
      </trkpt>
      <trkpt lat="45.93942" lon="4.80133">
        <ele>208</ele>
        <time>2018-05-16T10:18:28Z</time>
      </trkpt>
      <trkpt lat="45.93944" lon="4.80145">
        <ele>208</ele>
        <time>2018-05-16T10:18:30Z</time>
      </trkpt>
      <trkpt lat="45.93945" lon="4.80151">
        <ele>208</ele>
        <time>2018-05-16T10:18:31Z</time>
      </trkpt>
      <trkpt lat="45.93947" lon="4.80163">
        <ele>208</ele>
        <time>2018-05-16T10:18:33Z</time>
      </trkpt>
      <trkpt lat="45.93948" lon="4.80169">
        <ele>206</ele>
        <time>2018-05-16T10:18:34Z</time>
      </trkpt>
      <trkpt lat="45.93949" lon="4.80175">
        <ele>206</ele>
        <time>2018-05-16T10:18:35Z</time>
      </trkpt>
      <trkpt lat="45.9395" lon="4.80182">
        <ele>206</ele>
        <time>2018-05-16T10:18:36Z</time>
      </trkpt>
      <trkpt lat="45.9395" lon="4.80189">
        <ele>206</ele>
        <time>2018-05-16T10:18:37Z</time>
      </trkpt>
      <trkpt lat="45.93951" lon="4.80196">
        <ele>205</ele>
        <time>2018-05-16T10:18:38Z</time>
      </trkpt>
      <trkpt lat="45.93954" lon="4.80203">
        <ele>205</ele>
        <time>2018-05-16T10:18:39Z</time>
      </trkpt>
      <trkpt lat="45.9396" lon="4.80213">
        <ele>205</ele>
        <time>2018-05-16T10:18:40Z</time>
      </trkpt>
      <trkpt lat="45.93962" lon="4.8022">
        <ele>205</ele>
        <time>2018-05-16T10:18:41Z</time>
      </trkpt>
      <trkpt lat="45.93962" lon="4.80228">
        <ele>205</ele>
        <time>2018-05-16T10:18:42Z</time>
      </trkpt>
      <trkpt lat="45.93963" lon="4.80235">
        <ele>204</ele>
        <time>2018-05-16T10:18:43Z</time>
      </trkpt>
      <trkpt lat="45.93965" lon="4.80242">
        <ele>204</ele>
        <time>2018-05-16T10:18:44Z</time>
      </trkpt>
      <trkpt lat="45.93969" lon="4.8025">
        <ele>202</ele>
        <time>2018-05-16T10:18:45Z</time>
      </trkpt>
      <trkpt lat="45.93971" lon="4.80256">
        <ele>202</ele>
        <time>2018-05-16T10:18:46Z</time>
      </trkpt>
      <trkpt lat="45.93973" lon="4.80261">
        <ele>203</ele>
        <time>2018-05-16T10:18:47Z</time>
      </trkpt>
      <trkpt lat="45.93974" lon="4.80268">
        <ele>203</ele>
        <time>2018-05-16T10:18:48Z</time>
      </trkpt>
      <trkpt lat="45.93977" lon="4.80279">
        <ele>203</ele>
        <time>2018-05-16T10:18:50Z</time>
      </trkpt>
      <trkpt lat="45.93981" lon="4.80288">
        <ele>203</ele>
        <time>2018-05-16T10:18:51Z</time>
      </trkpt>
      <trkpt lat="45.93985" lon="4.80299">
        <ele>203</ele>
        <time>2018-05-16T10:18:53Z</time>
      </trkpt>
      <trkpt lat="45.93985" lon="4.80303">
        <ele>203</ele>
        <time>2018-05-16T10:18:54Z</time>
      </trkpt>
      <trkpt lat="45.93988" lon="4.80313">
        <ele>204</ele>
        <time>2018-05-16T10:18:56Z</time>
      </trkpt>
      <trkpt lat="45.93988" lon="4.80316">
        <ele>204</ele>
        <time>2018-05-16T10:18:57Z</time>
      </trkpt>
      <trkpt lat="45.93991" lon="4.80325">
        <ele>204</ele>
        <time>2018-05-16T10:19:00Z</time>
      </trkpt>
      <trkpt lat="45.93992" lon="4.80329">
        <ele>205</ele>
        <time>2018-05-16T10:19:01Z</time>
      </trkpt>
      <trkpt lat="45.93994" lon="4.8034">
        <ele>206</ele>
        <time>2018-05-16T10:19:04Z</time>
      </trkpt>
      <trkpt lat="45.93995" lon="4.80343">
        <ele>206</ele>
        <time>2018-05-16T10:19:05Z</time>
      </trkpt>
      <trkpt lat="45.93997" lon="4.80352">
        <ele>206</ele>
        <time>2018-05-16T10:19:07Z</time>
      </trkpt>
      <trkpt lat="45.93998" lon="4.80356">
        <ele>206</ele>
        <time>2018-05-16T10:19:08Z</time>
      </trkpt>
      <trkpt lat="45.94002" lon="4.80366">
        <ele>215</ele>
        <time>2018-05-16T10:19:11Z</time>
      </trkpt>
      <trkpt lat="45.94003" lon="4.8037">
        <ele>215</ele>
        <time>2018-05-16T10:19:12Z</time>
      </trkpt>
      <trkpt lat="45.94006" lon="4.8038">
        <ele>216</ele>
        <time>2018-05-16T10:19:15Z</time>
      </trkpt>
      <trkpt lat="45.94007" lon="4.80384">
        <ele>217</ele>
        <time>2018-05-16T10:19:16Z</time>
      </trkpt>
      <trkpt lat="45.94009" lon="4.80393">
        <ele>217</ele>
        <time>2018-05-16T10:19:19Z</time>
      </trkpt>
      <trkpt lat="45.9401" lon="4.80396">
        <ele>217</ele>
        <time>2018-05-16T10:19:20Z</time>
      </trkpt>
      <trkpt lat="45.94013" lon="4.80407">
        <ele>217</ele>
        <time>2018-05-16T10:19:23Z</time>
      </trkpt>
      <trkpt lat="45.94014" lon="4.8041">
        <ele>217</ele>
        <time>2018-05-16T10:19:24Z</time>
      </trkpt>
      <trkpt lat="45.94017" lon="4.8042">
        <ele>221</ele>
        <time>2018-05-16T10:19:27Z</time>
      </trkpt>
      <trkpt lat="45.94018" lon="4.80424">
        <ele>221</ele>
        <time>2018-05-16T10:19:28Z</time>
      </trkpt>
      <trkpt lat="45.94021" lon="4.80435">
        <ele>222</ele>
        <time>2018-05-16T10:19:31Z</time>
      </trkpt>
      <trkpt lat="45.94021" lon="4.80438">
        <ele>223</ele>
        <time>2018-05-16T10:19:32Z</time>
      </trkpt>
      <trkpt lat="45.94023" lon="4.80449">
        <ele>223</ele>
        <time>2018-05-16T10:19:35Z</time>
      </trkpt>
      <trkpt lat="45.94023" lon="4.80452">
        <ele>223</ele>
        <time>2018-05-16T10:19:36Z</time>
      </trkpt>
      <trkpt lat="45.94024" lon="4.80462">
        <ele>224</ele>
        <time>2018-05-16T10:19:39Z</time>
      </trkpt>
      <trkpt lat="45.94024" lon="4.80466">
        <ele>224</ele>
        <time>2018-05-16T10:19:40Z</time>
      </trkpt>
      <trkpt lat="45.94025" lon="4.80477">
        <ele>224</ele>
        <time>2018-05-16T10:19:43Z</time>
      </trkpt>
      <trkpt lat="45.94025" lon="4.80481">
        <ele>224</ele>
        <time>2018-05-16T10:19:44Z</time>
      </trkpt>
      <trkpt lat="45.94026" lon="4.80492">
        <ele>223</ele>
        <time>2018-05-16T10:19:47Z</time>
      </trkpt>
      <trkpt lat="45.94027" lon="4.80496">
        <ele>223</ele>
        <time>2018-05-16T10:19:48Z</time>
      </trkpt>
      <trkpt lat="45.94028" lon="4.80507">
        <ele>225</ele>
        <time>2018-05-16T10:19:51Z</time>
      </trkpt>
      <trkpt lat="45.94028" lon="4.80511">
        <ele>225</ele>
        <time>2018-05-16T10:19:52Z</time>
      </trkpt>
      <trkpt lat="45.94027" lon="4.80521">
        <ele>225</ele>
        <time>2018-05-16T10:19:55Z</time>
      </trkpt>
      <trkpt lat="45.94027" lon="4.80525">
        <ele>225</ele>
        <time>2018-05-16T10:19:56Z</time>
      </trkpt>
      <trkpt lat="45.94028" lon="4.80536">
        <ele>225</ele>
        <time>2018-05-16T10:19:59Z</time>
      </trkpt>
      <trkpt lat="45.94028" lon="4.8054">
        <ele>225</ele>
        <time>2018-05-16T10:20:00Z</time>
      </trkpt>
      <trkpt lat="45.94029" lon="4.80552">
        <ele>225</ele>
        <time>2018-05-16T10:20:03Z</time>
      </trkpt>
      <trkpt lat="45.94029" lon="4.80557">
        <ele>225</ele>
        <time>2018-05-16T10:20:04Z</time>
      </trkpt>
      <trkpt lat="45.9403" lon="4.80568">
        <ele>225</ele>
        <time>2018-05-16T10:20:07Z</time>
      </trkpt>
      <trkpt lat="45.9403" lon="4.80572">
        <ele>225</ele>
        <time>2018-05-16T10:20:08Z</time>
      </trkpt>
      <trkpt lat="45.94031" lon="4.80583">
        <ele>225</ele>
        <time>2018-05-16T10:20:11Z</time>
      </trkpt>
      <trkpt lat="45.94031" lon="4.80586">
        <ele>225</ele>
        <time>2018-05-16T10:20:12Z</time>
      </trkpt>
      <trkpt lat="45.94031" lon="4.80599">
        <ele>225</ele>
        <time>2018-05-16T10:20:16Z</time>
      </trkpt>
      <trkpt lat="45.94031" lon="4.80602">
        <ele>225</ele>
        <time>2018-05-16T10:20:17Z</time>
      </trkpt>
      <trkpt lat="45.9403" lon="4.80613">
        <ele>225</ele>
        <time>2018-05-16T10:20:21Z</time>
      </trkpt>
      <trkpt lat="45.9403" lon="4.80616">
        <ele>225</ele>
        <time>2018-05-16T10:20:22Z</time>
      </trkpt>
      <trkpt lat="45.94029" lon="4.80625">
        <ele>225</ele>
        <time>2018-05-16T10:20:25Z</time>
      </trkpt>
      <trkpt lat="45.9403" lon="4.80629">
        <ele>225</ele>
        <time>2018-05-16T10:20:26Z</time>
      </trkpt>
      <trkpt lat="45.94031" lon="4.8064">
        <ele>225</ele>
        <time>2018-05-16T10:20:29Z</time>
      </trkpt>
      <trkpt lat="45.94031" lon="4.80644">
        <ele>225</ele>
        <time>2018-05-16T10:20:30Z</time>
      </trkpt>
      <trkpt lat="45.94031" lon="4.80654">
        <ele>225</ele>
        <time>2018-05-16T10:20:33Z</time>
      </trkpt>
      <trkpt lat="45.94031" lon="4.80657">
        <ele>225</ele>
        <time>2018-05-16T10:20:34Z</time>
      </trkpt>
      <trkpt lat="45.94031" lon="4.80669">
        <ele>225</ele>
        <time>2018-05-16T10:20:37Z</time>
      </trkpt>
      <trkpt lat="45.94032" lon="4.80674">
        <ele>225</ele>
        <time>2018-05-16T10:20:38Z</time>
      </trkpt>
      <trkpt lat="45.94033" lon="4.80685">
        <ele>225</ele>
        <time>2018-05-16T10:20:41Z</time>
      </trkpt>
      <trkpt lat="45.94034" lon="4.80689">
        <ele>225</ele>
        <time>2018-05-16T10:20:42Z</time>
      </trkpt>
      <trkpt lat="45.94036" lon="4.80701">
        <ele>226</ele>
        <time>2018-05-16T10:20:45Z</time>
      </trkpt>
      <trkpt lat="45.94036" lon="4.80704">
        <ele>226</ele>
        <time>2018-05-16T10:20:46Z</time>
      </trkpt>
      <trkpt lat="45.94038" lon="4.80715">
        <ele>226</ele>
        <time>2018-05-16T10:20:49Z</time>
      </trkpt>
      <trkpt lat="45.94039" lon="4.80718">
        <ele>227</ele>
        <time>2018-05-16T10:20:50Z</time>
      </trkpt>
      <trkpt lat="45.9404" lon="4.80729">
        <ele>227</ele>
        <time>2018-05-16T10:20:53Z</time>
      </trkpt>
      <trkpt lat="45.9404" lon="4.80732">
        <ele>227</ele>
        <time>2018-05-16T10:20:54Z</time>
      </trkpt>
      <trkpt lat="45.94042" lon="4.80742">
        <ele>227</ele>
        <time>2018-05-16T10:20:57Z</time>
      </trkpt>
      <trkpt lat="45.94042" lon="4.80746">
        <ele>227</ele>
        <time>2018-05-16T10:20:58Z</time>
      </trkpt>
      <trkpt lat="45.94044" lon="4.80756">
        <ele>228</ele>
        <time>2018-05-16T10:21:01Z</time>
      </trkpt>
      <trkpt lat="45.94045" lon="4.8076">
        <ele>228</ele>
        <time>2018-05-16T10:21:02Z</time>
      </trkpt>
      <trkpt lat="45.94046" lon="4.80771">
        <ele>229</ele>
        <time>2018-05-16T10:21:05Z</time>
      </trkpt>
      <trkpt lat="45.94047" lon="4.80775">
        <ele>229</ele>
        <time>2018-05-16T10:21:06Z</time>
      </trkpt>
      <trkpt lat="45.94048" lon="4.80786">
        <ele>229</ele>
        <time>2018-05-16T10:21:09Z</time>
      </trkpt>
      <trkpt lat="45.94049" lon="4.8079">
        <ele>229</ele>
        <time>2018-05-16T10:21:10Z</time>
      </trkpt>
      <trkpt lat="45.9405" lon="4.808">
        <ele>229</ele>
        <time>2018-05-16T10:21:13Z</time>
      </trkpt>
      <trkpt lat="45.94051" lon="4.80804">
        <ele>229</ele>
        <time>2018-05-16T10:21:14Z</time>
      </trkpt>
      <trkpt lat="45.94052" lon="4.80813">
        <ele>230</ele>
        <time>2018-05-16T10:21:17Z</time>
      </trkpt>
      <trkpt lat="45.94052" lon="4.80817">
        <ele>230</ele>
        <time>2018-05-16T10:21:18Z</time>
      </trkpt>
      <trkpt lat="45.94054" lon="4.80827">
        <ele>231</ele>
        <time>2018-05-16T10:21:21Z</time>
      </trkpt>
      <trkpt lat="45.94054" lon="4.80831">
        <ele>231</ele>
        <time>2018-05-16T10:21:22Z</time>
      </trkpt>
      <trkpt lat="45.94056" lon="4.80842">
        <ele>231</ele>
        <time>2018-05-16T10:21:25Z</time>
      </trkpt>
      <trkpt lat="45.94056" lon="4.80845">
        <ele>231</ele>
        <time>2018-05-16T10:21:26Z</time>
      </trkpt>
      <trkpt lat="45.94058" lon="4.80855">
        <ele>231</ele>
        <time>2018-05-16T10:21:29Z</time>
      </trkpt>
      <trkpt lat="45.94059" lon="4.80859">
        <ele>231</ele>
        <time>2018-05-16T10:21:30Z</time>
      </trkpt>
      <trkpt lat="45.9406" lon="4.8087">
        <ele>231</ele>
        <time>2018-05-16T10:21:33Z</time>
      </trkpt>
      <trkpt lat="45.94061" lon="4.80873">
        <ele>231</ele>
        <time>2018-05-16T10:21:34Z</time>
      </trkpt>
      <trkpt lat="45.94063" lon="4.80884">
        <ele>231</ele>
        <time>2018-05-16T10:21:37Z</time>
      </trkpt>
      <trkpt lat="45.94063" lon="4.80888">
        <ele>231</ele>
        <time>2018-05-16T10:21:38Z</time>
      </trkpt>
      <trkpt lat="45.94065" lon="4.80898">
        <ele>232</ele>
        <time>2018-05-16T10:21:41Z</time>
      </trkpt>
      <trkpt lat="45.94065" lon="4.80902">
        <ele>233</ele>
        <time>2018-05-16T10:21:42Z</time>
      </trkpt>
      <trkpt lat="45.94066" lon="4.80912">
        <ele>233</ele>
        <time>2018-05-16T10:21:45Z</time>
      </trkpt>
      <trkpt lat="45.94066" lon="4.80916">
        <ele>233</ele>
        <time>2018-05-16T10:21:46Z</time>
      </trkpt>
      <trkpt lat="45.94066" lon="4.80927">
        <ele>234</ele>
        <time>2018-05-16T10:21:49Z</time>
      </trkpt>
      <trkpt lat="45.94066" lon="4.80931">
        <ele>233</ele>
        <time>2018-05-16T10:21:50Z</time>
      </trkpt>
      <trkpt lat="45.94067" lon="4.80942">
        <ele>233</ele>
        <time>2018-05-16T10:21:53Z</time>
      </trkpt>
      <trkpt lat="45.94068" lon="4.80946">
        <ele>232</ele>
        <time>2018-05-16T10:21:54Z</time>
      </trkpt>
      <trkpt lat="45.9407" lon="4.80957">
        <ele>232</ele>
        <time>2018-05-16T10:21:57Z</time>
      </trkpt>
      <trkpt lat="45.94071" lon="4.80961">
        <ele>233</ele>
        <time>2018-05-16T10:21:58Z</time>
      </trkpt>
      <trkpt lat="45.94073" lon="4.80972">
        <ele>233</ele>
        <time>2018-05-16T10:22:01Z</time>
      </trkpt>
      <trkpt lat="45.94074" lon="4.80976">
        <ele>234</ele>
        <time>2018-05-16T10:22:02Z</time>
      </trkpt>
      <trkpt lat="45.94075" lon="4.80987">
        <ele>235</ele>
        <time>2018-05-16T10:22:05Z</time>
      </trkpt>
      <trkpt lat="45.94076" lon="4.8099">
        <ele>236</ele>
        <time>2018-05-16T10:22:06Z</time>
      </trkpt>
      <trkpt lat="45.94078" lon="4.81001">
        <ele>238</ele>
        <time>2018-05-16T10:22:09Z</time>
      </trkpt>
      <trkpt lat="45.94078" lon="4.81004">
        <ele>238</ele>
        <time>2018-05-16T10:22:10Z</time>
      </trkpt>
      <trkpt lat="45.9408" lon="4.81014">
        <ele>236</ele>
        <time>2018-05-16T10:22:13Z</time>
      </trkpt>
      <trkpt lat="45.94081" lon="4.81018">
        <ele>235</ele>
        <time>2018-05-16T10:22:14Z</time>
      </trkpt>
      <trkpt lat="45.94084" lon="4.81029">
        <ele>243</ele>
        <time>2018-05-16T10:22:17Z</time>
      </trkpt>
      <trkpt lat="45.94085" lon="4.81033">
        <ele>244</ele>
        <time>2018-05-16T10:22:18Z</time>
      </trkpt>
      <trkpt lat="45.94088" lon="4.81043">
        <ele>244</ele>
        <time>2018-05-16T10:22:21Z</time>
      </trkpt>
      <trkpt lat="45.94089" lon="4.81046">
        <ele>243</ele>
        <time>2018-05-16T10:22:22Z</time>
      </trkpt>
      <trkpt lat="45.94093" lon="4.81057">
        <ele>243</ele>
        <time>2018-05-16T10:22:25Z</time>
      </trkpt>
      <trkpt lat="45.94094" lon="4.8106">
        <ele>243</ele>
        <time>2018-05-16T10:22:26Z</time>
      </trkpt>
      <trkpt lat="45.94097" lon="4.81069">
        <ele>242</ele>
        <time>2018-05-16T10:22:29Z</time>
      </trkpt>
      <trkpt lat="45.94098" lon="4.81072">
        <ele>242</ele>
        <time>2018-05-16T10:22:30Z</time>
      </trkpt>
      <trkpt lat="45.94102" lon="4.81082">
        <ele>242</ele>
        <time>2018-05-16T10:22:33Z</time>
      </trkpt>
      <trkpt lat="45.94103" lon="4.81085">
        <ele>241</ele>
        <time>2018-05-16T10:22:34Z</time>
      </trkpt>
      <trkpt lat="45.94107" lon="4.81094">
        <ele>242</ele>
        <time>2018-05-16T10:22:37Z</time>
      </trkpt>
      <trkpt lat="45.94108" lon="4.81097">
        <ele>242</ele>
        <time>2018-05-16T10:22:38Z</time>
      </trkpt>
      <trkpt lat="45.94112" lon="4.81107">
        <ele>242</ele>
        <time>2018-05-16T10:22:41Z</time>
      </trkpt>
      <trkpt lat="45.94113" lon="4.8111">
        <ele>242</ele>
        <time>2018-05-16T10:22:42Z</time>
      </trkpt>
      <trkpt lat="45.94118" lon="4.8112">
        <ele>243</ele>
        <time>2018-05-16T10:22:45Z</time>
      </trkpt>
      <trkpt lat="45.9412" lon="4.81123">
        <ele>243</ele>
        <time>2018-05-16T10:22:46Z</time>
      </trkpt>
      <trkpt lat="45.94125" lon="4.8113">
        <ele>243</ele>
        <time>2018-05-16T10:22:48Z</time>
      </trkpt>
      <trkpt lat="45.94127" lon="4.81134">
        <ele>243</ele>
        <time>2018-05-16T10:22:49Z</time>
      </trkpt>
      <trkpt lat="45.94132" lon="4.81143">
        <ele>244</ele>
        <time>2018-05-16T10:22:52Z</time>
      </trkpt>
      <trkpt lat="45.94134" lon="4.81146">
        <ele>244</ele>
        <time>2018-05-16T10:22:53Z</time>
      </trkpt>
      <trkpt lat="45.94138" lon="4.81155">
        <ele>244</ele>
        <time>2018-05-16T10:22:56Z</time>
      </trkpt>
      <trkpt lat="45.9414" lon="4.81159">
        <ele>244</ele>
        <time>2018-05-16T10:22:57Z</time>
      </trkpt>
      <trkpt lat="45.94144" lon="4.81169">
        <ele>244</ele>
        <time>2018-05-16T10:23:00Z</time>
      </trkpt>
      <trkpt lat="45.94145" lon="4.81172">
        <ele>244</ele>
        <time>2018-05-16T10:23:01Z</time>
      </trkpt>
      <trkpt lat="45.94149" lon="4.81182">
        <ele>245</ele>
        <time>2018-05-16T10:23:04Z</time>
      </trkpt>
      <trkpt lat="45.9415" lon="4.81185">
        <ele>245</ele>
        <time>2018-05-16T10:23:05Z</time>
      </trkpt>
      <trkpt lat="45.94153" lon="4.81195">
        <ele>244</ele>
        <time>2018-05-16T10:23:08Z</time>
      </trkpt>
      <trkpt lat="45.94154" lon="4.81198">
        <ele>244</ele>
        <time>2018-05-16T10:23:09Z</time>
      </trkpt>
      <trkpt lat="45.94156" lon="4.81207">
        <ele>245</ele>
        <time>2018-05-16T10:23:12Z</time>
      </trkpt>
      <trkpt lat="45.94157" lon="4.81211">
        <ele>245</ele>
        <time>2018-05-16T10:23:13Z</time>
      </trkpt>
      <trkpt lat="45.94159" lon="4.81221">
        <ele>245</ele>
        <time>2018-05-16T10:23:16Z</time>
      </trkpt>
      <trkpt lat="45.9416" lon="4.81225">
        <ele>246</ele>
        <time>2018-05-16T10:23:17Z</time>
      </trkpt>
      <trkpt lat="45.94163" lon="4.81235">
        <ele>247</ele>
        <time>2018-05-16T10:23:20Z</time>
      </trkpt>
      <trkpt lat="45.94164" lon="4.81238">
        <ele>247</ele>
        <time>2018-05-16T10:23:21Z</time>
      </trkpt>
      <trkpt lat="45.94166" lon="4.81249">
        <ele>250</ele>
        <time>2018-05-16T10:23:24Z</time>
      </trkpt>
      <trkpt lat="45.94167" lon="4.81252">
        <ele>251</ele>
        <time>2018-05-16T10:23:25Z</time>
      </trkpt>
      <trkpt lat="45.94169" lon="4.81262">
        <ele>253</ele>
        <time>2018-05-16T10:23:28Z</time>
      </trkpt>
      <trkpt lat="45.94169" lon="4.81265">
        <ele>253</ele>
        <time>2018-05-16T10:23:29Z</time>
      </trkpt>
      <trkpt lat="45.9417" lon="4.81275">
        <ele>255</ele>
        <time>2018-05-16T10:23:32Z</time>
      </trkpt>
      <trkpt lat="45.9417" lon="4.81279">
        <ele>255</ele>
        <time>2018-05-16T10:23:33Z</time>
      </trkpt>
      <trkpt lat="45.94171" lon="4.81291">
        <ele>255</ele>
        <time>2018-05-16T10:23:36Z</time>
      </trkpt>
      <trkpt lat="45.94172" lon="4.81295">
        <ele>256</ele>
        <time>2018-05-16T10:23:37Z</time>
      </trkpt>
      <trkpt lat="45.94173" lon="4.81305">
        <ele>255</ele>
        <time>2018-05-16T10:23:40Z</time>
      </trkpt>
      <trkpt lat="45.94173" lon="4.81308">
        <ele>255</ele>
        <time>2018-05-16T10:23:41Z</time>
      </trkpt>
      <trkpt lat="45.94174" lon="4.81319">
        <ele>255</ele>
        <time>2018-05-16T10:23:44Z</time>
      </trkpt>
      <trkpt lat="45.94174" lon="4.81323">
        <ele>254</ele>
        <time>2018-05-16T10:23:45Z</time>
      </trkpt>
      <trkpt lat="45.94173" lon="4.81334">
        <ele>254</ele>
        <time>2018-05-16T10:23:49Z</time>
      </trkpt>
      <trkpt lat="45.94173" lon="4.81336">
        <ele>254</ele>
        <time>2018-05-16T10:23:50Z</time>
      </trkpt>
      <trkpt lat="45.9417" lon="4.81345">
        <ele>255</ele>
        <time>2018-05-16T10:23:54Z</time>
      </trkpt>
      <trkpt lat="45.94169" lon="4.81348">
        <ele>255</ele>
        <time>2018-05-16T10:23:55Z</time>
      </trkpt>
      <trkpt lat="45.94168" lon="4.81358">
        <ele>257</ele>
        <time>2018-05-16T10:23:58Z</time>
      </trkpt>
      <trkpt lat="45.94167" lon="4.81361">
        <ele>257</ele>
        <time>2018-05-16T10:23:59Z</time>
      </trkpt>
      <trkpt lat="45.94167" lon="4.81374">
        <ele>258</ele>
        <time>2018-05-16T10:24:01Z</time>
      </trkpt>
      <trkpt lat="45.94167" lon="4.81376">
        <ele>258</ele>
        <time>2018-05-16T10:24:02Z</time>
      </trkpt>
      <trkpt lat="45.94166" lon="4.81388">
        <ele>252</ele>
        <time>2018-05-16T10:24:07Z</time>
      </trkpt>
      <trkpt lat="45.94165" lon="4.81391">
        <ele>252</ele>
        <time>2018-05-16T10:24:08Z</time>
      </trkpt>
      <trkpt lat="45.94163" lon="4.81401">
        <ele>253</ele>
        <time>2018-05-16T10:24:11Z</time>
      </trkpt>
      <trkpt lat="45.94162" lon="4.81404">
        <ele>253</ele>
        <time>2018-05-16T10:24:12Z</time>
      </trkpt>
      <trkpt lat="45.9416" lon="4.81416">
        <ele>254</ele>
        <time>2018-05-16T10:24:16Z</time>
      </trkpt>
      <trkpt lat="45.94159" lon="4.81419">
        <ele>256</ele>
        <time>2018-05-16T10:24:17Z</time>
      </trkpt>
      <trkpt lat="45.94159" lon="4.81431">
        <ele>256</ele>
        <time>2018-05-16T10:24:21Z</time>
      </trkpt>
      <trkpt lat="45.94159" lon="4.81434">
        <ele>256</ele>
        <time>2018-05-16T10:24:22Z</time>
      </trkpt>
      <trkpt lat="45.94159" lon="4.81444">
        <ele>256</ele>
        <time>2018-05-16T10:24:25Z</time>
      </trkpt>
      <trkpt lat="45.94159" lon="4.81448">
        <ele>257</ele>
        <time>2018-05-16T10:24:26Z</time>
      </trkpt>
      <trkpt lat="45.94159" lon="4.8146">
        <ele>257</ele>
        <time>2018-05-16T10:24:29Z</time>
      </trkpt>
      <trkpt lat="45.94159" lon="4.81464">
        <ele>258</ele>
        <time>2018-05-16T10:24:30Z</time>
      </trkpt>
      <trkpt lat="45.94159" lon="4.81473">
        <ele>258</ele>
        <time>2018-05-16T10:24:32Z</time>
      </trkpt>
      <trkpt lat="45.94159" lon="4.81478">
        <ele>259</ele>
        <time>2018-05-16T10:24:33Z</time>
      </trkpt>
      <trkpt lat="45.94158" lon="4.81487">
        <ele>260</ele>
        <time>2018-05-16T10:24:35Z</time>
      </trkpt>
      <trkpt lat="45.94158" lon="4.81491">
        <ele>260</ele>
        <time>2018-05-16T10:24:36Z</time>
      </trkpt>
      <trkpt lat="45.94157" lon="4.81502">
        <ele>263</ele>
        <time>2018-05-16T10:24:39Z</time>
      </trkpt>
      <trkpt lat="45.94157" lon="4.81506">
        <ele>263</ele>
        <time>2018-05-16T10:24:40Z</time>
      </trkpt>
      <trkpt lat="45.94157" lon="4.81518">
        <ele>263</ele>
        <time>2018-05-16T10:24:44Z</time>
      </trkpt>
      <trkpt lat="45.94157" lon="4.81521">
        <ele>263</ele>
        <time>2018-05-16T10:24:45Z</time>
      </trkpt>
      <trkpt lat="45.94155" lon="4.81534">
        <ele>264</ele>
        <time>2018-05-16T10:24:49Z</time>
      </trkpt>
      <trkpt lat="45.94155" lon="4.81537">
        <ele>264</ele>
        <time>2018-05-16T10:24:50Z</time>
      </trkpt>
      <trkpt lat="45.94155" lon="4.81547">
        <ele>264</ele>
        <time>2018-05-16T10:24:53Z</time>
      </trkpt>
      <trkpt lat="45.94155" lon="4.8155">
        <ele>264</ele>
        <time>2018-05-16T10:24:54Z</time>
      </trkpt>
      <trkpt lat="45.94154" lon="4.8156">
        <ele>265</ele>
        <time>2018-05-16T10:24:58Z</time>
      </trkpt>
      <trkpt lat="45.94154" lon="4.81564">
        <ele>265</ele>
        <time>2018-05-16T10:24:59Z</time>
      </trkpt>
      <trkpt lat="45.94155" lon="4.81577">
        <ele>266</ele>
        <time>2018-05-16T10:25:02Z</time>
      </trkpt>
      <trkpt lat="45.94155" lon="4.81581">
        <ele>266</ele>
        <time>2018-05-16T10:25:03Z</time>
      </trkpt>
      <trkpt lat="45.94157" lon="4.81593">
        <ele>267</ele>
        <time>2018-05-16T10:25:06Z</time>
      </trkpt>
      <trkpt lat="45.94158" lon="4.81598">
        <ele>267</ele>
        <time>2018-05-16T10:25:07Z</time>
      </trkpt>
      <trkpt lat="45.94161" lon="4.81607">
        <ele>267</ele>
        <time>2018-05-16T10:25:09Z</time>
      </trkpt>
      <trkpt lat="45.94162" lon="4.81611">
        <ele>267</ele>
        <time>2018-05-16T10:25:10Z</time>
      </trkpt>
      <trkpt lat="45.94164" lon="4.8162">
        <ele>268</ele>
        <time>2018-05-16T10:25:12Z</time>
      </trkpt>
      <trkpt lat="45.94165" lon="4.81624">
        <ele>268</ele>
        <time>2018-05-16T10:25:13Z</time>
      </trkpt>
      <trkpt lat="45.94167" lon="4.81632">
        <ele>268</ele>
        <time>2018-05-16T10:25:15Z</time>
      </trkpt>
      <trkpt lat="45.94168" lon="4.81637">
        <ele>268</ele>
        <time>2018-05-16T10:25:16Z</time>
      </trkpt>
      <trkpt lat="45.94169" lon="4.81645">
        <ele>268</ele>
        <time>2018-05-16T10:25:18Z</time>
      </trkpt>
      <trkpt lat="45.9417" lon="4.81652">
        <ele>268</ele>
        <time>2018-05-16T10:25:19Z</time>
      </trkpt>
      <trkpt lat="45.94172" lon="4.81664">
        <ele>269</ele>
        <time>2018-05-16T10:25:22Z</time>
      </trkpt>
      <trkpt lat="45.94172" lon="4.81667">
        <ele>268</ele>
        <time>2018-05-16T10:25:23Z</time>
      </trkpt>
      <trkpt lat="45.94174" lon="4.81678">
        <ele>268</ele>
        <time>2018-05-16T10:25:26Z</time>
      </trkpt>
      <trkpt lat="45.94175" lon="4.81682">
        <ele>268</ele>
        <time>2018-05-16T10:25:27Z</time>
      </trkpt>
      <trkpt lat="45.94177" lon="4.81693">
        <ele>267</ele>
        <time>2018-05-16T10:25:30Z</time>
      </trkpt>
      <trkpt lat="45.94179" lon="4.81697">
        <ele>267</ele>
        <time>2018-05-16T10:25:31Z</time>
      </trkpt>
      <trkpt lat="45.94181" lon="4.81708">
        <ele>267</ele>
        <time>2018-05-16T10:25:34Z</time>
      </trkpt>
      <trkpt lat="45.94182" lon="4.81712">
        <ele>267</ele>
        <time>2018-05-16T10:25:35Z</time>
      </trkpt>
      <trkpt lat="45.94183" lon="4.81722">
        <ele>267</ele>
        <time>2018-05-16T10:25:37Z</time>
      </trkpt>
      <trkpt lat="45.94183" lon="4.81737">
        <ele>267</ele>
        <time>2018-05-16T10:25:38Z</time>
      </trkpt>
      <trkpt lat="45.94185" lon="4.81745">
        <ele>267</ele>
        <time>2018-05-16T10:25:40Z</time>
      </trkpt>
      <trkpt lat="45.94188" lon="4.81752">
        <ele>266</ele>
        <time>2018-05-16T10:25:41Z</time>
      </trkpt>
      <trkpt lat="45.94192" lon="4.81762">
        <ele>266</ele>
        <time>2018-05-16T10:25:43Z</time>
      </trkpt>
      <trkpt lat="45.94194" lon="4.81767">
        <ele>266</ele>
        <time>2018-05-16T10:25:44Z</time>
      </trkpt>
      <trkpt lat="45.94197" lon="4.81778">
        <ele>266</ele>
        <time>2018-05-16T10:25:46Z</time>
      </trkpt>
      <trkpt lat="45.94197" lon="4.81784">
        <ele>266</ele>
        <time>2018-05-16T10:25:47Z</time>
      </trkpt>
      <trkpt lat="45.94198" lon="4.81794">
        <ele>266</ele>
        <time>2018-05-16T10:25:49Z</time>
      </trkpt>
      <trkpt lat="45.94198" lon="4.818">
        <ele>266</ele>
        <time>2018-05-16T10:25:50Z</time>
      </trkpt>
      <trkpt lat="45.94199" lon="4.81811">
        <ele>266</ele>
        <time>2018-05-16T10:25:52Z</time>
      </trkpt>
      <trkpt lat="45.94199" lon="4.81814">
        <ele>266</ele>
        <time>2018-05-16T10:25:53Z</time>
      </trkpt>
      <trkpt lat="45.94199" lon="4.81824">
        <ele>266</ele>
        <time>2018-05-16T10:25:56Z</time>
      </trkpt>
      <trkpt lat="45.94199" lon="4.81828">
        <ele>266</ele>
        <time>2018-05-16T10:25:57Z</time>
      </trkpt>
      <trkpt lat="45.94201" lon="4.81837">
        <ele>266</ele>
        <time>2018-05-16T10:25:59Z</time>
      </trkpt>
      <trkpt lat="45.94204" lon="4.8185">
        <ele>266</ele>
        <time>2018-05-16T10:26:00Z</time>
      </trkpt>
      <trkpt lat="45.94207" lon="4.81861">
        <ele>265</ele>
        <time>2018-05-16T10:26:02Z</time>
      </trkpt>
      <trkpt lat="45.94208" lon="4.81867">
        <ele>265</ele>
        <time>2018-05-16T10:26:03Z</time>
      </trkpt>
      <trkpt lat="45.9421" lon="4.81879">
        <ele>265</ele>
        <time>2018-05-16T10:26:05Z</time>
      </trkpt>
      <trkpt lat="45.94211" lon="4.81884">
        <ele>265</ele>
        <time>2018-05-16T10:26:06Z</time>
      </trkpt>
      <trkpt lat="45.94213" lon="4.81896">
        <ele>265</ele>
        <time>2018-05-16T10:26:08Z</time>
      </trkpt>
      <trkpt lat="45.94214" lon="4.81902">
        <ele>265</ele>
        <time>2018-05-16T10:26:09Z</time>
      </trkpt>
      <trkpt lat="45.94217" lon="4.81914">
        <ele>265</ele>
        <time>2018-05-16T10:26:11Z</time>
      </trkpt>
      <trkpt lat="45.94218" lon="4.81919">
        <ele>264</ele>
        <time>2018-05-16T10:26:12Z</time>
      </trkpt>
      <trkpt lat="45.9422" lon="4.81931">
        <ele>264</ele>
        <time>2018-05-16T10:26:14Z</time>
      </trkpt>
      <trkpt lat="45.94221" lon="4.81937">
        <ele>264</ele>
        <time>2018-05-16T10:26:15Z</time>
      </trkpt>
      <trkpt lat="45.94223" lon="4.81948">
        <ele>264</ele>
        <time>2018-05-16T10:26:17Z</time>
      </trkpt>
      <trkpt lat="45.94225" lon="4.81953">
        <ele>264</ele>
        <time>2018-05-16T10:26:18Z</time>
      </trkpt>
      <trkpt lat="45.94228" lon="4.81964">
        <ele>264</ele>
        <time>2018-05-16T10:26:20Z</time>
      </trkpt>
      <trkpt lat="45.94229" lon="4.81969">
        <ele>264</ele>
        <time>2018-05-16T10:26:21Z</time>
      </trkpt>
      <trkpt lat="45.94232" lon="4.8198">
        <ele>263</ele>
        <time>2018-05-16T10:26:23Z</time>
      </trkpt>
      <trkpt lat="45.94233" lon="4.81985">
        <ele>263</ele>
        <time>2018-05-16T10:26:24Z</time>
      </trkpt>
      <trkpt lat="45.94235" lon="4.81993">
        <ele>263</ele>
        <time>2018-05-16T10:26:26Z</time>
      </trkpt>
      <trkpt lat="45.94237" lon="4.82">
        <ele>263</ele>
        <time>2018-05-16T10:26:27Z</time>
      </trkpt>
      <trkpt lat="45.94239" lon="4.82009">
        <ele>263</ele>
        <time>2018-05-16T10:26:30Z</time>
      </trkpt>
      <trkpt lat="45.94241" lon="4.82019">
        <ele>263</ele>
        <time>2018-05-16T10:26:31Z</time>
      </trkpt>
      <trkpt lat="45.94241" lon="4.82026">
        <ele>263</ele>
        <time>2018-05-16T10:26:34Z</time>
      </trkpt>
      <trkpt lat="45.94242" lon="4.82035">
        <ele>263</ele>
        <time>2018-05-16T10:26:35Z</time>
      </trkpt>
      <trkpt lat="45.94242" lon="4.8204">
        <ele>263</ele>
        <time>2018-05-16T10:26:37Z</time>
      </trkpt>
      <trkpt lat="45.94241" lon="4.82049">
        <ele>263</ele>
        <time>2018-05-16T10:26:38Z</time>
      </trkpt>
      <trkpt lat="45.94241" lon="4.8206">
        <ele>263</ele>
        <time>2018-05-16T10:26:42Z</time>
      </trkpt>
      <trkpt lat="45.94241" lon="4.82063">
        <ele>263</ele>
        <time>2018-05-16T10:26:43Z</time>
      </trkpt>
      <trkpt lat="45.94239" lon="4.82076">
        <ele>263</ele>
        <time>2018-05-16T10:26:44Z</time>
      </trkpt>
      <trkpt lat="45.94239" lon="4.82082">
        <ele>263</ele>
        <time>2018-05-16T10:26:45Z</time>
      </trkpt>
      <trkpt lat="45.94239" lon="4.82089">
        <ele>263</ele>
        <time>2018-05-16T10:26:46Z</time>
      </trkpt>
      <trkpt lat="45.9424" lon="4.82095">
        <ele>263</ele>
        <time>2018-05-16T10:26:47Z</time>
      </trkpt>
      <trkpt lat="45.94241" lon="4.82102">
        <ele>263</ele>
        <time>2018-05-16T10:26:48Z</time>
      </trkpt>
      <trkpt lat="45.94242" lon="4.82109">
        <ele>263</ele>
        <time>2018-05-16T10:26:49Z</time>
      </trkpt>
      <trkpt lat="45.94245" lon="4.82121">
        <ele>264</ele>
        <time>2018-05-16T10:26:51Z</time>
      </trkpt>
      <trkpt lat="45.94246" lon="4.82126">
        <ele>264</ele>
        <time>2018-05-16T10:26:52Z</time>
      </trkpt>
      <trkpt lat="45.94248" lon="4.82133">
        <ele>264</ele>
        <time>2018-05-16T10:26:53Z</time>
      </trkpt>
      <trkpt lat="45.94249" lon="4.82139">
        <ele>264</ele>
        <time>2018-05-16T10:26:54Z</time>
      </trkpt>
      <trkpt lat="45.94251" lon="4.82146">
        <ele>263</ele>
        <time>2018-05-16T10:26:55Z</time>
      </trkpt>
      <trkpt lat="45.94255" lon="4.82156">
        <ele>263</ele>
        <time>2018-05-16T10:26:56Z</time>
      </trkpt>
      <trkpt lat="45.94257" lon="4.82163">
        <ele>263</ele>
        <time>2018-05-16T10:26:57Z</time>
      </trkpt>
      <trkpt lat="45.94259" lon="4.8217">
        <ele>263</ele>
        <time>2018-05-16T10:26:58Z</time>
      </trkpt>
      <trkpt lat="45.94261" lon="4.82177">
        <ele>263</ele>
        <time>2018-05-16T10:26:59Z</time>
      </trkpt>
      <trkpt lat="45.94263" lon="4.82184">
        <ele>264</ele>
        <time>2018-05-16T10:27:00Z</time>
      </trkpt>
      <trkpt lat="45.94265" lon="4.82196">
        <ele>264</ele>
        <time>2018-05-16T10:27:02Z</time>
      </trkpt>
      <trkpt lat="45.94266" lon="4.82204">
        <ele>264</ele>
        <time>2018-05-16T10:27:03Z</time>
      </trkpt>
      <trkpt lat="45.9427" lon="4.82212">
        <ele>264</ele>
        <time>2018-05-16T10:27:04Z</time>
      </trkpt>
      <trkpt lat="45.94271" lon="4.8222">
        <ele>264</ele>
        <time>2018-05-16T10:27:05Z</time>
      </trkpt>
      <trkpt lat="45.94272" lon="4.82226">
        <ele>264</ele>
        <time>2018-05-16T10:27:06Z</time>
      </trkpt>
      <trkpt lat="45.94272" lon="4.82233">
        <ele>264</ele>
        <time>2018-05-16T10:27:07Z</time>
      </trkpt>
      <trkpt lat="45.94273" lon="4.8224">
        <ele>264</ele>
        <time>2018-05-16T10:27:08Z</time>
      </trkpt>
      <trkpt lat="45.94274" lon="4.82247">
        <ele>264</ele>
        <time>2018-05-16T10:27:09Z</time>
      </trkpt>
      <trkpt lat="45.94274" lon="4.82255">
        <ele>265</ele>
        <time>2018-05-16T10:27:10Z</time>
      </trkpt>
      <trkpt lat="45.94275" lon="4.82262">
        <ele>265</ele>
        <time>2018-05-16T10:27:11Z</time>
      </trkpt>
      <trkpt lat="45.94276" lon="4.82274">
        <ele>265</ele>
        <time>2018-05-16T10:27:13Z</time>
      </trkpt>
      <trkpt lat="45.94276" lon="4.8228">
        <ele>265</ele>
        <time>2018-05-16T10:27:14Z</time>
      </trkpt>
      <trkpt lat="45.94278" lon="4.82291">
        <ele>265</ele>
        <time>2018-05-16T10:27:16Z</time>
      </trkpt>
      <trkpt lat="45.94278" lon="4.82297">
        <ele>265</ele>
        <time>2018-05-16T10:27:17Z</time>
      </trkpt>
      <trkpt lat="45.94278" lon="4.82307">
        <ele>265</ele>
        <time>2018-05-16T10:27:19Z</time>
      </trkpt>
      <trkpt lat="45.94279" lon="4.82313">
        <ele>265</ele>
        <time>2018-05-16T10:27:20Z</time>
      </trkpt>
      <trkpt lat="45.94279" lon="4.82325">
        <ele>265</ele>
        <time>2018-05-16T10:27:22Z</time>
      </trkpt>
      <trkpt lat="45.9428" lon="4.8233">
        <ele>265</ele>
        <time>2018-05-16T10:27:23Z</time>
      </trkpt>
      <trkpt lat="45.94281" lon="4.82342">
        <ele>264</ele>
        <time>2018-05-16T10:27:25Z</time>
      </trkpt>
      <trkpt lat="45.94281" lon="4.82348">
        <ele>264</ele>
        <time>2018-05-16T10:27:26Z</time>
      </trkpt>
      <trkpt lat="45.94282" lon="4.82359">
        <ele>264</ele>
        <time>2018-05-16T10:27:28Z</time>
      </trkpt>
      <trkpt lat="45.94282" lon="4.82365">
        <ele>264</ele>
        <time>2018-05-16T10:27:29Z</time>
      </trkpt>
      <trkpt lat="45.94283" lon="4.82377">
        <ele>264</ele>
        <time>2018-05-16T10:27:31Z</time>
      </trkpt>
      <trkpt lat="45.94284" lon="4.82382">
        <ele>264</ele>
        <time>2018-05-16T10:27:32Z</time>
      </trkpt>
      <trkpt lat="45.94284" lon="4.82394">
        <ele>264</ele>
        <time>2018-05-16T10:27:34Z</time>
      </trkpt>
      <trkpt lat="45.94284" lon="4.824">
        <ele>264</ele>
        <time>2018-05-16T10:27:35Z</time>
      </trkpt>
      <trkpt lat="45.94285" lon="4.82411">
        <ele>264</ele>
        <time>2018-05-16T10:27:37Z</time>
      </trkpt>
      <trkpt lat="45.94285" lon="4.82417">
        <ele>264</ele>
        <time>2018-05-16T10:27:38Z</time>
      </trkpt>
      <trkpt lat="45.94286" lon="4.82429">
        <ele>264</ele>
        <time>2018-05-16T10:27:40Z</time>
      </trkpt>
      <trkpt lat="45.94286" lon="4.82435">
        <ele>264</ele>
        <time>2018-05-16T10:27:41Z</time>
      </trkpt>
      <trkpt lat="45.94287" lon="4.82447">
        <ele>264</ele>
        <time>2018-05-16T10:27:43Z</time>
      </trkpt>
      <trkpt lat="45.94287" lon="4.82453">
        <ele>264</ele>
        <time>2018-05-16T10:27:44Z</time>
      </trkpt>
      <trkpt lat="45.94288" lon="4.82466">
        <ele>264</ele>
        <time>2018-05-16T10:27:46Z</time>
      </trkpt>
      <trkpt lat="45.94289" lon="4.82472">
        <ele>264</ele>
        <time>2018-05-16T10:27:47Z</time>
      </trkpt>
      <trkpt lat="45.94289" lon="4.82485">
        <ele>264</ele>
        <time>2018-05-16T10:27:49Z</time>
      </trkpt>
      <trkpt lat="45.9429" lon="4.82491">
        <ele>264</ele>
        <time>2018-05-16T10:27:50Z</time>
      </trkpt>
      <trkpt lat="45.94291" lon="4.82503">
        <ele>264</ele>
        <time>2018-05-16T10:27:52Z</time>
      </trkpt>
      <trkpt lat="45.94291" lon="4.82509">
        <ele>264</ele>
        <time>2018-05-16T10:27:53Z</time>
      </trkpt>
      <trkpt lat="45.94292" lon="4.82522">
        <ele>264</ele>
        <time>2018-05-16T10:27:55Z</time>
      </trkpt>
      <trkpt lat="45.94292" lon="4.82528">
        <ele>264</ele>
        <time>2018-05-16T10:27:56Z</time>
      </trkpt>
      <trkpt lat="45.94292" lon="4.82534">
        <ele>264</ele>
        <time>2018-05-16T10:27:57Z</time>
      </trkpt>
      <trkpt lat="45.94292" lon="4.82541">
        <ele>264</ele>
        <time>2018-05-16T10:27:58Z</time>
      </trkpt>
      <trkpt lat="45.94293" lon="4.82547">
        <ele>264</ele>
        <time>2018-05-16T10:27:59Z</time>
      </trkpt>
      <trkpt lat="45.94294" lon="4.82555">
        <ele>264</ele>
        <time>2018-05-16T10:28:00Z</time>
      </trkpt>
      <trkpt lat="45.94294" lon="4.82562">
        <ele>264</ele>
        <time>2018-05-16T10:28:01Z</time>
      </trkpt>
      <trkpt lat="45.94293" lon="4.82568">
        <ele>264</ele>
        <time>2018-05-16T10:28:02Z</time>
      </trkpt>
      <trkpt lat="45.94293" lon="4.82575">
        <ele>264</ele>
        <time>2018-05-16T10:28:03Z</time>
      </trkpt>
      <trkpt lat="45.94293" lon="4.82583">
        <ele>265</ele>
        <time>2018-05-16T10:28:04Z</time>
      </trkpt>
      <trkpt lat="45.94293" lon="4.82591">
        <ele>265</ele>
        <time>2018-05-16T10:28:05Z</time>
      </trkpt>
      <trkpt lat="45.94292" lon="4.82599">
        <ele>265</ele>
        <time>2018-05-16T10:28:06Z</time>
      </trkpt>
      <trkpt lat="45.94293" lon="4.82607">
        <ele>265</ele>
        <time>2018-05-16T10:28:07Z</time>
      </trkpt>
      <trkpt lat="45.94293" lon="4.82615">
        <ele>265</ele>
        <time>2018-05-16T10:28:08Z</time>
      </trkpt>
      <trkpt lat="45.94293" lon="4.82622">
        <ele>265</ele>
        <time>2018-05-16T10:28:09Z</time>
      </trkpt>
      <trkpt lat="45.94292" lon="4.82629">
        <ele>265</ele>
        <time>2018-05-16T10:28:10Z</time>
      </trkpt>
      <trkpt lat="45.94292" lon="4.82635">
        <ele>265</ele>
        <time>2018-05-16T10:28:11Z</time>
      </trkpt>
      <trkpt lat="45.94292" lon="4.82642">
        <ele>265</ele>
        <time>2018-05-16T10:28:12Z</time>
      </trkpt>
      <trkpt lat="45.94292" lon="4.82649">
        <ele>265</ele>
        <time>2018-05-16T10:28:13Z</time>
      </trkpt>
      <trkpt lat="45.94291" lon="4.82655">
        <ele>265</ele>
        <time>2018-05-16T10:28:14Z</time>
      </trkpt>
      <trkpt lat="45.94291" lon="4.82661">
        <ele>265</ele>
        <time>2018-05-16T10:28:15Z</time>
      </trkpt>
      <trkpt lat="45.94292" lon="4.82668">
        <ele>265</ele>
        <time>2018-05-16T10:28:16Z</time>
      </trkpt>
      <trkpt lat="45.94292" lon="4.82674">
        <ele>265</ele>
        <time>2018-05-16T10:28:17Z</time>
      </trkpt>
      <trkpt lat="45.94292" lon="4.82682">
        <ele>265</ele>
        <time>2018-05-16T10:28:18Z</time>
      </trkpt>
      <trkpt lat="45.94292" lon="4.82689">
        <ele>265</ele>
        <time>2018-05-16T10:28:19Z</time>
      </trkpt>
      <trkpt lat="45.94292" lon="4.82697">
        <ele>265</ele>
        <time>2018-05-16T10:28:20Z</time>
      </trkpt>
      <trkpt lat="45.94291" lon="4.82704">
        <ele>265</ele>
        <time>2018-05-16T10:28:21Z</time>
      </trkpt>
      <trkpt lat="45.94291" lon="4.82711">
        <ele>265</ele>
        <time>2018-05-16T10:28:22Z</time>
      </trkpt>
      <trkpt lat="45.94293" lon="4.82718">
        <ele>265</ele>
        <time>2018-05-16T10:28:23Z</time>
      </trkpt>
      <trkpt lat="45.94293" lon="4.82725">
        <ele>265</ele>
        <time>2018-05-16T10:28:24Z</time>
      </trkpt>
      <trkpt lat="45.94293" lon="4.82738">
        <ele>265</ele>
        <time>2018-05-16T10:28:26Z</time>
      </trkpt>
      <trkpt lat="45.94294" lon="4.82744">
        <ele>265</ele>
        <time>2018-05-16T10:28:27Z</time>
      </trkpt>
      <trkpt lat="45.94294" lon="4.82756">
        <ele>265</ele>
        <time>2018-05-16T10:28:29Z</time>
      </trkpt>
      <trkpt lat="45.94293" lon="4.82763">
        <ele>265</ele>
        <time>2018-05-16T10:28:30Z</time>
      </trkpt>
      <trkpt lat="45.94293" lon="4.82769">
        <ele>265</ele>
        <time>2018-05-16T10:28:31Z</time>
      </trkpt>
      <trkpt lat="45.94292" lon="4.82776">
        <ele>265</ele>
        <time>2018-05-16T10:28:32Z</time>
      </trkpt>
      <trkpt lat="45.94292" lon="4.82783">
        <ele>265</ele>
        <time>2018-05-16T10:28:33Z</time>
      </trkpt>
      <trkpt lat="45.94292" lon="4.8279">
        <ele>265</ele>
        <time>2018-05-16T10:28:34Z</time>
      </trkpt>
      <trkpt lat="45.94292" lon="4.82797">
        <ele>265</ele>
        <time>2018-05-16T10:28:35Z</time>
      </trkpt>
      <trkpt lat="45.94292" lon="4.82803">
        <ele>265</ele>
        <time>2018-05-16T10:28:36Z</time>
      </trkpt>
      <trkpt lat="45.94291" lon="4.82814">
        <ele>265</ele>
        <time>2018-05-16T10:28:38Z</time>
      </trkpt>
      <trkpt lat="45.94291" lon="4.8282">
        <ele>265</ele>
        <time>2018-05-16T10:28:39Z</time>
      </trkpt>
      <trkpt lat="45.94291" lon="4.82827">
        <ele>265</ele>
        <time>2018-05-16T10:28:40Z</time>
      </trkpt>
      <trkpt lat="45.94291" lon="4.82834">
        <ele>265</ele>
        <time>2018-05-16T10:28:41Z</time>
      </trkpt>
      <trkpt lat="45.94291" lon="4.82842">
        <ele>265</ele>
        <time>2018-05-16T10:28:42Z</time>
      </trkpt>
      <trkpt lat="45.94291" lon="4.82849">
        <ele>265</ele>
        <time>2018-05-16T10:28:43Z</time>
      </trkpt>
      <trkpt lat="45.94291" lon="4.82856">
        <ele>265</ele>
        <time>2018-05-16T10:28:44Z</time>
      </trkpt>
      <trkpt lat="45.94291" lon="4.82863">
        <ele>265</ele>
        <time>2018-05-16T10:28:45Z</time>
      </trkpt>
      <trkpt lat="45.9429" lon="4.82872">
        <ele>265</ele>
        <time>2018-05-16T10:28:46Z</time>
      </trkpt>
      <trkpt lat="45.9429" lon="4.82879">
        <ele>265</ele>
        <time>2018-05-16T10:28:47Z</time>
      </trkpt>
      <trkpt lat="45.94291" lon="4.82887">
        <ele>265</ele>
        <time>2018-05-16T10:28:48Z</time>
      </trkpt>
      <trkpt lat="45.94291" lon="4.82895">
        <ele>265</ele>
        <time>2018-05-16T10:28:49Z</time>
      </trkpt>
      <trkpt lat="45.94291" lon="4.82901">
        <ele>265</ele>
        <time>2018-05-16T10:28:50Z</time>
      </trkpt>
      <trkpt lat="45.94292" lon="4.82908">
        <ele>265</ele>
        <time>2018-05-16T10:28:51Z</time>
      </trkpt>
      <trkpt lat="45.94291" lon="4.82915">
        <ele>265</ele>
        <time>2018-05-16T10:28:52Z</time>
      </trkpt>
      <trkpt lat="45.9429" lon="4.82922">
        <ele>265</ele>
        <time>2018-05-16T10:28:53Z</time>
      </trkpt>
      <trkpt lat="45.94287" lon="4.8293">
        <ele>265</ele>
        <time>2018-05-16T10:28:54Z</time>
      </trkpt>
      <trkpt lat="45.94286" lon="4.82937">
        <ele>265</ele>
        <time>2018-05-16T10:28:55Z</time>
      </trkpt>
      <trkpt lat="45.94285" lon="4.82944">
        <ele>265</ele>
        <time>2018-05-16T10:28:56Z</time>
      </trkpt>
      <trkpt lat="45.94285" lon="4.82951">
        <ele>265</ele>
        <time>2018-05-16T10:28:57Z</time>
      </trkpt>
      <trkpt lat="45.94285" lon="4.82957">
        <ele>265</ele>
        <time>2018-05-16T10:28:58Z</time>
      </trkpt>
      <trkpt lat="45.94286" lon="4.82964">
        <ele>265</ele>
        <time>2018-05-16T10:28:59Z</time>
      </trkpt>
      <trkpt lat="45.94287" lon="4.8297">
        <ele>265</ele>
        <time>2018-05-16T10:29:00Z</time>
      </trkpt>
      <trkpt lat="45.94289" lon="4.82976">
        <ele>265</ele>
        <time>2018-05-16T10:29:01Z</time>
      </trkpt>
      <trkpt lat="45.94291" lon="4.82983">
        <ele>265</ele>
        <time>2018-05-16T10:29:02Z</time>
      </trkpt>
      <trkpt lat="45.94292" lon="4.82988">
        <ele>265</ele>
        <time>2018-05-16T10:29:03Z</time>
      </trkpt>
      <trkpt lat="45.94294" lon="4.82994">
        <ele>265</ele>
        <time>2018-05-16T10:29:04Z</time>
      </trkpt>
      <trkpt lat="45.94296" lon="4.83001">
        <ele>266</ele>
        <time>2018-05-16T10:29:05Z</time>
      </trkpt>
      <trkpt lat="45.94298" lon="4.8301">
        <ele>266</ele>
        <time>2018-05-16T10:29:06Z</time>
      </trkpt>
      <trkpt lat="45.943" lon="4.83017">
        <ele>266</ele>
        <time>2018-05-16T10:29:07Z</time>
      </trkpt>
      <trkpt lat="45.94301" lon="4.83025">
        <ele>266</ele>
        <time>2018-05-16T10:29:08Z</time>
      </trkpt>
      <trkpt lat="45.94302" lon="4.83033">
        <ele>266</ele>
        <time>2018-05-16T10:29:09Z</time>
      </trkpt>
      <trkpt lat="45.94304" lon="4.8304">
        <ele>266</ele>
        <time>2018-05-16T10:29:10Z</time>
      </trkpt>
      <trkpt lat="45.94305" lon="4.83047">
        <ele>266</ele>
        <time>2018-05-16T10:29:11Z</time>
      </trkpt>
      <trkpt lat="45.94306" lon="4.83053">
        <ele>266</ele>
        <time>2018-05-16T10:29:12Z</time>
      </trkpt>
      <trkpt lat="45.94307" lon="4.8306">
        <ele>266</ele>
        <time>2018-05-16T10:29:13Z</time>
      </trkpt>
      <trkpt lat="45.94309" lon="4.83066">
        <ele>266</ele>
        <time>2018-05-16T10:29:14Z</time>
      </trkpt>
      <trkpt lat="45.94311" lon="4.83072">
        <ele>266</ele>
        <time>2018-05-16T10:29:15Z</time>
      </trkpt>
      <trkpt lat="45.94314" lon="4.83083">
        <ele>266</ele>
        <time>2018-05-16T10:29:17Z</time>
      </trkpt>
      <trkpt lat="45.94316" lon="4.83089">
        <ele>266</ele>
        <time>2018-05-16T10:29:18Z</time>
      </trkpt>
      <trkpt lat="45.94319" lon="4.83101">
        <ele>266</ele>
        <time>2018-05-16T10:29:20Z</time>
      </trkpt>
      <trkpt lat="45.94321" lon="4.83107">
        <ele>266</ele>
        <time>2018-05-16T10:29:21Z</time>
      </trkpt>
      <trkpt lat="45.94323" lon="4.83114">
        <ele>266</ele>
        <time>2018-05-16T10:29:22Z</time>
      </trkpt>
      <trkpt lat="45.94325" lon="4.8312">
        <ele>266</ele>
        <time>2018-05-16T10:29:23Z</time>
      </trkpt>
      <trkpt lat="45.94327" lon="4.83127">
        <ele>266</ele>
        <time>2018-05-16T10:29:24Z</time>
      </trkpt>
      <trkpt lat="45.94329" lon="4.83133">
        <ele>266</ele>
        <time>2018-05-16T10:29:25Z</time>
      </trkpt>
      <trkpt lat="45.94332" lon="4.83139">
        <ele>266</ele>
        <time>2018-05-16T10:29:26Z</time>
      </trkpt>
      <trkpt lat="45.94333" lon="4.83145">
        <ele>266</ele>
        <time>2018-05-16T10:29:27Z</time>
      </trkpt>
      <trkpt lat="45.94335" lon="4.83151">
        <ele>266</ele>
        <time>2018-05-16T10:29:28Z</time>
      </trkpt>
      <trkpt lat="45.94337" lon="4.83157">
        <ele>266</ele>
        <time>2018-05-16T10:29:29Z</time>
      </trkpt>
      <trkpt lat="45.94339" lon="4.83163">
        <ele>266</ele>
        <time>2018-05-16T10:29:30Z</time>
      </trkpt>
      <trkpt lat="45.94342" lon="4.83169">
        <ele>266</ele>
        <time>2018-05-16T10:29:31Z</time>
      </trkpt>
      <trkpt lat="45.94346" lon="4.8318">
        <ele>266</ele>
        <time>2018-05-16T10:29:33Z</time>
      </trkpt>
      <trkpt lat="45.94348" lon="4.83186">
        <ele>266</ele>
        <time>2018-05-16T10:29:34Z</time>
      </trkpt>
      <trkpt lat="45.94351" lon="4.83193">
        <ele>266</ele>
        <time>2018-05-16T10:29:35Z</time>
      </trkpt>
      <trkpt lat="45.94352" lon="4.83198">
        <ele>266</ele>
        <time>2018-05-16T10:29:36Z</time>
      </trkpt>
      <trkpt lat="45.94354" lon="4.83205">
        <ele>266</ele>
        <time>2018-05-16T10:29:37Z</time>
      </trkpt>
      <trkpt lat="45.94356" lon="4.83212">
        <ele>266</ele>
        <time>2018-05-16T10:29:38Z</time>
      </trkpt>
      <trkpt lat="45.94359" lon="4.83219">
        <ele>266</ele>
        <time>2018-05-16T10:29:39Z</time>
      </trkpt>
      <trkpt lat="45.94361" lon="4.83226">
        <ele>266</ele>
        <time>2018-05-16T10:29:40Z</time>
      </trkpt>
      <trkpt lat="45.94363" lon="4.83231">
        <ele>266</ele>
        <time>2018-05-16T10:29:41Z</time>
      </trkpt>
      <trkpt lat="45.94366" lon="4.83238">
        <ele>265</ele>
        <time>2018-05-16T10:29:42Z</time>
      </trkpt>
      <trkpt lat="45.94368" lon="4.83244">
        <ele>265</ele>
        <time>2018-05-16T10:29:43Z</time>
      </trkpt>
      <trkpt lat="45.94371" lon="4.83251">
        <ele>265</ele>
        <time>2018-05-16T10:29:44Z</time>
      </trkpt>
      <trkpt lat="45.94373" lon="4.83257">
        <ele>265</ele>
        <time>2018-05-16T10:29:45Z</time>
      </trkpt>
      <trkpt lat="45.94375" lon="4.83264">
        <ele>264</ele>
        <time>2018-05-16T10:29:46Z</time>
      </trkpt>
      <trkpt lat="45.94378" lon="4.83271">
        <ele>264</ele>
        <time>2018-05-16T10:29:47Z</time>
      </trkpt>
      <trkpt lat="45.9438" lon="4.83277">
        <ele>264</ele>
        <time>2018-05-16T10:29:48Z</time>
      </trkpt>
      <trkpt lat="45.94382" lon="4.83284">
        <ele>264</ele>
        <time>2018-05-16T10:29:49Z</time>
      </trkpt>
      <trkpt lat="45.94385" lon="4.83291">
        <ele>264</ele>
        <time>2018-05-16T10:29:50Z</time>
      </trkpt>
      <trkpt lat="45.94387" lon="4.83298">
        <ele>264</ele>
        <time>2018-05-16T10:29:51Z</time>
      </trkpt>
      <trkpt lat="45.94389" lon="4.83305">
        <ele>264</ele>
        <time>2018-05-16T10:29:52Z</time>
      </trkpt>
      <trkpt lat="45.94391" lon="4.83311">
        <ele>264</ele>
        <time>2018-05-16T10:29:53Z</time>
      </trkpt>
      <trkpt lat="45.94393" lon="4.83319">
        <ele>264</ele>
        <time>2018-05-16T10:29:54Z</time>
      </trkpt>
      <trkpt lat="45.94395" lon="4.83326">
        <ele>264</ele>
        <time>2018-05-16T10:29:55Z</time>
      </trkpt>
      <trkpt lat="45.94398" lon="4.83333">
        <ele>264</ele>
        <time>2018-05-16T10:29:56Z</time>
      </trkpt>
      <trkpt lat="45.944" lon="4.83341">
        <ele>263</ele>
        <time>2018-05-16T10:29:57Z</time>
      </trkpt>
      <trkpt lat="45.94402" lon="4.83347">
        <ele>263</ele>
        <time>2018-05-16T10:29:58Z</time>
      </trkpt>
      <trkpt lat="45.94405" lon="4.83354">
        <ele>263</ele>
        <time>2018-05-16T10:29:59Z</time>
      </trkpt>
      <trkpt lat="45.94408" lon="4.83362">
        <ele>264</ele>
        <time>2018-05-16T10:30:00Z</time>
      </trkpt>
      <trkpt lat="45.9441" lon="4.83368">
        <ele>264</ele>
        <time>2018-05-16T10:30:01Z</time>
      </trkpt>
      <trkpt lat="45.94413" lon="4.83374">
        <ele>264</ele>
        <time>2018-05-16T10:30:02Z</time>
      </trkpt>
      <trkpt lat="45.94416" lon="4.8338">
        <ele>264</ele>
        <time>2018-05-16T10:30:03Z</time>
      </trkpt>
      <trkpt lat="45.94419" lon="4.83386">
        <ele>264</ele>
        <time>2018-05-16T10:30:04Z</time>
      </trkpt>
      <trkpt lat="45.94421" lon="4.83392">
        <ele>264</ele>
        <time>2018-05-16T10:30:05Z</time>
      </trkpt>
      <trkpt lat="45.94424" lon="4.83399">
        <ele>264</ele>
        <time>2018-05-16T10:30:06Z</time>
      </trkpt>
      <trkpt lat="45.94427" lon="4.83405">
        <ele>264</ele>
        <time>2018-05-16T10:30:07Z</time>
      </trkpt>
      <trkpt lat="45.9443" lon="4.8341">
        <ele>264</ele>
        <time>2018-05-16T10:30:08Z</time>
      </trkpt>
      <trkpt lat="45.94433" lon="4.83415">
        <ele>264</ele>
        <time>2018-05-16T10:30:09Z</time>
      </trkpt>
      <trkpt lat="45.94436" lon="4.83421">
        <ele>264</ele>
        <time>2018-05-16T10:30:10Z</time>
      </trkpt>
      <trkpt lat="45.94441" lon="4.8343">
        <ele>264</ele>
        <time>2018-05-16T10:30:12Z</time>
      </trkpt>
      <trkpt lat="45.94444" lon="4.83437">
        <ele>263</ele>
        <time>2018-05-16T10:30:13Z</time>
      </trkpt>
      <trkpt lat="45.94448" lon="4.83444">
        <ele>263</ele>
        <time>2018-05-16T10:30:14Z</time>
      </trkpt>
      <trkpt lat="45.94451" lon="4.83451">
        <ele>263</ele>
        <time>2018-05-16T10:30:15Z</time>
      </trkpt>
      <trkpt lat="45.94454" lon="4.83458">
        <ele>263</ele>
        <time>2018-05-16T10:30:16Z</time>
      </trkpt>
      <trkpt lat="45.94458" lon="4.83465">
        <ele>263</ele>
        <time>2018-05-16T10:30:17Z</time>
      </trkpt>
      <trkpt lat="45.94463" lon="4.83472">
        <ele>263</ele>
        <time>2018-05-16T10:30:18Z</time>
      </trkpt>
      <trkpt lat="45.94466" lon="4.83479">
        <ele>263</ele>
        <time>2018-05-16T10:30:19Z</time>
      </trkpt>
      <trkpt lat="45.9447" lon="4.83485">
        <ele>263</ele>
        <time>2018-05-16T10:30:20Z</time>
      </trkpt>
      <trkpt lat="45.94474" lon="4.83492">
        <ele>263</ele>
        <time>2018-05-16T10:30:21Z</time>
      </trkpt>
      <trkpt lat="45.94478" lon="4.83498">
        <ele>263</ele>
        <time>2018-05-16T10:30:22Z</time>
      </trkpt>
      <trkpt lat="45.94482" lon="4.83505">
        <ele>262</ele>
        <time>2018-05-16T10:30:23Z</time>
      </trkpt>
      <trkpt lat="45.94486" lon="4.83511">
        <ele>262</ele>
        <time>2018-05-16T10:30:24Z</time>
      </trkpt>
      <trkpt lat="45.94489" lon="4.83517">
        <ele>262</ele>
        <time>2018-05-16T10:30:25Z</time>
      </trkpt>
      <trkpt lat="45.94493" lon="4.83523">
        <ele>262</ele>
        <time>2018-05-16T10:30:26Z</time>
      </trkpt>
      <trkpt lat="45.94497" lon="4.8353">
        <ele>262</ele>
        <time>2018-05-16T10:30:27Z</time>
      </trkpt>
      <trkpt lat="45.94501" lon="4.83537">
        <ele>262</ele>
        <time>2018-05-16T10:30:28Z</time>
      </trkpt>
      <trkpt lat="45.94505" lon="4.83543">
        <ele>261</ele>
        <time>2018-05-16T10:30:29Z</time>
      </trkpt>
      <trkpt lat="45.94508" lon="4.8355">
        <ele>261</ele>
        <time>2018-05-16T10:30:30Z</time>
      </trkpt>
      <trkpt lat="45.94511" lon="4.83556">
        <ele>261</ele>
        <time>2018-05-16T10:30:31Z</time>
      </trkpt>
      <trkpt lat="45.94514" lon="4.83563">
        <ele>261</ele>
        <time>2018-05-16T10:30:32Z</time>
      </trkpt>
      <trkpt lat="45.94518" lon="4.8357">
        <ele>261</ele>
        <time>2018-05-16T10:30:33Z</time>
      </trkpt>
      <trkpt lat="45.94521" lon="4.83577">
        <ele>261</ele>
        <time>2018-05-16T10:30:34Z</time>
      </trkpt>
      <trkpt lat="45.94524" lon="4.83585">
        <ele>261</ele>
        <time>2018-05-16T10:30:35Z</time>
      </trkpt>
      <trkpt lat="45.94526" lon="4.83593">
        <ele>261</ele>
        <time>2018-05-16T10:30:36Z</time>
      </trkpt>
      <trkpt lat="45.94528" lon="4.83601">
        <ele>261</ele>
        <time>2018-05-16T10:30:37Z</time>
      </trkpt>
      <trkpt lat="45.9453" lon="4.83609">
        <ele>261</ele>
        <time>2018-05-16T10:30:38Z</time>
      </trkpt>
      <trkpt lat="45.94531" lon="4.83617">
        <ele>261</ele>
        <time>2018-05-16T10:30:39Z</time>
      </trkpt>
      <trkpt lat="45.94533" lon="4.83625">
        <ele>261</ele>
        <time>2018-05-16T10:30:40Z</time>
      </trkpt>
      <trkpt lat="45.94534" lon="4.83633">
        <ele>261</ele>
        <time>2018-05-16T10:30:41Z</time>
      </trkpt>
      <trkpt lat="45.94535" lon="4.8364">
        <ele>261</ele>
        <time>2018-05-16T10:30:42Z</time>
      </trkpt>
      <trkpt lat="45.94536" lon="4.83648">
        <ele>261</ele>
        <time>2018-05-16T10:30:43Z</time>
      </trkpt>
      <trkpt lat="45.94538" lon="4.83656">
        <ele>261</ele>
        <time>2018-05-16T10:30:44Z</time>
      </trkpt>
      <trkpt lat="45.94539" lon="4.83664">
        <ele>261</ele>
        <time>2018-05-16T10:30:45Z</time>
      </trkpt>
      <trkpt lat="45.9454" lon="4.83671">
        <ele>262</ele>
        <time>2018-05-16T10:30:46Z</time>
      </trkpt>
      <trkpt lat="45.94541" lon="4.83677">
        <ele>262</ele>
        <time>2018-05-16T10:30:47Z</time>
      </trkpt>
      <trkpt lat="45.94542" lon="4.83684">
        <ele>262</ele>
        <time>2018-05-16T10:30:48Z</time>
      </trkpt>
      <trkpt lat="45.94543" lon="4.83691">
        <ele>262</ele>
        <time>2018-05-16T10:30:49Z</time>
      </trkpt>
      <trkpt lat="45.94544" lon="4.83698">
        <ele>262</ele>
        <time>2018-05-16T10:30:50Z</time>
      </trkpt>
      <trkpt lat="45.94545" lon="4.83706">
        <ele>262</ele>
        <time>2018-05-16T10:30:51Z</time>
      </trkpt>
      <trkpt lat="45.94546" lon="4.83713">
        <ele>262</ele>
        <time>2018-05-16T10:30:52Z</time>
      </trkpt>
      <trkpt lat="45.94548" lon="4.83719">
        <ele>262</ele>
        <time>2018-05-16T10:30:53Z</time>
      </trkpt>
      <trkpt lat="45.9455" lon="4.83731">
        <ele>262</ele>
        <time>2018-05-16T10:30:55Z</time>
      </trkpt>
      <trkpt lat="45.94551" lon="4.83738">
        <ele>262</ele>
        <time>2018-05-16T10:30:56Z</time>
      </trkpt>
      <trkpt lat="45.94553" lon="4.8375">
        <ele>262</ele>
        <time>2018-05-16T10:30:58Z</time>
      </trkpt>
      <trkpt lat="45.94555" lon="4.83758">
        <ele>263</ele>
        <time>2018-05-16T10:30:59Z</time>
      </trkpt>
      <trkpt lat="45.94555" lon="4.83765">
        <ele>263</ele>
        <time>2018-05-16T10:31:00Z</time>
      </trkpt>
      <trkpt lat="45.94556" lon="4.83773">
        <ele>264</ele>
        <time>2018-05-16T10:31:01Z</time>
      </trkpt>
      <trkpt lat="45.94557" lon="4.83781">
        <ele>264</ele>
        <time>2018-05-16T10:31:02Z</time>
      </trkpt>
      <trkpt lat="45.94557" lon="4.83789">
        <ele>264</ele>
        <time>2018-05-16T10:31:03Z</time>
      </trkpt>
      <trkpt lat="45.94558" lon="4.83797">
        <ele>264</ele>
        <time>2018-05-16T10:31:04Z</time>
      </trkpt>
      <trkpt lat="45.9456" lon="4.83805">
        <ele>264</ele>
        <time>2018-05-16T10:31:05Z</time>
      </trkpt>
      <trkpt lat="45.94561" lon="4.83813">
        <ele>264</ele>
        <time>2018-05-16T10:31:06Z</time>
      </trkpt>
      <trkpt lat="45.94563" lon="4.8382">
        <ele>264</ele>
        <time>2018-05-16T10:31:07Z</time>
      </trkpt>
      <trkpt lat="45.94563" lon="4.83827">
        <ele>265</ele>
        <time>2018-05-16T10:31:08Z</time>
      </trkpt>
      <trkpt lat="45.94565" lon="4.83834">
        <ele>266</ele>
        <time>2018-05-16T10:31:09Z</time>
      </trkpt>
      <trkpt lat="45.94566" lon="4.8384">
        <ele>266</ele>
        <time>2018-05-16T10:31:10Z</time>
      </trkpt>
      <trkpt lat="45.94567" lon="4.83847">
        <ele>266</ele>
        <time>2018-05-16T10:31:11Z</time>
      </trkpt>
      <trkpt lat="45.94568" lon="4.83854">
        <ele>266</ele>
        <time>2018-05-16T10:31:12Z</time>
      </trkpt>
      <trkpt lat="45.94569" lon="4.83859">
        <ele>267</ele>
        <time>2018-05-16T10:31:13Z</time>
      </trkpt>
      <trkpt lat="45.94571" lon="4.83872">
        <ele>267</ele>
        <time>2018-05-16T10:31:15Z</time>
      </trkpt>
      <trkpt lat="45.94572" lon="4.83877">
        <ele>267</ele>
        <time>2018-05-16T10:31:16Z</time>
      </trkpt>
      <trkpt lat="45.94574" lon="4.83889">
        <ele>267</ele>
        <time>2018-05-16T10:31:18Z</time>
      </trkpt>
      <trkpt lat="45.94575" lon="4.83894">
        <ele>267</ele>
        <time>2018-05-16T10:31:19Z</time>
      </trkpt>
      <trkpt lat="45.94577" lon="4.83906">
        <ele>268</ele>
        <time>2018-05-16T10:31:21Z</time>
      </trkpt>
      <trkpt lat="45.94578" lon="4.83912">
        <ele>268</ele>
        <time>2018-05-16T10:31:22Z</time>
      </trkpt>
      <trkpt lat="45.94579" lon="4.83918">
        <ele>268</ele>
        <time>2018-05-16T10:31:23Z</time>
      </trkpt>
      <trkpt lat="45.94579" lon="4.83925">
        <ele>268</ele>
        <time>2018-05-16T10:31:24Z</time>
      </trkpt>
      <trkpt lat="45.94581" lon="4.83931">
        <ele>268</ele>
        <time>2018-05-16T10:31:25Z</time>
      </trkpt>
      <trkpt lat="45.94582" lon="4.83938">
        <ele>269</ele>
        <time>2018-05-16T10:31:26Z</time>
      </trkpt>
      <trkpt lat="45.94584" lon="4.8395">
        <ele>268</ele>
        <time>2018-05-16T10:31:28Z</time>
      </trkpt>
      <trkpt lat="45.94585" lon="4.83957">
        <ele>268</ele>
        <time>2018-05-16T10:31:29Z</time>
      </trkpt>
      <trkpt lat="45.94587" lon="4.83969">
        <ele>268</ele>
        <time>2018-05-16T10:31:31Z</time>
      </trkpt>
      <trkpt lat="45.94588" lon="4.83975">
        <ele>268</ele>
        <time>2018-05-16T10:31:32Z</time>
      </trkpt>
      <trkpt lat="45.94589" lon="4.83982">
        <ele>268</ele>
        <time>2018-05-16T10:31:33Z</time>
      </trkpt>
      <trkpt lat="45.9459" lon="4.83989">
        <ele>269</ele>
        <time>2018-05-16T10:31:34Z</time>
      </trkpt>
      <trkpt lat="45.9459" lon="4.83995">
        <ele>269</ele>
        <time>2018-05-16T10:31:35Z</time>
      </trkpt>
      <trkpt lat="45.94591" lon="4.84002">
        <ele>269</ele>
        <time>2018-05-16T10:31:36Z</time>
      </trkpt>
      <trkpt lat="45.94592" lon="4.84008">
        <ele>269</ele>
        <time>2018-05-16T10:31:37Z</time>
      </trkpt>
      <trkpt lat="45.94594" lon="4.84016">
        <ele>269</ele>
        <time>2018-05-16T10:31:38Z</time>
      </trkpt>
      <trkpt lat="45.94595" lon="4.84024">
        <ele>269</ele>
        <time>2018-05-16T10:31:39Z</time>
      </trkpt>
      <trkpt lat="45.94596" lon="4.84031">
        <ele>269</ele>
        <time>2018-05-16T10:31:40Z</time>
      </trkpt>
      <trkpt lat="45.94597" lon="4.84038">
        <ele>269</ele>
        <time>2018-05-16T10:31:41Z</time>
      </trkpt>
      <trkpt lat="45.94598" lon="4.84045">
        <ele>269</ele>
        <time>2018-05-16T10:31:42Z</time>
      </trkpt>
      <trkpt lat="45.94599" lon="4.84052">
        <ele>269</ele>
        <time>2018-05-16T10:31:43Z</time>
      </trkpt>
      <trkpt lat="45.946" lon="4.84058">
        <ele>269</ele>
        <time>2018-05-16T10:31:44Z</time>
      </trkpt>
      <trkpt lat="45.94601" lon="4.84065">
        <ele>269</ele>
        <time>2018-05-16T10:31:45Z</time>
      </trkpt>
      <trkpt lat="45.94602" lon="4.84072">
        <ele>269</ele>
        <time>2018-05-16T10:31:46Z</time>
      </trkpt>
      <trkpt lat="45.94603" lon="4.84078">
        <ele>269</ele>
        <time>2018-05-16T10:31:47Z</time>
      </trkpt>
      <trkpt lat="45.94604" lon="4.84086">
        <ele>269</ele>
        <time>2018-05-16T10:31:48Z</time>
      </trkpt>
      <trkpt lat="45.94606" lon="4.84098">
        <ele>269</ele>
        <time>2018-05-16T10:31:50Z</time>
      </trkpt>
      <trkpt lat="45.94608" lon="4.84104">
        <ele>269</ele>
        <time>2018-05-16T10:31:51Z</time>
      </trkpt>
      <trkpt lat="45.9461" lon="4.84116">
        <ele>269</ele>
        <time>2018-05-16T10:31:53Z</time>
      </trkpt>
      <trkpt lat="45.94611" lon="4.84122">
        <ele>269</ele>
        <time>2018-05-16T10:31:54Z</time>
      </trkpt>
      <trkpt lat="45.94613" lon="4.84134">
        <ele>269</ele>
        <time>2018-05-16T10:31:56Z</time>
      </trkpt>
      <trkpt lat="45.94614" lon="4.8414">
        <ele>269</ele>
        <time>2018-05-16T10:31:57Z</time>
      </trkpt>
      <trkpt lat="45.94615" lon="4.84146">
        <ele>269</ele>
        <time>2018-05-16T10:31:58Z</time>
      </trkpt>
      <trkpt lat="45.94616" lon="4.84153">
        <ele>269</ele>
        <time>2018-05-16T10:31:59Z</time>
      </trkpt>
      <trkpt lat="45.94617" lon="4.8416">
        <ele>269</ele>
        <time>2018-05-16T10:32:00Z</time>
      </trkpt>
      <trkpt lat="45.94618" lon="4.84167">
        <ele>269</ele>
        <time>2018-05-16T10:32:01Z</time>
      </trkpt>
      <trkpt lat="45.94619" lon="4.84173">
        <ele>269</ele>
        <time>2018-05-16T10:32:02Z</time>
      </trkpt>
      <trkpt lat="45.9462" lon="4.8418">
        <ele>269</ele>
        <time>2018-05-16T10:32:03Z</time>
      </trkpt>
      <trkpt lat="45.94621" lon="4.84186">
        <ele>269</ele>
        <time>2018-05-16T10:32:04Z</time>
      </trkpt>
      <trkpt lat="45.94622" lon="4.84192">
        <ele>269</ele>
        <time>2018-05-16T10:32:05Z</time>
      </trkpt>
      <trkpt lat="45.94623" lon="4.84205">
        <ele>269</ele>
        <time>2018-05-16T10:32:07Z</time>
      </trkpt>
      <trkpt lat="45.94624" lon="4.8421">
        <ele>269</ele>
        <time>2018-05-16T10:32:08Z</time>
      </trkpt>
      <trkpt lat="45.94626" lon="4.84217">
        <ele>269</ele>
        <time>2018-05-16T10:32:09Z</time>
      </trkpt>
      <trkpt lat="45.94627" lon="4.84224">
        <ele>269</ele>
        <time>2018-05-16T10:32:10Z</time>
      </trkpt>
      <trkpt lat="45.9463" lon="4.84236">
        <ele>269</ele>
        <time>2018-05-16T10:32:12Z</time>
      </trkpt>
      <trkpt lat="45.94631" lon="4.84242">
        <ele>269</ele>
        <time>2018-05-16T10:32:13Z</time>
      </trkpt>
      <trkpt lat="45.94632" lon="4.84249">
        <ele>269</ele>
        <time>2018-05-16T10:32:14Z</time>
      </trkpt>
      <trkpt lat="45.94632" lon="4.84257">
        <ele>269</ele>
        <time>2018-05-16T10:32:15Z</time>
      </trkpt>
      <trkpt lat="45.94633" lon="4.84264">
        <ele>269</ele>
        <time>2018-05-16T10:32:16Z</time>
      </trkpt>
      <trkpt lat="45.94634" lon="4.84271">
        <ele>269</ele>
        <time>2018-05-16T10:32:17Z</time>
      </trkpt>
      <trkpt lat="45.94635" lon="4.84278">
        <ele>269</ele>
        <time>2018-05-16T10:32:18Z</time>
      </trkpt>
      <trkpt lat="45.94636" lon="4.84285">
        <ele>269</ele>
        <time>2018-05-16T10:32:19Z</time>
      </trkpt>
      <trkpt lat="45.94637" lon="4.84297">
        <ele>269</ele>
        <time>2018-05-16T10:32:21Z</time>
      </trkpt>
      <trkpt lat="45.94637" lon="4.84303">
        <ele>269</ele>
        <time>2018-05-16T10:32:22Z</time>
      </trkpt>
      <trkpt lat="45.94639" lon="4.84315">
        <ele>269</ele>
        <time>2018-05-16T10:32:24Z</time>
      </trkpt>
      <trkpt lat="45.9464" lon="4.8432">
        <ele>269</ele>
        <time>2018-05-16T10:32:25Z</time>
      </trkpt>
      <trkpt lat="45.9464" lon="4.84332">
        <ele>268</ele>
        <time>2018-05-16T10:32:27Z</time>
      </trkpt>
      <trkpt lat="45.94641" lon="4.84338">
        <ele>268</ele>
        <time>2018-05-16T10:32:28Z</time>
      </trkpt>
      <trkpt lat="45.94643" lon="4.84344">
        <ele>268</ele>
        <time>2018-05-16T10:32:29Z</time>
      </trkpt>
      <trkpt lat="45.94644" lon="4.84351">
        <ele>268</ele>
        <time>2018-05-16T10:32:30Z</time>
      </trkpt>
      <trkpt lat="45.94646" lon="4.84363">
        <ele>268</ele>
        <time>2018-05-16T10:32:32Z</time>
      </trkpt>
      <trkpt lat="45.94647" lon="4.8437">
        <ele>268</ele>
        <time>2018-05-16T10:32:33Z</time>
      </trkpt>
      <trkpt lat="45.94647" lon="4.84376">
        <ele>268</ele>
        <time>2018-05-16T10:32:34Z</time>
      </trkpt>
      <trkpt lat="45.94648" lon="4.84383">
        <ele>268</ele>
        <time>2018-05-16T10:32:35Z</time>
      </trkpt>
      <trkpt lat="45.94649" lon="4.8439">
        <ele>268</ele>
        <time>2018-05-16T10:32:36Z</time>
      </trkpt>
      <trkpt lat="45.9465" lon="4.84398">
        <ele>268</ele>
        <time>2018-05-16T10:32:37Z</time>
      </trkpt>
      <trkpt lat="45.94651" lon="4.84404">
        <ele>268</ele>
        <time>2018-05-16T10:32:38Z</time>
      </trkpt>
      <trkpt lat="45.94652" lon="4.84411">
        <ele>268</ele>
        <time>2018-05-16T10:32:39Z</time>
      </trkpt>
      <trkpt lat="45.94653" lon="4.84418">
        <ele>268</ele>
        <time>2018-05-16T10:32:40Z</time>
      </trkpt>
      <trkpt lat="45.94653" lon="4.84424">
        <ele>268</ele>
        <time>2018-05-16T10:32:41Z</time>
      </trkpt>
      <trkpt lat="45.94654" lon="4.84431">
        <ele>268</ele>
        <time>2018-05-16T10:32:42Z</time>
      </trkpt>
      <trkpt lat="45.94655" lon="4.84437">
        <ele>268</ele>
        <time>2018-05-16T10:32:43Z</time>
      </trkpt>
      <trkpt lat="45.94656" lon="4.84449">
        <ele>268</ele>
        <time>2018-05-16T10:32:45Z</time>
      </trkpt>
      <trkpt lat="45.94656" lon="4.84456">
        <ele>268</ele>
        <time>2018-05-16T10:32:46Z</time>
      </trkpt>
      <trkpt lat="45.94657" lon="4.84462">
        <ele>268</ele>
        <time>2018-05-16T10:32:47Z</time>
      </trkpt>
      <trkpt lat="45.94658" lon="4.84469">
        <ele>268</ele>
        <time>2018-05-16T10:32:48Z</time>
      </trkpt>
      <trkpt lat="45.94659" lon="4.84477">
        <ele>268</ele>
        <time>2018-05-16T10:32:49Z</time>
      </trkpt>
      <trkpt lat="45.9466" lon="4.84483">
        <ele>268</ele>
        <time>2018-05-16T10:32:50Z</time>
      </trkpt>
      <trkpt lat="45.94661" lon="4.84491">
        <ele>268</ele>
        <time>2018-05-16T10:32:51Z</time>
      </trkpt>
      <trkpt lat="45.94661" lon="4.84498">
        <ele>268</ele>
        <time>2018-05-16T10:32:52Z</time>
      </trkpt>
      <trkpt lat="45.94662" lon="4.84505">
        <ele>268</ele>
        <time>2018-05-16T10:32:53Z</time>
      </trkpt>
      <trkpt lat="45.94663" lon="4.84512">
        <ele>268</ele>
        <time>2018-05-16T10:32:54Z</time>
      </trkpt>
      <trkpt lat="45.94663" lon="4.8452">
        <ele>268</ele>
        <time>2018-05-16T10:32:55Z</time>
      </trkpt>
      <trkpt lat="45.94664" lon="4.84527">
        <ele>268</ele>
        <time>2018-05-16T10:32:56Z</time>
      </trkpt>
      <trkpt lat="45.94664" lon="4.84534">
        <ele>268</ele>
        <time>2018-05-16T10:32:57Z</time>
      </trkpt>
      <trkpt lat="45.94665" lon="4.84541">
        <ele>268</ele>
        <time>2018-05-16T10:32:58Z</time>
      </trkpt>
      <trkpt lat="45.94666" lon="4.84549">
        <ele>268</ele>
        <time>2018-05-16T10:32:59Z</time>
      </trkpt>
      <trkpt lat="45.94666" lon="4.84555">
        <ele>268</ele>
        <time>2018-05-16T10:33:00Z</time>
      </trkpt>
      <trkpt lat="45.94667" lon="4.84561">
        <ele>268</ele>
        <time>2018-05-16T10:33:01Z</time>
      </trkpt>
      <trkpt lat="45.94667" lon="4.84568">
        <ele>268</ele>
        <time>2018-05-16T10:33:02Z</time>
      </trkpt>
      <trkpt lat="45.94668" lon="4.8458">
        <ele>268</ele>
        <time>2018-05-16T10:33:04Z</time>
      </trkpt>
      <trkpt lat="45.94668" lon="4.84588">
        <ele>268</ele>
        <time>2018-05-16T10:33:05Z</time>
      </trkpt>
      <trkpt lat="45.94668" lon="4.84595">
        <ele>268</ele>
        <time>2018-05-16T10:33:06Z</time>
      </trkpt>
      <trkpt lat="45.94669" lon="4.84601">
        <ele>268</ele>
        <time>2018-05-16T10:33:07Z</time>
      </trkpt>
      <trkpt lat="45.94669" lon="4.84608">
        <ele>268</ele>
        <time>2018-05-16T10:33:08Z</time>
      </trkpt>
      <trkpt lat="45.94669" lon="4.84616">
        <ele>268</ele>
        <time>2018-05-16T10:33:09Z</time>
      </trkpt>
      <trkpt lat="45.94669" lon="4.84623">
        <ele>268</ele>
        <time>2018-05-16T10:33:10Z</time>
      </trkpt>
      <trkpt lat="45.9467" lon="4.8463">
        <ele>268</ele>
        <time>2018-05-16T10:33:11Z</time>
      </trkpt>
      <trkpt lat="45.9467" lon="4.84637">
        <ele>268</ele>
        <time>2018-05-16T10:33:12Z</time>
      </trkpt>
      <trkpt lat="45.9467" lon="4.84643">
        <ele>268</ele>
        <time>2018-05-16T10:33:13Z</time>
      </trkpt>
      <trkpt lat="45.94671" lon="4.84649">
        <ele>268</ele>
        <time>2018-05-16T10:33:14Z</time>
      </trkpt>
      <trkpt lat="45.94672" lon="4.84657">
        <ele>268</ele>
        <time>2018-05-16T10:33:15Z</time>
      </trkpt>
      <trkpt lat="45.94671" lon="4.84669">
        <ele>269</ele>
        <time>2018-05-16T10:33:17Z</time>
      </trkpt>
      <trkpt lat="45.94671" lon="4.84676">
        <ele>269</ele>
        <time>2018-05-16T10:33:18Z</time>
      </trkpt>
      <trkpt lat="45.94671" lon="4.84684">
        <ele>269</ele>
        <time>2018-05-16T10:33:19Z</time>
      </trkpt>
      <trkpt lat="45.94671" lon="4.84691">
        <ele>269</ele>
        <time>2018-05-16T10:33:20Z</time>
      </trkpt>
      <trkpt lat="45.94672" lon="4.84703">
        <ele>269</ele>
        <time>2018-05-16T10:33:22Z</time>
      </trkpt>
      <trkpt lat="45.94671" lon="4.84709">
        <ele>269</ele>
        <time>2018-05-16T10:33:23Z</time>
      </trkpt>
      <trkpt lat="45.94672" lon="4.84716">
        <ele>269</ele>
        <time>2018-05-16T10:33:24Z</time>
      </trkpt>
      <trkpt lat="45.94673" lon="4.84724">
        <ele>269</ele>
        <time>2018-05-16T10:33:25Z</time>
      </trkpt>
      <trkpt lat="45.94673" lon="4.84732">
        <ele>269</ele>
        <time>2018-05-16T10:33:26Z</time>
      </trkpt>
      <trkpt lat="45.94674" lon="4.84739">
        <ele>269</ele>
        <time>2018-05-16T10:33:27Z</time>
      </trkpt>
      <trkpt lat="45.94674" lon="4.84746">
        <ele>269</ele>
        <time>2018-05-16T10:33:28Z</time>
      </trkpt>
      <trkpt lat="45.94674" lon="4.84754">
        <ele>269</ele>
        <time>2018-05-16T10:33:29Z</time>
      </trkpt>
      <trkpt lat="45.94675" lon="4.84761">
        <ele>269</ele>
        <time>2018-05-16T10:33:30Z</time>
      </trkpt>
      <trkpt lat="45.94676" lon="4.84768">
        <ele>269</ele>
        <time>2018-05-16T10:33:31Z</time>
      </trkpt>
      <trkpt lat="45.94677" lon="4.84776">
        <ele>269</ele>
        <time>2018-05-16T10:33:32Z</time>
      </trkpt>
      <trkpt lat="45.94678" lon="4.84783">
        <ele>269</ele>
        <time>2018-05-16T10:33:33Z</time>
      </trkpt>
      <trkpt lat="45.94678" lon="4.8479">
        <ele>269</ele>
        <time>2018-05-16T10:33:34Z</time>
      </trkpt>
      <trkpt lat="45.94679" lon="4.84798">
        <ele>268</ele>
        <time>2018-05-16T10:33:35Z</time>
      </trkpt>
      <trkpt lat="45.9468" lon="4.84805">
        <ele>268</ele>
        <time>2018-05-16T10:33:36Z</time>
      </trkpt>
      <trkpt lat="45.94681" lon="4.84814">
        <ele>268</ele>
        <time>2018-05-16T10:33:37Z</time>
      </trkpt>
      <trkpt lat="45.94681" lon="4.84822">
        <ele>268</ele>
        <time>2018-05-16T10:33:38Z</time>
      </trkpt>
      <trkpt lat="45.94682" lon="4.8483">
        <ele>268</ele>
        <time>2018-05-16T10:33:39Z</time>
      </trkpt>
      <trkpt lat="45.94682" lon="4.84838">
        <ele>268</ele>
        <time>2018-05-16T10:33:40Z</time>
      </trkpt>
      <trkpt lat="45.94683" lon="4.84846">
        <ele>268</ele>
        <time>2018-05-16T10:33:41Z</time>
      </trkpt>
      <trkpt lat="45.94683" lon="4.84854">
        <ele>268</ele>
        <time>2018-05-16T10:33:42Z</time>
      </trkpt>
      <trkpt lat="45.94684" lon="4.8486">
        <ele>268</ele>
        <time>2018-05-16T10:33:43Z</time>
      </trkpt>
      <trkpt lat="45.94685" lon="4.84868">
        <ele>268</ele>
        <time>2018-05-16T10:33:44Z</time>
      </trkpt>
      <trkpt lat="45.94686" lon="4.84874">
        <ele>268</ele>
        <time>2018-05-16T10:33:45Z</time>
      </trkpt>
      <trkpt lat="45.94686" lon="4.84881">
        <ele>268</ele>
        <time>2018-05-16T10:33:46Z</time>
      </trkpt>
      <trkpt lat="45.94687" lon="4.84888">
        <ele>268</ele>
        <time>2018-05-16T10:33:47Z</time>
      </trkpt>
      <trkpt lat="45.94689" lon="4.849">
        <ele>268</ele>
        <time>2018-05-16T10:33:49Z</time>
      </trkpt>
      <trkpt lat="45.94689" lon="4.84906">
        <ele>269</ele>
        <time>2018-05-16T10:33:50Z</time>
      </trkpt>
      <trkpt lat="45.9469" lon="4.84913">
        <ele>269</ele>
        <time>2018-05-16T10:33:51Z</time>
      </trkpt>
      <trkpt lat="45.94691" lon="4.84919">
        <ele>269</ele>
        <time>2018-05-16T10:33:52Z</time>
      </trkpt>
      <trkpt lat="45.94693" lon="4.84926">
        <ele>269</ele>
        <time>2018-05-16T10:33:53Z</time>
      </trkpt>
      <trkpt lat="45.94693" lon="4.84933">
        <ele>269</ele>
        <time>2018-05-16T10:33:54Z</time>
      </trkpt>
      <trkpt lat="45.94694" lon="4.84939">
        <ele>269</ele>
        <time>2018-05-16T10:33:55Z</time>
      </trkpt>
      <trkpt lat="45.94695" lon="4.84946">
        <ele>269</ele>
        <time>2018-05-16T10:33:56Z</time>
      </trkpt>
      <trkpt lat="45.94695" lon="4.84953">
        <ele>269</ele>
        <time>2018-05-16T10:33:57Z</time>
      </trkpt>
      <trkpt lat="45.94696" lon="4.84959">
        <ele>269</ele>
        <time>2018-05-16T10:33:58Z</time>
      </trkpt>
      <trkpt lat="45.94697" lon="4.84971">
        <ele>269</ele>
        <time>2018-05-16T10:34:00Z</time>
      </trkpt>
      <trkpt lat="45.94696" lon="4.84976">
        <ele>269</ele>
        <time>2018-05-16T10:34:01Z</time>
      </trkpt>
      <trkpt lat="45.94698" lon="4.84982">
        <ele>269</ele>
        <time>2018-05-16T10:34:02Z</time>
      </trkpt>
      <trkpt lat="45.94699" lon="4.84989">
        <ele>269</ele>
        <time>2018-05-16T10:34:03Z</time>
      </trkpt>
      <trkpt lat="45.94698" lon="4.84996">
        <ele>269</ele>
        <time>2018-05-16T10:34:04Z</time>
      </trkpt>
      <trkpt lat="45.94698" lon="4.85003">
        <ele>269</ele>
        <time>2018-05-16T10:34:05Z</time>
      </trkpt>
      <trkpt lat="45.94699" lon="4.85012">
        <ele>269</ele>
        <time>2018-05-16T10:34:06Z</time>
      </trkpt>
      <trkpt lat="45.947" lon="4.85019">
        <ele>269</ele>
        <time>2018-05-16T10:34:07Z</time>
      </trkpt>
      <trkpt lat="45.94701" lon="4.85027">
        <ele>269</ele>
        <time>2018-05-16T10:34:08Z</time>
      </trkpt>
      <trkpt lat="45.94702" lon="4.85034">
        <ele>269</ele>
        <time>2018-05-16T10:34:09Z</time>
      </trkpt>
      <trkpt lat="45.94702" lon="4.85041">
        <ele>269</ele>
        <time>2018-05-16T10:34:10Z</time>
      </trkpt>
      <trkpt lat="45.94703" lon="4.85047">
        <ele>269</ele>
        <time>2018-05-16T10:34:11Z</time>
      </trkpt>
      <trkpt lat="45.94704" lon="4.85059">
        <ele>269</ele>
        <time>2018-05-16T10:34:13Z</time>
      </trkpt>
      <trkpt lat="45.94705" lon="4.85066">
        <ele>269</ele>
        <time>2018-05-16T10:34:14Z</time>
      </trkpt>
      <trkpt lat="45.94705" lon="4.85072">
        <ele>269</ele>
        <time>2018-05-16T10:34:15Z</time>
      </trkpt>
      <trkpt lat="45.94706" lon="4.85079">
        <ele>269</ele>
        <time>2018-05-16T10:34:16Z</time>
      </trkpt>
      <trkpt lat="45.94706" lon="4.85086">
        <ele>269</ele>
        <time>2018-05-16T10:34:17Z</time>
      </trkpt>
      <trkpt lat="45.94707" lon="4.85093">
        <ele>269</ele>
        <time>2018-05-16T10:34:18Z</time>
      </trkpt>
      <trkpt lat="45.94709" lon="4.851">
        <ele>269</ele>
        <time>2018-05-16T10:34:19Z</time>
      </trkpt>
      <trkpt lat="45.9471" lon="4.85108">
        <ele>269</ele>
        <time>2018-05-16T10:34:20Z</time>
      </trkpt>
      <trkpt lat="45.9471" lon="4.85114">
        <ele>269</ele>
        <time>2018-05-16T10:34:21Z</time>
      </trkpt>
      <trkpt lat="45.94711" lon="4.85122">
        <ele>269</ele>
        <time>2018-05-16T10:34:22Z</time>
      </trkpt>
      <trkpt lat="45.94712" lon="4.85129">
        <ele>269</ele>
        <time>2018-05-16T10:34:23Z</time>
      </trkpt>
      <trkpt lat="45.94712" lon="4.85136">
        <ele>269</ele>
        <time>2018-05-16T10:34:24Z</time>
      </trkpt>
      <trkpt lat="45.94713" lon="4.85143">
        <ele>269</ele>
        <time>2018-05-16T10:34:25Z</time>
      </trkpt>
      <trkpt lat="45.94714" lon="4.8515">
        <ele>269</ele>
        <time>2018-05-16T10:34:26Z</time>
      </trkpt>
      <trkpt lat="45.94714" lon="4.85157">
        <ele>269</ele>
        <time>2018-05-16T10:34:27Z</time>
      </trkpt>
      <trkpt lat="45.94715" lon="4.85163">
        <ele>269</ele>
        <time>2018-05-16T10:34:28Z</time>
      </trkpt>
      <trkpt lat="45.94715" lon="4.8517">
        <ele>269</ele>
        <time>2018-05-16T10:34:29Z</time>
      </trkpt>
      <trkpt lat="45.94716" lon="4.85177">
        <ele>269</ele>
        <time>2018-05-16T10:34:30Z</time>
      </trkpt>
      <trkpt lat="45.94717" lon="4.85183">
        <ele>269</ele>
        <time>2018-05-16T10:34:31Z</time>
      </trkpt>
      <trkpt lat="45.94717" lon="4.85191">
        <ele>269</ele>
        <time>2018-05-16T10:34:32Z</time>
      </trkpt>
      <trkpt lat="45.94718" lon="4.85197">
        <ele>269</ele>
        <time>2018-05-16T10:34:33Z</time>
      </trkpt>
      <trkpt lat="45.94719" lon="4.85204">
        <ele>269</ele>
        <time>2018-05-16T10:34:34Z</time>
      </trkpt>
      <trkpt lat="45.94719" lon="4.85211">
        <ele>269</ele>
        <time>2018-05-16T10:34:35Z</time>
      </trkpt>
      <trkpt lat="45.9472" lon="4.85217">
        <ele>269</ele>
        <time>2018-05-16T10:34:36Z</time>
      </trkpt>
      <trkpt lat="45.94722" lon="4.85229">
        <ele>269</ele>
        <time>2018-05-16T10:34:38Z</time>
      </trkpt>
      <trkpt lat="45.94723" lon="4.85234">
        <ele>269</ele>
        <time>2018-05-16T10:34:39Z</time>
      </trkpt>
      <trkpt lat="45.94724" lon="4.85246">
        <ele>269</ele>
        <time>2018-05-16T10:34:41Z</time>
      </trkpt>
      <trkpt lat="45.94725" lon="4.85253">
        <ele>269</ele>
        <time>2018-05-16T10:34:42Z</time>
      </trkpt>
      <trkpt lat="45.94727" lon="4.8526">
        <ele>269</ele>
        <time>2018-05-16T10:34:43Z</time>
      </trkpt>
      <trkpt lat="45.94727" lon="4.85267">
        <ele>269</ele>
        <time>2018-05-16T10:34:44Z</time>
      </trkpt>
      <trkpt lat="45.94728" lon="4.85275">
        <ele>269</ele>
        <time>2018-05-16T10:34:45Z</time>
      </trkpt>
      <trkpt lat="45.94729" lon="4.85282">
        <ele>269</ele>
        <time>2018-05-16T10:34:46Z</time>
      </trkpt>
      <trkpt lat="45.94729" lon="4.8529">
        <ele>269</ele>
        <time>2018-05-16T10:34:47Z</time>
      </trkpt>
      <trkpt lat="45.9473" lon="4.85297">
        <ele>270</ele>
        <time>2018-05-16T10:34:48Z</time>
      </trkpt>
      <trkpt lat="45.94731" lon="4.85304">
        <ele>270</ele>
        <time>2018-05-16T10:34:49Z</time>
      </trkpt>
      <trkpt lat="45.94731" lon="4.85311">
        <ele>270</ele>
        <time>2018-05-16T10:34:50Z</time>
      </trkpt>
      <trkpt lat="45.94732" lon="4.85317">
        <ele>270</ele>
        <time>2018-05-16T10:34:51Z</time>
      </trkpt>
      <trkpt lat="45.94732" lon="4.85324">
        <ele>270</ele>
        <time>2018-05-16T10:34:52Z</time>
      </trkpt>
      <trkpt lat="45.94733" lon="4.8533">
        <ele>270</ele>
        <time>2018-05-16T10:34:53Z</time>
      </trkpt>
      <trkpt lat="45.94734" lon="4.85337">
        <ele>271</ele>
        <time>2018-05-16T10:34:54Z</time>
      </trkpt>
      <trkpt lat="45.94735" lon="4.85344">
        <ele>271</ele>
        <time>2018-05-16T10:34:55Z</time>
      </trkpt>
      <trkpt lat="45.94735" lon="4.85351">
        <ele>271</ele>
        <time>2018-05-16T10:34:56Z</time>
      </trkpt>
      <trkpt lat="45.94736" lon="4.85359">
        <ele>271</ele>
        <time>2018-05-16T10:34:57Z</time>
      </trkpt>
      <trkpt lat="45.94737" lon="4.85366">
        <ele>271</ele>
        <time>2018-05-16T10:34:58Z</time>
      </trkpt>
      <trkpt lat="45.94738" lon="4.85373">
        <ele>271</ele>
        <time>2018-05-16T10:34:59Z</time>
      </trkpt>
      <trkpt lat="45.94739" lon="4.8538">
        <ele>271</ele>
        <time>2018-05-16T10:35:00Z</time>
      </trkpt>
      <trkpt lat="45.94739" lon="4.85387">
        <ele>272</ele>
        <time>2018-05-16T10:35:01Z</time>
      </trkpt>
      <trkpt lat="45.9474" lon="4.85394">
        <ele>272</ele>
        <time>2018-05-16T10:35:02Z</time>
      </trkpt>
      <trkpt lat="45.94741" lon="4.85402">
        <ele>272</ele>
        <time>2018-05-16T10:35:03Z</time>
      </trkpt>
      <trkpt lat="45.94742" lon="4.85409">
        <ele>272</ele>
        <time>2018-05-16T10:35:04Z</time>
      </trkpt>
      <trkpt lat="45.94742" lon="4.85416">
        <ele>273</ele>
        <time>2018-05-16T10:35:05Z</time>
      </trkpt>
      <trkpt lat="45.94743" lon="4.85423">
        <ele>273</ele>
        <time>2018-05-16T10:35:06Z</time>
      </trkpt>
      <trkpt lat="45.94744" lon="4.85435">
        <ele>273</ele>
        <time>2018-05-16T10:35:08Z</time>
      </trkpt>
      <trkpt lat="45.94745" lon="4.8544">
        <ele>274</ele>
        <time>2018-05-16T10:35:09Z</time>
      </trkpt>
      <trkpt lat="45.94745" lon="4.8545">
        <ele>274</ele>
        <time>2018-05-16T10:35:11Z</time>
      </trkpt>
      <trkpt lat="45.94747" lon="4.85456">
        <ele>274</ele>
        <time>2018-05-16T10:35:12Z</time>
      </trkpt>
      <trkpt lat="45.94748" lon="4.85463">
        <ele>274</ele>
        <time>2018-05-16T10:35:13Z</time>
      </trkpt>
      <trkpt lat="45.94748" lon="4.85469">
        <ele>274</ele>
        <time>2018-05-16T10:35:14Z</time>
      </trkpt>
      <trkpt lat="45.94749" lon="4.85475">
        <ele>275</ele>
        <time>2018-05-16T10:35:15Z</time>
      </trkpt>
      <trkpt lat="45.9475" lon="4.85483">
        <ele>275</ele>
        <time>2018-05-16T10:35:16Z</time>
      </trkpt>
      <trkpt lat="45.94751" lon="4.8549">
        <ele>276</ele>
        <time>2018-05-16T10:35:17Z</time>
      </trkpt>
      <trkpt lat="45.94752" lon="4.85496">
        <ele>276</ele>
        <time>2018-05-16T10:35:18Z</time>
      </trkpt>
      <trkpt lat="45.94752" lon="4.85503">
        <ele>276</ele>
        <time>2018-05-16T10:35:19Z</time>
      </trkpt>
      <trkpt lat="45.94753" lon="4.85509">
        <ele>277</ele>
        <time>2018-05-16T10:35:20Z</time>
      </trkpt>
      <trkpt lat="45.94753" lon="4.8552">
        <ele>277</ele>
        <time>2018-05-16T10:35:22Z</time>
      </trkpt>
      <trkpt lat="45.94754" lon="4.85526">
        <ele>277</ele>
        <time>2018-05-16T10:35:23Z</time>
      </trkpt>
      <trkpt lat="45.94755" lon="4.85539">
        <ele>278</ele>
        <time>2018-05-16T10:35:25Z</time>
      </trkpt>
      <trkpt lat="45.94756" lon="4.85544">
        <ele>278</ele>
        <time>2018-05-16T10:35:26Z</time>
      </trkpt>
      <trkpt lat="45.94759" lon="4.85554">
        <ele>278</ele>
        <time>2018-05-16T10:35:28Z</time>
      </trkpt>
      <trkpt lat="45.9476" lon="4.8556">
        <ele>278</ele>
        <time>2018-05-16T10:35:29Z</time>
      </trkpt>
      <trkpt lat="45.94762" lon="4.85571">
        <ele>279</ele>
        <time>2018-05-16T10:35:31Z</time>
      </trkpt>
      <trkpt lat="45.94763" lon="4.85576">
        <ele>279</ele>
        <time>2018-05-16T10:35:32Z</time>
      </trkpt>
      <trkpt lat="45.94765" lon="4.85586">
        <ele>280</ele>
        <time>2018-05-16T10:35:34Z</time>
      </trkpt>
      <trkpt lat="45.94766" lon="4.85592">
        <ele>280</ele>
        <time>2018-05-16T10:35:35Z</time>
      </trkpt>
      <trkpt lat="45.94769" lon="4.85603">
        <ele>280</ele>
        <time>2018-05-16T10:35:37Z</time>
      </trkpt>
      <trkpt lat="45.9477" lon="4.85609">
        <ele>280</ele>
        <time>2018-05-16T10:35:38Z</time>
      </trkpt>
      <trkpt lat="45.94773" lon="4.8562">
        <ele>280</ele>
        <time>2018-05-16T10:35:40Z</time>
      </trkpt>
      <trkpt lat="45.94774" lon="4.85626">
        <ele>280</ele>
        <time>2018-05-16T10:35:41Z</time>
      </trkpt>
      <trkpt lat="45.94777" lon="4.85637">
        <ele>281</ele>
        <time>2018-05-16T10:35:43Z</time>
      </trkpt>
      <trkpt lat="45.94778" lon="4.85643">
        <ele>281</ele>
        <time>2018-05-16T10:35:44Z</time>
      </trkpt>
      <trkpt lat="45.94781" lon="4.85654">
        <ele>281</ele>
        <time>2018-05-16T10:35:46Z</time>
      </trkpt>
      <trkpt lat="45.94782" lon="4.85659">
        <ele>281</ele>
        <time>2018-05-16T10:35:47Z</time>
      </trkpt>
      <trkpt lat="45.94785" lon="4.85669">
        <ele>280</ele>
        <time>2018-05-16T10:35:49Z</time>
      </trkpt>
      <trkpt lat="45.94786" lon="4.85675">
        <ele>280</ele>
        <time>2018-05-16T10:35:50Z</time>
      </trkpt>
      <trkpt lat="45.94788" lon="4.8568">
        <ele>280</ele>
        <time>2018-05-16T10:35:51Z</time>
      </trkpt>
      <trkpt lat="45.94791" lon="4.85687">
        <ele>280</ele>
        <time>2018-05-16T10:35:52Z</time>
      </trkpt>
      <trkpt lat="45.94792" lon="4.85693">
        <ele>280</ele>
        <time>2018-05-16T10:35:53Z</time>
      </trkpt>
      <trkpt lat="45.94794" lon="4.85699">
        <ele>280</ele>
        <time>2018-05-16T10:35:54Z</time>
      </trkpt>
      <trkpt lat="45.94796" lon="4.85706">
        <ele>280</ele>
        <time>2018-05-16T10:35:55Z</time>
      </trkpt>
      <trkpt lat="45.94798" lon="4.85712">
        <ele>280</ele>
        <time>2018-05-16T10:35:56Z</time>
      </trkpt>
      <trkpt lat="45.948" lon="4.85724">
        <ele>280</ele>
        <time>2018-05-16T10:35:58Z</time>
      </trkpt>
      <trkpt lat="45.94802" lon="4.8573">
        <ele>280</ele>
        <time>2018-05-16T10:35:59Z</time>
      </trkpt>
      <trkpt lat="45.94803" lon="4.85736">
        <ele>280</ele>
        <time>2018-05-16T10:36:00Z</time>
      </trkpt>
      <trkpt lat="45.94805" lon="4.85743">
        <ele>279</ele>
        <time>2018-05-16T10:36:01Z</time>
      </trkpt>
      <trkpt lat="45.94807" lon="4.8575">
        <ele>279</ele>
        <time>2018-05-16T10:36:02Z</time>
      </trkpt>
      <trkpt lat="45.94808" lon="4.85758">
        <ele>278</ele>
        <time>2018-05-16T10:36:03Z</time>
      </trkpt>
      <trkpt lat="45.94811" lon="4.85765">
        <ele>278</ele>
        <time>2018-05-16T10:36:04Z</time>
      </trkpt>
      <trkpt lat="45.94812" lon="4.85772">
        <ele>278</ele>
        <time>2018-05-16T10:36:05Z</time>
      </trkpt>
      <trkpt lat="45.94814" lon="4.8578">
        <ele>278</ele>
        <time>2018-05-16T10:36:06Z</time>
      </trkpt>
      <trkpt lat="45.94817" lon="4.85788">
        <ele>278</ele>
        <time>2018-05-16T10:36:07Z</time>
      </trkpt>
      <trkpt lat="45.94818" lon="4.85796">
        <ele>278</ele>
        <time>2018-05-16T10:36:08Z</time>
      </trkpt>
      <trkpt lat="45.9482" lon="4.85803">
        <ele>278</ele>
        <time>2018-05-16T10:36:09Z</time>
      </trkpt>
      <trkpt lat="45.94822" lon="4.8581">
        <ele>278</ele>
        <time>2018-05-16T10:36:10Z</time>
      </trkpt>
      <trkpt lat="45.94824" lon="4.85817">
        <ele>278</ele>
        <time>2018-05-16T10:36:11Z</time>
      </trkpt>
      <trkpt lat="45.94826" lon="4.85823">
        <ele>277</ele>
        <time>2018-05-16T10:36:12Z</time>
      </trkpt>
      <trkpt lat="45.94827" lon="4.8583">
        <ele>277</ele>
        <time>2018-05-16T10:36:13Z</time>
      </trkpt>
      <trkpt lat="45.94829" lon="4.85837">
        <ele>277</ele>
        <time>2018-05-16T10:36:14Z</time>
      </trkpt>
      <trkpt lat="45.94832" lon="4.85843">
        <ele>277</ele>
        <time>2018-05-16T10:36:15Z</time>
      </trkpt>
      <trkpt lat="45.94834" lon="4.85851">
        <ele>276</ele>
        <time>2018-05-16T10:36:16Z</time>
      </trkpt>
      <trkpt lat="45.94836" lon="4.85859">
        <ele>276</ele>
        <time>2018-05-16T10:36:17Z</time>
      </trkpt>
      <trkpt lat="45.94837" lon="4.85865">
        <ele>276</ele>
        <time>2018-05-16T10:36:18Z</time>
      </trkpt>
      <trkpt lat="45.94839" lon="4.85873">
        <ele>276</ele>
        <time>2018-05-16T10:36:19Z</time>
      </trkpt>
      <trkpt lat="45.94841" lon="4.8588">
        <ele>276</ele>
        <time>2018-05-16T10:36:20Z</time>
      </trkpt>
      <trkpt lat="45.94843" lon="4.85887">
        <ele>276</ele>
        <time>2018-05-16T10:36:21Z</time>
      </trkpt>
      <trkpt lat="45.94846" lon="4.85894">
        <ele>276</ele>
        <time>2018-05-16T10:36:22Z</time>
      </trkpt>
      <trkpt lat="45.94848" lon="4.85901">
        <ele>276</ele>
        <time>2018-05-16T10:36:23Z</time>
      </trkpt>
      <trkpt lat="45.9485" lon="4.85909">
        <ele>276</ele>
        <time>2018-05-16T10:36:24Z</time>
      </trkpt>
      <trkpt lat="45.94853" lon="4.85916">
        <ele>275</ele>
        <time>2018-05-16T10:36:25Z</time>
      </trkpt>
      <trkpt lat="45.94853" lon="4.85924">
        <ele>275</ele>
        <time>2018-05-16T10:36:26Z</time>
      </trkpt>
      <trkpt lat="45.94855" lon="4.85931">
        <ele>275</ele>
        <time>2018-05-16T10:36:27Z</time>
      </trkpt>
      <trkpt lat="45.94857" lon="4.85938">
        <ele>275</ele>
        <time>2018-05-16T10:36:28Z</time>
      </trkpt>
      <trkpt lat="45.9486" lon="4.85946">
        <ele>275</ele>
        <time>2018-05-16T10:36:29Z</time>
      </trkpt>
      <trkpt lat="45.94861" lon="4.85953">
        <ele>275</ele>
        <time>2018-05-16T10:36:30Z</time>
      </trkpt>
      <trkpt lat="45.94863" lon="4.8596">
        <ele>275</ele>
        <time>2018-05-16T10:36:31Z</time>
      </trkpt>
      <trkpt lat="45.94865" lon="4.85967">
        <ele>275</ele>
        <time>2018-05-16T10:36:32Z</time>
      </trkpt>
      <trkpt lat="45.94866" lon="4.85974">
        <ele>275</ele>
        <time>2018-05-16T10:36:33Z</time>
      </trkpt>
      <trkpt lat="45.94868" lon="4.85981">
        <ele>275</ele>
        <time>2018-05-16T10:36:34Z</time>
      </trkpt>
      <trkpt lat="45.9487" lon="4.85988">
        <ele>275</ele>
        <time>2018-05-16T10:36:35Z</time>
      </trkpt>
      <trkpt lat="45.94872" lon="4.85995">
        <ele>275</ele>
        <time>2018-05-16T10:36:36Z</time>
      </trkpt>
      <trkpt lat="45.94874" lon="4.86001">
        <ele>274</ele>
        <time>2018-05-16T10:36:37Z</time>
      </trkpt>
      <trkpt lat="45.94876" lon="4.86009">
        <ele>274</ele>
        <time>2018-05-16T10:36:38Z</time>
      </trkpt>
      <trkpt lat="45.94877" lon="4.86016">
        <ele>274</ele>
        <time>2018-05-16T10:36:39Z</time>
      </trkpt>
      <trkpt lat="45.94879" lon="4.86023">
        <ele>274</ele>
        <time>2018-05-16T10:36:40Z</time>
      </trkpt>
      <trkpt lat="45.94881" lon="4.86029">
        <ele>274</ele>
        <time>2018-05-16T10:36:41Z</time>
      </trkpt>
      <trkpt lat="45.94882" lon="4.86036">
        <ele>274</ele>
        <time>2018-05-16T10:36:42Z</time>
      </trkpt>
      <trkpt lat="45.94884" lon="4.86043">
        <ele>274</ele>
        <time>2018-05-16T10:36:43Z</time>
      </trkpt>
      <trkpt lat="45.94886" lon="4.8605">
        <ele>274</ele>
        <time>2018-05-16T10:36:44Z</time>
      </trkpt>
      <trkpt lat="45.94887" lon="4.86057">
        <ele>274</ele>
        <time>2018-05-16T10:36:45Z</time>
      </trkpt>
      <trkpt lat="45.94889" lon="4.86064">
        <ele>274</ele>
        <time>2018-05-16T10:36:46Z</time>
      </trkpt>
      <trkpt lat="45.94891" lon="4.86071">
        <ele>274</ele>
        <time>2018-05-16T10:36:47Z</time>
      </trkpt>
      <trkpt lat="45.94893" lon="4.86078">
        <ele>274</ele>
        <time>2018-05-16T10:36:48Z</time>
      </trkpt>
      <trkpt lat="45.94895" lon="4.86085">
        <ele>274</ele>
        <time>2018-05-16T10:36:49Z</time>
      </trkpt>
      <trkpt lat="45.94897" lon="4.86093">
        <ele>274</ele>
        <time>2018-05-16T10:36:50Z</time>
      </trkpt>
      <trkpt lat="45.949" lon="4.861">
        <ele>274</ele>
        <time>2018-05-16T10:36:51Z</time>
      </trkpt>
      <trkpt lat="45.94903" lon="4.86108">
        <ele>274</ele>
        <time>2018-05-16T10:36:52Z</time>
      </trkpt>
      <trkpt lat="45.94905" lon="4.86115">
        <ele>274</ele>
        <time>2018-05-16T10:36:53Z</time>
      </trkpt>
      <trkpt lat="45.94909" lon="4.86121">
        <ele>274</ele>
        <time>2018-05-16T10:36:54Z</time>
      </trkpt>
      <trkpt lat="45.94912" lon="4.86127">
        <ele>274</ele>
        <time>2018-05-16T10:36:55Z</time>
      </trkpt>
      <trkpt lat="45.94915" lon="4.86134">
        <ele>274</ele>
        <time>2018-05-16T10:36:56Z</time>
      </trkpt>
      <trkpt lat="45.94919" lon="4.86141">
        <ele>273</ele>
        <time>2018-05-16T10:36:57Z</time>
      </trkpt>
      <trkpt lat="45.94923" lon="4.86146">
        <ele>273</ele>
        <time>2018-05-16T10:36:58Z</time>
      </trkpt>
      <trkpt lat="45.94926" lon="4.86151">
        <ele>273</ele>
        <time>2018-05-16T10:36:59Z</time>
      </trkpt>
      <trkpt lat="45.94931" lon="4.86158">
        <ele>273</ele>
        <time>2018-05-16T10:37:00Z</time>
      </trkpt>
      <trkpt lat="45.94935" lon="4.86164">
        <ele>273</ele>
        <time>2018-05-16T10:37:01Z</time>
      </trkpt>
      <trkpt lat="45.94939" lon="4.8617">
        <ele>273</ele>
        <time>2018-05-16T10:37:02Z</time>
      </trkpt>
      <trkpt lat="45.94944" lon="4.86177">
        <ele>273</ele>
        <time>2018-05-16T10:37:03Z</time>
      </trkpt>
      <trkpt lat="45.94948" lon="4.86181">
        <ele>273</ele>
        <time>2018-05-16T10:37:04Z</time>
      </trkpt>
      <trkpt lat="45.94953" lon="4.86186">
        <ele>273</ele>
        <time>2018-05-16T10:37:05Z</time>
      </trkpt>
      <trkpt lat="45.94958" lon="4.86192">
        <ele>273</ele>
        <time>2018-05-16T10:37:06Z</time>
      </trkpt>
      <trkpt lat="45.94962" lon="4.86197">
        <ele>272</ele>
        <time>2018-05-16T10:37:07Z</time>
      </trkpt>
      <trkpt lat="45.94967" lon="4.86203">
        <ele>272</ele>
        <time>2018-05-16T10:37:08Z</time>
      </trkpt>
      <trkpt lat="45.94971" lon="4.86208">
        <ele>272</ele>
        <time>2018-05-16T10:37:09Z</time>
      </trkpt>
      <trkpt lat="45.94976" lon="4.86213">
        <ele>272</ele>
        <time>2018-05-16T10:37:10Z</time>
      </trkpt>
      <trkpt lat="45.94981" lon="4.86218">
        <ele>272</ele>
        <time>2018-05-16T10:37:11Z</time>
      </trkpt>
      <trkpt lat="45.94985" lon="4.86225">
        <ele>272</ele>
        <time>2018-05-16T10:37:12Z</time>
      </trkpt>
      <trkpt lat="45.9499" lon="4.86231">
        <ele>272</ele>
        <time>2018-05-16T10:37:13Z</time>
      </trkpt>
      <trkpt lat="45.94995" lon="4.86236">
        <ele>272</ele>
        <time>2018-05-16T10:37:14Z</time>
      </trkpt>
      <trkpt lat="45.94999" lon="4.86242">
        <ele>272</ele>
        <time>2018-05-16T10:37:15Z</time>
      </trkpt>
      <trkpt lat="45.95004" lon="4.86248">
        <ele>272</ele>
        <time>2018-05-16T10:37:16Z</time>
      </trkpt>
      <trkpt lat="45.95009" lon="4.86255">
        <ele>272</ele>
        <time>2018-05-16T10:37:17Z</time>
      </trkpt>
      <trkpt lat="45.95014" lon="4.8626">
        <ele>272</ele>
        <time>2018-05-16T10:37:18Z</time>
      </trkpt>
      <trkpt lat="45.95018" lon="4.86266">
        <ele>271</ele>
        <time>2018-05-16T10:37:19Z</time>
      </trkpt>
      <trkpt lat="45.95024" lon="4.86273">
        <ele>271</ele>
        <time>2018-05-16T10:37:20Z</time>
      </trkpt>
      <trkpt lat="45.95029" lon="4.86279">
        <ele>271</ele>
        <time>2018-05-16T10:37:21Z</time>
      </trkpt>
      <trkpt lat="45.95034" lon="4.86285">
        <ele>271</ele>
        <time>2018-05-16T10:37:22Z</time>
      </trkpt>
      <trkpt lat="45.95039" lon="4.86291">
        <ele>271</ele>
        <time>2018-05-16T10:37:23Z</time>
      </trkpt>
      <trkpt lat="45.95044" lon="4.86298">
        <ele>271</ele>
        <time>2018-05-16T10:37:24Z</time>
      </trkpt>
      <trkpt lat="45.95049" lon="4.86305">
        <ele>271</ele>
        <time>2018-05-16T10:37:25Z</time>
      </trkpt>
      <trkpt lat="45.95054" lon="4.86312">
        <ele>271</ele>
        <time>2018-05-16T10:37:26Z</time>
      </trkpt>
      <trkpt lat="45.9506" lon="4.86318">
        <ele>270</ele>
        <time>2018-05-16T10:37:27Z</time>
      </trkpt>
      <trkpt lat="45.95065" lon="4.86325">
        <ele>270</ele>
        <time>2018-05-16T10:37:28Z</time>
      </trkpt>
      <trkpt lat="45.9507" lon="4.86332">
        <ele>270</ele>
        <time>2018-05-16T10:37:29Z</time>
      </trkpt>
      <trkpt lat="45.95075" lon="4.86338">
        <ele>270</ele>
        <time>2018-05-16T10:37:30Z</time>
      </trkpt>
      <trkpt lat="45.95081" lon="4.86344">
        <ele>270</ele>
        <time>2018-05-16T10:37:31Z</time>
      </trkpt>
      <trkpt lat="45.95086" lon="4.8635">
        <ele>269</ele>
        <time>2018-05-16T10:37:32Z</time>
      </trkpt>
      <trkpt lat="45.95091" lon="4.86356">
        <ele>269</ele>
        <time>2018-05-16T10:37:33Z</time>
      </trkpt>
      <trkpt lat="45.95096" lon="4.86362">
        <ele>269</ele>
        <time>2018-05-16T10:37:34Z</time>
      </trkpt>
      <trkpt lat="45.95101" lon="4.86368">
        <ele>269</ele>
        <time>2018-05-16T10:37:35Z</time>
      </trkpt>
      <trkpt lat="45.95106" lon="4.86374">
        <ele>269</ele>
        <time>2018-05-16T10:37:36Z</time>
      </trkpt>
      <trkpt lat="45.95111" lon="4.8638">
        <ele>269</ele>
        <time>2018-05-16T10:37:37Z</time>
      </trkpt>
      <trkpt lat="45.95115" lon="4.86386">
        <ele>269</ele>
        <time>2018-05-16T10:37:38Z</time>
      </trkpt>
      <trkpt lat="45.9512" lon="4.86392">
        <ele>269</ele>
        <time>2018-05-16T10:37:39Z</time>
      </trkpt>
      <trkpt lat="45.95125" lon="4.86397">
        <ele>269</ele>
        <time>2018-05-16T10:37:40Z</time>
      </trkpt>
      <trkpt lat="45.95129" lon="4.86402">
        <ele>268</ele>
        <time>2018-05-16T10:37:41Z</time>
      </trkpt>
      <trkpt lat="45.95133" lon="4.86408">
        <ele>268</ele>
        <time>2018-05-16T10:37:42Z</time>
      </trkpt>
      <trkpt lat="45.95138" lon="4.86413">
        <ele>268</ele>
        <time>2018-05-16T10:37:43Z</time>
      </trkpt>
      <trkpt lat="45.95142" lon="4.86419">
        <ele>268</ele>
        <time>2018-05-16T10:37:44Z</time>
      </trkpt>
      <trkpt lat="45.95146" lon="4.86425">
        <ele>268</ele>
        <time>2018-05-16T10:37:45Z</time>
      </trkpt>
      <trkpt lat="45.9515" lon="4.8643">
        <ele>268</ele>
        <time>2018-05-16T10:37:46Z</time>
      </trkpt>
      <trkpt lat="45.95155" lon="4.86436">
        <ele>268</ele>
        <time>2018-05-16T10:37:47Z</time>
      </trkpt>
      <trkpt lat="45.95159" lon="4.86441">
        <ele>268</ele>
        <time>2018-05-16T10:37:48Z</time>
      </trkpt>
      <trkpt lat="45.95163" lon="4.86446">
        <ele>269</ele>
        <time>2018-05-16T10:37:49Z</time>
      </trkpt>
      <trkpt lat="45.95167" lon="4.86453">
        <ele>268</ele>
        <time>2018-05-16T10:37:50Z</time>
      </trkpt>
      <trkpt lat="45.95171" lon="4.86459">
        <ele>268</ele>
        <time>2018-05-16T10:37:51Z</time>
      </trkpt>
      <trkpt lat="45.95175" lon="4.86464">
        <ele>268</ele>
        <time>2018-05-16T10:37:52Z</time>
      </trkpt>
      <trkpt lat="45.9518" lon="4.8647">
        <ele>268</ele>
        <time>2018-05-16T10:37:53Z</time>
      </trkpt>
      <trkpt lat="45.95185" lon="4.86477">
        <ele>268</ele>
        <time>2018-05-16T10:37:54Z</time>
      </trkpt>
      <trkpt lat="45.9519" lon="4.86483">
        <ele>268</ele>
        <time>2018-05-16T10:37:55Z</time>
      </trkpt>
      <trkpt lat="45.95195" lon="4.86489">
        <ele>268</ele>
        <time>2018-05-16T10:37:56Z</time>
      </trkpt>
      <trkpt lat="45.95202" lon="4.86496">
        <ele>268</ele>
        <time>2018-05-16T10:37:57Z</time>
      </trkpt>
      <trkpt lat="45.95208" lon="4.86502">
        <ele>268</ele>
        <time>2018-05-16T10:37:58Z</time>
      </trkpt>
      <trkpt lat="45.95214" lon="4.86508">
        <ele>268</ele>
        <time>2018-05-16T10:37:59Z</time>
      </trkpt>
      <trkpt lat="45.95219" lon="4.86515">
        <ele>268</ele>
        <time>2018-05-16T10:38:00Z</time>
      </trkpt>
      <trkpt lat="45.95225" lon="4.86522">
        <ele>268</ele>
        <time>2018-05-16T10:38:01Z</time>
      </trkpt>
      <trkpt lat="45.9523" lon="4.86529">
        <ele>268</ele>
        <time>2018-05-16T10:38:02Z</time>
      </trkpt>
      <trkpt lat="45.95237" lon="4.86536">
        <ele>268</ele>
        <time>2018-05-16T10:38:03Z</time>
      </trkpt>
      <trkpt lat="45.95242" lon="4.86543">
        <ele>268</ele>
        <time>2018-05-16T10:38:04Z</time>
      </trkpt>
      <trkpt lat="45.95246" lon="4.86549">
        <ele>268</ele>
        <time>2018-05-16T10:38:05Z</time>
      </trkpt>
      <trkpt lat="45.9525" lon="4.86556">
        <ele>267</ele>
        <time>2018-05-16T10:38:06Z</time>
      </trkpt>
      <trkpt lat="45.95255" lon="4.86561">
        <ele>267</ele>
        <time>2018-05-16T10:38:07Z</time>
      </trkpt>
      <trkpt lat="45.95257" lon="4.86568">
        <ele>267</ele>
        <time>2018-05-16T10:38:08Z</time>
      </trkpt>
      <trkpt lat="45.95258" lon="4.86574">
        <ele>268</ele>
        <time>2018-05-16T10:38:09Z</time>
      </trkpt>
      <trkpt lat="45.95256" lon="4.8658">
        <ele>268</ele>
        <time>2018-05-16T10:38:10Z</time>
      </trkpt>
      <trkpt lat="45.95251" lon="4.86584">
        <ele>268</ele>
        <time>2018-05-16T10:38:11Z</time>
      </trkpt>
      <trkpt lat="45.95243" lon="4.86586">
        <ele>268</ele>
        <time>2018-05-16T10:38:13Z</time>
      </trkpt>
      <trkpt lat="45.95239" lon="4.86585">
        <ele>268</ele>
        <time>2018-05-16T10:38:14Z</time>
      </trkpt>
      <trkpt lat="45.95234" lon="4.86584">
        <ele>269</ele>
        <time>2018-05-16T10:38:15Z</time>
      </trkpt>
      <trkpt lat="45.9523" lon="4.86583">
        <ele>268</ele>
        <time>2018-05-16T10:38:16Z</time>
      </trkpt>
      <trkpt lat="45.95221" lon="4.86582">
        <ele>268</ele>
        <time>2018-05-16T10:38:18Z</time>
      </trkpt>
      <trkpt lat="45.95217" lon="4.86582">
        <ele>268</ele>
        <time>2018-05-16T10:38:19Z</time>
      </trkpt>
      <trkpt lat="45.9521" lon="4.8658">
        <ele>268</ele>
        <time>2018-05-16T10:38:21Z</time>
      </trkpt>
      <trkpt lat="45.95205" lon="4.8658">
        <ele>268</ele>
        <time>2018-05-16T10:38:22Z</time>
      </trkpt>
      <trkpt lat="45.95199" lon="4.86579">
        <ele>268</ele>
        <time>2018-05-16T10:38:24Z</time>
      </trkpt>
      <trkpt lat="45.95194" lon="4.86579">
        <ele>268</ele>
        <time>2018-05-16T10:38:25Z</time>
      </trkpt>
      <trkpt lat="45.95186" lon="4.86579">
        <ele>269</ele>
        <time>2018-05-16T10:38:28Z</time>
      </trkpt>
      <trkpt lat="45.95181" lon="4.86579">
        <ele>269</ele>
        <time>2018-05-16T10:38:29Z</time>
      </trkpt>
      <trkpt lat="45.95174" lon="4.86579">
        <ele>269</ele>
        <time>2018-05-16T10:38:31Z</time>
      </trkpt>
      <trkpt lat="45.9517" lon="4.86579">
        <ele>269</ele>
        <time>2018-05-16T10:38:32Z</time>
      </trkpt>
      <trkpt lat="45.95161" lon="4.8658">
        <ele>269</ele>
        <time>2018-05-16T10:38:35Z</time>
      </trkpt>
      <trkpt lat="45.95156" lon="4.8658">
        <ele>269</ele>
        <time>2018-05-16T10:38:36Z</time>
      </trkpt>
      <trkpt lat="45.95148" lon="4.8658">
        <ele>270</ele>
        <time>2018-05-16T10:38:38Z</time>
      </trkpt>
      <trkpt lat="45.95144" lon="4.8658">
        <ele>270</ele>
        <time>2018-05-16T10:38:39Z</time>
      </trkpt>
      <trkpt lat="45.95137" lon="4.86582">
        <ele>270</ele>
        <time>2018-05-16T10:38:41Z</time>
      </trkpt>
      <trkpt lat="45.95133" lon="4.86583">
        <ele>270</ele>
        <time>2018-05-16T10:38:42Z</time>
      </trkpt>
      <trkpt lat="45.95126" lon="4.86585">
        <ele>270</ele>
        <time>2018-05-16T10:38:44Z</time>
      </trkpt>
      <trkpt lat="45.95124" lon="4.86585">
        <ele>270</ele>
        <time>2018-05-16T10:38:45Z</time>
      </trkpt>
      <trkpt lat="45.95117" lon="4.86586">
        <ele>270</ele>
        <time>2018-05-16T10:38:47Z</time>
      </trkpt>
      <trkpt lat="45.95111" lon="4.86586">
        <ele>271</ele>
        <time>2018-05-16T10:38:48Z</time>
      </trkpt>
      <trkpt lat="45.95104" lon="4.86588">
        <ele>271</ele>
        <time>2018-05-16T10:38:50Z</time>
      </trkpt>
      <trkpt lat="45.95101" lon="4.86588">
        <ele>271</ele>
        <time>2018-05-16T10:38:51Z</time>
      </trkpt>
      <trkpt lat="45.95093" lon="4.8659">
        <ele>271</ele>
        <time>2018-05-16T10:38:53Z</time>
      </trkpt>
      <trkpt lat="45.95091" lon="4.8659">
        <ele>271</ele>
        <time>2018-05-16T10:38:54Z</time>
      </trkpt>
      <trkpt lat="45.95083" lon="4.86591">
        <ele>271</ele>
        <time>2018-05-16T10:38:56Z</time>
      </trkpt>
      <trkpt lat="45.95079" lon="4.86592">
        <ele>271</ele>
        <time>2018-05-16T10:38:57Z</time>
      </trkpt>
      <trkpt lat="45.95072" lon="4.86594">
        <ele>272</ele>
        <time>2018-05-16T10:38:59Z</time>
      </trkpt>
      <trkpt lat="45.95068" lon="4.86595">
        <ele>272</ele>
        <time>2018-05-16T10:39:00Z</time>
      </trkpt>
      <trkpt lat="45.95061" lon="4.86597">
        <ele>272</ele>
        <time>2018-05-16T10:39:02Z</time>
      </trkpt>
      <trkpt lat="45.95057" lon="4.86598">
        <ele>272</ele>
        <time>2018-05-16T10:39:03Z</time>
      </trkpt>
      <trkpt lat="45.9505" lon="4.86601">
        <ele>272</ele>
        <time>2018-05-16T10:39:05Z</time>
      </trkpt>
      <trkpt lat="45.95048" lon="4.86601">
        <ele>272</ele>
        <time>2018-05-16T10:39:06Z</time>
      </trkpt>
      <trkpt lat="45.9504" lon="4.86604">
        <ele>273</ele>
        <time>2018-05-16T10:39:09Z</time>
      </trkpt>
      <trkpt lat="45.95037" lon="4.86605">
        <ele>273</ele>
        <time>2018-05-16T10:39:10Z</time>
      </trkpt>
      <trkpt lat="45.95034" lon="4.86606">
        <ele>273</ele>
        <time>2018-05-16T10:39:11Z</time>
      </trkpt>
      <trkpt lat="45.95026" lon="4.86609">
        <ele>273</ele>
        <time>2018-05-16T10:39:12Z</time>
      </trkpt>
      <trkpt lat="45.95019" lon="4.8661">
        <ele>273</ele>
        <time>2018-05-16T10:39:15Z</time>
      </trkpt>
      <trkpt lat="45.95012" lon="4.86611">
        <ele>273</ele>
        <time>2018-05-16T10:39:16Z</time>
      </trkpt>
      <trkpt lat="45.95008" lon="4.86612">
        <ele>273</ele>
        <time>2018-05-16T10:39:18Z</time>
      </trkpt>
      <trkpt lat="45.95001" lon="4.86612">
        <ele>273</ele>
        <time>2018-05-16T10:39:19Z</time>
      </trkpt>
      <trkpt lat="45.94994" lon="4.86613">
        <ele>275</ele>
        <time>2018-05-16T10:39:22Z</time>
      </trkpt>
      <trkpt lat="45.94987" lon="4.86613">
        <ele>275</ele>
        <time>2018-05-16T10:39:23Z</time>
      </trkpt>
      <trkpt lat="45.94979" lon="4.86614">
        <ele>275</ele>
        <time>2018-05-16T10:39:26Z</time>
      </trkpt>
      <trkpt lat="45.94977" lon="4.86615">
        <ele>275</ele>
        <time>2018-05-16T10:39:27Z</time>
      </trkpt>
      <trkpt lat="45.94971" lon="4.86617">
        <ele>275</ele>
        <time>2018-05-16T10:39:29Z</time>
      </trkpt>
      <trkpt lat="45.94968" lon="4.86619">
        <ele>275</ele>
        <time>2018-05-16T10:39:30Z</time>
      </trkpt>
      <trkpt lat="45.9496" lon="4.86623">
        <ele>275</ele>
        <time>2018-05-16T10:39:31Z</time>
      </trkpt>
      <trkpt lat="45.94957" lon="4.86625">
        <ele>276</ele>
        <time>2018-05-16T10:39:32Z</time>
      </trkpt>
      <trkpt lat="45.94951" lon="4.86632">
        <ele>276</ele>
        <time>2018-05-16T10:39:34Z</time>
      </trkpt>
      <trkpt lat="45.94948" lon="4.86636">
        <ele>276</ele>
        <time>2018-05-16T10:39:35Z</time>
      </trkpt>
      <trkpt lat="45.94944" lon="4.86645">
        <ele>276</ele>
        <time>2018-05-16T10:39:37Z</time>
      </trkpt>
      <trkpt lat="45.94942" lon="4.86651">
        <ele>276</ele>
        <time>2018-05-16T10:39:38Z</time>
      </trkpt>
      <trkpt lat="45.9494" lon="4.86663">
        <ele>276</ele>
        <time>2018-05-16T10:39:40Z</time>
      </trkpt>
      <trkpt lat="45.94941" lon="4.86671">
        <ele>276</ele>
        <time>2018-05-16T10:39:41Z</time>
      </trkpt>
      <trkpt lat="45.94943" lon="4.86683">
        <ele>276</ele>
        <time>2018-05-16T10:39:43Z</time>
      </trkpt>
      <trkpt lat="45.94944" lon="4.86689">
        <ele>276</ele>
        <time>2018-05-16T10:39:44Z</time>
      </trkpt>
      <trkpt lat="45.94945" lon="4.86701">
        <ele>275</ele>
        <time>2018-05-16T10:39:46Z</time>
      </trkpt>
      <trkpt lat="45.94946" lon="4.86708">
        <ele>275</ele>
        <time>2018-05-16T10:39:47Z</time>
      </trkpt>
      <trkpt lat="45.94947" lon="4.86715">
        <ele>275</ele>
        <time>2018-05-16T10:39:48Z</time>
      </trkpt>
      <trkpt lat="45.9495" lon="4.86722">
        <ele>275</ele>
        <time>2018-05-16T10:39:49Z</time>
      </trkpt>
      <trkpt lat="45.94951" lon="4.86728">
        <ele>275</ele>
        <time>2018-05-16T10:39:50Z</time>
      </trkpt>
      <trkpt lat="45.94954" lon="4.86734">
        <ele>275</ele>
        <time>2018-05-16T10:39:51Z</time>
      </trkpt>
      <trkpt lat="45.94959" lon="4.86744">
        <ele>275</ele>
        <time>2018-05-16T10:39:53Z</time>
      </trkpt>
      <trkpt lat="45.9496" lon="4.86749">
        <ele>275</ele>
        <time>2018-05-16T10:39:54Z</time>
      </trkpt>
      <trkpt lat="45.94966" lon="4.86757">
        <ele>275</ele>
        <time>2018-05-16T10:39:56Z</time>
      </trkpt>
      <trkpt lat="45.94968" lon="4.86762">
        <ele>275</ele>
        <time>2018-05-16T10:39:57Z</time>
      </trkpt>
      <trkpt lat="45.94973" lon="4.86772">
        <ele>275</ele>
        <time>2018-05-16T10:39:59Z</time>
      </trkpt>
      <trkpt lat="45.94976" lon="4.86776">
        <ele>275</ele>
        <time>2018-05-16T10:40:00Z</time>
      </trkpt>
      <trkpt lat="45.94982" lon="4.86785">
        <ele>275</ele>
        <time>2018-05-16T10:40:02Z</time>
      </trkpt>
      <trkpt lat="45.94985" lon="4.86789">
        <ele>276</ele>
        <time>2018-05-16T10:40:03Z</time>
      </trkpt>
      <trkpt lat="45.94988" lon="4.86794">
        <ele>276</ele>
        <time>2018-05-16T10:40:04Z</time>
      </trkpt>
      <trkpt lat="45.94991" lon="4.86799">
        <ele>276</ele>
        <time>2018-05-16T10:40:05Z</time>
      </trkpt>
      <trkpt lat="45.94994" lon="4.86806">
        <ele>276</ele>
        <time>2018-05-16T10:40:06Z</time>
      </trkpt>
      <trkpt lat="45.94997" lon="4.86812">
        <ele>276</ele>
        <time>2018-05-16T10:40:07Z</time>
      </trkpt>
      <trkpt lat="45.95" lon="4.86818">
        <ele>276</ele>
        <time>2018-05-16T10:40:08Z</time>
      </trkpt>
      <trkpt lat="45.95002" lon="4.86824">
        <ele>275</ele>
        <time>2018-05-16T10:40:09Z</time>
      </trkpt>
      <trkpt lat="45.95005" lon="4.8683">
        <ele>276</ele>
        <time>2018-05-16T10:40:10Z</time>
      </trkpt>
      <trkpt lat="45.95008" lon="4.86836">
        <ele>276</ele>
        <time>2018-05-16T10:40:11Z</time>
      </trkpt>
      <trkpt lat="45.95011" lon="4.86844">
        <ele>276</ele>
        <time>2018-05-16T10:40:12Z</time>
      </trkpt>
      <trkpt lat="45.95012" lon="4.8685">
        <ele>275</ele>
        <time>2018-05-16T10:40:13Z</time>
      </trkpt>
      <trkpt lat="45.95015" lon="4.86856">
        <ele>275</ele>
        <time>2018-05-16T10:40:14Z</time>
      </trkpt>
      <trkpt lat="45.95017" lon="4.86863">
        <ele>275</ele>
        <time>2018-05-16T10:40:15Z</time>
      </trkpt>
      <trkpt lat="45.95018" lon="4.86869">
        <ele>275</ele>
        <time>2018-05-16T10:40:16Z</time>
      </trkpt>
      <trkpt lat="45.95021" lon="4.86875">
        <ele>275</ele>
        <time>2018-05-16T10:40:17Z</time>
      </trkpt>
      <trkpt lat="45.95023" lon="4.86882">
        <ele>275</ele>
        <time>2018-05-16T10:40:18Z</time>
      </trkpt>
      <trkpt lat="45.95025" lon="4.86889">
        <ele>275</ele>
        <time>2018-05-16T10:40:19Z</time>
      </trkpt>
      <trkpt lat="45.95027" lon="4.86895">
        <ele>275</ele>
        <time>2018-05-16T10:40:20Z</time>
      </trkpt>
      <trkpt lat="45.95033" lon="4.86903">
        <ele>275</ele>
        <time>2018-05-16T10:40:21Z</time>
      </trkpt>
      <trkpt lat="45.95035" lon="4.86911">
        <ele>275</ele>
        <time>2018-05-16T10:40:22Z</time>
      </trkpt>
      <trkpt lat="45.95037" lon="4.86917">
        <ele>276</ele>
        <time>2018-05-16T10:40:23Z</time>
      </trkpt>
      <trkpt lat="45.95039" lon="4.86924">
        <ele>276</ele>
        <time>2018-05-16T10:40:24Z</time>
      </trkpt>
      <trkpt lat="45.95041" lon="4.8693">
        <ele>276</ele>
        <time>2018-05-16T10:40:25Z</time>
      </trkpt>
      <trkpt lat="45.95045" lon="4.86941">
        <ele>276</ele>
        <time>2018-05-16T10:40:27Z</time>
      </trkpt>
      <trkpt lat="45.95047" lon="4.86948">
        <ele>276</ele>
        <time>2018-05-16T10:40:28Z</time>
      </trkpt>
      <trkpt lat="45.9505" lon="4.86959">
        <ele>276</ele>
        <time>2018-05-16T10:40:30Z</time>
      </trkpt>
      <trkpt lat="45.95052" lon="4.86966">
        <ele>276</ele>
        <time>2018-05-16T10:40:31Z</time>
      </trkpt>
      <trkpt lat="45.95054" lon="4.86976">
        <ele>276</ele>
        <time>2018-05-16T10:40:33Z</time>
      </trkpt>
      <trkpt lat="45.95057" lon="4.86982">
        <ele>276</ele>
        <time>2018-05-16T10:40:34Z</time>
      </trkpt>
      <trkpt lat="45.95059" lon="4.86987">
        <ele>276</ele>
        <time>2018-05-16T10:40:35Z</time>
      </trkpt>
      <trkpt lat="45.95061" lon="4.86993">
        <ele>276</ele>
        <time>2018-05-16T10:40:36Z</time>
      </trkpt>
      <trkpt lat="45.95063" lon="4.86999">
        <ele>277</ele>
        <time>2018-05-16T10:40:37Z</time>
      </trkpt>
      <trkpt lat="45.95066" lon="4.87004">
        <ele>277</ele>
        <time>2018-05-16T10:40:38Z</time>
      </trkpt>
      <trkpt lat="45.9507" lon="4.87014">
        <ele>277</ele>
        <time>2018-05-16T10:40:40Z</time>
      </trkpt>
      <trkpt lat="45.95072" lon="4.87019">
        <ele>277</ele>
        <time>2018-05-16T10:40:41Z</time>
      </trkpt>
      <trkpt lat="45.95077" lon="4.87029">
        <ele>277</ele>
        <time>2018-05-16T10:40:43Z</time>
      </trkpt>
      <trkpt lat="45.95079" lon="4.87035">
        <ele>277</ele>
        <time>2018-05-16T10:40:44Z</time>
      </trkpt>
      <trkpt lat="45.95084" lon="4.87045">
        <ele>277</ele>
        <time>2018-05-16T10:40:46Z</time>
      </trkpt>
      <trkpt lat="45.95086" lon="4.8705">
        <ele>277</ele>
        <time>2018-05-16T10:40:47Z</time>
      </trkpt>
      <trkpt lat="45.95091" lon="4.8706">
        <ele>277</ele>
        <time>2018-05-16T10:40:49Z</time>
      </trkpt>
      <trkpt lat="45.95093" lon="4.87066">
        <ele>277</ele>
        <time>2018-05-16T10:40:50Z</time>
      </trkpt>
      <trkpt lat="45.95097" lon="4.87076">
        <ele>277</ele>
        <time>2018-05-16T10:40:52Z</time>
      </trkpt>
      <trkpt lat="45.95099" lon="4.87081">
        <ele>277</ele>
        <time>2018-05-16T10:40:53Z</time>
      </trkpt>
      <trkpt lat="45.95103" lon="4.87093">
        <ele>277</ele>
        <time>2018-05-16T10:40:55Z</time>
      </trkpt>
      <trkpt lat="45.95105" lon="4.87099">
        <ele>277</ele>
        <time>2018-05-16T10:40:56Z</time>
      </trkpt>
      <trkpt lat="45.95109" lon="4.8711">
        <ele>277</ele>
        <time>2018-05-16T10:40:58Z</time>
      </trkpt>
      <trkpt lat="45.9511" lon="4.87116">
        <ele>277</ele>
        <time>2018-05-16T10:40:59Z</time>
      </trkpt>
      <trkpt lat="45.95113" lon="4.87128">
        <ele>277</ele>
        <time>2018-05-16T10:41:01Z</time>
      </trkpt>
      <trkpt lat="45.95114" lon="4.87133">
        <ele>277</ele>
        <time>2018-05-16T10:41:02Z</time>
      </trkpt>
      <trkpt lat="45.95117" lon="4.87144">
        <ele>277</ele>
        <time>2018-05-16T10:41:04Z</time>
      </trkpt>
      <trkpt lat="45.95119" lon="4.8715">
        <ele>277</ele>
        <time>2018-05-16T10:41:05Z</time>
      </trkpt>
      <trkpt lat="45.95121" lon="4.87156">
        <ele>276</ele>
        <time>2018-05-16T10:41:06Z</time>
      </trkpt>
      <trkpt lat="45.95123" lon="4.87163">
        <ele>276</ele>
        <time>2018-05-16T10:41:07Z</time>
      </trkpt>
      <trkpt lat="45.95125" lon="4.87169">
        <ele>276</ele>
        <time>2018-05-16T10:41:08Z</time>
      </trkpt>
      <trkpt lat="45.95125" lon="4.87177">
        <ele>276</ele>
        <time>2018-05-16T10:41:09Z</time>
      </trkpt>
      <trkpt lat="45.95127" lon="4.87185">
        <ele>276</ele>
        <time>2018-05-16T10:41:10Z</time>
      </trkpt>
      <trkpt lat="45.95129" lon="4.87191">
        <ele>276</ele>
        <time>2018-05-16T10:41:11Z</time>
      </trkpt>
      <trkpt lat="45.9513" lon="4.87199">
        <ele>276</ele>
        <time>2018-05-16T10:41:12Z</time>
      </trkpt>
      <trkpt lat="45.95131" lon="4.87206">
        <ele>276</ele>
        <time>2018-05-16T10:41:13Z</time>
      </trkpt>
      <trkpt lat="45.95133" lon="4.87214">
        <ele>276</ele>
        <time>2018-05-16T10:41:14Z</time>
      </trkpt>
      <trkpt lat="45.95135" lon="4.87222">
        <ele>276</ele>
        <time>2018-05-16T10:41:15Z</time>
      </trkpt>
      <trkpt lat="45.95136" lon="4.87231">
        <ele>276</ele>
        <time>2018-05-16T10:41:16Z</time>
      </trkpt>
      <trkpt lat="45.95138" lon="4.8724">
        <ele>275</ele>
        <time>2018-05-16T10:41:17Z</time>
      </trkpt>
      <trkpt lat="45.95141" lon="4.87249">
        <ele>275</ele>
        <time>2018-05-16T10:41:18Z</time>
      </trkpt>
      <trkpt lat="45.95143" lon="4.87261">
        <ele>274</ele>
        <time>2018-05-16T10:41:19Z</time>
      </trkpt>
      <trkpt lat="45.95145" lon="4.87271">
        <ele>274</ele>
        <time>2018-05-16T10:41:20Z</time>
      </trkpt>
      <trkpt lat="45.95147" lon="4.8728">
        <ele>274</ele>
        <time>2018-05-16T10:41:21Z</time>
      </trkpt>
      <trkpt lat="45.95152" lon="4.87291">
        <ele>274</ele>
        <time>2018-05-16T10:41:22Z</time>
      </trkpt>
      <trkpt lat="45.95154" lon="4.87301">
        <ele>274</ele>
        <time>2018-05-16T10:41:23Z</time>
      </trkpt>
      <trkpt lat="45.95156" lon="4.8731">
        <ele>273</ele>
        <time>2018-05-16T10:41:24Z</time>
      </trkpt>
      <trkpt lat="45.95159" lon="4.8732">
        <ele>273</ele>
        <time>2018-05-16T10:41:25Z</time>
      </trkpt>
      <trkpt lat="45.95161" lon="4.87329">
        <ele>272</ele>
        <time>2018-05-16T10:41:26Z</time>
      </trkpt>
      <trkpt lat="45.95164" lon="4.87344">
        <ele>272</ele>
        <time>2018-05-16T10:41:27Z</time>
      </trkpt>
      <trkpt lat="45.95166" lon="4.87352">
        <ele>272</ele>
        <time>2018-05-16T10:41:28Z</time>
      </trkpt>
      <trkpt lat="45.95168" lon="4.87361">
        <ele>271</ele>
        <time>2018-05-16T10:41:29Z</time>
      </trkpt>
      <trkpt lat="45.9517" lon="4.87369">
        <ele>271</ele>
        <time>2018-05-16T10:41:30Z</time>
      </trkpt>
      <trkpt lat="45.95173" lon="4.87377">
        <ele>271</ele>
        <time>2018-05-16T10:41:31Z</time>
      </trkpt>
      <trkpt lat="45.95174" lon="4.87384">
        <ele>271</ele>
        <time>2018-05-16T10:41:32Z</time>
      </trkpt>
      <trkpt lat="45.95177" lon="4.87392">
        <ele>271</ele>
        <time>2018-05-16T10:41:33Z</time>
      </trkpt>
      <trkpt lat="45.95179" lon="4.87399">
        <ele>271</ele>
        <time>2018-05-16T10:41:34Z</time>
      </trkpt>
      <trkpt lat="45.9518" lon="4.87406">
        <ele>271</ele>
        <time>2018-05-16T10:41:35Z</time>
      </trkpt>
      <trkpt lat="45.95182" lon="4.87414">
        <ele>271</ele>
        <time>2018-05-16T10:41:36Z</time>
      </trkpt>
      <trkpt lat="45.95184" lon="4.87421">
        <ele>271</ele>
        <time>2018-05-16T10:41:37Z</time>
      </trkpt>
      <trkpt lat="45.95185" lon="4.87428">
        <ele>271</ele>
        <time>2018-05-16T10:41:38Z</time>
      </trkpt>
      <trkpt lat="45.95186" lon="4.87436">
        <ele>272</ele>
        <time>2018-05-16T10:41:39Z</time>
      </trkpt>
      <trkpt lat="45.95188" lon="4.87443">
        <ele>272</ele>
        <time>2018-05-16T10:41:40Z</time>
      </trkpt>
      <trkpt lat="45.95189" lon="4.8745">
        <ele>272</ele>
        <time>2018-05-16T10:41:41Z</time>
      </trkpt>
      <trkpt lat="45.95191" lon="4.87458">
        <ele>272</ele>
        <time>2018-05-16T10:41:42Z</time>
      </trkpt>
      <trkpt lat="45.95192" lon="4.87465">
        <ele>272</ele>
        <time>2018-05-16T10:41:43Z</time>
      </trkpt>
      <trkpt lat="45.95194" lon="4.87472">
        <ele>272</ele>
        <time>2018-05-16T10:41:44Z</time>
      </trkpt>
      <trkpt lat="45.95196" lon="4.87478">
        <ele>272</ele>
        <time>2018-05-16T10:41:45Z</time>
      </trkpt>
      <trkpt lat="45.95195" lon="4.87485">
        <ele>272</ele>
        <time>2018-05-16T10:41:46Z</time>
      </trkpt>
      <trkpt lat="45.95196" lon="4.87493">
        <ele>272</ele>
        <time>2018-05-16T10:41:47Z</time>
      </trkpt>
      <trkpt lat="45.95198" lon="4.875">
        <ele>273</ele>
        <time>2018-05-16T10:41:48Z</time>
      </trkpt>
      <trkpt lat="45.952" lon="4.87506">
        <ele>273</ele>
        <time>2018-05-16T10:41:49Z</time>
      </trkpt>
      <trkpt lat="45.95201" lon="4.87518">
        <ele>273</ele>
        <time>2018-05-16T10:41:51Z</time>
      </trkpt>
      <trkpt lat="45.95203" lon="4.87525">
        <ele>274</ele>
        <time>2018-05-16T10:41:52Z</time>
      </trkpt>
      <trkpt lat="45.95204" lon="4.87533">
        <ele>274</ele>
        <time>2018-05-16T10:41:53Z</time>
      </trkpt>
      <trkpt lat="45.95205" lon="4.87541">
        <ele>274</ele>
        <time>2018-05-16T10:41:54Z</time>
      </trkpt>
      <trkpt lat="45.95205" lon="4.87548">
        <ele>274</ele>
        <time>2018-05-16T10:41:55Z</time>
      </trkpt>
      <trkpt lat="45.95206" lon="4.87556">
        <ele>274</ele>
        <time>2018-05-16T10:41:56Z</time>
      </trkpt>
      <trkpt lat="45.95207" lon="4.87563">
        <ele>274</ele>
        <time>2018-05-16T10:41:57Z</time>
      </trkpt>
      <trkpt lat="45.95208" lon="4.87572">
        <ele>274</ele>
        <time>2018-05-16T10:41:58Z</time>
      </trkpt>
      <trkpt lat="45.9521" lon="4.87579">
        <ele>274</ele>
        <time>2018-05-16T10:41:59Z</time>
      </trkpt>
      <trkpt lat="45.95211" lon="4.87586">
        <ele>276</ele>
        <time>2018-05-16T10:42:00Z</time>
      </trkpt>
      <trkpt lat="45.95212" lon="4.87593">
        <ele>276</ele>
        <time>2018-05-16T10:42:01Z</time>
      </trkpt>
      <trkpt lat="45.95212" lon="4.876">
        <ele>276</ele>
        <time>2018-05-16T10:42:02Z</time>
      </trkpt>
      <trkpt lat="45.95213" lon="4.87607">
        <ele>276</ele>
        <time>2018-05-16T10:42:03Z</time>
      </trkpt>
      <trkpt lat="45.95213" lon="4.87613">
        <ele>276</ele>
        <time>2018-05-16T10:42:04Z</time>
      </trkpt>
      <trkpt lat="45.95216" lon="4.87625">
        <ele>276</ele>
        <time>2018-05-16T10:42:06Z</time>
      </trkpt>
      <trkpt lat="45.95217" lon="4.87627">
        <ele>276</ele>
        <time>2018-05-16T10:42:07Z</time>
      </trkpt>
      <trkpt lat="45.95218" lon="4.87636">
        <ele>276</ele>
        <time>2018-05-16T10:42:08Z</time>
      </trkpt>
      <trkpt lat="45.9522" lon="4.8764">
        <ele>276</ele>
        <time>2018-05-16T10:42:09Z</time>
      </trkpt>
      <trkpt lat="45.95221" lon="4.87651">
        <ele>276</ele>
        <time>2018-05-16T10:42:11Z</time>
      </trkpt>
      <trkpt lat="45.9522" lon="4.87658">
        <ele>276</ele>
        <time>2018-05-16T10:42:12Z</time>
      </trkpt>
      <trkpt lat="45.95222" lon="4.87669">
        <ele>278</ele>
        <time>2018-05-16T10:42:14Z</time>
      </trkpt>
      <trkpt lat="45.95224" lon="4.87675">
        <ele>278</ele>
        <time>2018-05-16T10:42:15Z</time>
      </trkpt>
      <trkpt lat="45.95225" lon="4.87682">
        <ele>278</ele>
        <time>2018-05-16T10:42:17Z</time>
      </trkpt>
      <trkpt lat="45.95226" lon="4.87689">
        <ele>279</ele>
        <time>2018-05-16T10:42:18Z</time>
      </trkpt>
      <trkpt lat="45.95227" lon="4.877">
        <ele>279</ele>
        <time>2018-05-16T10:42:21Z</time>
      </trkpt>
      <trkpt lat="45.95227" lon="4.87703">
        <ele>279</ele>
        <time>2018-05-16T10:42:22Z</time>
      </trkpt>
      <trkpt lat="45.95227" lon="4.87707">
        <ele>279</ele>
        <time>2018-05-16T10:42:23Z</time>
      </trkpt>
      <trkpt lat="45.95229" lon="4.87717">
        <ele>279</ele>
        <time>2018-05-16T10:42:24Z</time>
      </trkpt>
      <trkpt lat="45.95231" lon="4.87729">
        <ele>280</ele>
        <time>2018-05-16T10:42:26Z</time>
      </trkpt>
      <trkpt lat="45.95232" lon="4.87732">
        <ele>280</ele>
        <time>2018-05-16T10:42:27Z</time>
      </trkpt>
      <trkpt lat="45.95234" lon="4.87739">
        <ele>280</ele>
        <time>2018-05-16T10:42:29Z</time>
      </trkpt>
      <trkpt lat="45.95237" lon="4.8775">
        <ele>280</ele>
        <time>2018-05-16T10:42:30Z</time>
      </trkpt>
      <trkpt lat="45.9524" lon="4.8776">
        <ele>281</ele>
        <time>2018-05-16T10:42:32Z</time>
      </trkpt>
      <trkpt lat="45.9524" lon="4.87763">
        <ele>281</ele>
        <time>2018-05-16T10:42:33Z</time>
      </trkpt>
      <trkpt lat="45.95242" lon="4.87771">
        <ele>282</ele>
        <time>2018-05-16T10:42:34Z</time>
      </trkpt>
      <trkpt lat="45.95242" lon="4.87777">
        <ele>282</ele>
        <time>2018-05-16T10:42:35Z</time>
      </trkpt>
      <trkpt lat="45.95245" lon="4.87788">
        <ele>282</ele>
        <time>2018-05-16T10:42:37Z</time>
      </trkpt>
      <trkpt lat="45.95246" lon="4.87793">
        <ele>282</ele>
        <time>2018-05-16T10:42:38Z</time>
      </trkpt>
      <trkpt lat="45.95248" lon="4.87805">
        <ele>282</ele>
        <time>2018-05-16T10:42:40Z</time>
      </trkpt>
      <trkpt lat="45.95249" lon="4.8781">
        <ele>282</ele>
        <time>2018-05-16T10:42:41Z</time>
      </trkpt>
      <trkpt lat="45.9525" lon="4.87821">
        <ele>282</ele>
        <time>2018-05-16T10:42:44Z</time>
      </trkpt>
      <trkpt lat="45.9525" lon="4.87824">
        <ele>282</ele>
        <time>2018-05-16T10:42:45Z</time>
      </trkpt>
      <trkpt lat="45.95251" lon="4.87835">
        <ele>282</ele>
        <time>2018-05-16T10:42:48Z</time>
      </trkpt>
      <trkpt lat="45.95252" lon="4.87847">
        <ele>281</ele>
        <time>2018-05-16T10:42:49Z</time>
      </trkpt>
      <trkpt lat="45.95254" lon="4.87858">
        <ele>281</ele>
        <time>2018-05-16T10:42:51Z</time>
      </trkpt>
      <trkpt lat="45.95256" lon="4.87864">
        <ele>281</ele>
        <time>2018-05-16T10:42:52Z</time>
      </trkpt>
      <trkpt lat="45.95259" lon="4.87875">
        <ele>280</ele>
        <time>2018-05-16T10:42:54Z</time>
      </trkpt>
      <trkpt lat="45.95261" lon="4.87881">
        <ele>281</ele>
        <time>2018-05-16T10:42:55Z</time>
      </trkpt>
      <trkpt lat="45.95263" lon="4.87893">
        <ele>281</ele>
        <time>2018-05-16T10:42:57Z</time>
      </trkpt>
      <trkpt lat="45.95264" lon="4.87898">
        <ele>281</ele>
        <time>2018-05-16T10:42:58Z</time>
      </trkpt>
      <trkpt lat="45.95266" lon="4.87909">
        <ele>281</ele>
        <time>2018-05-16T10:43:00Z</time>
      </trkpt>
      <trkpt lat="45.95267" lon="4.87914">
        <ele>281</ele>
        <time>2018-05-16T10:43:01Z</time>
      </trkpt>
      <trkpt lat="45.95268" lon="4.87924">
        <ele>281</ele>
        <time>2018-05-16T10:43:03Z</time>
      </trkpt>
      <trkpt lat="45.95268" lon="4.87927">
        <ele>281</ele>
        <time>2018-05-16T10:43:04Z</time>
      </trkpt>
      <trkpt lat="45.95267" lon="4.8794">
        <ele>280</ele>
        <time>2018-05-16T10:43:06Z</time>
      </trkpt>
      <trkpt lat="45.95266" lon="4.87945">
        <ele>280</ele>
        <time>2018-05-16T10:43:07Z</time>
      </trkpt>
      <trkpt lat="45.95263" lon="4.87955">
        <ele>280</ele>
        <time>2018-05-16T10:43:09Z</time>
      </trkpt>
      <trkpt lat="45.95262" lon="4.8796">
        <ele>280</ele>
        <time>2018-05-16T10:43:10Z</time>
      </trkpt>
      <trkpt lat="45.95257" lon="4.87969">
        <ele>280</ele>
        <time>2018-05-16T10:43:12Z</time>
      </trkpt>
      <trkpt lat="45.95254" lon="4.87973">
        <ele>280</ele>
        <time>2018-05-16T10:43:13Z</time>
      </trkpt>
      <trkpt lat="45.95248" lon="4.87982">
        <ele>281</ele>
        <time>2018-05-16T10:43:15Z</time>
      </trkpt>
      <trkpt lat="45.95245" lon="4.87986">
        <ele>281</ele>
        <time>2018-05-16T10:43:16Z</time>
      </trkpt>
      <trkpt lat="45.95239" lon="4.87995">
        <ele>281</ele>
        <time>2018-05-16T10:43:18Z</time>
      </trkpt>
      <trkpt lat="45.95236" lon="4.87999">
        <ele>281</ele>
        <time>2018-05-16T10:43:19Z</time>
      </trkpt>
      <trkpt lat="45.9523" lon="4.88006">
        <ele>280</ele>
        <time>2018-05-16T10:43:21Z</time>
      </trkpt>
      <trkpt lat="45.95226" lon="4.8801">
        <ele>281</ele>
        <time>2018-05-16T10:43:22Z</time>
      </trkpt>
      <trkpt lat="45.9522" lon="4.88019">
        <ele>281</ele>
        <time>2018-05-16T10:43:24Z</time>
      </trkpt>
      <trkpt lat="45.95217" lon="4.88024">
        <ele>281</ele>
        <time>2018-05-16T10:43:25Z</time>
      </trkpt>
      <trkpt lat="45.95214" lon="4.88028">
        <ele>281</ele>
        <time>2018-05-16T10:43:26Z</time>
      </trkpt>
      <trkpt lat="45.95211" lon="4.88033">
        <ele>281</ele>
        <time>2018-05-16T10:43:27Z</time>
      </trkpt>
      <trkpt lat="45.95207" lon="4.88038">
        <ele>281</ele>
        <time>2018-05-16T10:43:28Z</time>
      </trkpt>
      <trkpt lat="45.95204" lon="4.88043">
        <ele>281</ele>
        <time>2018-05-16T10:43:29Z</time>
      </trkpt>
      <trkpt lat="45.95197" lon="4.88052">
        <ele>281</ele>
        <time>2018-05-16T10:43:31Z</time>
      </trkpt>
      <trkpt lat="45.95196" lon="4.88058">
        <ele>281</ele>
        <time>2018-05-16T10:43:32Z</time>
      </trkpt>
      <trkpt lat="45.95194" lon="4.88064">
        <ele>281</ele>
        <time>2018-05-16T10:43:33Z</time>
      </trkpt>
      <trkpt lat="45.95192" lon="4.8807">
        <ele>281</ele>
        <time>2018-05-16T10:43:34Z</time>
      </trkpt>
      <trkpt lat="45.95189" lon="4.88082">
        <ele>281</ele>
        <time>2018-05-16T10:43:36Z</time>
      </trkpt>
      <trkpt lat="45.95188" lon="4.88087">
        <ele>282</ele>
        <time>2018-05-16T10:43:37Z</time>
      </trkpt>
      <trkpt lat="45.95186" lon="4.88093">
        <ele>282</ele>
        <time>2018-05-16T10:43:38Z</time>
      </trkpt>
      <trkpt lat="45.95185" lon="4.88099">
        <ele>282</ele>
        <time>2018-05-16T10:43:39Z</time>
      </trkpt>
      <trkpt lat="45.95184" lon="4.88111">
        <ele>282</ele>
        <time>2018-05-16T10:43:41Z</time>
      </trkpt>
      <trkpt lat="45.95183" lon="4.88118">
        <ele>282</ele>
        <time>2018-05-16T10:43:42Z</time>
      </trkpt>
      <trkpt lat="45.95181" lon="4.88128">
        <ele>282</ele>
        <time>2018-05-16T10:43:44Z</time>
      </trkpt>
      <trkpt lat="45.95179" lon="4.88133">
        <ele>283</ele>
        <time>2018-05-16T10:43:45Z</time>
      </trkpt>
      <trkpt lat="45.95176" lon="4.88144">
        <ele>283</ele>
        <time>2018-05-16T10:43:47Z</time>
      </trkpt>
      <trkpt lat="45.95175" lon="4.88149">
        <ele>283</ele>
        <time>2018-05-16T10:43:48Z</time>
      </trkpt>
      <trkpt lat="45.95173" lon="4.88159">
        <ele>284</ele>
        <time>2018-05-16T10:43:50Z</time>
      </trkpt>
      <trkpt lat="45.95173" lon="4.88165">
        <ele>284</ele>
        <time>2018-05-16T10:43:51Z</time>
      </trkpt>
      <trkpt lat="45.95176" lon="4.88175">
        <ele>285</ele>
        <time>2018-05-16T10:43:53Z</time>
      </trkpt>
      <trkpt lat="45.9518" lon="4.88178">
        <ele>285</ele>
        <time>2018-05-16T10:43:54Z</time>
      </trkpt>
      <trkpt lat="45.95186" lon="4.88175">
        <ele>285</ele>
        <time>2018-05-16T10:43:55Z</time>
      </trkpt>
      <trkpt lat="45.9519" lon="4.88176">
        <ele>285</ele>
        <time>2018-05-16T10:43:56Z</time>
      </trkpt>
      <trkpt lat="45.95195" lon="4.88175">
        <ele>285</ele>
        <time>2018-05-16T10:43:57Z</time>
      </trkpt>
      <trkpt lat="45.95201" lon="4.88175">
        <ele>285</ele>
        <time>2018-05-16T10:43:58Z</time>
      </trkpt>
      <trkpt lat="45.95206" lon="4.88174">
        <ele>285</ele>
        <time>2018-05-16T10:43:59Z</time>
      </trkpt>
      <trkpt lat="45.95212" lon="4.88173">
        <ele>284</ele>
        <time>2018-05-16T10:44:00Z</time>
      </trkpt>
      <trkpt lat="45.95217" lon="4.88172">
        <ele>284</ele>
        <time>2018-05-16T10:44:01Z</time>
      </trkpt>
      <trkpt lat="45.95223" lon="4.88169">
        <ele>284</ele>
        <time>2018-05-16T10:44:02Z</time>
      </trkpt>
      <trkpt lat="45.95229" lon="4.8817">
        <ele>283</ele>
        <time>2018-05-16T10:44:03Z</time>
      </trkpt>
      <trkpt lat="45.95235" lon="4.8817">
        <ele>283</ele>
        <time>2018-05-16T10:44:04Z</time>
      </trkpt>
      <trkpt lat="45.95242" lon="4.88168">
        <ele>282</ele>
        <time>2018-05-16T10:44:05Z</time>
      </trkpt>
      <trkpt lat="45.95249" lon="4.88168">
        <ele>281</ele>
        <time>2018-05-16T10:44:06Z</time>
      </trkpt>
      <trkpt lat="45.95257" lon="4.88169">
        <ele>281</ele>
        <time>2018-05-16T10:44:07Z</time>
      </trkpt>
      <trkpt lat="45.95263" lon="4.88169">
        <ele>281</ele>
        <time>2018-05-16T10:44:08Z</time>
      </trkpt>
      <trkpt lat="45.9527" lon="4.88169">
        <ele>281</ele>
        <time>2018-05-16T10:44:09Z</time>
      </trkpt>
      <trkpt lat="45.95278" lon="4.88168">
        <ele>281</ele>
        <time>2018-05-16T10:44:10Z</time>
      </trkpt>
      <trkpt lat="45.95285" lon="4.88169">
        <ele>281</ele>
        <time>2018-05-16T10:44:11Z</time>
      </trkpt>
      <trkpt lat="45.95292" lon="4.8817">
        <ele>281</ele>
        <time>2018-05-16T10:44:12Z</time>
      </trkpt>
      <trkpt lat="45.95301" lon="4.88171">
        <ele>281</ele>
        <time>2018-05-16T10:44:13Z</time>
      </trkpt>
      <trkpt lat="45.95308" lon="4.88172">
        <ele>280</ele>
        <time>2018-05-16T10:44:14Z</time>
      </trkpt>
      <trkpt lat="45.95316" lon="4.88173">
        <ele>280</ele>
        <time>2018-05-16T10:44:15Z</time>
      </trkpt>
      <trkpt lat="45.95325" lon="4.88172">
        <ele>279</ele>
        <time>2018-05-16T10:44:16Z</time>
      </trkpt>
      <trkpt lat="45.95332" lon="4.88173">
        <ele>279</ele>
        <time>2018-05-16T10:44:17Z</time>
      </trkpt>
      <trkpt lat="45.9534" lon="4.88172">
        <ele>278</ele>
        <time>2018-05-16T10:44:18Z</time>
      </trkpt>
      <trkpt lat="45.95347" lon="4.88172">
        <ele>278</ele>
        <time>2018-05-16T10:44:19Z</time>
      </trkpt>
      <trkpt lat="45.95355" lon="4.88171">
        <ele>278</ele>
        <time>2018-05-16T10:44:20Z</time>
      </trkpt>
      <trkpt lat="45.95363" lon="4.8817">
        <ele>278</ele>
        <time>2018-05-16T10:44:21Z</time>
      </trkpt>
      <trkpt lat="45.9537" lon="4.8817">
        <ele>278</ele>
        <time>2018-05-16T10:44:22Z</time>
      </trkpt>
      <trkpt lat="45.95377" lon="4.88167">
        <ele>278</ele>
        <time>2018-05-16T10:44:23Z</time>
      </trkpt>
      <trkpt lat="45.95385" lon="4.88166">
        <ele>276</ele>
        <time>2018-05-16T10:44:24Z</time>
      </trkpt>
      <trkpt lat="45.95391" lon="4.88163">
        <ele>276</ele>
        <time>2018-05-16T10:44:25Z</time>
      </trkpt>
      <trkpt lat="45.95399" lon="4.88162">
        <ele>276</ele>
        <time>2018-05-16T10:44:26Z</time>
      </trkpt>
      <trkpt lat="45.95406" lon="4.8816">
        <ele>276</ele>
        <time>2018-05-16T10:44:27Z</time>
      </trkpt>
      <trkpt lat="45.95412" lon="4.88158">
        <ele>276</ele>
        <time>2018-05-16T10:44:28Z</time>
      </trkpt>
      <trkpt lat="45.95419" lon="4.88156">
        <ele>276</ele>
        <time>2018-05-16T10:44:29Z</time>
      </trkpt>
      <trkpt lat="45.95425" lon="4.88154">
        <ele>276</ele>
        <time>2018-05-16T10:44:30Z</time>
      </trkpt>
      <trkpt lat="45.9543" lon="4.88152">
        <ele>276</ele>
        <time>2018-05-16T10:44:31Z</time>
      </trkpt>
      <trkpt lat="45.95435" lon="4.8815">
        <ele>276</ele>
        <time>2018-05-16T10:44:32Z</time>
      </trkpt>
      <trkpt lat="45.95439" lon="4.88147">
        <ele>276</ele>
        <time>2018-05-16T10:44:33Z</time>
      </trkpt>
      <trkpt lat="45.95443" lon="4.88144">
        <ele>276</ele>
        <time>2018-05-16T10:44:34Z</time>
      </trkpt>
      <trkpt lat="45.95448" lon="4.88141">
        <ele>276</ele>
        <time>2018-05-16T10:44:35Z</time>
      </trkpt>
      <trkpt lat="45.95452" lon="4.88139">
        <ele>276</ele>
        <time>2018-05-16T10:44:36Z</time>
      </trkpt>
      <trkpt lat="45.95457" lon="4.88137">
        <ele>276</ele>
        <time>2018-05-16T10:44:37Z</time>
      </trkpt>
      <trkpt lat="45.95461" lon="4.88132">
        <ele>276</ele>
        <time>2018-05-16T10:44:38Z</time>
      </trkpt>
      <trkpt lat="45.95466" lon="4.8813">
        <ele>276</ele>
        <time>2018-05-16T10:44:39Z</time>
      </trkpt>
      <trkpt lat="45.95472" lon="4.88128">
        <ele>276</ele>
        <time>2018-05-16T10:44:40Z</time>
      </trkpt>
      <trkpt lat="45.95477" lon="4.88125">
        <ele>276</ele>
        <time>2018-05-16T10:44:41Z</time>
      </trkpt>
      <trkpt lat="45.95481" lon="4.88123">
        <ele>276</ele>
        <time>2018-05-16T10:44:42Z</time>
      </trkpt>
      <trkpt lat="45.95486" lon="4.8812">
        <ele>276</ele>
        <time>2018-05-16T10:44:43Z</time>
      </trkpt>
      <trkpt lat="45.95491" lon="4.88117">
        <ele>276</ele>
        <time>2018-05-16T10:44:44Z</time>
      </trkpt>
      <trkpt lat="45.95495" lon="4.88115">
        <ele>276</ele>
        <time>2018-05-16T10:44:45Z</time>
      </trkpt>
      <trkpt lat="45.955" lon="4.88113">
        <ele>276</ele>
        <time>2018-05-16T10:44:46Z</time>
      </trkpt>
      <trkpt lat="45.95505" lon="4.88112">
        <ele>276</ele>
        <time>2018-05-16T10:44:47Z</time>
      </trkpt>
      <trkpt lat="45.95509" lon="4.88109">
        <ele>276</ele>
        <time>2018-05-16T10:44:48Z</time>
      </trkpt>
      <trkpt lat="45.95513" lon="4.88107">
        <ele>276</ele>
        <time>2018-05-16T10:44:49Z</time>
      </trkpt>
      <trkpt lat="45.95518" lon="4.88105">
        <ele>276</ele>
        <time>2018-05-16T10:44:50Z</time>
      </trkpt>
      <trkpt lat="45.95523" lon="4.88104">
        <ele>277</ele>
        <time>2018-05-16T10:44:51Z</time>
      </trkpt>
      <trkpt lat="45.95527" lon="4.88101">
        <ele>277</ele>
        <time>2018-05-16T10:44:52Z</time>
      </trkpt>
      <trkpt lat="45.95535" lon="4.88098">
        <ele>277</ele>
        <time>2018-05-16T10:44:54Z</time>
      </trkpt>
      <trkpt lat="45.95539" lon="4.88096">
        <ele>277</ele>
        <time>2018-05-16T10:44:55Z</time>
      </trkpt>
      <trkpt lat="45.95544" lon="4.88094">
        <ele>277</ele>
        <time>2018-05-16T10:44:56Z</time>
      </trkpt>
      <trkpt lat="45.95548" lon="4.88093">
        <ele>277</ele>
        <time>2018-05-16T10:44:57Z</time>
      </trkpt>
      <trkpt lat="45.95557" lon="4.88088">
        <ele>277</ele>
        <time>2018-05-16T10:44:59Z</time>
      </trkpt>
      <trkpt lat="45.95561" lon="4.88086">
        <ele>277</ele>
        <time>2018-05-16T10:45:00Z</time>
      </trkpt>
      <trkpt lat="45.95566" lon="4.88083">
        <ele>276</ele>
        <time>2018-05-16T10:45:01Z</time>
      </trkpt>
      <trkpt lat="45.9557" lon="4.88078">
        <ele>276</ele>
        <time>2018-05-16T10:45:02Z</time>
      </trkpt>
      <trkpt lat="45.95574" lon="4.88076">
        <ele>277</ele>
        <time>2018-05-16T10:45:03Z</time>
      </trkpt>
      <trkpt lat="45.95578" lon="4.88073">
        <ele>277</ele>
        <time>2018-05-16T10:45:04Z</time>
      </trkpt>
      <trkpt lat="45.95582" lon="4.8807">
        <ele>277</ele>
        <time>2018-05-16T10:45:05Z</time>
      </trkpt>
      <trkpt lat="45.95586" lon="4.88067">
        <ele>278</ele>
        <time>2018-05-16T10:45:06Z</time>
      </trkpt>
      <trkpt lat="45.95593" lon="4.8806">
        <ele>278</ele>
        <time>2018-05-16T10:45:08Z</time>
      </trkpt>
      <trkpt lat="45.95597" lon="4.88057">
        <ele>278</ele>
        <time>2018-05-16T10:45:09Z</time>
      </trkpt>
      <trkpt lat="45.95604" lon="4.88051">
        <ele>278</ele>
        <time>2018-05-16T10:45:11Z</time>
      </trkpt>
      <trkpt lat="45.95607" lon="4.88047">
        <ele>278</ele>
        <time>2018-05-16T10:45:12Z</time>
      </trkpt>
      <trkpt lat="45.95615" lon="4.88041">
        <ele>278</ele>
        <time>2018-05-16T10:45:14Z</time>
      </trkpt>
      <trkpt lat="45.95618" lon="4.88037">
        <ele>278</ele>
        <time>2018-05-16T10:45:15Z</time>
      </trkpt>
      <trkpt lat="45.95622" lon="4.88033">
        <ele>278</ele>
        <time>2018-05-16T10:45:16Z</time>
      </trkpt>
      <trkpt lat="45.95626" lon="4.88029">
        <ele>279</ele>
        <time>2018-05-16T10:45:17Z</time>
      </trkpt>
      <trkpt lat="45.95633" lon="4.88022">
        <ele>279</ele>
        <time>2018-05-16T10:45:19Z</time>
      </trkpt>
      <trkpt lat="45.95635" lon="4.88019">
        <ele>279</ele>
        <time>2018-05-16T10:45:20Z</time>
      </trkpt>
      <trkpt lat="45.95643" lon="4.88013">
        <ele>279</ele>
        <time>2018-05-16T10:45:22Z</time>
      </trkpt>
      <trkpt lat="45.95646" lon="4.88011">
        <ele>279</ele>
        <time>2018-05-16T10:45:23Z</time>
      </trkpt>
      <trkpt lat="45.95652" lon="4.88006">
        <ele>280</ele>
        <time>2018-05-16T10:45:25Z</time>
      </trkpt>
      <trkpt lat="45.95655" lon="4.88003">
        <ele>280</ele>
        <time>2018-05-16T10:45:26Z</time>
      </trkpt>
      <trkpt lat="45.9566" lon="4.87999">
        <ele>280</ele>
        <time>2018-05-16T10:45:28Z</time>
      </trkpt>
      <trkpt lat="45.95664" lon="4.87994">
        <ele>280</ele>
        <time>2018-05-16T10:45:29Z</time>
      </trkpt>
      <trkpt lat="45.9567" lon="4.87988">
        <ele>282</ele>
        <time>2018-05-16T10:45:31Z</time>
      </trkpt>
      <trkpt lat="45.95672" lon="4.87987">
        <ele>282</ele>
        <time>2018-05-16T10:45:32Z</time>
      </trkpt>
      <trkpt lat="45.95676" lon="4.87982">
        <ele>282</ele>
        <time>2018-05-16T10:45:33Z</time>
      </trkpt>
      <trkpt lat="45.9568" lon="4.8798">
        <ele>282</ele>
        <time>2018-05-16T10:45:34Z</time>
      </trkpt>
      <trkpt lat="45.95686" lon="4.87975">
        <ele>282</ele>
        <time>2018-05-16T10:45:37Z</time>
      </trkpt>
      <trkpt lat="45.95688" lon="4.87973">
        <ele>282</ele>
        <time>2018-05-16T10:45:38Z</time>
      </trkpt>
      <trkpt lat="45.95695" lon="4.87967">
        <ele>282</ele>
        <time>2018-05-16T10:45:41Z</time>
      </trkpt>
      <trkpt lat="45.95698" lon="4.87965">
        <ele>282</ele>
        <time>2018-05-16T10:45:42Z</time>
      </trkpt>
      <trkpt lat="45.95703" lon="4.87961">
        <ele>283</ele>
        <time>2018-05-16T10:45:44Z</time>
      </trkpt>
      <trkpt lat="45.95711" lon="4.87954">
        <ele>283</ele>
        <time>2018-05-16T10:45:45Z</time>
      </trkpt>
      <trkpt lat="45.95718" lon="4.87947">
        <ele>283</ele>
        <time>2018-05-16T10:45:48Z</time>
      </trkpt>
      <trkpt lat="45.9572" lon="4.87945">
        <ele>283</ele>
        <time>2018-05-16T10:45:49Z</time>
      </trkpt>
      <trkpt lat="45.95727" lon="4.87939">
        <ele>283</ele>
        <time>2018-05-16T10:45:52Z</time>
      </trkpt>
      <trkpt lat="45.95729" lon="4.87937">
        <ele>283</ele>
        <time>2018-05-16T10:45:53Z</time>
      </trkpt>
      <trkpt lat="45.95735" lon="4.87933">
        <ele>284</ele>
        <time>2018-05-16T10:45:55Z</time>
      </trkpt>
      <trkpt lat="45.95738" lon="4.87931">
        <ele>284</ele>
        <time>2018-05-16T10:45:56Z</time>
      </trkpt>
      <trkpt lat="45.95744" lon="4.87926">
        <ele>284</ele>
        <time>2018-05-16T10:45:58Z</time>
      </trkpt>
      <trkpt lat="45.95746" lon="4.87924">
        <ele>284</ele>
        <time>2018-05-16T10:45:59Z</time>
      </trkpt>
      <trkpt lat="45.95752" lon="4.8792">
        <ele>285</ele>
        <time>2018-05-16T10:46:01Z</time>
      </trkpt>
      <trkpt lat="45.95755" lon="4.87918">
        <ele>285</ele>
        <time>2018-05-16T10:46:02Z</time>
      </trkpt>
      <trkpt lat="45.9576" lon="4.87913">
        <ele>285</ele>
        <time>2018-05-16T10:46:04Z</time>
      </trkpt>
      <trkpt lat="45.95763" lon="4.87911">
        <ele>286</ele>
        <time>2018-05-16T10:46:05Z</time>
      </trkpt>
      <trkpt lat="45.95769" lon="4.87907">
        <ele>286</ele>
        <time>2018-05-16T10:46:07Z</time>
      </trkpt>
      <trkpt lat="45.95772" lon="4.87905">
        <ele>286</ele>
        <time>2018-05-16T10:46:08Z</time>
      </trkpt>
      <trkpt lat="45.95778" lon="4.87901">
        <ele>286</ele>
        <time>2018-05-16T10:46:10Z</time>
      </trkpt>
      <trkpt lat="45.95781" lon="4.87898">
        <ele>286</ele>
        <time>2018-05-16T10:46:11Z</time>
      </trkpt>
      <trkpt lat="45.95786" lon="4.87894">
        <ele>286</ele>
        <time>2018-05-16T10:46:13Z</time>
      </trkpt>
      <trkpt lat="45.95789" lon="4.87892">
        <ele>286</ele>
        <time>2018-05-16T10:46:14Z</time>
      </trkpt>
      <trkpt lat="45.95796" lon="4.87886">
        <ele>286</ele>
        <time>2018-05-16T10:46:17Z</time>
      </trkpt>
      <trkpt lat="45.95799" lon="4.87884">
        <ele>287</ele>
        <time>2018-05-16T10:46:18Z</time>
      </trkpt>
      <trkpt lat="45.95808" lon="4.87881">
        <ele>287</ele>
        <time>2018-05-16T10:46:21Z</time>
      </trkpt>
      <trkpt lat="45.95811" lon="4.87879">
        <ele>287</ele>
        <time>2018-05-16T10:46:22Z</time>
      </trkpt>
      <trkpt lat="45.95818" lon="4.87878">
        <ele>287</ele>
        <time>2018-05-16T10:46:24Z</time>
      </trkpt>
      <trkpt lat="45.95821" lon="4.87877">
        <ele>287</ele>
        <time>2018-05-16T10:46:25Z</time>
      </trkpt>
      <trkpt lat="45.95829" lon="4.87877">
        <ele>287</ele>
        <time>2018-05-16T10:46:29Z</time>
      </trkpt>
      <trkpt lat="45.95832" lon="4.87877">
        <ele>287</ele>
        <time>2018-05-16T10:46:30Z</time>
      </trkpt>
      <trkpt lat="45.95837" lon="4.87874">
        <ele>289</ele>
        <time>2018-05-16T10:46:32Z</time>
      </trkpt>
      <trkpt lat="45.95845" lon="4.87868">
        <ele>289</ele>
        <time>2018-05-16T10:46:33Z</time>
      </trkpt>
      <trkpt lat="45.95848" lon="4.87863">
        <ele>289</ele>
        <time>2018-05-16T10:46:34Z</time>
      </trkpt>
      <trkpt lat="45.95851" lon="4.87858">
        <ele>289</ele>
        <time>2018-05-16T10:46:35Z</time>
      </trkpt>
      <trkpt lat="45.95855" lon="4.87852">
        <ele>289</ele>
        <time>2018-05-16T10:46:36Z</time>
      </trkpt>
      <trkpt lat="45.95859" lon="4.87848">
        <ele>289</ele>
        <time>2018-05-16T10:46:37Z</time>
      </trkpt>
      <trkpt lat="45.95863" lon="4.87844">
        <ele>289</ele>
        <time>2018-05-16T10:46:38Z</time>
      </trkpt>
      <trkpt lat="45.95866" lon="4.8784">
        <ele>289</ele>
        <time>2018-05-16T10:46:39Z</time>
      </trkpt>
      <trkpt lat="45.9587" lon="4.87836">
        <ele>289</ele>
        <time>2018-05-16T10:46:40Z</time>
      </trkpt>
      <trkpt lat="45.95874" lon="4.87832">
        <ele>288</ele>
        <time>2018-05-16T10:46:41Z</time>
      </trkpt>
      <trkpt lat="45.95879" lon="4.87828">
        <ele>288</ele>
        <time>2018-05-16T10:46:42Z</time>
      </trkpt>
      <trkpt lat="45.95883" lon="4.87825">
        <ele>288</ele>
        <time>2018-05-16T10:46:43Z</time>
      </trkpt>
      <trkpt lat="45.95887" lon="4.87821">
        <ele>288</ele>
        <time>2018-05-16T10:46:44Z</time>
      </trkpt>
      <trkpt lat="45.95891" lon="4.87817">
        <ele>288</ele>
        <time>2018-05-16T10:46:45Z</time>
      </trkpt>
      <trkpt lat="45.95897" lon="4.87809">
        <ele>288</ele>
        <time>2018-05-16T10:46:47Z</time>
      </trkpt>
      <trkpt lat="45.959" lon="4.87805">
        <ele>288</ele>
        <time>2018-05-16T10:46:48Z</time>
      </trkpt>
      <trkpt lat="45.95906" lon="4.87795">
        <ele>288</ele>
        <time>2018-05-16T10:46:50Z</time>
      </trkpt>
      <trkpt lat="45.95908" lon="4.8779">
        <ele>288</ele>
        <time>2018-05-16T10:46:51Z</time>
      </trkpt>
      <trkpt lat="45.95914" lon="4.8778">
        <ele>288</ele>
        <time>2018-05-16T10:46:53Z</time>
      </trkpt>
      <trkpt lat="45.95916" lon="4.87776">
        <ele>288</ele>
        <time>2018-05-16T10:46:54Z</time>
      </trkpt>
      <trkpt lat="45.95922" lon="4.87768">
        <ele>289</ele>
        <time>2018-05-16T10:46:56Z</time>
      </trkpt>
      <trkpt lat="45.95924" lon="4.87764">
        <ele>288</ele>
        <time>2018-05-16T10:46:57Z</time>
      </trkpt>
      <trkpt lat="45.95929" lon="4.87756">
        <ele>288</ele>
        <time>2018-05-16T10:46:59Z</time>
      </trkpt>
      <trkpt lat="45.95932" lon="4.87752">
        <ele>288</ele>
        <time>2018-05-16T10:47:00Z</time>
      </trkpt>
      <trkpt lat="45.95937" lon="4.87743">
        <ele>288</ele>
        <time>2018-05-16T10:47:02Z</time>
      </trkpt>
      <trkpt lat="45.95941" lon="4.87738">
        <ele>288</ele>
        <time>2018-05-16T10:47:03Z</time>
      </trkpt>
      <trkpt lat="45.95944" lon="4.87734">
        <ele>289</ele>
        <time>2018-05-16T10:47:04Z</time>
      </trkpt>
      <trkpt lat="45.95948" lon="4.87729">
        <ele>289</ele>
        <time>2018-05-16T10:47:05Z</time>
      </trkpt>
      <trkpt lat="45.95952" lon="4.87725">
        <ele>289</ele>
        <time>2018-05-16T10:47:06Z</time>
      </trkpt>
      <trkpt lat="45.95954" lon="4.8772">
        <ele>289</ele>
        <time>2018-05-16T10:47:07Z</time>
      </trkpt>
      <trkpt lat="45.95958" lon="4.87715">
        <ele>289</ele>
        <time>2018-05-16T10:47:08Z</time>
      </trkpt>
      <trkpt lat="45.95961" lon="4.87711">
        <ele>289</ele>
        <time>2018-05-16T10:47:09Z</time>
      </trkpt>
      <trkpt lat="45.95968" lon="4.87702">
        <ele>289</ele>
        <time>2018-05-16T10:47:11Z</time>
      </trkpt>
      <trkpt lat="45.95971" lon="4.87697">
        <ele>289</ele>
        <time>2018-05-16T10:47:12Z</time>
      </trkpt>
      <trkpt lat="45.95974" lon="4.87692">
        <ele>289</ele>
        <time>2018-05-16T10:47:13Z</time>
      </trkpt>
      <trkpt lat="45.95978" lon="4.87688">
        <ele>289</ele>
        <time>2018-05-16T10:47:14Z</time>
      </trkpt>
      <trkpt lat="45.95982" lon="4.87684">
        <ele>289</ele>
        <time>2018-05-16T10:47:15Z</time>
      </trkpt>
      <trkpt lat="45.95986" lon="4.87679">
        <ele>289</ele>
        <time>2018-05-16T10:47:16Z</time>
      </trkpt>
      <trkpt lat="45.95989" lon="4.87675">
        <ele>289</ele>
        <time>2018-05-16T10:47:17Z</time>
      </trkpt>
      <trkpt lat="45.95993" lon="4.87671">
        <ele>290</ele>
        <time>2018-05-16T10:47:18Z</time>
      </trkpt>
      <trkpt lat="45.96" lon="4.87663">
        <ele>290</ele>
        <time>2018-05-16T10:47:20Z</time>
      </trkpt>
      <trkpt lat="45.96003" lon="4.87658">
        <ele>290</ele>
        <time>2018-05-16T10:47:21Z</time>
      </trkpt>
      <trkpt lat="45.9601" lon="4.8765">
        <ele>289</ele>
        <time>2018-05-16T10:47:23Z</time>
      </trkpt>
      <trkpt lat="45.96013" lon="4.87647">
        <ele>289</ele>
        <time>2018-05-16T10:47:24Z</time>
      </trkpt>
      <trkpt lat="45.96017" lon="4.87644">
        <ele>289</ele>
        <time>2018-05-16T10:47:25Z</time>
      </trkpt>
      <trkpt lat="45.9602" lon="4.87639">
        <ele>289</ele>
        <time>2018-05-16T10:47:26Z</time>
      </trkpt>
      <trkpt lat="45.96024" lon="4.87634">
        <ele>289</ele>
        <time>2018-05-16T10:47:27Z</time>
      </trkpt>
      <trkpt lat="45.96028" lon="4.8763">
        <ele>289</ele>
        <time>2018-05-16T10:47:28Z</time>
      </trkpt>
      <trkpt lat="45.96031" lon="4.87625">
        <ele>289</ele>
        <time>2018-05-16T10:47:29Z</time>
      </trkpt>
      <trkpt lat="45.96034" lon="4.87617">
        <ele>289</ele>
        <time>2018-05-16T10:47:30Z</time>
      </trkpt>
      <trkpt lat="45.96041" lon="4.8761">
        <ele>289</ele>
        <time>2018-05-16T10:47:32Z</time>
      </trkpt>
      <trkpt lat="45.96045" lon="4.87607">
        <ele>289</ele>
        <time>2018-05-16T10:47:33Z</time>
      </trkpt>
      <trkpt lat="45.96049" lon="4.87602">
        <ele>289</ele>
        <time>2018-05-16T10:47:34Z</time>
      </trkpt>
      <trkpt lat="45.96052" lon="4.87598">
        <ele>289</ele>
        <time>2018-05-16T10:47:35Z</time>
      </trkpt>
      <trkpt lat="45.96056" lon="4.87594">
        <ele>288</ele>
        <time>2018-05-16T10:47:36Z</time>
      </trkpt>
      <trkpt lat="45.9606" lon="4.8759">
        <ele>288</ele>
        <time>2018-05-16T10:47:37Z</time>
      </trkpt>
      <trkpt lat="45.96068" lon="4.87583">
        <ele>288</ele>
        <time>2018-05-16T10:47:39Z</time>
      </trkpt>
      <trkpt lat="45.96072" lon="4.87579">
        <ele>288</ele>
        <time>2018-05-16T10:47:40Z</time>
      </trkpt>
      <trkpt lat="45.96075" lon="4.87574">
        <ele>288</ele>
        <time>2018-05-16T10:47:41Z</time>
      </trkpt>
      <trkpt lat="45.96079" lon="4.87569">
        <ele>288</ele>
        <time>2018-05-16T10:47:42Z</time>
      </trkpt>
      <trkpt lat="45.96083" lon="4.87564">
        <ele>288</ele>
        <time>2018-05-16T10:47:43Z</time>
      </trkpt>
      <trkpt lat="45.96088" lon="4.8756">
        <ele>287</ele>
        <time>2018-05-16T10:47:44Z</time>
      </trkpt>
      <trkpt lat="45.96092" lon="4.87555">
        <ele>287</ele>
        <time>2018-05-16T10:47:45Z</time>
      </trkpt>
      <trkpt lat="45.96096" lon="4.8755">
        <ele>287</ele>
        <time>2018-05-16T10:47:46Z</time>
      </trkpt>
      <trkpt lat="45.96101" lon="4.87546">
        <ele>287</ele>
        <time>2018-05-16T10:47:47Z</time>
      </trkpt>
      <trkpt lat="45.96105" lon="4.87541">
        <ele>287</ele>
        <time>2018-05-16T10:47:48Z</time>
      </trkpt>
      <trkpt lat="45.9611" lon="4.87536">
        <ele>287</ele>
        <time>2018-05-16T10:47:49Z</time>
      </trkpt>
      <trkpt lat="45.96115" lon="4.8753">
        <ele>287</ele>
        <time>2018-05-16T10:47:50Z</time>
      </trkpt>
      <trkpt lat="45.96119" lon="4.87525">
        <ele>286</ele>
        <time>2018-05-16T10:47:51Z</time>
      </trkpt>
      <trkpt lat="45.96124" lon="4.87519">
        <ele>286</ele>
        <time>2018-05-16T10:47:52Z</time>
      </trkpt>
      <trkpt lat="45.96128" lon="4.87514">
        <ele>286</ele>
        <time>2018-05-16T10:47:53Z</time>
      </trkpt>
      <trkpt lat="45.96134" lon="4.87509">
        <ele>286</ele>
        <time>2018-05-16T10:47:54Z</time>
      </trkpt>
      <trkpt lat="45.96138" lon="4.87504">
        <ele>286</ele>
        <time>2018-05-16T10:47:55Z</time>
      </trkpt>
      <trkpt lat="45.96143" lon="4.87499">
        <ele>285</ele>
        <time>2018-05-16T10:47:56Z</time>
      </trkpt>
      <trkpt lat="45.96148" lon="4.87494">
        <ele>285</ele>
        <time>2018-05-16T10:47:57Z</time>
      </trkpt>
      <trkpt lat="45.96153" lon="4.87489">
        <ele>285</ele>
        <time>2018-05-16T10:47:58Z</time>
      </trkpt>
      <trkpt lat="45.96158" lon="4.87484">
        <ele>285</ele>
        <time>2018-05-16T10:47:59Z</time>
      </trkpt>
      <trkpt lat="45.96162" lon="4.87478">
        <ele>285</ele>
        <time>2018-05-16T10:48:00Z</time>
      </trkpt>
      <trkpt lat="45.96167" lon="4.87473">
        <ele>284</ele>
        <time>2018-05-16T10:48:01Z</time>
      </trkpt>
      <trkpt lat="45.96171" lon="4.87468">
        <ele>284</ele>
        <time>2018-05-16T10:48:02Z</time>
      </trkpt>
      <trkpt lat="45.96176" lon="4.87462">
        <ele>284</ele>
        <time>2018-05-16T10:48:03Z</time>
      </trkpt>
      <trkpt lat="45.96181" lon="4.87454">
        <ele>284</ele>
        <time>2018-05-16T10:48:04Z</time>
      </trkpt>
      <trkpt lat="45.96186" lon="4.87449">
        <ele>284</ele>
        <time>2018-05-16T10:48:05Z</time>
      </trkpt>
      <trkpt lat="45.96191" lon="4.87445">
        <ele>284</ele>
        <time>2018-05-16T10:48:06Z</time>
      </trkpt>
      <trkpt lat="45.96196" lon="4.8744">
        <ele>284</ele>
        <time>2018-05-16T10:48:07Z</time>
      </trkpt>
      <trkpt lat="45.96201" lon="4.87434">
        <ele>284</ele>
        <time>2018-05-16T10:48:08Z</time>
      </trkpt>
      <trkpt lat="45.96205" lon="4.87429">
        <ele>284</ele>
        <time>2018-05-16T10:48:09Z</time>
      </trkpt>
      <trkpt lat="45.9621" lon="4.87424">
        <ele>284</ele>
        <time>2018-05-16T10:48:10Z</time>
      </trkpt>
      <trkpt lat="45.96215" lon="4.87419">
        <ele>284</ele>
        <time>2018-05-16T10:48:11Z</time>
      </trkpt>
      <trkpt lat="45.9622" lon="4.87414">
        <ele>283</ele>
        <time>2018-05-16T10:48:12Z</time>
      </trkpt>
      <trkpt lat="45.96224" lon="4.87408">
        <ele>283</ele>
        <time>2018-05-16T10:48:13Z</time>
      </trkpt>
      <trkpt lat="45.96228" lon="4.87403">
        <ele>283</ele>
        <time>2018-05-16T10:48:14Z</time>
      </trkpt>
      <trkpt lat="45.96232" lon="4.87397">
        <ele>283</ele>
        <time>2018-05-16T10:48:15Z</time>
      </trkpt>
      <trkpt lat="45.96237" lon="4.87393">
        <ele>283</ele>
        <time>2018-05-16T10:48:16Z</time>
      </trkpt>
      <trkpt lat="45.9624" lon="4.87388">
        <ele>283</ele>
        <time>2018-05-16T10:48:17Z</time>
      </trkpt>
      <trkpt lat="45.96245" lon="4.87383">
        <ele>283</ele>
        <time>2018-05-16T10:48:18Z</time>
      </trkpt>
      <trkpt lat="45.96249" lon="4.87378">
        <ele>283</ele>
        <time>2018-05-16T10:48:19Z</time>
      </trkpt>
      <trkpt lat="45.96254" lon="4.87373">
        <ele>283</ele>
        <time>2018-05-16T10:48:20Z</time>
      </trkpt>
      <trkpt lat="45.96257" lon="4.8737">
        <ele>283</ele>
        <time>2018-05-16T10:48:21Z</time>
      </trkpt>
      <trkpt lat="45.96262" lon="4.87365">
        <ele>283</ele>
        <time>2018-05-16T10:48:22Z</time>
      </trkpt>
      <trkpt lat="45.96266" lon="4.87358">
        <ele>283</ele>
        <time>2018-05-16T10:48:23Z</time>
      </trkpt>
      <trkpt lat="45.9627" lon="4.87353">
        <ele>283</ele>
        <time>2018-05-16T10:48:24Z</time>
      </trkpt>
      <trkpt lat="45.96273" lon="4.87348">
        <ele>283</ele>
        <time>2018-05-16T10:48:25Z</time>
      </trkpt>
      <trkpt lat="45.96277" lon="4.87343">
        <ele>284</ele>
        <time>2018-05-16T10:48:26Z</time>
      </trkpt>
      <trkpt lat="45.96281" lon="4.87338">
        <ele>284</ele>
        <time>2018-05-16T10:48:27Z</time>
      </trkpt>
      <trkpt lat="45.96286" lon="4.87333">
        <ele>283</ele>
        <time>2018-05-16T10:48:28Z</time>
      </trkpt>
      <trkpt lat="45.9629" lon="4.87327">
        <ele>283</ele>
        <time>2018-05-16T10:48:29Z</time>
      </trkpt>
      <trkpt lat="45.96294" lon="4.87321">
        <ele>283</ele>
        <time>2018-05-16T10:48:30Z</time>
      </trkpt>
      <trkpt lat="45.96299" lon="4.87316">
        <ele>283</ele>
        <time>2018-05-16T10:48:31Z</time>
      </trkpt>
      <trkpt lat="45.96303" lon="4.8731">
        <ele>283</ele>
        <time>2018-05-16T10:48:32Z</time>
      </trkpt>
      <trkpt lat="45.96308" lon="4.87305">
        <ele>283</ele>
        <time>2018-05-16T10:48:33Z</time>
      </trkpt>
      <trkpt lat="45.96312" lon="4.87299">
        <ele>283</ele>
        <time>2018-05-16T10:48:34Z</time>
      </trkpt>
      <trkpt lat="45.96315" lon="4.87294">
        <ele>283</ele>
        <time>2018-05-16T10:48:35Z</time>
      </trkpt>
      <trkpt lat="45.96319" lon="4.87288">
        <ele>283</ele>
        <time>2018-05-16T10:48:36Z</time>
      </trkpt>
      <trkpt lat="45.96323" lon="4.87284">
        <ele>283</ele>
        <time>2018-05-16T10:48:37Z</time>
      </trkpt>
      <trkpt lat="45.96327" lon="4.87279">
        <ele>283</ele>
        <time>2018-05-16T10:48:38Z</time>
      </trkpt>
      <trkpt lat="45.96331" lon="4.87273">
        <ele>283</ele>
        <time>2018-05-16T10:48:39Z</time>
      </trkpt>
      <trkpt lat="45.96335" lon="4.87268">
        <ele>283</ele>
        <time>2018-05-16T10:48:40Z</time>
      </trkpt>
      <trkpt lat="45.96339" lon="4.87262">
        <ele>283</ele>
        <time>2018-05-16T10:48:41Z</time>
      </trkpt>
      <trkpt lat="45.96343" lon="4.87257">
        <ele>283</ele>
        <time>2018-05-16T10:48:42Z</time>
      </trkpt>
      <trkpt lat="45.96348" lon="4.87252">
        <ele>283</ele>
        <time>2018-05-16T10:48:43Z</time>
      </trkpt>
      <trkpt lat="45.96352" lon="4.87246">
        <ele>282</ele>
        <time>2018-05-16T10:48:44Z</time>
      </trkpt>
      <trkpt lat="45.96356" lon="4.8724">
        <ele>282</ele>
        <time>2018-05-16T10:48:45Z</time>
      </trkpt>
      <trkpt lat="45.96361" lon="4.87235">
        <ele>282</ele>
        <time>2018-05-16T10:48:46Z</time>
      </trkpt>
      <trkpt lat="45.96364" lon="4.8723">
        <ele>282</ele>
        <time>2018-05-16T10:48:47Z</time>
      </trkpt>
      <trkpt lat="45.96369" lon="4.87224">
        <ele>282</ele>
        <time>2018-05-16T10:48:48Z</time>
      </trkpt>
      <trkpt lat="45.96373" lon="4.87219">
        <ele>282</ele>
        <time>2018-05-16T10:48:49Z</time>
      </trkpt>
      <trkpt lat="45.96377" lon="4.87214">
        <ele>282</ele>
        <time>2018-05-16T10:48:50Z</time>
      </trkpt>
      <trkpt lat="45.96381" lon="4.87208">
        <ele>282</ele>
        <time>2018-05-16T10:48:51Z</time>
      </trkpt>
      <trkpt lat="45.96384" lon="4.87199">
        <ele>282</ele>
        <time>2018-05-16T10:48:52Z</time>
      </trkpt>
      <trkpt lat="45.96388" lon="4.87192">
        <ele>282</ele>
        <time>2018-05-16T10:48:53Z</time>
      </trkpt>
      <trkpt lat="45.96392" lon="4.87186">
        <ele>282</ele>
        <time>2018-05-16T10:48:54Z</time>
      </trkpt>
      <trkpt lat="45.96397" lon="4.87181">
        <ele>282</ele>
        <time>2018-05-16T10:48:55Z</time>
      </trkpt>
      <trkpt lat="45.96401" lon="4.87176">
        <ele>282</ele>
        <time>2018-05-16T10:48:56Z</time>
      </trkpt>
      <trkpt lat="45.96405" lon="4.8717">
        <ele>281</ele>
        <time>2018-05-16T10:48:57Z</time>
      </trkpt>
      <trkpt lat="45.96409" lon="4.87165">
        <ele>281</ele>
        <time>2018-05-16T10:48:58Z</time>
      </trkpt>
      <trkpt lat="45.96414" lon="4.87159">
        <ele>281</ele>
        <time>2018-05-16T10:48:59Z</time>
      </trkpt>
      <trkpt lat="45.96417" lon="4.87154">
        <ele>281</ele>
        <time>2018-05-16T10:49:00Z</time>
      </trkpt>
      <trkpt lat="45.96421" lon="4.87148">
        <ele>281</ele>
        <time>2018-05-16T10:49:01Z</time>
      </trkpt>
      <trkpt lat="45.96425" lon="4.87144">
        <ele>281</ele>
        <time>2018-05-16T10:49:02Z</time>
      </trkpt>
      <trkpt lat="45.96429" lon="4.87139">
        <ele>281</ele>
        <time>2018-05-16T10:49:03Z</time>
      </trkpt>
      <trkpt lat="45.96432" lon="4.87134">
        <ele>281</ele>
        <time>2018-05-16T10:49:04Z</time>
      </trkpt>
      <trkpt lat="45.96436" lon="4.87129">
        <ele>281</ele>
        <time>2018-05-16T10:49:05Z</time>
      </trkpt>
      <trkpt lat="45.9644" lon="4.87125">
        <ele>281</ele>
        <time>2018-05-16T10:49:06Z</time>
      </trkpt>
      <trkpt lat="45.96446" lon="4.87118">
        <ele>281</ele>
        <time>2018-05-16T10:49:08Z</time>
      </trkpt>
      <trkpt lat="45.96449" lon="4.87114">
        <ele>281</ele>
        <time>2018-05-16T10:49:09Z</time>
      </trkpt>
      <trkpt lat="45.96453" lon="4.8711">
        <ele>281</ele>
        <time>2018-05-16T10:49:10Z</time>
      </trkpt>
      <trkpt lat="45.96457" lon="4.87105">
        <ele>281</ele>
        <time>2018-05-16T10:49:11Z</time>
      </trkpt>
      <trkpt lat="45.9646" lon="4.871">
        <ele>282</ele>
        <time>2018-05-16T10:49:12Z</time>
      </trkpt>
      <trkpt lat="45.96464" lon="4.87095">
        <ele>282</ele>
        <time>2018-05-16T10:49:13Z</time>
      </trkpt>
      <trkpt lat="45.96467" lon="4.8709">
        <ele>282</ele>
        <time>2018-05-16T10:49:14Z</time>
      </trkpt>
      <trkpt lat="45.96471" lon="4.87086">
        <ele>282</ele>
        <time>2018-05-16T10:49:15Z</time>
      </trkpt>
      <trkpt lat="45.96475" lon="4.87081">
        <ele>282</ele>
        <time>2018-05-16T10:49:16Z</time>
      </trkpt>
      <trkpt lat="45.96479" lon="4.87078">
        <ele>282</ele>
        <time>2018-05-16T10:49:17Z</time>
      </trkpt>
      <trkpt lat="45.96482" lon="4.87075">
        <ele>282</ele>
        <time>2018-05-16T10:49:18Z</time>
      </trkpt>
      <trkpt lat="45.96486" lon="4.8707">
        <ele>282</ele>
        <time>2018-05-16T10:49:19Z</time>
      </trkpt>
      <trkpt lat="45.96489" lon="4.87067">
        <ele>282</ele>
        <time>2018-05-16T10:49:20Z</time>
      </trkpt>
      <trkpt lat="45.96492" lon="4.8706">
        <ele>282</ele>
        <time>2018-05-16T10:49:21Z</time>
      </trkpt>
      <trkpt lat="45.96497" lon="4.87052">
        <ele>281</ele>
        <time>2018-05-16T10:49:23Z</time>
      </trkpt>
      <trkpt lat="45.96499" lon="4.8705">
        <ele>281</ele>
        <time>2018-05-16T10:49:24Z</time>
      </trkpt>
      <trkpt lat="45.96507" lon="4.87046">
        <ele>283</ele>
        <time>2018-05-16T10:49:26Z</time>
      </trkpt>
      <trkpt lat="45.96508" lon="4.87047">
        <ele>283</ele>
        <time>2018-05-16T10:49:27Z</time>
      </trkpt>
      <trkpt lat="45.96513" lon="4.87054">
        <ele>283</ele>
        <time>2018-05-16T10:49:30Z</time>
      </trkpt>
      <trkpt lat="45.96514" lon="4.87057">
        <ele>283</ele>
        <time>2018-05-16T10:49:31Z</time>
      </trkpt>
      <trkpt lat="45.9652" lon="4.87066">
        <ele>283</ele>
        <time>2018-05-16T10:49:34Z</time>
      </trkpt>
      <trkpt lat="45.96523" lon="4.87068">
        <ele>283</ele>
        <time>2018-05-16T10:49:35Z</time>
      </trkpt>
      <trkpt lat="45.9653" lon="4.87068">
        <ele>283</ele>
        <time>2018-05-16T10:49:38Z</time>
      </trkpt>
      <trkpt lat="45.96532" lon="4.87066">
        <ele>283</ele>
        <time>2018-05-16T10:49:39Z</time>
      </trkpt>
      <trkpt lat="45.96541" lon="4.87067">
        <ele>283</ele>
        <time>2018-05-16T10:49:45Z</time>
      </trkpt>
      <trkpt lat="45.96542" lon="4.87069">
        <ele>283</ele>
        <time>2018-05-16T10:49:46Z</time>
      </trkpt>
      <trkpt lat="45.96549" lon="4.87075">
        <ele>283</ele>
        <time>2018-05-16T10:49:51Z</time>
      </trkpt>
      <trkpt lat="45.96551" lon="4.87075">
        <ele>283</ele>
        <time>2018-05-16T10:49:52Z</time>
      </trkpt>
      <trkpt lat="45.96559" lon="4.87072">
        <ele>283</ele>
        <time>2018-05-16T10:49:56Z</time>
      </trkpt>
      <trkpt lat="45.96561" lon="4.87069">
        <ele>283</ele>
        <time>2018-05-16T10:49:57Z</time>
      </trkpt>
      <trkpt lat="45.96562" lon="4.87057">
        <ele>283</ele>
        <time>2018-05-16T10:49:58Z</time>
      </trkpt>
      <trkpt lat="45.96562" lon="4.87054">
        <ele>283</ele>
        <time>2018-05-16T10:49:59Z</time>
      </trkpt>
      <trkpt lat="45.9656" lon="4.87045">
        <ele>283</ele>
        <time>2018-05-16T10:50:00Z</time>
      </trkpt>
      <trkpt lat="45.96559" lon="4.8704">
        <ele>283</ele>
        <time>2018-05-16T10:50:01Z</time>
      </trkpt>
      <trkpt lat="45.96556" lon="4.87029">
        <ele>283</ele>
        <time>2018-05-16T10:50:04Z</time>
      </trkpt>
      <trkpt lat="45.96554" lon="4.87027">
        <ele>283</ele>
        <time>2018-05-16T10:50:05Z</time>
      </trkpt>
      <trkpt lat="45.96546" lon="4.87024">
        <ele>283</ele>
        <time>2018-05-16T10:50:09Z</time>
      </trkpt>
      <trkpt lat="45.96544" lon="4.87025">
        <ele>283</ele>
        <time>2018-05-16T10:50:10Z</time>
      </trkpt>
      <trkpt lat="45.96537" lon="4.87029">
        <ele>283</ele>
        <time>2018-05-16T10:50:14Z</time>
      </trkpt>
      <trkpt lat="45.96535" lon="4.8703">
        <ele>283</ele>
        <time>2018-05-16T10:50:15Z</time>
      </trkpt>
      <trkpt lat="45.96532" lon="4.87029">
        <ele>283</ele>
        <time>2018-05-16T10:52:17Z</time>
      </trkpt>
      <trkpt lat="45.96532" lon="4.87029">
        <ele>283</ele>
        <time>2018-05-16T10:52:18Z</time>
      </trkpt>
      <trkpt lat="45.96532" lon="4.87031">
        <ele>283</ele>
        <time>2018-05-16T10:54:38Z</time>
      </trkpt>
      <trkpt lat="45.96532" lon="4.87031">
        <ele>283</ele>
        <time>2018-05-16T10:54:39Z</time>
      </trkpt>
      <trkpt lat="45.96531" lon="4.8703">
        <ele>283</ele>
        <time>2018-05-16T10:54:57Z</time>
      </trkpt>
      <trkpt lat="45.96531" lon="4.8703">
        <ele>283</ele>
        <time>2018-05-16T10:54:58Z</time>
      </trkpt>
      <trkpt lat="45.96531" lon="4.8703">
        <ele>283</ele>
        <time>2018-05-16T10:54:59Z</time>
      </trkpt>
      <trkpt lat="45.96531" lon="4.8703">
        <ele>283</ele>
        <time>2018-05-16T10:55:00Z</time>
      </trkpt>
      <trkpt lat="45.96532" lon="4.8703">
        <ele>283</ele>
        <time>2018-05-16T10:56:05Z</time>
      </trkpt>
      <trkpt lat="45.96532" lon="4.8703">
        <ele>283</ele>
        <time>2018-05-16T10:56:06Z</time>
      </trkpt>
      <trkpt lat="45.96531" lon="4.87031">
        <ele>283</ele>
        <time>2018-05-16T10:56:23Z</time>
      </trkpt>
      <trkpt lat="45.96531" lon="4.87031">
        <ele>283</ele>
        <time>2018-05-16T10:56:24Z</time>
      </trkpt>
      <trkpt lat="45.96531" lon="4.87031">
        <ele>283</ele>
        <time>2018-05-16T10:58:30Z</time>
      </trkpt>
      <trkpt lat="45.96531" lon="4.87032">
        <ele>283</ele>
        <time>2018-05-16T10:58:31Z</time>
      </trkpt>
      <trkpt lat="45.96531" lon="4.87031">
        <ele>283</ele>
        <time>2018-05-16T10:58:50Z</time>
      </trkpt>
      <trkpt lat="45.96531" lon="4.87031">
        <ele>283</ele>
        <time>2018-05-16T10:58:51Z</time>
      </trkpt>
      <trkpt lat="45.96538" lon="4.87032">
        <ele>283</ele>
        <time>2018-05-16T10:59:13Z</time>
      </trkpt>
      <trkpt lat="45.9654" lon="4.87031">
        <ele>283</ele>
        <time>2018-05-16T10:59:14Z</time>
      </trkpt>
      <trkpt lat="45.96543" lon="4.87022">
        <ele>283</ele>
        <time>2018-05-16T10:59:18Z</time>
      </trkpt>
      <trkpt lat="45.96543" lon="4.87019">
        <ele>283</ele>
        <time>2018-05-16T10:59:19Z</time>
      </trkpt>
      <trkpt lat="45.96542" lon="4.87008">
        <ele>283</ele>
        <time>2018-05-16T10:59:22Z</time>
      </trkpt>
      <trkpt lat="45.96542" lon="4.87004">
        <ele>283</ele>
        <time>2018-05-16T10:59:23Z</time>
      </trkpt>
      <trkpt lat="45.96545" lon="4.86993">
        <ele>283</ele>
        <time>2018-05-16T10:59:26Z</time>
      </trkpt>
      <trkpt lat="45.96546" lon="4.8699">
        <ele>283</ele>
        <time>2018-05-16T10:59:27Z</time>
      </trkpt>
      <trkpt lat="45.96552" lon="4.86981">
        <ele>283</ele>
        <time>2018-05-16T10:59:30Z</time>
      </trkpt>
      <trkpt lat="45.96553" lon="4.86978">
        <ele>283</ele>
        <time>2018-05-16T10:59:31Z</time>
      </trkpt>
      <trkpt lat="45.96558" lon="4.8697">
        <ele>283</ele>
        <time>2018-05-16T10:59:34Z</time>
      </trkpt>
      <trkpt lat="45.9656" lon="4.86967">
        <ele>283</ele>
        <time>2018-05-16T10:59:35Z</time>
      </trkpt>
      <trkpt lat="45.96564" lon="4.8696">
        <ele>283</ele>
        <time>2018-05-16T10:59:37Z</time>
      </trkpt>
      <trkpt lat="45.96566" lon="4.86956">
        <ele>284</ele>
        <time>2018-05-16T10:59:38Z</time>
      </trkpt>
      <trkpt lat="45.9657" lon="4.8695">
        <ele>284</ele>
        <time>2018-05-16T10:59:40Z</time>
      </trkpt>
      <trkpt lat="45.96572" lon="4.86946">
        <ele>284</ele>
        <time>2018-05-16T10:59:41Z</time>
      </trkpt>
      <trkpt lat="45.96575" lon="4.8694">
        <ele>284</ele>
        <time>2018-05-16T10:59:43Z</time>
      </trkpt>
      <trkpt lat="45.96578" lon="4.86936">
        <ele>284</ele>
        <time>2018-05-16T10:59:44Z</time>
      </trkpt>
      <trkpt lat="45.96583" lon="4.86926">
        <ele>284</ele>
        <time>2018-05-16T10:59:47Z</time>
      </trkpt>
      <trkpt lat="45.96585" lon="4.86923">
        <ele>285</ele>
        <time>2018-05-16T10:59:48Z</time>
      </trkpt>
      <trkpt lat="45.96587" lon="4.8692">
        <ele>285</ele>
        <time>2018-05-16T10:59:49Z</time>
      </trkpt>
      <trkpt lat="45.96593" lon="4.86909">
        <ele>286</ele>
        <time>2018-05-16T10:59:50Z</time>
      </trkpt>
      <trkpt lat="45.96598" lon="4.869">
        <ele>286</ele>
        <time>2018-05-16T10:59:54Z</time>
      </trkpt>
      <trkpt lat="45.966" lon="4.86898">
        <ele>286</ele>
        <time>2018-05-16T10:59:55Z</time>
      </trkpt>
      <trkpt lat="45.96605" lon="4.8689">
        <ele>287</ele>
        <time>2018-05-16T10:59:58Z</time>
      </trkpt>
      <trkpt lat="45.96607" lon="4.86887">
        <ele>287</ele>
        <time>2018-05-16T10:59:59Z</time>
      </trkpt>
      <trkpt lat="45.96611" lon="4.86881">
        <ele>287</ele>
        <time>2018-05-16T11:00:01Z</time>
      </trkpt>
      <trkpt lat="45.96613" lon="4.86877">
        <ele>287</ele>
        <time>2018-05-16T11:00:02Z</time>
      </trkpt>
      <trkpt lat="45.9662" lon="4.86866">
        <ele>287</ele>
        <time>2018-05-16T11:00:03Z</time>
      </trkpt>
      <trkpt lat="45.96622" lon="4.8686">
        <ele>287</ele>
        <time>2018-05-16T11:00:04Z</time>
      </trkpt>
      <trkpt lat="45.96625" lon="4.86855">
        <ele>287</ele>
        <time>2018-05-16T11:00:05Z</time>
      </trkpt>
      <trkpt lat="45.96631" lon="4.86845">
        <ele>287</ele>
        <time>2018-05-16T11:00:08Z</time>
      </trkpt>
      <trkpt lat="45.96632" lon="4.86843">
        <ele>287</ele>
        <time>2018-05-16T11:00:09Z</time>
      </trkpt>
      <trkpt lat="45.96636" lon="4.86835">
        <ele>287</ele>
        <time>2018-05-16T11:00:10Z</time>
      </trkpt>
      <trkpt lat="45.96638" lon="4.8683">
        <ele>288</ele>
        <time>2018-05-16T11:00:11Z</time>
      </trkpt>
      <trkpt lat="45.96644" lon="4.86821">
        <ele>288</ele>
        <time>2018-05-16T11:00:13Z</time>
      </trkpt>
      <trkpt lat="45.96646" lon="4.86819">
        <ele>288</ele>
        <time>2018-05-16T11:00:14Z</time>
      </trkpt>
      <trkpt lat="45.96647" lon="4.86816">
        <ele>288</ele>
        <time>2018-05-16T11:00:15Z</time>
      </trkpt>
      <trkpt lat="45.96652" lon="4.86809">
        <ele>288</ele>
        <time>2018-05-16T11:00:16Z</time>
      </trkpt>
      <trkpt lat="45.96658" lon="4.86799">
        <ele>288</ele>
        <time>2018-05-16T11:00:18Z</time>
      </trkpt>
      <trkpt lat="45.96661" lon="4.86795">
        <ele>288</ele>
        <time>2018-05-16T11:00:19Z</time>
      </trkpt>
      <trkpt lat="45.96664" lon="4.8679">
        <ele>288</ele>
        <time>2018-05-16T11:00:20Z</time>
      </trkpt>
      <trkpt lat="45.96668" lon="4.86785">
        <ele>289</ele>
        <time>2018-05-16T11:00:21Z</time>
      </trkpt>
      <trkpt lat="45.96672" lon="4.86781">
        <ele>289</ele>
        <time>2018-05-16T11:00:22Z</time>
      </trkpt>
      <trkpt lat="45.96675" lon="4.86776">
        <ele>289</ele>
        <time>2018-05-16T11:00:23Z</time>
      </trkpt>
      <trkpt lat="45.9668" lon="4.86766">
        <ele>289</ele>
        <time>2018-05-16T11:00:25Z</time>
      </trkpt>
      <trkpt lat="45.96684" lon="4.8676">
        <ele>289</ele>
        <time>2018-05-16T11:00:26Z</time>
      </trkpt>
      <trkpt lat="45.96687" lon="4.86756">
        <ele>289</ele>
        <time>2018-05-16T11:00:27Z</time>
      </trkpt>
      <trkpt lat="45.9669" lon="4.86751">
        <ele>289</ele>
        <time>2018-05-16T11:00:28Z</time>
      </trkpt>
      <trkpt lat="45.96696" lon="4.86742">
        <ele>289</ele>
        <time>2018-05-16T11:00:30Z</time>
      </trkpt>
      <trkpt lat="45.96699" lon="4.86737">
        <ele>289</ele>
        <time>2018-05-16T11:00:31Z</time>
      </trkpt>
      <trkpt lat="45.96704" lon="4.86728">
        <ele>289</ele>
        <time>2018-05-16T11:00:33Z</time>
      </trkpt>
      <trkpt lat="45.96707" lon="4.86723">
        <ele>289</ele>
        <time>2018-05-16T11:00:34Z</time>
      </trkpt>
      <trkpt lat="45.96713" lon="4.86714">
        <ele>289</ele>
        <time>2018-05-16T11:00:36Z</time>
      </trkpt>
      <trkpt lat="45.96716" lon="4.86709">
        <ele>289</ele>
        <time>2018-05-16T11:00:37Z</time>
      </trkpt>
      <trkpt lat="45.96721" lon="4.86701">
        <ele>289</ele>
        <time>2018-05-16T11:00:39Z</time>
      </trkpt>
      <trkpt lat="45.96724" lon="4.86696">
        <ele>289</ele>
        <time>2018-05-16T11:00:40Z</time>
      </trkpt>
      <trkpt lat="45.9673" lon="4.86687">
        <ele>289</ele>
        <time>2018-05-16T11:00:42Z</time>
      </trkpt>
      <trkpt lat="45.96733" lon="4.86682">
        <ele>290</ele>
        <time>2018-05-16T11:00:43Z</time>
      </trkpt>
      <trkpt lat="45.96735" lon="4.86677">
        <ele>290</ele>
        <time>2018-05-16T11:00:44Z</time>
      </trkpt>
      <trkpt lat="45.96738" lon="4.86672">
        <ele>290</ele>
        <time>2018-05-16T11:00:45Z</time>
      </trkpt>
      <trkpt lat="45.96743" lon="4.86662">
        <ele>290</ele>
        <time>2018-05-16T11:00:47Z</time>
      </trkpt>
      <trkpt lat="45.96746" lon="4.86658">
        <ele>290</ele>
        <time>2018-05-16T11:00:48Z</time>
      </trkpt>
      <trkpt lat="45.96751" lon="4.86648">
        <ele>290</ele>
        <time>2018-05-16T11:00:50Z</time>
      </trkpt>
      <trkpt lat="45.96753" lon="4.86643">
        <ele>290</ele>
        <time>2018-05-16T11:00:51Z</time>
      </trkpt>
      <trkpt lat="45.96757" lon="4.86638">
        <ele>290</ele>
        <time>2018-05-16T11:00:52Z</time>
      </trkpt>
      <trkpt lat="45.9676" lon="4.86634">
        <ele>289</ele>
        <time>2018-05-16T11:00:53Z</time>
      </trkpt>
      <trkpt lat="45.96764" lon="4.86629">
        <ele>289</ele>
        <time>2018-05-16T11:00:54Z</time>
      </trkpt>
      <trkpt lat="45.96766" lon="4.86623">
        <ele>289</ele>
        <time>2018-05-16T11:00:55Z</time>
      </trkpt>
      <trkpt lat="45.96772" lon="4.86615">
        <ele>289</ele>
        <time>2018-05-16T11:00:57Z</time>
      </trkpt>
      <trkpt lat="45.96775" lon="4.8661">
        <ele>289</ele>
        <time>2018-05-16T11:00:58Z</time>
      </trkpt>
      <trkpt lat="45.96781" lon="4.866">
        <ele>289</ele>
        <time>2018-05-16T11:01:00Z</time>
      </trkpt>
      <trkpt lat="45.96784" lon="4.86594">
        <ele>289</ele>
        <time>2018-05-16T11:01:01Z</time>
      </trkpt>
      <trkpt lat="45.96786" lon="4.86588">
        <ele>289</ele>
        <time>2018-05-16T11:01:02Z</time>
      </trkpt>
      <trkpt lat="45.9679" lon="4.86583">
        <ele>290</ele>
        <time>2018-05-16T11:01:03Z</time>
      </trkpt>
      <trkpt lat="45.96796" lon="4.86573">
        <ele>290</ele>
        <time>2018-05-16T11:01:05Z</time>
      </trkpt>
      <trkpt lat="45.96799" lon="4.86569">
        <ele>290</ele>
        <time>2018-05-16T11:01:06Z</time>
      </trkpt>
      <trkpt lat="45.96802" lon="4.86564">
        <ele>290</ele>
        <time>2018-05-16T11:01:07Z</time>
      </trkpt>
      <trkpt lat="45.96805" lon="4.86559">
        <ele>290</ele>
        <time>2018-05-16T11:01:08Z</time>
      </trkpt>
      <trkpt lat="45.96808" lon="4.86554">
        <ele>290</ele>
        <time>2018-05-16T11:01:09Z</time>
      </trkpt>
      <trkpt lat="45.96811" lon="4.86548">
        <ele>290</ele>
        <time>2018-05-16T11:01:10Z</time>
      </trkpt>
      <trkpt lat="45.96816" lon="4.86539">
        <ele>290</ele>
        <time>2018-05-16T11:01:12Z</time>
      </trkpt>
      <trkpt lat="45.96819" lon="4.86534">
        <ele>290</ele>
        <time>2018-05-16T11:01:13Z</time>
      </trkpt>
      <trkpt lat="45.96825" lon="4.86524">
        <ele>289</ele>
        <time>2018-05-16T11:01:15Z</time>
      </trkpt>
      <trkpt lat="45.96827" lon="4.86519">
        <ele>289</ele>
        <time>2018-05-16T11:01:16Z</time>
      </trkpt>
      <trkpt lat="45.96833" lon="4.86509">
        <ele>289</ele>
        <time>2018-05-16T11:01:18Z</time>
      </trkpt>
      <trkpt lat="45.96835" lon="4.86504">
        <ele>289</ele>
        <time>2018-05-16T11:01:19Z</time>
      </trkpt>
      <trkpt lat="45.9684" lon="4.86493">
        <ele>289</ele>
        <time>2018-05-16T11:01:21Z</time>
      </trkpt>
      <trkpt lat="45.96842" lon="4.86487">
        <ele>289</ele>
        <time>2018-05-16T11:01:22Z</time>
      </trkpt>
      <trkpt lat="45.96845" lon="4.86481">
        <ele>289</ele>
        <time>2018-05-16T11:01:23Z</time>
      </trkpt>
      <trkpt lat="45.96846" lon="4.86475">
        <ele>289</ele>
        <time>2018-05-16T11:01:24Z</time>
      </trkpt>
      <trkpt lat="45.96848" lon="4.86469">
        <ele>289</ele>
        <time>2018-05-16T11:01:25Z</time>
      </trkpt>
      <trkpt lat="45.9685" lon="4.86462">
        <ele>289</ele>
        <time>2018-05-16T11:01:26Z</time>
      </trkpt>
      <trkpt lat="45.96852" lon="4.86456">
        <ele>289</ele>
        <time>2018-05-16T11:01:27Z</time>
      </trkpt>
      <trkpt lat="45.96853" lon="4.86448">
        <ele>289</ele>
        <time>2018-05-16T11:01:28Z</time>
      </trkpt>
      <trkpt lat="45.96856" lon="4.86437">
        <ele>290</ele>
        <time>2018-05-16T11:01:30Z</time>
      </trkpt>
      <trkpt lat="45.96857" lon="4.8643">
        <ele>290</ele>
        <time>2018-05-16T11:01:31Z</time>
      </trkpt>
      <trkpt lat="45.9686" lon="4.86418">
        <ele>290</ele>
        <time>2018-05-16T11:01:33Z</time>
      </trkpt>
      <trkpt lat="45.96861" lon="4.8641">
        <ele>290</ele>
        <time>2018-05-16T11:01:34Z</time>
      </trkpt>
      <trkpt lat="45.96862" lon="4.86404">
        <ele>290</ele>
        <time>2018-05-16T11:01:35Z</time>
      </trkpt>
      <trkpt lat="45.96863" lon="4.86398">
        <ele>290</ele>
        <time>2018-05-16T11:01:36Z</time>
      </trkpt>
      <trkpt lat="45.96864" lon="4.8639">
        <ele>290</ele>
        <time>2018-05-16T11:01:37Z</time>
      </trkpt>
      <trkpt lat="45.96865" lon="4.86385">
        <ele>290</ele>
        <time>2018-05-16T11:01:38Z</time>
      </trkpt>
      <trkpt lat="45.96866" lon="4.86377">
        <ele>290</ele>
        <time>2018-05-16T11:01:39Z</time>
      </trkpt>
      <trkpt lat="45.96867" lon="4.8637">
        <ele>290</ele>
        <time>2018-05-16T11:01:40Z</time>
      </trkpt>
      <trkpt lat="45.96868" lon="4.86364">
        <ele>290</ele>
        <time>2018-05-16T11:01:41Z</time>
      </trkpt>
      <trkpt lat="45.96869" lon="4.86355">
        <ele>290</ele>
        <time>2018-05-16T11:01:42Z</time>
      </trkpt>
      <trkpt lat="45.96871" lon="4.86344">
        <ele>290</ele>
        <time>2018-05-16T11:01:44Z</time>
      </trkpt>
      <trkpt lat="45.96871" lon="4.86338">
        <ele>290</ele>
        <time>2018-05-16T11:01:45Z</time>
      </trkpt>
      <trkpt lat="45.96873" lon="4.86327">
        <ele>289</ele>
        <time>2018-05-16T11:01:47Z</time>
      </trkpt>
      <trkpt lat="45.96874" lon="4.8632">
        <ele>289</ele>
        <time>2018-05-16T11:01:48Z</time>
      </trkpt>
      <trkpt lat="45.96875" lon="4.86313">
        <ele>289</ele>
        <time>2018-05-16T11:01:49Z</time>
      </trkpt>
      <trkpt lat="45.96875" lon="4.86306">
        <ele>289</ele>
        <time>2018-05-16T11:01:50Z</time>
      </trkpt>
      <trkpt lat="45.96877" lon="4.86294">
        <ele>289</ele>
        <time>2018-05-16T11:01:52Z</time>
      </trkpt>
      <trkpt lat="45.96877" lon="4.86288">
        <ele>289</ele>
        <time>2018-05-16T11:01:53Z</time>
      </trkpt>
      <trkpt lat="45.96877" lon="4.86275">
        <ele>289</ele>
        <time>2018-05-16T11:01:55Z</time>
      </trkpt>
      <trkpt lat="45.96878" lon="4.86269">
        <ele>289</ele>
        <time>2018-05-16T11:01:56Z</time>
      </trkpt>
      <trkpt lat="45.9688" lon="4.86257">
        <ele>288</ele>
        <time>2018-05-16T11:01:58Z</time>
      </trkpt>
      <trkpt lat="45.9688" lon="4.86251">
        <ele>288</ele>
        <time>2018-05-16T11:01:59Z</time>
      </trkpt>
      <trkpt lat="45.96882" lon="4.86244">
        <ele>288</ele>
        <time>2018-05-16T11:02:00Z</time>
      </trkpt>
      <trkpt lat="45.96883" lon="4.86237">
        <ele>289</ele>
        <time>2018-05-16T11:02:01Z</time>
      </trkpt>
      <trkpt lat="45.96884" lon="4.8623">
        <ele>289</ele>
        <time>2018-05-16T11:02:02Z</time>
      </trkpt>
      <trkpt lat="45.96885" lon="4.86223">
        <ele>289</ele>
        <time>2018-05-16T11:02:03Z</time>
      </trkpt>
      <trkpt lat="45.96886" lon="4.86216">
        <ele>289</ele>
        <time>2018-05-16T11:02:04Z</time>
      </trkpt>
      <trkpt lat="45.96887" lon="4.86209">
        <ele>289</ele>
        <time>2018-05-16T11:02:05Z</time>
      </trkpt>
      <trkpt lat="45.96888" lon="4.86202">
        <ele>289</ele>
        <time>2018-05-16T11:02:06Z</time>
      </trkpt>
      <trkpt lat="45.96889" lon="4.86195">
        <ele>289</ele>
        <time>2018-05-16T11:02:07Z</time>
      </trkpt>
      <trkpt lat="45.96891" lon="4.86186">
        <ele>289</ele>
        <time>2018-05-16T11:02:08Z</time>
      </trkpt>
      <trkpt lat="45.96892" lon="4.86178">
        <ele>289</ele>
        <time>2018-05-16T11:02:09Z</time>
      </trkpt>
      <trkpt lat="45.96893" lon="4.8617">
        <ele>288</ele>
        <time>2018-05-16T11:02:10Z</time>
      </trkpt>
      <trkpt lat="45.96894" lon="4.86161">
        <ele>289</ele>
        <time>2018-05-16T11:02:11Z</time>
      </trkpt>
      <trkpt lat="45.96894" lon="4.86153">
        <ele>289</ele>
        <time>2018-05-16T11:02:12Z</time>
      </trkpt>
      <trkpt lat="45.96896" lon="4.86145">
        <ele>289</ele>
        <time>2018-05-16T11:02:13Z</time>
      </trkpt>
      <trkpt lat="45.96897" lon="4.86138">
        <ele>289</ele>
        <time>2018-05-16T11:02:14Z</time>
      </trkpt>
      <trkpt lat="45.96898" lon="4.8613">
        <ele>289</ele>
        <time>2018-05-16T11:02:15Z</time>
      </trkpt>
      <trkpt lat="45.96899" lon="4.86122">
        <ele>289</ele>
        <time>2018-05-16T11:02:16Z</time>
      </trkpt>
      <trkpt lat="45.96901" lon="4.86113">
        <ele>289</ele>
        <time>2018-05-16T11:02:17Z</time>
      </trkpt>
      <trkpt lat="45.96902" lon="4.86104">
        <ele>289</ele>
        <time>2018-05-16T11:02:18Z</time>
      </trkpt>
      <trkpt lat="45.96903" lon="4.86096">
        <ele>288</ele>
        <time>2018-05-16T11:02:19Z</time>
      </trkpt>
      <trkpt lat="45.96904" lon="4.86088">
        <ele>288</ele>
        <time>2018-05-16T11:02:20Z</time>
      </trkpt>
      <trkpt lat="45.96905" lon="4.86079">
        <ele>288</ele>
        <time>2018-05-16T11:02:21Z</time>
      </trkpt>
      <trkpt lat="45.96905" lon="4.86071">
        <ele>288</ele>
        <time>2018-05-16T11:02:22Z</time>
      </trkpt>
      <trkpt lat="45.96906" lon="4.86063">
        <ele>288</ele>
        <time>2018-05-16T11:02:23Z</time>
      </trkpt>
      <trkpt lat="45.96907" lon="4.86056">
        <ele>288</ele>
        <time>2018-05-16T11:02:24Z</time>
      </trkpt>
      <trkpt lat="45.96908" lon="4.86048">
        <ele>289</ele>
        <time>2018-05-16T11:02:25Z</time>
      </trkpt>
      <trkpt lat="45.96909" lon="4.8604">
        <ele>289</ele>
        <time>2018-05-16T11:02:26Z</time>
      </trkpt>
      <trkpt lat="45.9691" lon="4.86034">
        <ele>289</ele>
        <time>2018-05-16T11:02:27Z</time>
      </trkpt>
      <trkpt lat="45.96913" lon="4.86026">
        <ele>289</ele>
        <time>2018-05-16T11:02:28Z</time>
      </trkpt>
      <trkpt lat="45.96913" lon="4.86019">
        <ele>289</ele>
        <time>2018-05-16T11:02:29Z</time>
      </trkpt>
      <trkpt lat="45.96914" lon="4.8601">
        <ele>288</ele>
        <time>2018-05-16T11:02:30Z</time>
      </trkpt>
      <trkpt lat="45.96916" lon="4.86003">
        <ele>288</ele>
        <time>2018-05-16T11:02:31Z</time>
      </trkpt>
      <trkpt lat="45.96918" lon="4.85996">
        <ele>288</ele>
        <time>2018-05-16T11:02:32Z</time>
      </trkpt>
      <trkpt lat="45.9692" lon="4.85987">
        <ele>287</ele>
        <time>2018-05-16T11:02:33Z</time>
      </trkpt>
      <trkpt lat="45.96923" lon="4.85978">
        <ele>287</ele>
        <time>2018-05-16T11:02:34Z</time>
      </trkpt>
      <trkpt lat="45.96924" lon="4.8597">
        <ele>287</ele>
        <time>2018-05-16T11:02:35Z</time>
      </trkpt>
      <trkpt lat="45.96926" lon="4.85961">
        <ele>287</ele>
        <time>2018-05-16T11:02:36Z</time>
      </trkpt>
      <trkpt lat="45.96928" lon="4.85953">
        <ele>287</ele>
        <time>2018-05-16T11:02:37Z</time>
      </trkpt>
      <trkpt lat="45.9693" lon="4.85945">
        <ele>286</ele>
        <time>2018-05-16T11:02:38Z</time>
      </trkpt>
      <trkpt lat="45.96933" lon="4.85936">
        <ele>286</ele>
        <time>2018-05-16T11:02:39Z</time>
      </trkpt>
      <trkpt lat="45.96934" lon="4.85929">
        <ele>286</ele>
        <time>2018-05-16T11:02:40Z</time>
      </trkpt>
      <trkpt lat="45.96936" lon="4.85921">
        <ele>286</ele>
        <time>2018-05-16T11:02:41Z</time>
      </trkpt>
      <trkpt lat="45.96938" lon="4.85913">
        <ele>286</ele>
        <time>2018-05-16T11:02:42Z</time>
      </trkpt>
      <trkpt lat="45.9694" lon="4.85905">
        <ele>285</ele>
        <time>2018-05-16T11:02:43Z</time>
      </trkpt>
      <trkpt lat="45.96942" lon="4.85895">
        <ele>285</ele>
        <time>2018-05-16T11:02:44Z</time>
      </trkpt>
      <trkpt lat="45.96944" lon="4.85888">
        <ele>285</ele>
        <time>2018-05-16T11:02:45Z</time>
      </trkpt>
      <trkpt lat="45.96946" lon="4.8588">
        <ele>285</ele>
        <time>2018-05-16T11:02:46Z</time>
      </trkpt>
      <trkpt lat="45.96948" lon="4.8587">
        <ele>285</ele>
        <time>2018-05-16T11:02:47Z</time>
      </trkpt>
      <trkpt lat="45.96951" lon="4.85861">
        <ele>285</ele>
        <time>2018-05-16T11:02:48Z</time>
      </trkpt>
      <trkpt lat="45.96953" lon="4.85853">
        <ele>285</ele>
        <time>2018-05-16T11:02:49Z</time>
      </trkpt>
      <trkpt lat="45.96955" lon="4.85844">
        <ele>285</ele>
        <time>2018-05-16T11:02:50Z</time>
      </trkpt>
      <trkpt lat="45.96957" lon="4.85835">
        <ele>285</ele>
        <time>2018-05-16T11:02:51Z</time>
      </trkpt>
      <trkpt lat="45.9696" lon="4.85827">
        <ele>285</ele>
        <time>2018-05-16T11:02:52Z</time>
      </trkpt>
      <trkpt lat="45.96962" lon="4.8582">
        <ele>285</ele>
        <time>2018-05-16T11:02:53Z</time>
      </trkpt>
      <trkpt lat="45.96964" lon="4.85812">
        <ele>285</ele>
        <time>2018-05-16T11:02:54Z</time>
      </trkpt>
      <trkpt lat="45.96966" lon="4.85804">
        <ele>285</ele>
        <time>2018-05-16T11:02:55Z</time>
      </trkpt>
      <trkpt lat="45.96968" lon="4.85795">
        <ele>285</ele>
        <time>2018-05-16T11:02:56Z</time>
      </trkpt>
      <trkpt lat="45.96971" lon="4.85786">
        <ele>285</ele>
        <time>2018-05-16T11:02:57Z</time>
      </trkpt>
      <trkpt lat="45.96974" lon="4.85776">
        <ele>285</ele>
        <time>2018-05-16T11:02:58Z</time>
      </trkpt>
      <trkpt lat="45.96976" lon="4.85767">
        <ele>285</ele>
        <time>2018-05-16T11:02:59Z</time>
      </trkpt>
      <trkpt lat="45.96979" lon="4.85758">
        <ele>285</ele>
        <time>2018-05-16T11:03:00Z</time>
      </trkpt>
      <trkpt lat="45.96981" lon="4.85749">
        <ele>285</ele>
        <time>2018-05-16T11:03:01Z</time>
      </trkpt>
      <trkpt lat="45.96983" lon="4.8574">
        <ele>285</ele>
        <time>2018-05-16T11:03:02Z</time>
      </trkpt>
      <trkpt lat="45.96985" lon="4.85731">
        <ele>285</ele>
        <time>2018-05-16T11:03:03Z</time>
      </trkpt>
      <trkpt lat="45.96988" lon="4.85721">
        <ele>285</ele>
        <time>2018-05-16T11:03:04Z</time>
      </trkpt>
      <trkpt lat="45.9699" lon="4.85713">
        <ele>285</ele>
        <time>2018-05-16T11:03:05Z</time>
      </trkpt>
      <trkpt lat="45.96992" lon="4.85705">
        <ele>285</ele>
        <time>2018-05-16T11:03:06Z</time>
      </trkpt>
      <trkpt lat="45.96994" lon="4.85697">
        <ele>285</ele>
        <time>2018-05-16T11:03:07Z</time>
      </trkpt>
      <trkpt lat="45.96996" lon="4.8569">
        <ele>285</ele>
        <time>2018-05-16T11:03:08Z</time>
      </trkpt>
      <trkpt lat="45.96997" lon="4.85684">
        <ele>286</ele>
        <time>2018-05-16T11:03:09Z</time>
      </trkpt>
      <trkpt lat="45.96998" lon="4.85678">
        <ele>286</ele>
        <time>2018-05-16T11:03:10Z</time>
      </trkpt>
      <trkpt lat="45.97" lon="4.85671">
        <ele>286</ele>
        <time>2018-05-16T11:03:11Z</time>
      </trkpt>
      <trkpt lat="45.97002" lon="4.8566">
        <ele>285</ele>
        <time>2018-05-16T11:03:12Z</time>
      </trkpt>
      <trkpt lat="45.97004" lon="4.85653">
        <ele>285</ele>
        <time>2018-05-16T11:03:13Z</time>
      </trkpt>
      <trkpt lat="45.97006" lon="4.85645">
        <ele>284</ele>
        <time>2018-05-16T11:03:14Z</time>
      </trkpt>
      <trkpt lat="45.97008" lon="4.85637">
        <ele>284</ele>
        <time>2018-05-16T11:03:15Z</time>
      </trkpt>
      <trkpt lat="45.9701" lon="4.85629">
        <ele>284</ele>
        <time>2018-05-16T11:03:16Z</time>
      </trkpt>
      <trkpt lat="45.97012" lon="4.8562">
        <ele>284</ele>
        <time>2018-05-16T11:03:17Z</time>
      </trkpt>
      <trkpt lat="45.97015" lon="4.85612">
        <ele>284</ele>
        <time>2018-05-16T11:03:18Z</time>
      </trkpt>
      <trkpt lat="45.97018" lon="4.85603">
        <ele>284</ele>
        <time>2018-05-16T11:03:19Z</time>
      </trkpt>
      <trkpt lat="45.9702" lon="4.85594">
        <ele>284</ele>
        <time>2018-05-16T11:03:20Z</time>
      </trkpt>
      <trkpt lat="45.97022" lon="4.85585">
        <ele>284</ele>
        <time>2018-05-16T11:03:21Z</time>
      </trkpt>
      <trkpt lat="45.97024" lon="4.85576">
        <ele>283</ele>
        <time>2018-05-16T11:03:22Z</time>
      </trkpt>
      <trkpt lat="45.97027" lon="4.85567">
        <ele>283</ele>
        <time>2018-05-16T11:03:23Z</time>
      </trkpt>
      <trkpt lat="45.9703" lon="4.85559">
        <ele>283</ele>
        <time>2018-05-16T11:03:24Z</time>
      </trkpt>
      <trkpt lat="45.97032" lon="4.85548">
        <ele>283</ele>
        <time>2018-05-16T11:03:25Z</time>
      </trkpt>
      <trkpt lat="45.97035" lon="4.85538">
        <ele>282</ele>
        <time>2018-05-16T11:03:26Z</time>
      </trkpt>
      <trkpt lat="45.97038" lon="4.85528">
        <ele>282</ele>
        <time>2018-05-16T11:03:27Z</time>
      </trkpt>
      <trkpt lat="45.97041" lon="4.85519">
        <ele>282</ele>
        <time>2018-05-16T11:03:28Z</time>
      </trkpt>
      <trkpt lat="45.97044" lon="4.85509">
        <ele>282</ele>
        <time>2018-05-16T11:03:29Z</time>
      </trkpt>
      <trkpt lat="45.97047" lon="4.855">
        <ele>281</ele>
        <time>2018-05-16T11:03:30Z</time>
      </trkpt>
      <trkpt lat="45.9705" lon="4.85491">
        <ele>281</ele>
        <time>2018-05-16T11:03:31Z</time>
      </trkpt>
      <trkpt lat="45.97053" lon="4.85482">
        <ele>281</ele>
        <time>2018-05-16T11:03:32Z</time>
      </trkpt>
      <trkpt lat="45.97056" lon="4.85474">
        <ele>281</ele>
        <time>2018-05-16T11:03:33Z</time>
      </trkpt>
      <trkpt lat="45.97059" lon="4.85465">
        <ele>281</ele>
        <time>2018-05-16T11:03:34Z</time>
      </trkpt>
      <trkpt lat="45.97062" lon="4.85456">
        <ele>281</ele>
        <time>2018-05-16T11:03:35Z</time>
      </trkpt>
      <trkpt lat="45.97065" lon="4.85447">
        <ele>281</ele>
        <time>2018-05-16T11:03:36Z</time>
      </trkpt>
      <trkpt lat="45.97067" lon="4.85439">
        <ele>281</ele>
        <time>2018-05-16T11:03:37Z</time>
      </trkpt>
      <trkpt lat="45.9707" lon="4.85432">
        <ele>281</ele>
        <time>2018-05-16T11:03:38Z</time>
      </trkpt>
      <trkpt lat="45.97072" lon="4.85424">
        <ele>281</ele>
        <time>2018-05-16T11:03:39Z</time>
      </trkpt>
      <trkpt lat="45.97074" lon="4.85416">
        <ele>280</ele>
        <time>2018-05-16T11:03:40Z</time>
      </trkpt>
      <trkpt lat="45.97077" lon="4.85408">
        <ele>281</ele>
        <time>2018-05-16T11:03:41Z</time>
      </trkpt>
      <trkpt lat="45.9708" lon="4.854">
        <ele>281</ele>
        <time>2018-05-16T11:03:42Z</time>
      </trkpt>
      <trkpt lat="45.97082" lon="4.85392">
        <ele>281</ele>
        <time>2018-05-16T11:03:43Z</time>
      </trkpt>
      <trkpt lat="45.97085" lon="4.85384">
        <ele>280</ele>
        <time>2018-05-16T11:03:44Z</time>
      </trkpt>
      <trkpt lat="45.97088" lon="4.85376">
        <ele>280</ele>
        <time>2018-05-16T11:03:45Z</time>
      </trkpt>
      <trkpt lat="45.97091" lon="4.85368">
        <ele>280</ele>
        <time>2018-05-16T11:03:46Z</time>
      </trkpt>
      <trkpt lat="45.97093" lon="4.8536">
        <ele>280</ele>
        <time>2018-05-16T11:03:47Z</time>
      </trkpt>
      <trkpt lat="45.97096" lon="4.85352">
        <ele>280</ele>
        <time>2018-05-16T11:03:48Z</time>
      </trkpt>
      <trkpt lat="45.97099" lon="4.85343">
        <ele>280</ele>
        <time>2018-05-16T11:03:49Z</time>
      </trkpt>
      <trkpt lat="45.97102" lon="4.85335">
        <ele>280</ele>
        <time>2018-05-16T11:03:50Z</time>
      </trkpt>
      <trkpt lat="45.97104" lon="4.85328">
        <ele>280</ele>
        <time>2018-05-16T11:03:51Z</time>
      </trkpt>
      <trkpt lat="45.97107" lon="4.85322">
        <ele>280</ele>
        <time>2018-05-16T11:03:52Z</time>
      </trkpt>
      <trkpt lat="45.9711" lon="4.85315">
        <ele>280</ele>
        <time>2018-05-16T11:03:53Z</time>
      </trkpt>
      <trkpt lat="45.97112" lon="4.85306">
        <ele>280</ele>
        <time>2018-05-16T11:03:54Z</time>
      </trkpt>
      <trkpt lat="45.97116" lon="4.853">
        <ele>280</ele>
        <time>2018-05-16T11:03:55Z</time>
      </trkpt>
      <trkpt lat="45.97119" lon="4.85293">
        <ele>280</ele>
        <time>2018-05-16T11:03:56Z</time>
      </trkpt>
      <trkpt lat="45.97123" lon="4.85286">
        <ele>280</ele>
        <time>2018-05-16T11:03:57Z</time>
      </trkpt>
      <trkpt lat="45.97126" lon="4.85278">
        <ele>279</ele>
        <time>2018-05-16T11:03:58Z</time>
      </trkpt>
      <trkpt lat="45.9713" lon="4.8527">
        <ele>279</ele>
        <time>2018-05-16T11:03:59Z</time>
      </trkpt>
      <trkpt lat="45.97133" lon="4.85262">
        <ele>279</ele>
        <time>2018-05-16T11:04:00Z</time>
      </trkpt>
      <trkpt lat="45.97137" lon="4.85255">
        <ele>279</ele>
        <time>2018-05-16T11:04:01Z</time>
      </trkpt>
      <trkpt lat="45.9714" lon="4.85248">
        <ele>279</ele>
        <time>2018-05-16T11:04:02Z</time>
      </trkpt>
      <trkpt lat="45.97144" lon="4.8524">
        <ele>279</ele>
        <time>2018-05-16T11:04:03Z</time>
      </trkpt>
      <trkpt lat="45.97147" lon="4.85234">
        <ele>279</ele>
        <time>2018-05-16T11:04:04Z</time>
      </trkpt>
      <trkpt lat="45.9715" lon="4.85224">
        <ele>279</ele>
        <time>2018-05-16T11:04:05Z</time>
      </trkpt>
      <trkpt lat="45.97154" lon="4.85216">
        <ele>279</ele>
        <time>2018-05-16T11:04:06Z</time>
      </trkpt>
      <trkpt lat="45.97158" lon="4.85209">
        <ele>279</ele>
        <time>2018-05-16T11:04:07Z</time>
      </trkpt>
      <trkpt lat="45.97161" lon="4.85202">
        <ele>279</ele>
        <time>2018-05-16T11:04:08Z</time>
      </trkpt>
      <trkpt lat="45.97165" lon="4.85194">
        <ele>279</ele>
        <time>2018-05-16T11:04:09Z</time>
      </trkpt>
      <trkpt lat="45.97169" lon="4.85187">
        <ele>278</ele>
        <time>2018-05-16T11:04:10Z</time>
      </trkpt>
      <trkpt lat="45.97172" lon="4.8518">
        <ele>278</ele>
        <time>2018-05-16T11:04:11Z</time>
      </trkpt>
      <trkpt lat="45.97176" lon="4.85174">
        <ele>278</ele>
        <time>2018-05-16T11:04:12Z</time>
      </trkpt>
      <trkpt lat="45.9718" lon="4.85166">
        <ele>278</ele>
        <time>2018-05-16T11:04:13Z</time>
      </trkpt>
      <trkpt lat="45.97184" lon="4.85158">
        <ele>278</ele>
        <time>2018-05-16T11:04:14Z</time>
      </trkpt>
      <trkpt lat="45.97187" lon="4.8515">
        <ele>278</ele>
        <time>2018-05-16T11:04:15Z</time>
      </trkpt>
      <trkpt lat="45.97191" lon="4.85142">
        <ele>278</ele>
        <time>2018-05-16T11:04:16Z</time>
      </trkpt>
      <trkpt lat="45.97195" lon="4.85134">
        <ele>278</ele>
        <time>2018-05-16T11:04:17Z</time>
      </trkpt>
      <trkpt lat="45.97199" lon="4.85126">
        <ele>278</ele>
        <time>2018-05-16T11:04:18Z</time>
      </trkpt>
      <trkpt lat="45.97202" lon="4.8512">
        <ele>278</ele>
        <time>2018-05-16T11:04:19Z</time>
      </trkpt>
      <trkpt lat="45.97205" lon="4.85113">
        <ele>278</ele>
        <time>2018-05-16T11:04:20Z</time>
      </trkpt>
      <trkpt lat="45.97208" lon="4.85106">
        <ele>278</ele>
        <time>2018-05-16T11:04:21Z</time>
      </trkpt>
      <trkpt lat="45.97211" lon="4.85099">
        <ele>278</ele>
        <time>2018-05-16T11:04:22Z</time>
      </trkpt>
      <trkpt lat="45.97214" lon="4.85092">
        <ele>278</ele>
        <time>2018-05-16T11:04:23Z</time>
      </trkpt>
      <trkpt lat="45.97218" lon="4.85085">
        <ele>278</ele>
        <time>2018-05-16T11:04:24Z</time>
      </trkpt>
      <trkpt lat="45.9722" lon="4.85078">
        <ele>278</ele>
        <time>2018-05-16T11:04:25Z</time>
      </trkpt>
      <trkpt lat="45.97224" lon="4.85071">
        <ele>278</ele>
        <time>2018-05-16T11:04:26Z</time>
      </trkpt>
      <trkpt lat="45.97228" lon="4.85063">
        <ele>278</ele>
        <time>2018-05-16T11:04:27Z</time>
      </trkpt>
      <trkpt lat="45.97232" lon="4.85056">
        <ele>279</ele>
        <time>2018-05-16T11:04:28Z</time>
      </trkpt>
      <trkpt lat="45.97235" lon="4.85047">
        <ele>279</ele>
        <time>2018-05-16T11:04:29Z</time>
      </trkpt>
      <trkpt lat="45.97239" lon="4.8504">
        <ele>279</ele>
        <time>2018-05-16T11:04:30Z</time>
      </trkpt>
      <trkpt lat="45.97243" lon="4.85032">
        <ele>279</ele>
        <time>2018-05-16T11:04:31Z</time>
      </trkpt>
      <trkpt lat="45.97246" lon="4.85025">
        <ele>279</ele>
        <time>2018-05-16T11:04:32Z</time>
      </trkpt>
      <trkpt lat="45.9725" lon="4.85019">
        <ele>279</ele>
        <time>2018-05-16T11:04:33Z</time>
      </trkpt>
      <trkpt lat="45.97254" lon="4.85011">
        <ele>279</ele>
        <time>2018-05-16T11:04:34Z</time>
      </trkpt>
      <trkpt lat="45.97256" lon="4.85003">
        <ele>279</ele>
        <time>2018-05-16T11:04:35Z</time>
      </trkpt>
      <trkpt lat="45.9726" lon="4.84996">
        <ele>279</ele>
        <time>2018-05-16T11:04:36Z</time>
      </trkpt>
      <trkpt lat="45.97264" lon="4.8499">
        <ele>279</ele>
        <time>2018-05-16T11:04:37Z</time>
      </trkpt>
      <trkpt lat="45.97267" lon="4.84982">
        <ele>279</ele>
        <time>2018-05-16T11:04:38Z</time>
      </trkpt>
      <trkpt lat="45.9727" lon="4.84976">
        <ele>279</ele>
        <time>2018-05-16T11:04:39Z</time>
      </trkpt>
      <trkpt lat="45.97273" lon="4.84969">
        <ele>278</ele>
        <time>2018-05-16T11:04:40Z</time>
      </trkpt>
      <trkpt lat="45.97276" lon="4.84962">
        <ele>278</ele>
        <time>2018-05-16T11:04:41Z</time>
      </trkpt>
      <trkpt lat="45.9728" lon="4.84955">
        <ele>278</ele>
        <time>2018-05-16T11:04:42Z</time>
      </trkpt>
      <trkpt lat="45.97284" lon="4.84948">
        <ele>278</ele>
        <time>2018-05-16T11:04:43Z</time>
      </trkpt>
      <trkpt lat="45.97287" lon="4.84942">
        <ele>278</ele>
        <time>2018-05-16T11:04:44Z</time>
      </trkpt>
      <trkpt lat="45.97291" lon="4.84935">
        <ele>278</ele>
        <time>2018-05-16T11:04:45Z</time>
      </trkpt>
      <trkpt lat="45.97295" lon="4.8493">
        <ele>278</ele>
        <time>2018-05-16T11:04:46Z</time>
      </trkpt>
      <trkpt lat="45.97299" lon="4.84924">
        <ele>278</ele>
        <time>2018-05-16T11:04:47Z</time>
      </trkpt>
      <trkpt lat="45.97303" lon="4.84917">
        <ele>278</ele>
        <time>2018-05-16T11:04:48Z</time>
      </trkpt>
      <trkpt lat="45.97307" lon="4.84911">
        <ele>278</ele>
        <time>2018-05-16T11:04:49Z</time>
      </trkpt>
      <trkpt lat="45.9731" lon="4.84904">
        <ele>278</ele>
        <time>2018-05-16T11:04:50Z</time>
      </trkpt>
      <trkpt lat="45.97314" lon="4.84897">
        <ele>278</ele>
        <time>2018-05-16T11:04:51Z</time>
      </trkpt>
      <trkpt lat="45.97319" lon="4.8489">
        <ele>278</ele>
        <time>2018-05-16T11:04:52Z</time>
      </trkpt>
      <trkpt lat="45.97323" lon="4.84883">
        <ele>278</ele>
        <time>2018-05-16T11:04:53Z</time>
      </trkpt>
      <trkpt lat="45.97328" lon="4.84875">
        <ele>278</ele>
        <time>2018-05-16T11:04:54Z</time>
      </trkpt>
      <trkpt lat="45.9733" lon="4.84872">
        <ele>278</ele>
        <time>2018-05-16T11:04:55Z</time>
      </trkpt>
      <trkpt lat="45.97333" lon="4.84866">
        <ele>278</ele>
        <time>2018-05-16T11:04:56Z</time>
      </trkpt>
      <trkpt lat="45.97336" lon="4.84858">
        <ele>277</ele>
        <time>2018-05-16T11:04:57Z</time>
      </trkpt>
      <trkpt lat="45.97339" lon="4.84851">
        <ele>277</ele>
        <time>2018-05-16T11:04:58Z</time>
      </trkpt>
      <trkpt lat="45.97342" lon="4.84845">
        <ele>277</ele>
        <time>2018-05-16T11:04:59Z</time>
      </trkpt>
      <trkpt lat="45.97345" lon="4.84839">
        <ele>277</ele>
        <time>2018-05-16T11:05:00Z</time>
      </trkpt>
      <trkpt lat="45.97348" lon="4.84831">
        <ele>278</ele>
        <time>2018-05-16T11:05:01Z</time>
      </trkpt>
      <trkpt lat="45.9735" lon="4.84825">
        <ele>278</ele>
        <time>2018-05-16T11:05:02Z</time>
      </trkpt>
      <trkpt lat="45.97352" lon="4.84813">
        <ele>278</ele>
        <time>2018-05-16T11:05:03Z</time>
      </trkpt>
      <trkpt lat="45.97355" lon="4.84806">
        <ele>278</ele>
        <time>2018-05-16T11:05:04Z</time>
      </trkpt>
      <trkpt lat="45.97357" lon="4.84801">
        <ele>278</ele>
        <time>2018-05-16T11:05:05Z</time>
      </trkpt>
      <trkpt lat="45.9736" lon="4.84794">
        <ele>278</ele>
        <time>2018-05-16T11:05:06Z</time>
      </trkpt>
      <trkpt lat="45.97364" lon="4.84786">
        <ele>278</ele>
        <time>2018-05-16T11:05:07Z</time>
      </trkpt>
      <trkpt lat="45.97366" lon="4.84779">
        <ele>278</ele>
        <time>2018-05-16T11:05:08Z</time>
      </trkpt>
      <trkpt lat="45.97369" lon="4.84772">
        <ele>278</ele>
        <time>2018-05-16T11:05:09Z</time>
      </trkpt>
      <trkpt lat="45.97372" lon="4.84763">
        <ele>278</ele>
        <time>2018-05-16T11:05:10Z</time>
      </trkpt>
      <trkpt lat="45.97376" lon="4.84756">
        <ele>278</ele>
        <time>2018-05-16T11:05:11Z</time>
      </trkpt>
      <trkpt lat="45.97379" lon="4.84749">
        <ele>278</ele>
        <time>2018-05-16T11:05:12Z</time>
      </trkpt>
      <trkpt lat="45.97382" lon="4.84742">
        <ele>278</ele>
        <time>2018-05-16T11:05:13Z</time>
      </trkpt>
      <trkpt lat="45.97384" lon="4.84736">
        <ele>278</ele>
        <time>2018-05-16T11:05:14Z</time>
      </trkpt>
      <trkpt lat="45.97388" lon="4.8473">
        <ele>278</ele>
        <time>2018-05-16T11:05:15Z</time>
      </trkpt>
      <trkpt lat="45.97392" lon="4.84725">
        <ele>278</ele>
        <time>2018-05-16T11:05:16Z</time>
      </trkpt>
      <trkpt lat="45.97396" lon="4.8472">
        <ele>278</ele>
        <time>2018-05-16T11:05:17Z</time>
      </trkpt>
      <trkpt lat="45.97401" lon="4.84716">
        <ele>278</ele>
        <time>2018-05-16T11:05:18Z</time>
      </trkpt>
      <trkpt lat="45.97406" lon="4.84712">
        <ele>278</ele>
        <time>2018-05-16T11:05:19Z</time>
      </trkpt>
      <trkpt lat="45.97411" lon="4.84709">
        <ele>278</ele>
        <time>2018-05-16T11:05:20Z</time>
      </trkpt>
      <trkpt lat="45.97417" lon="4.84705">
        <ele>278</ele>
        <time>2018-05-16T11:05:21Z</time>
      </trkpt>
      <trkpt lat="45.97422" lon="4.84702">
        <ele>276</ele>
        <time>2018-05-16T11:05:22Z</time>
      </trkpt>
      <trkpt lat="45.97428" lon="4.84698">
        <ele>276</ele>
        <time>2018-05-16T11:05:23Z</time>
      </trkpt>
      <trkpt lat="45.97434" lon="4.84694">
        <ele>276</ele>
        <time>2018-05-16T11:05:24Z</time>
      </trkpt>
      <trkpt lat="45.97439" lon="4.84691">
        <ele>276</ele>
        <time>2018-05-16T11:05:25Z</time>
      </trkpt>
      <trkpt lat="45.97445" lon="4.84687">
        <ele>276</ele>
        <time>2018-05-16T11:05:26Z</time>
      </trkpt>
      <trkpt lat="45.9745" lon="4.84684">
        <ele>276</ele>
        <time>2018-05-16T11:05:27Z</time>
      </trkpt>
      <trkpt lat="45.97455" lon="4.8468">
        <ele>276</ele>
        <time>2018-05-16T11:05:28Z</time>
      </trkpt>
      <trkpt lat="45.97461" lon="4.84677">
        <ele>276</ele>
        <time>2018-05-16T11:05:29Z</time>
      </trkpt>
      <trkpt lat="45.97466" lon="4.84673">
        <ele>276</ele>
        <time>2018-05-16T11:05:30Z</time>
      </trkpt>
      <trkpt lat="45.97472" lon="4.84669">
        <ele>276</ele>
        <time>2018-05-16T11:05:31Z</time>
      </trkpt>
      <trkpt lat="45.97477" lon="4.84665">
        <ele>276</ele>
        <time>2018-05-16T11:05:32Z</time>
      </trkpt>
      <trkpt lat="45.97483" lon="4.84661">
        <ele>276</ele>
        <time>2018-05-16T11:05:33Z</time>
      </trkpt>
      <trkpt lat="45.97488" lon="4.84657">
        <ele>275</ele>
        <time>2018-05-16T11:05:34Z</time>
      </trkpt>
      <trkpt lat="45.97494" lon="4.84654">
        <ele>275</ele>
        <time>2018-05-16T11:05:35Z</time>
      </trkpt>
      <trkpt lat="45.97499" lon="4.8465">
        <ele>275</ele>
        <time>2018-05-16T11:05:36Z</time>
      </trkpt>
      <trkpt lat="45.97505" lon="4.84646">
        <ele>275</ele>
        <time>2018-05-16T11:05:37Z</time>
      </trkpt>
      <trkpt lat="45.9751" lon="4.84643">
        <ele>275</ele>
        <time>2018-05-16T11:05:38Z</time>
      </trkpt>
      <trkpt lat="45.97516" lon="4.84639">
        <ele>275</ele>
        <time>2018-05-16T11:05:39Z</time>
      </trkpt>
      <trkpt lat="45.97522" lon="4.84634">
        <ele>275</ele>
        <time>2018-05-16T11:05:40Z</time>
      </trkpt>
      <trkpt lat="45.97527" lon="4.8463">
        <ele>275</ele>
        <time>2018-05-16T11:05:41Z</time>
      </trkpt>
      <trkpt lat="45.97532" lon="4.84626">
        <ele>275</ele>
        <time>2018-05-16T11:05:42Z</time>
      </trkpt>
      <trkpt lat="45.97538" lon="4.84621">
        <ele>275</ele>
        <time>2018-05-16T11:05:43Z</time>
      </trkpt>
      <trkpt lat="45.97543" lon="4.84617">
        <ele>274</ele>
        <time>2018-05-16T11:05:44Z</time>
      </trkpt>
      <trkpt lat="45.97549" lon="4.84611">
        <ele>274</ele>
        <time>2018-05-16T11:05:45Z</time>
      </trkpt>
      <trkpt lat="45.97554" lon="4.84606">
        <ele>274</ele>
        <time>2018-05-16T11:05:46Z</time>
      </trkpt>
      <trkpt lat="45.97559" lon="4.84601">
        <ele>274</ele>
        <time>2018-05-16T11:05:47Z</time>
      </trkpt>
      <trkpt lat="45.97564" lon="4.84597">
        <ele>274</ele>
        <time>2018-05-16T11:05:48Z</time>
      </trkpt>
      <trkpt lat="45.97569" lon="4.84592">
        <ele>274</ele>
        <time>2018-05-16T11:05:49Z</time>
      </trkpt>
      <trkpt lat="45.97574" lon="4.84586">
        <ele>274</ele>
        <time>2018-05-16T11:05:50Z</time>
      </trkpt>
      <trkpt lat="45.97579" lon="4.84581">
        <ele>274</ele>
        <time>2018-05-16T11:05:51Z</time>
      </trkpt>
      <trkpt lat="45.97583" lon="4.84577">
        <ele>274</ele>
        <time>2018-05-16T11:05:52Z</time>
      </trkpt>
      <trkpt lat="45.97587" lon="4.84572">
        <ele>274</ele>
        <time>2018-05-16T11:05:53Z</time>
      </trkpt>
      <trkpt lat="45.97591" lon="4.84567">
        <ele>274</ele>
        <time>2018-05-16T11:05:54Z</time>
      </trkpt>
      <trkpt lat="45.97593" lon="4.84562">
        <ele>274</ele>
        <time>2018-05-16T11:05:55Z</time>
      </trkpt>
      <trkpt lat="45.97597" lon="4.84558">
        <ele>275</ele>
        <time>2018-05-16T11:05:56Z</time>
      </trkpt>
      <trkpt lat="45.97601" lon="4.84553">
        <ele>275</ele>
        <time>2018-05-16T11:05:57Z</time>
      </trkpt>
      <trkpt lat="45.97606" lon="4.84548">
        <ele>275</ele>
        <time>2018-05-16T11:05:58Z</time>
      </trkpt>
      <trkpt lat="45.9761" lon="4.84543">
        <ele>275</ele>
        <time>2018-05-16T11:05:59Z</time>
      </trkpt>
      <trkpt lat="45.97613" lon="4.84538">
        <ele>275</ele>
        <time>2018-05-16T11:06:00Z</time>
      </trkpt>
      <trkpt lat="45.97617" lon="4.84533">
        <ele>275</ele>
        <time>2018-05-16T11:06:01Z</time>
      </trkpt>
      <trkpt lat="45.97621" lon="4.84528">
        <ele>275</ele>
        <time>2018-05-16T11:06:02Z</time>
      </trkpt>
      <trkpt lat="45.97625" lon="4.84524">
        <ele>275</ele>
        <time>2018-05-16T11:06:03Z</time>
      </trkpt>
      <trkpt lat="45.97629" lon="4.84519">
        <ele>275</ele>
        <time>2018-05-16T11:06:04Z</time>
      </trkpt>
      <trkpt lat="45.97634" lon="4.84513">
        <ele>275</ele>
        <time>2018-05-16T11:06:05Z</time>
      </trkpt>
      <trkpt lat="45.97638" lon="4.84509">
        <ele>275</ele>
        <time>2018-05-16T11:06:06Z</time>
      </trkpt>
      <trkpt lat="45.97643" lon="4.84504">
        <ele>275</ele>
        <time>2018-05-16T11:06:07Z</time>
      </trkpt>
      <trkpt lat="45.97647" lon="4.84498">
        <ele>275</ele>
        <time>2018-05-16T11:06:08Z</time>
      </trkpt>
      <trkpt lat="45.97652" lon="4.84493">
        <ele>275</ele>
        <time>2018-05-16T11:06:09Z</time>
      </trkpt>
      <trkpt lat="45.97656" lon="4.8449">
        <ele>275</ele>
        <time>2018-05-16T11:06:10Z</time>
      </trkpt>
      <trkpt lat="45.97661" lon="4.84486">
        <ele>275</ele>
        <time>2018-05-16T11:06:11Z</time>
      </trkpt>
      <trkpt lat="45.97665" lon="4.84482">
        <ele>276</ele>
        <time>2018-05-16T11:06:12Z</time>
      </trkpt>
      <trkpt lat="45.9767" lon="4.84478">
        <ele>276</ele>
        <time>2018-05-16T11:06:13Z</time>
      </trkpt>
      <trkpt lat="45.97674" lon="4.84475">
        <ele>276</ele>
        <time>2018-05-16T11:06:14Z</time>
      </trkpt>
      <trkpt lat="45.97678" lon="4.84472">
        <ele>276</ele>
        <time>2018-05-16T11:06:15Z</time>
      </trkpt>
      <trkpt lat="45.97683" lon="4.84469">
        <ele>277</ele>
        <time>2018-05-16T11:06:16Z</time>
      </trkpt>
      <trkpt lat="45.97688" lon="4.84466">
        <ele>277</ele>
        <time>2018-05-16T11:06:17Z</time>
      </trkpt>
      <trkpt lat="45.97693" lon="4.84463">
        <ele>277</ele>
        <time>2018-05-16T11:06:18Z</time>
      </trkpt>
      <trkpt lat="45.97698" lon="4.8446">
        <ele>277</ele>
        <time>2018-05-16T11:06:19Z</time>
      </trkpt>
      <trkpt lat="45.97703" lon="4.84457">
        <ele>277</ele>
        <time>2018-05-16T11:06:20Z</time>
      </trkpt>
      <trkpt lat="45.97709" lon="4.84454">
        <ele>277</ele>
        <time>2018-05-16T11:06:21Z</time>
      </trkpt>
      <trkpt lat="45.97714" lon="4.84452">
        <ele>277</ele>
        <time>2018-05-16T11:06:22Z</time>
      </trkpt>
      <trkpt lat="45.9772" lon="4.8445">
        <ele>277</ele>
        <time>2018-05-16T11:06:23Z</time>
      </trkpt>
      <trkpt lat="45.97725" lon="4.84448">
        <ele>277</ele>
        <time>2018-05-16T11:06:24Z</time>
      </trkpt>
      <trkpt lat="45.97731" lon="4.84447">
        <ele>277</ele>
        <time>2018-05-16T11:06:25Z</time>
      </trkpt>
      <trkpt lat="45.97737" lon="4.84445">
        <ele>277</ele>
        <time>2018-05-16T11:06:26Z</time>
      </trkpt>
      <trkpt lat="45.97742" lon="4.84444">
        <ele>277</ele>
        <time>2018-05-16T11:06:27Z</time>
      </trkpt>
      <trkpt lat="45.97747" lon="4.84442">
        <ele>277</ele>
        <time>2018-05-16T11:06:28Z</time>
      </trkpt>
      <trkpt lat="45.97753" lon="4.8444">
        <ele>277</ele>
        <time>2018-05-16T11:06:29Z</time>
      </trkpt>
      <trkpt lat="45.97758" lon="4.84438">
        <ele>277</ele>
        <time>2018-05-16T11:06:30Z</time>
      </trkpt>
      <trkpt lat="45.97763" lon="4.84437">
        <ele>277</ele>
        <time>2018-05-16T11:06:31Z</time>
      </trkpt>
      <trkpt lat="45.97767" lon="4.84436">
        <ele>277</ele>
        <time>2018-05-16T11:06:32Z</time>
      </trkpt>
      <trkpt lat="45.97772" lon="4.84434">
        <ele>277</ele>
        <time>2018-05-16T11:06:33Z</time>
      </trkpt>
      <trkpt lat="45.97776" lon="4.84433">
        <ele>277</ele>
        <time>2018-05-16T11:06:34Z</time>
      </trkpt>
      <trkpt lat="45.97781" lon="4.84432">
        <ele>277</ele>
        <time>2018-05-16T11:06:35Z</time>
      </trkpt>
      <trkpt lat="45.97786" lon="4.84429">
        <ele>277</ele>
        <time>2018-05-16T11:06:36Z</time>
      </trkpt>
      <trkpt lat="45.97791" lon="4.84427">
        <ele>277</ele>
        <time>2018-05-16T11:06:37Z</time>
      </trkpt>
      <trkpt lat="45.97796" lon="4.84424">
        <ele>277</ele>
        <time>2018-05-16T11:06:38Z</time>
      </trkpt>
      <trkpt lat="45.97801" lon="4.84422">
        <ele>277</ele>
        <time>2018-05-16T11:06:39Z</time>
      </trkpt>
      <trkpt lat="45.97806" lon="4.84419">
        <ele>277</ele>
        <time>2018-05-16T11:06:40Z</time>
      </trkpt>
      <trkpt lat="45.97811" lon="4.84418">
        <ele>277</ele>
        <time>2018-05-16T11:06:41Z</time>
      </trkpt>
      <trkpt lat="45.97815" lon="4.84415">
        <ele>276</ele>
        <time>2018-05-16T11:06:42Z</time>
      </trkpt>
      <trkpt lat="45.97819" lon="4.84412">
        <ele>276</ele>
        <time>2018-05-16T11:06:43Z</time>
      </trkpt>
      <trkpt lat="45.97824" lon="4.84408">
        <ele>276</ele>
        <time>2018-05-16T11:06:44Z</time>
      </trkpt>
      <trkpt lat="45.97828" lon="4.84404">
        <ele>276</ele>
        <time>2018-05-16T11:06:45Z</time>
      </trkpt>
      <trkpt lat="45.97833" lon="4.844">
        <ele>276</ele>
        <time>2018-05-16T11:06:46Z</time>
      </trkpt>
      <trkpt lat="45.97838" lon="4.84396">
        <ele>276</ele>
        <time>2018-05-16T11:06:47Z</time>
      </trkpt>
      <trkpt lat="45.97842" lon="4.84391">
        <ele>276</ele>
        <time>2018-05-16T11:06:48Z</time>
      </trkpt>
      <trkpt lat="45.97847" lon="4.84386">
        <ele>276</ele>
        <time>2018-05-16T11:06:49Z</time>
      </trkpt>
      <trkpt lat="45.97851" lon="4.84382">
        <ele>276</ele>
        <time>2018-05-16T11:06:50Z</time>
      </trkpt>
      <trkpt lat="45.97855" lon="4.84376">
        <ele>276</ele>
        <time>2018-05-16T11:06:51Z</time>
      </trkpt>
      <trkpt lat="45.9786" lon="4.8437">
        <ele>276</ele>
        <time>2018-05-16T11:06:52Z</time>
      </trkpt>
      <trkpt lat="45.97863" lon="4.84364">
        <ele>276</ele>
        <time>2018-05-16T11:06:53Z</time>
      </trkpt>
      <trkpt lat="45.97867" lon="4.84357">
        <ele>276</ele>
        <time>2018-05-16T11:06:54Z</time>
      </trkpt>
      <trkpt lat="45.9787" lon="4.84352">
        <ele>276</ele>
        <time>2018-05-16T11:06:55Z</time>
      </trkpt>
      <trkpt lat="45.97873" lon="4.84346">
        <ele>276</ele>
        <time>2018-05-16T11:06:56Z</time>
      </trkpt>
      <trkpt lat="45.97878" lon="4.8434">
        <ele>275</ele>
        <time>2018-05-16T11:06:57Z</time>
      </trkpt>
      <trkpt lat="45.97882" lon="4.84335">
        <ele>275</ele>
        <time>2018-05-16T11:06:58Z</time>
      </trkpt>
      <trkpt lat="45.97885" lon="4.8433">
        <ele>275</ele>
        <time>2018-05-16T11:06:59Z</time>
      </trkpt>
      <trkpt lat="45.97888" lon="4.84323">
        <ele>275</ele>
        <time>2018-05-16T11:07:00Z</time>
      </trkpt>
      <trkpt lat="45.97891" lon="4.84318">
        <ele>275</ele>
        <time>2018-05-16T11:07:01Z</time>
      </trkpt>
      <trkpt lat="45.97894" lon="4.84313">
        <ele>275</ele>
        <time>2018-05-16T11:07:02Z</time>
      </trkpt>
      <trkpt lat="45.97898" lon="4.84307">
        <ele>275</ele>
        <time>2018-05-16T11:07:03Z</time>
      </trkpt>
      <trkpt lat="45.97901" lon="4.84302">
        <ele>275</ele>
        <time>2018-05-16T11:07:04Z</time>
      </trkpt>
      <trkpt lat="45.97905" lon="4.84296">
        <ele>275</ele>
        <time>2018-05-16T11:07:05Z</time>
      </trkpt>
      <trkpt lat="45.97909" lon="4.8429">
        <ele>275</ele>
        <time>2018-05-16T11:07:06Z</time>
      </trkpt>
      <trkpt lat="45.97912" lon="4.84285">
        <ele>275</ele>
        <time>2018-05-16T11:07:07Z</time>
      </trkpt>
      <trkpt lat="45.97916" lon="4.8428">
        <ele>275</ele>
        <time>2018-05-16T11:07:08Z</time>
      </trkpt>
      <trkpt lat="45.9792" lon="4.84275">
        <ele>275</ele>
        <time>2018-05-16T11:07:09Z</time>
      </trkpt>
      <trkpt lat="45.97924" lon="4.84271">
        <ele>275</ele>
        <time>2018-05-16T11:07:10Z</time>
      </trkpt>
      <trkpt lat="45.97928" lon="4.84267">
        <ele>275</ele>
        <time>2018-05-16T11:07:11Z</time>
      </trkpt>
      <trkpt lat="45.97932" lon="4.84263">
        <ele>275</ele>
        <time>2018-05-16T11:07:12Z</time>
      </trkpt>
      <trkpt lat="45.97935" lon="4.84259">
        <ele>275</ele>
        <time>2018-05-16T11:07:13Z</time>
      </trkpt>
      <trkpt lat="45.97939" lon="4.84257">
        <ele>275</ele>
        <time>2018-05-16T11:07:14Z</time>
      </trkpt>
      <trkpt lat="45.97944" lon="4.84253">
        <ele>275</ele>
        <time>2018-05-16T11:07:15Z</time>
      </trkpt>
      <trkpt lat="45.97948" lon="4.84249">
        <ele>275</ele>
        <time>2018-05-16T11:07:16Z</time>
      </trkpt>
      <trkpt lat="45.97951" lon="4.84245">
        <ele>275</ele>
        <time>2018-05-16T11:07:17Z</time>
      </trkpt>
      <trkpt lat="45.97955" lon="4.84242">
        <ele>275</ele>
        <time>2018-05-16T11:07:18Z</time>
      </trkpt>
      <trkpt lat="45.97959" lon="4.84239">
        <ele>274</ele>
        <time>2018-05-16T11:07:19Z</time>
      </trkpt>
      <trkpt lat="45.97964" lon="4.84236">
        <ele>274</ele>
        <time>2018-05-16T11:07:20Z</time>
      </trkpt>
      <trkpt lat="45.97968" lon="4.84232">
        <ele>274</ele>
        <time>2018-05-16T11:07:21Z</time>
      </trkpt>
      <trkpt lat="45.97972" lon="4.84228">
        <ele>274</ele>
        <time>2018-05-16T11:07:22Z</time>
      </trkpt>
      <trkpt lat="45.97977" lon="4.84223">
        <ele>274</ele>
        <time>2018-05-16T11:07:23Z</time>
      </trkpt>
      <trkpt lat="45.97981" lon="4.84219">
        <ele>274</ele>
        <time>2018-05-16T11:07:24Z</time>
      </trkpt>
      <trkpt lat="45.97985" lon="4.84215">
        <ele>274</ele>
        <time>2018-05-16T11:07:25Z</time>
      </trkpt>
      <trkpt lat="45.9799" lon="4.84211">
        <ele>274</ele>
        <time>2018-05-16T11:07:26Z</time>
      </trkpt>
      <trkpt lat="45.97994" lon="4.84206">
        <ele>274</ele>
        <time>2018-05-16T11:07:27Z</time>
      </trkpt>
      <trkpt lat="45.97999" lon="4.84201">
        <ele>274</ele>
        <time>2018-05-16T11:07:28Z</time>
      </trkpt>
      <trkpt lat="45.98004" lon="4.84197">
        <ele>274</ele>
        <time>2018-05-16T11:07:29Z</time>
      </trkpt>
      <trkpt lat="45.98009" lon="4.84191">
        <ele>274</ele>
        <time>2018-05-16T11:07:30Z</time>
      </trkpt>
      <trkpt lat="45.98014" lon="4.84186">
        <ele>274</ele>
        <time>2018-05-16T11:07:31Z</time>
      </trkpt>
      <trkpt lat="45.9802" lon="4.84181">
        <ele>274</ele>
        <time>2018-05-16T11:07:32Z</time>
      </trkpt>
      <trkpt lat="45.98025" lon="4.84176">
        <ele>274</ele>
        <time>2018-05-16T11:07:33Z</time>
      </trkpt>
      <trkpt lat="45.98031" lon="4.84171">
        <ele>273</ele>
        <time>2018-05-16T11:07:34Z</time>
      </trkpt>
      <trkpt lat="45.98036" lon="4.84166">
        <ele>273</ele>
        <time>2018-05-16T11:07:35Z</time>
      </trkpt>
      <trkpt lat="45.98042" lon="4.84161">
        <ele>273</ele>
        <time>2018-05-16T11:07:36Z</time>
      </trkpt>
      <trkpt lat="45.98047" lon="4.84156">
        <ele>273</ele>
        <time>2018-05-16T11:07:37Z</time>
      </trkpt>
      <trkpt lat="45.98052" lon="4.84152">
        <ele>273</ele>
        <time>2018-05-16T11:07:38Z</time>
      </trkpt>
      <trkpt lat="45.98057" lon="4.84147">
        <ele>273</ele>
        <time>2018-05-16T11:07:39Z</time>
      </trkpt>
      <trkpt lat="45.98063" lon="4.84142">
        <ele>273</ele>
        <time>2018-05-16T11:07:40Z</time>
      </trkpt>
      <trkpt lat="45.98068" lon="4.84137">
        <ele>273</ele>
        <time>2018-05-16T11:07:41Z</time>
      </trkpt>
      <trkpt lat="45.98073" lon="4.84132">
        <ele>273</ele>
        <time>2018-05-16T11:07:42Z</time>
      </trkpt>
      <trkpt lat="45.98078" lon="4.84127">
        <ele>273</ele>
        <time>2018-05-16T11:07:43Z</time>
      </trkpt>
      <trkpt lat="45.98084" lon="4.84122">
        <ele>273</ele>
        <time>2018-05-16T11:07:44Z</time>
      </trkpt>
      <trkpt lat="45.9809" lon="4.84117">
        <ele>273</ele>
        <time>2018-05-16T11:07:45Z</time>
      </trkpt>
      <trkpt lat="45.98095" lon="4.8411">
        <ele>273</ele>
        <time>2018-05-16T11:07:46Z</time>
      </trkpt>
      <trkpt lat="45.981" lon="4.84105">
        <ele>273</ele>
        <time>2018-05-16T11:07:47Z</time>
      </trkpt>
      <trkpt lat="45.98106" lon="4.841">
        <ele>273</ele>
        <time>2018-05-16T11:07:48Z</time>
      </trkpt>
      <trkpt lat="45.98112" lon="4.84095">
        <ele>273</ele>
        <time>2018-05-16T11:07:49Z</time>
      </trkpt>
      <trkpt lat="45.98117" lon="4.84089">
        <ele>273</ele>
        <time>2018-05-16T11:07:50Z</time>
      </trkpt>
      <trkpt lat="45.98122" lon="4.84082">
        <ele>273</ele>
        <time>2018-05-16T11:07:51Z</time>
      </trkpt>
      <trkpt lat="45.98127" lon="4.84077">
        <ele>273</ele>
        <time>2018-05-16T11:07:52Z</time>
      </trkpt>
      <trkpt lat="45.98133" lon="4.84071">
        <ele>273</ele>
        <time>2018-05-16T11:07:53Z</time>
      </trkpt>
      <trkpt lat="45.98137" lon="4.84065">
        <ele>273</ele>
        <time>2018-05-16T11:07:54Z</time>
      </trkpt>
      <trkpt lat="45.98143" lon="4.84059">
        <ele>273</ele>
        <time>2018-05-16T11:07:55Z</time>
      </trkpt>
      <trkpt lat="45.98148" lon="4.84052">
        <ele>273</ele>
        <time>2018-05-16T11:07:56Z</time>
      </trkpt>
      <trkpt lat="45.98153" lon="4.84045">
        <ele>273</ele>
        <time>2018-05-16T11:07:57Z</time>
      </trkpt>
      <trkpt lat="45.98157" lon="4.84038">
        <ele>273</ele>
        <time>2018-05-16T11:07:58Z</time>
      </trkpt>
      <trkpt lat="45.98161" lon="4.84031">
        <ele>273</ele>
        <time>2018-05-16T11:07:59Z</time>
      </trkpt>
      <trkpt lat="45.98165" lon="4.84024">
        <ele>273</ele>
        <time>2018-05-16T11:08:00Z</time>
      </trkpt>
      <trkpt lat="45.98169" lon="4.84016">
        <ele>273</ele>
        <time>2018-05-16T11:08:01Z</time>
      </trkpt>
      <trkpt lat="45.98173" lon="4.84006">
        <ele>273</ele>
        <time>2018-05-16T11:08:02Z</time>
      </trkpt>
      <trkpt lat="45.98177" lon="4.83998">
        <ele>273</ele>
        <time>2018-05-16T11:08:03Z</time>
      </trkpt>
      <trkpt lat="45.98181" lon="4.83989">
        <ele>273</ele>
        <time>2018-05-16T11:08:04Z</time>
      </trkpt>
      <trkpt lat="45.98185" lon="4.83979">
        <ele>273</ele>
        <time>2018-05-16T11:08:05Z</time>
      </trkpt>
      <trkpt lat="45.98188" lon="4.83971">
        <ele>273</ele>
        <time>2018-05-16T11:08:06Z</time>
      </trkpt>
      <trkpt lat="45.98192" lon="4.83962">
        <ele>273</ele>
        <time>2018-05-16T11:08:07Z</time>
      </trkpt>
      <trkpt lat="45.98194" lon="4.83953">
        <ele>273</ele>
        <time>2018-05-16T11:08:08Z</time>
      </trkpt>
      <trkpt lat="45.98198" lon="4.83944">
        <ele>273</ele>
        <time>2018-05-16T11:08:09Z</time>
      </trkpt>
      <trkpt lat="45.98201" lon="4.83936">
        <ele>273</ele>
        <time>2018-05-16T11:08:10Z</time>
      </trkpt>
      <trkpt lat="45.98204" lon="4.83927">
        <ele>273</ele>
        <time>2018-05-16T11:08:11Z</time>
      </trkpt>
      <trkpt lat="45.98207" lon="4.8392">
        <ele>273</ele>
        <time>2018-05-16T11:08:12Z</time>
      </trkpt>
      <trkpt lat="45.98209" lon="4.83912">
        <ele>273</ele>
        <time>2018-05-16T11:08:13Z</time>
      </trkpt>
      <trkpt lat="45.98212" lon="4.83904">
        <ele>273</ele>
        <time>2018-05-16T11:08:14Z</time>
      </trkpt>
      <trkpt lat="45.98214" lon="4.83896">
        <ele>273</ele>
        <time>2018-05-16T11:08:15Z</time>
      </trkpt>
      <trkpt lat="45.98216" lon="4.83889">
        <ele>273</ele>
        <time>2018-05-16T11:08:16Z</time>
      </trkpt>
      <trkpt lat="45.98219" lon="4.83881">
        <ele>272</ele>
        <time>2018-05-16T11:08:17Z</time>
      </trkpt>
      <trkpt lat="45.98222" lon="4.83871">
        <ele>272</ele>
        <time>2018-05-16T11:08:18Z</time>
      </trkpt>
      <trkpt lat="45.98225" lon="4.83863">
        <ele>272</ele>
        <time>2018-05-16T11:08:19Z</time>
      </trkpt>
      <trkpt lat="45.98228" lon="4.83855">
        <ele>272</ele>
        <time>2018-05-16T11:08:20Z</time>
      </trkpt>
      <trkpt lat="45.98231" lon="4.83847">
        <ele>272</ele>
        <time>2018-05-16T11:08:21Z</time>
      </trkpt>
      <trkpt lat="45.98234" lon="4.8384">
        <ele>272</ele>
        <time>2018-05-16T11:08:22Z</time>
      </trkpt>
      <trkpt lat="45.98237" lon="4.83832">
        <ele>272</ele>
        <time>2018-05-16T11:08:23Z</time>
      </trkpt>
      <trkpt lat="45.98239" lon="4.83825">
        <ele>272</ele>
        <time>2018-05-16T11:08:24Z</time>
      </trkpt>
      <trkpt lat="45.98242" lon="4.83817">
        <ele>272</ele>
        <time>2018-05-16T11:08:25Z</time>
      </trkpt>
      <trkpt lat="45.98245" lon="4.83808">
        <ele>272</ele>
        <time>2018-05-16T11:08:26Z</time>
      </trkpt>
      <trkpt lat="45.98248" lon="4.838">
        <ele>272</ele>
        <time>2018-05-16T11:08:27Z</time>
      </trkpt>
      <trkpt lat="45.9825" lon="4.83793">
        <ele>272</ele>
        <time>2018-05-16T11:08:28Z</time>
      </trkpt>
      <trkpt lat="45.98252" lon="4.83785">
        <ele>272</ele>
        <time>2018-05-16T11:08:29Z</time>
      </trkpt>
      <trkpt lat="45.98254" lon="4.83778">
        <ele>272</ele>
        <time>2018-05-16T11:08:30Z</time>
      </trkpt>
      <trkpt lat="45.98257" lon="4.83769">
        <ele>272</ele>
        <time>2018-05-16T11:08:31Z</time>
      </trkpt>
      <trkpt lat="45.9826" lon="4.83762">
        <ele>272</ele>
        <time>2018-05-16T11:08:32Z</time>
      </trkpt>
      <trkpt lat="45.98262" lon="4.83755">
        <ele>272</ele>
        <time>2018-05-16T11:08:33Z</time>
      </trkpt>
      <trkpt lat="45.98266" lon="4.83747">
        <ele>272</ele>
        <time>2018-05-16T11:08:34Z</time>
      </trkpt>
      <trkpt lat="45.98268" lon="4.8374">
        <ele>272</ele>
        <time>2018-05-16T11:08:35Z</time>
      </trkpt>
      <trkpt lat="45.9827" lon="4.83732">
        <ele>272</ele>
        <time>2018-05-16T11:08:36Z</time>
      </trkpt>
      <trkpt lat="45.98272" lon="4.83724">
        <ele>272</ele>
        <time>2018-05-16T11:08:37Z</time>
      </trkpt>
      <trkpt lat="45.98274" lon="4.83716">
        <ele>272</ele>
        <time>2018-05-16T11:08:38Z</time>
      </trkpt>
      <trkpt lat="45.98277" lon="4.83709">
        <ele>272</ele>
        <time>2018-05-16T11:08:39Z</time>
      </trkpt>
      <trkpt lat="45.9828" lon="4.83701">
        <ele>272</ele>
        <time>2018-05-16T11:08:40Z</time>
      </trkpt>
      <trkpt lat="45.98283" lon="4.83694">
        <ele>272</ele>
        <time>2018-05-16T11:08:41Z</time>
      </trkpt>
      <trkpt lat="45.98286" lon="4.83687">
        <ele>272</ele>
        <time>2018-05-16T11:08:42Z</time>
      </trkpt>
      <trkpt lat="45.98289" lon="4.83679">
        <ele>272</ele>
        <time>2018-05-16T11:08:43Z</time>
      </trkpt>
      <trkpt lat="45.98291" lon="4.83672">
        <ele>272</ele>
        <time>2018-05-16T11:08:44Z</time>
      </trkpt>
      <trkpt lat="45.98294" lon="4.83664">
        <ele>271</ele>
        <time>2018-05-16T11:08:45Z</time>
      </trkpt>
      <trkpt lat="45.98297" lon="4.83657">
        <ele>271</ele>
        <time>2018-05-16T11:08:46Z</time>
      </trkpt>
      <trkpt lat="45.983" lon="4.83649">
        <ele>271</ele>
        <time>2018-05-16T11:08:47Z</time>
      </trkpt>
      <trkpt lat="45.98303" lon="4.83643">
        <ele>271</ele>
        <time>2018-05-16T11:08:48Z</time>
      </trkpt>
      <trkpt lat="45.98306" lon="4.83635">
        <ele>271</ele>
        <time>2018-05-16T11:08:49Z</time>
      </trkpt>
      <trkpt lat="45.9831" lon="4.83628">
        <ele>271</ele>
        <time>2018-05-16T11:08:50Z</time>
      </trkpt>
      <trkpt lat="45.98313" lon="4.83622">
        <ele>271</ele>
        <time>2018-05-16T11:08:51Z</time>
      </trkpt>
      <trkpt lat="45.98316" lon="4.83615">
        <ele>271</ele>
        <time>2018-05-16T11:08:52Z</time>
      </trkpt>
      <trkpt lat="45.9832" lon="4.83609">
        <ele>271</ele>
        <time>2018-05-16T11:08:53Z</time>
      </trkpt>
      <trkpt lat="45.98324" lon="4.83604">
        <ele>271</ele>
        <time>2018-05-16T11:08:54Z</time>
      </trkpt>
      <trkpt lat="45.98328" lon="4.83598">
        <ele>271</ele>
        <time>2018-05-16T11:08:55Z</time>
      </trkpt>
      <trkpt lat="45.98333" lon="4.83592">
        <ele>270</ele>
        <time>2018-05-16T11:08:56Z</time>
      </trkpt>
      <trkpt lat="45.98337" lon="4.83587">
        <ele>270</ele>
        <time>2018-05-16T11:08:57Z</time>
      </trkpt>
      <trkpt lat="45.98343" lon="4.83581">
        <ele>270</ele>
        <time>2018-05-16T11:08:58Z</time>
      </trkpt>
      <trkpt lat="45.98348" lon="4.83576">
        <ele>270</ele>
        <time>2018-05-16T11:08:59Z</time>
      </trkpt>
      <trkpt lat="45.98352" lon="4.83571">
        <ele>269</ele>
        <time>2018-05-16T11:09:00Z</time>
      </trkpt>
      <trkpt lat="45.98356" lon="4.83567">
        <ele>269</ele>
        <time>2018-05-16T11:09:01Z</time>
      </trkpt>
      <trkpt lat="45.98359" lon="4.83562">
        <ele>269</ele>
        <time>2018-05-16T11:09:02Z</time>
      </trkpt>
      <trkpt lat="45.98363" lon="4.83556">
        <ele>269</ele>
        <time>2018-05-16T11:09:03Z</time>
      </trkpt>
      <trkpt lat="45.98367" lon="4.8355">
        <ele>269</ele>
        <time>2018-05-16T11:09:04Z</time>
      </trkpt>
      <trkpt lat="45.98371" lon="4.83544">
        <ele>269</ele>
        <time>2018-05-16T11:09:05Z</time>
      </trkpt>
      <trkpt lat="45.98375" lon="4.83538">
        <ele>269</ele>
        <time>2018-05-16T11:09:06Z</time>
      </trkpt>
      <trkpt lat="45.98379" lon="4.83532">
        <ele>269</ele>
        <time>2018-05-16T11:09:07Z</time>
      </trkpt>
      <trkpt lat="45.98384" lon="4.83526">
        <ele>269</ele>
        <time>2018-05-16T11:09:08Z</time>
      </trkpt>
      <trkpt lat="45.98388" lon="4.83521">
        <ele>269</ele>
        <time>2018-05-16T11:09:09Z</time>
      </trkpt>
      <trkpt lat="45.98393" lon="4.83515">
        <ele>269</ele>
        <time>2018-05-16T11:09:10Z</time>
      </trkpt>
      <trkpt lat="45.98398" lon="4.83509">
        <ele>269</ele>
        <time>2018-05-16T11:09:11Z</time>
      </trkpt>
      <trkpt lat="45.98402" lon="4.83502">
        <ele>268</ele>
        <time>2018-05-16T11:09:12Z</time>
      </trkpt>
      <trkpt lat="45.98406" lon="4.83496">
        <ele>268</ele>
        <time>2018-05-16T11:09:13Z</time>
      </trkpt>
      <trkpt lat="45.98411" lon="4.83491">
        <ele>268</ele>
        <time>2018-05-16T11:09:14Z</time>
      </trkpt>
      <trkpt lat="45.98415" lon="4.83485">
        <ele>269</ele>
        <time>2018-05-16T11:09:15Z</time>
      </trkpt>
      <trkpt lat="45.98419" lon="4.83479">
        <ele>268</ele>
        <time>2018-05-16T11:09:16Z</time>
      </trkpt>
      <trkpt lat="45.98424" lon="4.83473">
        <ele>268</ele>
        <time>2018-05-16T11:09:17Z</time>
      </trkpt>
      <trkpt lat="45.98429" lon="4.83467">
        <ele>268</ele>
        <time>2018-05-16T11:09:18Z</time>
      </trkpt>
      <trkpt lat="45.98433" lon="4.83461">
        <ele>268</ele>
        <time>2018-05-16T11:09:19Z</time>
      </trkpt>
      <trkpt lat="45.98437" lon="4.83454">
        <ele>268</ele>
        <time>2018-05-16T11:09:20Z</time>
      </trkpt>
      <trkpt lat="45.98441" lon="4.83448">
        <ele>268</ele>
        <time>2018-05-16T11:09:21Z</time>
      </trkpt>
      <trkpt lat="45.98445" lon="4.83443">
        <ele>268</ele>
        <time>2018-05-16T11:09:22Z</time>
      </trkpt>
      <trkpt lat="45.98449" lon="4.83437">
        <ele>268</ele>
        <time>2018-05-16T11:09:23Z</time>
      </trkpt>
      <trkpt lat="45.98454" lon="4.83432">
        <ele>268</ele>
        <time>2018-05-16T11:09:24Z</time>
      </trkpt>
      <trkpt lat="45.98457" lon="4.83426">
        <ele>268</ele>
        <time>2018-05-16T11:09:25Z</time>
      </trkpt>
      <trkpt lat="45.9846" lon="4.83422">
        <ele>269</ele>
        <time>2018-05-16T11:09:26Z</time>
      </trkpt>
      <trkpt lat="45.98464" lon="4.83417">
        <ele>269</ele>
        <time>2018-05-16T11:09:27Z</time>
      </trkpt>
      <trkpt lat="45.98469" lon="4.83412">
        <ele>269</ele>
        <time>2018-05-16T11:09:28Z</time>
      </trkpt>
      <trkpt lat="45.98473" lon="4.83406">
        <ele>269</ele>
        <time>2018-05-16T11:09:29Z</time>
      </trkpt>
      <trkpt lat="45.98478" lon="4.834">
        <ele>269</ele>
        <time>2018-05-16T11:09:30Z</time>
      </trkpt>
      <trkpt lat="45.98482" lon="4.83394">
        <ele>269</ele>
        <time>2018-05-16T11:09:31Z</time>
      </trkpt>
      <trkpt lat="45.98486" lon="4.83388">
        <ele>269</ele>
        <time>2018-05-16T11:09:32Z</time>
      </trkpt>
      <trkpt lat="45.98491" lon="4.83382">
        <ele>269</ele>
        <time>2018-05-16T11:09:33Z</time>
      </trkpt>
      <trkpt lat="45.98496" lon="4.83376">
        <ele>269</ele>
        <time>2018-05-16T11:09:34Z</time>
      </trkpt>
      <trkpt lat="45.985" lon="4.83371">
        <ele>270</ele>
        <time>2018-05-16T11:09:35Z</time>
      </trkpt>
      <trkpt lat="45.98504" lon="4.83365">
        <ele>269</ele>
        <time>2018-05-16T11:09:36Z</time>
      </trkpt>
      <trkpt lat="45.98508" lon="4.83359">
        <ele>269</ele>
        <time>2018-05-16T11:09:37Z</time>
      </trkpt>
      <trkpt lat="45.98513" lon="4.83353">
        <ele>270</ele>
        <time>2018-05-16T11:09:38Z</time>
      </trkpt>
      <trkpt lat="45.98518" lon="4.83348">
        <ele>270</ele>
        <time>2018-05-16T11:09:39Z</time>
      </trkpt>
      <trkpt lat="45.98522" lon="4.83342">
        <ele>270</ele>
        <time>2018-05-16T11:09:40Z</time>
      </trkpt>
      <trkpt lat="45.98527" lon="4.83336">
        <ele>269</ele>
        <time>2018-05-16T11:09:41Z</time>
      </trkpt>
      <trkpt lat="45.98531" lon="4.8333">
        <ele>269</ele>
        <time>2018-05-16T11:09:42Z</time>
      </trkpt>
      <trkpt lat="45.98535" lon="4.83325">
        <ele>269</ele>
        <time>2018-05-16T11:09:43Z</time>
      </trkpt>
      <trkpt lat="45.98539" lon="4.83319">
        <ele>269</ele>
        <time>2018-05-16T11:09:44Z</time>
      </trkpt>
      <trkpt lat="45.98543" lon="4.83313">
        <ele>269</ele>
        <time>2018-05-16T11:09:45Z</time>
      </trkpt>
      <trkpt lat="45.98548" lon="4.83307">
        <ele>269</ele>
        <time>2018-05-16T11:09:46Z</time>
      </trkpt>
      <trkpt lat="45.98551" lon="4.83302">
        <ele>269</ele>
        <time>2018-05-16T11:09:47Z</time>
      </trkpt>
      <trkpt lat="45.98556" lon="4.83296">
        <ele>269</ele>
        <time>2018-05-16T11:09:48Z</time>
      </trkpt>
      <trkpt lat="45.9856" lon="4.83291">
        <ele>269</ele>
        <time>2018-05-16T11:09:49Z</time>
      </trkpt>
      <trkpt lat="45.98564" lon="4.83286">
        <ele>269</ele>
        <time>2018-05-16T11:09:50Z</time>
      </trkpt>
      <trkpt lat="45.98567" lon="4.8328">
        <ele>269</ele>
        <time>2018-05-16T11:09:51Z</time>
      </trkpt>
      <trkpt lat="45.98571" lon="4.83274">
        <ele>269</ele>
        <time>2018-05-16T11:09:52Z</time>
      </trkpt>
      <trkpt lat="45.98575" lon="4.83268">
        <ele>269</ele>
        <time>2018-05-16T11:09:53Z</time>
      </trkpt>
      <trkpt lat="45.98579" lon="4.83262">
        <ele>269</ele>
        <time>2018-05-16T11:09:54Z</time>
      </trkpt>
      <trkpt lat="45.98583" lon="4.83257">
        <ele>268</ele>
        <time>2018-05-16T11:09:55Z</time>
      </trkpt>
      <trkpt lat="45.98587" lon="4.83251">
        <ele>268</ele>
        <time>2018-05-16T11:09:56Z</time>
      </trkpt>
      <trkpt lat="45.98591" lon="4.83245">
        <ele>268</ele>
        <time>2018-05-16T11:09:57Z</time>
      </trkpt>
      <trkpt lat="45.98596" lon="4.83239">
        <ele>268</ele>
        <time>2018-05-16T11:09:58Z</time>
      </trkpt>
      <trkpt lat="45.986" lon="4.83234">
        <ele>268</ele>
        <time>2018-05-16T11:09:59Z</time>
      </trkpt>
      <trkpt lat="45.98604" lon="4.83228">
        <ele>267</ele>
        <time>2018-05-16T11:10:00Z</time>
      </trkpt>
      <trkpt lat="45.98608" lon="4.83222">
        <ele>267</ele>
        <time>2018-05-16T11:10:01Z</time>
      </trkpt>
      <trkpt lat="45.98613" lon="4.83216">
        <ele>267</ele>
        <time>2018-05-16T11:10:02Z</time>
      </trkpt>
      <trkpt lat="45.98617" lon="4.8321">
        <ele>267</ele>
        <time>2018-05-16T11:10:03Z</time>
      </trkpt>
      <trkpt lat="45.98622" lon="4.83204">
        <ele>267</ele>
        <time>2018-05-16T11:10:04Z</time>
      </trkpt>
      <trkpt lat="45.98627" lon="4.83198">
        <ele>267</ele>
        <time>2018-05-16T11:10:05Z</time>
      </trkpt>
      <trkpt lat="45.98632" lon="4.83193">
        <ele>267</ele>
        <time>2018-05-16T11:10:06Z</time>
      </trkpt>
      <trkpt lat="45.98638" lon="4.83187">
        <ele>267</ele>
        <time>2018-05-16T11:10:07Z</time>
      </trkpt>
      <trkpt lat="45.98643" lon="4.83182">
        <ele>267</ele>
        <time>2018-05-16T11:10:08Z</time>
      </trkpt>
      <trkpt lat="45.98649" lon="4.83176">
        <ele>267</ele>
        <time>2018-05-16T11:10:09Z</time>
      </trkpt>
      <trkpt lat="45.98655" lon="4.83171">
        <ele>267</ele>
        <time>2018-05-16T11:10:10Z</time>
      </trkpt>
      <trkpt lat="45.98661" lon="4.83167">
        <ele>266</ele>
        <time>2018-05-16T11:10:11Z</time>
      </trkpt>
      <trkpt lat="45.98666" lon="4.83162">
        <ele>266</ele>
        <time>2018-05-16T11:10:12Z</time>
      </trkpt>
      <trkpt lat="45.98672" lon="4.83158">
        <ele>266</ele>
        <time>2018-05-16T11:10:13Z</time>
      </trkpt>
      <trkpt lat="45.98678" lon="4.83154">
        <ele>266</ele>
        <time>2018-05-16T11:10:14Z</time>
      </trkpt>
      <trkpt lat="45.98683" lon="4.8315">
        <ele>266</ele>
        <time>2018-05-16T11:10:15Z</time>
      </trkpt>
      <trkpt lat="45.98689" lon="4.83146">
        <ele>266</ele>
        <time>2018-05-16T11:10:16Z</time>
      </trkpt>
      <trkpt lat="45.98695" lon="4.8314">
        <ele>266</ele>
        <time>2018-05-16T11:10:17Z</time>
      </trkpt>
      <trkpt lat="45.98701" lon="4.83136">
        <ele>266</ele>
        <time>2018-05-16T11:10:18Z</time>
      </trkpt>
      <trkpt lat="45.98707" lon="4.83131">
        <ele>266</ele>
        <time>2018-05-16T11:10:19Z</time>
      </trkpt>
      <trkpt lat="45.98713" lon="4.83126">
        <ele>266</ele>
        <time>2018-05-16T11:10:20Z</time>
      </trkpt>
      <trkpt lat="45.98718" lon="4.83122">
        <ele>266</ele>
        <time>2018-05-16T11:10:21Z</time>
      </trkpt>
      <trkpt lat="45.98724" lon="4.83117">
        <ele>267</ele>
        <time>2018-05-16T11:10:22Z</time>
      </trkpt>
      <trkpt lat="45.9873" lon="4.83113">
        <ele>267</ele>
        <time>2018-05-16T11:10:23Z</time>
      </trkpt>
      <trkpt lat="45.98736" lon="4.83108">
        <ele>267</ele>
        <time>2018-05-16T11:10:24Z</time>
      </trkpt>
      <trkpt lat="45.98742" lon="4.83103">
        <ele>267</ele>
        <time>2018-05-16T11:10:25Z</time>
      </trkpt>
      <trkpt lat="45.98747" lon="4.83098">
        <ele>267</ele>
        <time>2018-05-16T11:10:26Z</time>
      </trkpt>
      <trkpt lat="45.98754" lon="4.83093">
        <ele>266</ele>
        <time>2018-05-16T11:10:27Z</time>
      </trkpt>
      <trkpt lat="45.9876" lon="4.83088">
        <ele>266</ele>
        <time>2018-05-16T11:10:28Z</time>
      </trkpt>
      <trkpt lat="45.98766" lon="4.83083">
        <ele>266</ele>
        <time>2018-05-16T11:10:29Z</time>
      </trkpt>
      <trkpt lat="45.98773" lon="4.83077">
        <ele>265</ele>
        <time>2018-05-16T11:10:30Z</time>
      </trkpt>
      <trkpt lat="45.98779" lon="4.83071">
        <ele>265</ele>
        <time>2018-05-16T11:10:31Z</time>
      </trkpt>
      <trkpt lat="45.98786" lon="4.83064">
        <ele>265</ele>
        <time>2018-05-16T11:10:32Z</time>
      </trkpt>
      <trkpt lat="45.98793" lon="4.83059">
        <ele>265</ele>
        <time>2018-05-16T11:10:33Z</time>
      </trkpt>
      <trkpt lat="45.988" lon="4.83053">
        <ele>264</ele>
        <time>2018-05-16T11:10:34Z</time>
      </trkpt>
      <trkpt lat="45.98807" lon="4.83046">
        <ele>264</ele>
        <time>2018-05-16T11:10:35Z</time>
      </trkpt>
      <trkpt lat="45.98814" lon="4.83041">
        <ele>264</ele>
        <time>2018-05-16T11:10:36Z</time>
      </trkpt>
      <trkpt lat="45.98822" lon="4.83035">
        <ele>264</ele>
        <time>2018-05-16T11:10:37Z</time>
      </trkpt>
      <trkpt lat="45.98829" lon="4.83029">
        <ele>264</ele>
        <time>2018-05-16T11:10:38Z</time>
      </trkpt>
      <trkpt lat="45.98837" lon="4.83023">
        <ele>261</ele>
        <time>2018-05-16T11:10:39Z</time>
      </trkpt>
      <trkpt lat="45.98845" lon="4.83018">
        <ele>261</ele>
        <time>2018-05-16T11:10:40Z</time>
      </trkpt>
      <trkpt lat="45.98853" lon="4.83013">
        <ele>261</ele>
        <time>2018-05-16T11:10:41Z</time>
      </trkpt>
      <trkpt lat="45.98861" lon="4.83008">
        <ele>260</ele>
        <time>2018-05-16T11:10:42Z</time>
      </trkpt>
      <trkpt lat="45.9887" lon="4.83002">
        <ele>260</ele>
        <time>2018-05-16T11:10:43Z</time>
      </trkpt>
      <trkpt lat="45.98878" lon="4.82996">
        <ele>260</ele>
        <time>2018-05-16T11:10:44Z</time>
      </trkpt>
      <trkpt lat="45.98887" lon="4.82989">
        <ele>259</ele>
        <time>2018-05-16T11:10:45Z</time>
      </trkpt>
      <trkpt lat="45.98896" lon="4.82982">
        <ele>259</ele>
        <time>2018-05-16T11:10:46Z</time>
      </trkpt>
      <trkpt lat="45.98905" lon="4.82974">
        <ele>259</ele>
        <time>2018-05-16T11:10:47Z</time>
      </trkpt>
      <trkpt lat="45.98913" lon="4.82966">
        <ele>258</ele>
        <time>2018-05-16T11:10:48Z</time>
      </trkpt>
      <trkpt lat="45.9892" lon="4.82952">
        <ele>255</ele>
        <time>2018-05-16T11:10:49Z</time>
      </trkpt>
      <trkpt lat="45.98926" lon="4.82939">
        <ele>255</ele>
        <time>2018-05-16T11:10:50Z</time>
      </trkpt>
      <trkpt lat="45.98932" lon="4.82925">
        <ele>255</ele>
        <time>2018-05-16T11:10:51Z</time>
      </trkpt>
      <trkpt lat="45.98939" lon="4.82912">
        <ele>254</ele>
        <time>2018-05-16T11:10:52Z</time>
      </trkpt>
      <trkpt lat="45.98945" lon="4.82897">
        <ele>253</ele>
        <time>2018-05-16T11:10:53Z</time>
      </trkpt>
      <trkpt lat="45.98951" lon="4.82883">
        <ele>253</ele>
        <time>2018-05-16T11:10:54Z</time>
      </trkpt>
      <trkpt lat="45.98957" lon="4.82867">
        <ele>252</ele>
        <time>2018-05-16T11:10:55Z</time>
      </trkpt>
      <trkpt lat="45.98965" lon="4.82852">
        <ele>252</ele>
        <time>2018-05-16T11:10:56Z</time>
      </trkpt>
      <trkpt lat="45.98971" lon="4.82837">
        <ele>251</ele>
        <time>2018-05-16T11:10:57Z</time>
      </trkpt>
      <trkpt lat="45.98978" lon="4.82822">
        <ele>248</ele>
        <time>2018-05-16T11:10:58Z</time>
      </trkpt>
      <trkpt lat="45.98985" lon="4.82807">
        <ele>248</ele>
        <time>2018-05-16T11:10:59Z</time>
      </trkpt>
      <trkpt lat="45.98991" lon="4.82793">
        <ele>247</ele>
        <time>2018-05-16T11:11:00Z</time>
      </trkpt>
      <trkpt lat="45.98998" lon="4.82778">
        <ele>246</ele>
        <time>2018-05-16T11:11:01Z</time>
      </trkpt>
      <trkpt lat="45.99004" lon="4.82764">
        <ele>241</ele>
        <time>2018-05-16T11:11:02Z</time>
      </trkpt>
      <trkpt lat="45.9901" lon="4.82749">
        <ele>240</ele>
        <time>2018-05-16T11:11:03Z</time>
      </trkpt>
      <trkpt lat="45.99017" lon="4.82734">
        <ele>239</ele>
        <time>2018-05-16T11:11:04Z</time>
      </trkpt>
      <trkpt lat="45.99024" lon="4.82719">
        <ele>239</ele>
        <time>2018-05-16T11:11:05Z</time>
      </trkpt>
      <trkpt lat="45.9903" lon="4.82704">
        <ele>238</ele>
        <time>2018-05-16T11:11:06Z</time>
      </trkpt>
      <trkpt lat="45.99036" lon="4.82691">
        <ele>238</ele>
        <time>2018-05-16T11:11:07Z</time>
      </trkpt>
      <trkpt lat="45.99042" lon="4.82677">
        <ele>238</ele>
        <time>2018-05-16T11:11:08Z</time>
      </trkpt>
      <trkpt lat="45.99047" lon="4.82663">
        <ele>236</ele>
        <time>2018-05-16T11:11:09Z</time>
      </trkpt>
      <trkpt lat="45.99053" lon="4.82649">
        <ele>236</ele>
        <time>2018-05-16T11:11:10Z</time>
      </trkpt>
      <trkpt lat="45.99058" lon="4.82637">
        <ele>236</ele>
        <time>2018-05-16T11:11:11Z</time>
      </trkpt>
      <trkpt lat="45.99063" lon="4.82627">
        <ele>236</ele>
        <time>2018-05-16T11:11:12Z</time>
      </trkpt>
      <trkpt lat="45.99067" lon="4.82617">
        <ele>236</ele>
        <time>2018-05-16T11:11:13Z</time>
      </trkpt>
      <trkpt lat="45.99071" lon="4.82609">
        <ele>236</ele>
        <time>2018-05-16T11:11:14Z</time>
      </trkpt>
      <trkpt lat="45.99073" lon="4.82601">
        <ele>235</ele>
        <time>2018-05-16T11:11:15Z</time>
      </trkpt>
      <trkpt lat="45.99075" lon="4.82595">
        <ele>235</ele>
        <time>2018-05-16T11:11:16Z</time>
      </trkpt>
      <trkpt lat="45.99077" lon="4.82589">
        <ele>235</ele>
        <time>2018-05-16T11:11:17Z</time>
      </trkpt>
      <trkpt lat="45.99075" lon="4.82578">
        <ele>235</ele>
        <time>2018-05-16T11:11:19Z</time>
      </trkpt>
      <trkpt lat="45.99072" lon="4.82573">
        <ele>235</ele>
        <time>2018-05-16T11:11:20Z</time>
      </trkpt>
      <trkpt lat="45.99068" lon="4.82569">
        <ele>235</ele>
        <time>2018-05-16T11:11:21Z</time>
      </trkpt>
      <trkpt lat="45.99062" lon="4.82567">
        <ele>235</ele>
        <time>2018-05-16T11:11:22Z</time>
      </trkpt>
      <trkpt lat="45.99058" lon="4.82565">
        <ele>235</ele>
        <time>2018-05-16T11:11:23Z</time>
      </trkpt>
      <trkpt lat="45.99053" lon="4.82563">
        <ele>235</ele>
        <time>2018-05-16T11:11:24Z</time>
      </trkpt>
      <trkpt lat="45.99046" lon="4.82558">
        <ele>235</ele>
        <time>2018-05-16T11:11:26Z</time>
      </trkpt>
      <trkpt lat="45.99041" lon="4.82555">
        <ele>235</ele>
        <time>2018-05-16T11:11:27Z</time>
      </trkpt>
      <trkpt lat="45.99036" lon="4.82551">
        <ele>235</ele>
        <time>2018-05-16T11:11:28Z</time>
      </trkpt>
      <trkpt lat="45.99032" lon="4.82548">
        <ele>235</ele>
        <time>2018-05-16T11:11:29Z</time>
      </trkpt>
      <trkpt lat="45.99026" lon="4.82539">
        <ele>235</ele>
        <time>2018-05-16T11:11:31Z</time>
      </trkpt>
      <trkpt lat="45.99023" lon="4.82534">
        <ele>235</ele>
        <time>2018-05-16T11:11:32Z</time>
      </trkpt>
      <trkpt lat="45.99019" lon="4.82529">
        <ele>235</ele>
        <time>2018-05-16T11:11:33Z</time>
      </trkpt>
      <trkpt lat="45.99016" lon="4.82524">
        <ele>235</ele>
        <time>2018-05-16T11:11:34Z</time>
      </trkpt>
      <trkpt lat="45.99014" lon="4.82518">
        <ele>235</ele>
        <time>2018-05-16T11:11:35Z</time>
      </trkpt>
      <trkpt lat="45.99011" lon="4.82514">
        <ele>235</ele>
        <time>2018-05-16T11:11:36Z</time>
      </trkpt>
      <trkpt lat="45.99007" lon="4.82505">
        <ele>235</ele>
        <time>2018-05-16T11:11:38Z</time>
      </trkpt>
      <trkpt lat="45.99004" lon="4.825">
        <ele>235</ele>
        <time>2018-05-16T11:11:39Z</time>
      </trkpt>
      <trkpt lat="45.99002" lon="4.82495">
        <ele>235</ele>
        <time>2018-05-16T11:11:40Z</time>
      </trkpt>
      <trkpt lat="45.98999" lon="4.82489">
        <ele>236</ele>
        <time>2018-05-16T11:11:41Z</time>
      </trkpt>
      <trkpt lat="45.98996" lon="4.82482">
        <ele>236</ele>
        <time>2018-05-16T11:11:42Z</time>
      </trkpt>
      <trkpt lat="45.98994" lon="4.82476">
        <ele>236</ele>
        <time>2018-05-16T11:11:43Z</time>
      </trkpt>
      <trkpt lat="45.98992" lon="4.82469">
        <ele>236</ele>
        <time>2018-05-16T11:11:44Z</time>
      </trkpt>
      <trkpt lat="45.98989" lon="4.82463">
        <ele>236</ele>
        <time>2018-05-16T11:11:45Z</time>
      </trkpt>
      <trkpt lat="45.98985" lon="4.82452">
        <ele>236</ele>
        <time>2018-05-16T11:11:47Z</time>
      </trkpt>
      <trkpt lat="45.98983" lon="4.82444">
        <ele>236</ele>
        <time>2018-05-16T11:11:48Z</time>
      </trkpt>
      <trkpt lat="45.98981" lon="4.82438">
        <ele>236</ele>
        <time>2018-05-16T11:11:49Z</time>
      </trkpt>
      <trkpt lat="45.98979" lon="4.82431">
        <ele>236</ele>
        <time>2018-05-16T11:11:50Z</time>
      </trkpt>
      <trkpt lat="45.98978" lon="4.82425">
        <ele>236</ele>
        <time>2018-05-16T11:11:51Z</time>
      </trkpt>
      <trkpt lat="45.98976" lon="4.82418">
        <ele>236</ele>
        <time>2018-05-16T11:11:52Z</time>
      </trkpt>
      <trkpt lat="45.98974" lon="4.8241">
        <ele>235</ele>
        <time>2018-05-16T11:11:53Z</time>
      </trkpt>
      <trkpt lat="45.98972" lon="4.82403">
        <ele>235</ele>
        <time>2018-05-16T11:11:54Z</time>
      </trkpt>
      <trkpt lat="45.9897" lon="4.82395">
        <ele>235</ele>
        <time>2018-05-16T11:11:55Z</time>
      </trkpt>
      <trkpt lat="45.98968" lon="4.82389">
        <ele>235</ele>
        <time>2018-05-16T11:11:56Z</time>
      </trkpt>
      <trkpt lat="45.98966" lon="4.82381">
        <ele>235</ele>
        <time>2018-05-16T11:11:57Z</time>
      </trkpt>
      <trkpt lat="45.98965" lon="4.82374">
        <ele>235</ele>
        <time>2018-05-16T11:11:58Z</time>
      </trkpt>
      <trkpt lat="45.98962" lon="4.82366">
        <ele>235</ele>
        <time>2018-05-16T11:11:59Z</time>
      </trkpt>
      <trkpt lat="45.98959" lon="4.8236">
        <ele>235</ele>
        <time>2018-05-16T11:12:00Z</time>
      </trkpt>
      <trkpt lat="45.98955" lon="4.82354">
        <ele>235</ele>
        <time>2018-05-16T11:12:01Z</time>
      </trkpt>
      <trkpt lat="45.98953" lon="4.82347">
        <ele>235</ele>
        <time>2018-05-16T11:12:02Z</time>
      </trkpt>
      <trkpt lat="45.98949" lon="4.82341">
        <ele>235</ele>
        <time>2018-05-16T11:12:03Z</time>
      </trkpt>
      <trkpt lat="45.98945" lon="4.82335">
        <ele>235</ele>
        <time>2018-05-16T11:12:04Z</time>
      </trkpt>
      <trkpt lat="45.98941" lon="4.82329">
        <ele>234</ele>
        <time>2018-05-16T11:12:05Z</time>
      </trkpt>
      <trkpt lat="45.98937" lon="4.82324">
        <ele>235</ele>
        <time>2018-05-16T11:12:06Z</time>
      </trkpt>
      <trkpt lat="45.98933" lon="4.82319">
        <ele>235</ele>
        <time>2018-05-16T11:12:07Z</time>
      </trkpt>
      <trkpt lat="45.98929" lon="4.82313">
        <ele>235</ele>
        <time>2018-05-16T11:12:08Z</time>
      </trkpt>
      <trkpt lat="45.98924" lon="4.82307">
        <ele>234</ele>
        <time>2018-05-16T11:12:09Z</time>
      </trkpt>
      <trkpt lat="45.9892" lon="4.82303">
        <ele>234</ele>
        <time>2018-05-16T11:12:10Z</time>
      </trkpt>
      <trkpt lat="45.98915" lon="4.82298">
        <ele>236</ele>
        <time>2018-05-16T11:12:11Z</time>
      </trkpt>
      <trkpt lat="45.98911" lon="4.82293">
        <ele>236</ele>
        <time>2018-05-16T11:12:12Z</time>
      </trkpt>
      <trkpt lat="45.98906" lon="4.82289">
        <ele>236</ele>
        <time>2018-05-16T11:12:13Z</time>
      </trkpt>
      <trkpt lat="45.98902" lon="4.82284">
        <ele>236</ele>
        <time>2018-05-16T11:12:14Z</time>
      </trkpt>
      <trkpt lat="45.98897" lon="4.82278">
        <ele>236</ele>
        <time>2018-05-16T11:12:15Z</time>
      </trkpt>
      <trkpt lat="45.98894" lon="4.82272">
        <ele>236</ele>
        <time>2018-05-16T11:12:16Z</time>
      </trkpt>
      <trkpt lat="45.98891" lon="4.82266">
        <ele>236</ele>
        <time>2018-05-16T11:12:17Z</time>
      </trkpt>
      <trkpt lat="45.98889" lon="4.8226">
        <ele>236</ele>
        <time>2018-05-16T11:12:18Z</time>
      </trkpt>
      <trkpt lat="45.98885" lon="4.82254">
        <ele>236</ele>
        <time>2018-05-16T11:12:19Z</time>
      </trkpt>
      <trkpt lat="45.98883" lon="4.82247">
        <ele>236</ele>
        <time>2018-05-16T11:12:20Z</time>
      </trkpt>
      <trkpt lat="45.9888" lon="4.82241">
        <ele>236</ele>
        <time>2018-05-16T11:12:21Z</time>
      </trkpt>
      <trkpt lat="45.98878" lon="4.82235">
        <ele>236</ele>
        <time>2018-05-16T11:12:22Z</time>
      </trkpt>
      <trkpt lat="45.98874" lon="4.82229">
        <ele>236</ele>
        <time>2018-05-16T11:12:23Z</time>
      </trkpt>
      <trkpt lat="45.98871" lon="4.82222">
        <ele>236</ele>
        <time>2018-05-16T11:12:24Z</time>
      </trkpt>
      <trkpt lat="45.98869" lon="4.82216">
        <ele>236</ele>
        <time>2018-05-16T11:12:25Z</time>
      </trkpt>
      <trkpt lat="45.98866" lon="4.8221">
        <ele>236</ele>
        <time>2018-05-16T11:12:26Z</time>
      </trkpt>
      <trkpt lat="45.98864" lon="4.82203">
        <ele>236</ele>
        <time>2018-05-16T11:12:27Z</time>
      </trkpt>
      <trkpt lat="45.9886" lon="4.82198">
        <ele>236</ele>
        <time>2018-05-16T11:12:28Z</time>
      </trkpt>
      <trkpt lat="45.98858" lon="4.82192">
        <ele>236</ele>
        <time>2018-05-16T11:12:29Z</time>
      </trkpt>
      <trkpt lat="45.98856" lon="4.82186">
        <ele>236</ele>
        <time>2018-05-16T11:12:30Z</time>
      </trkpt>
      <trkpt lat="45.98853" lon="4.82181">
        <ele>236</ele>
        <time>2018-05-16T11:12:31Z</time>
      </trkpt>
      <trkpt lat="45.98852" lon="4.82173">
        <ele>236</ele>
        <time>2018-05-16T11:12:32Z</time>
      </trkpt>
      <trkpt lat="45.98848" lon="4.82161">
        <ele>236</ele>
        <time>2018-05-16T11:12:34Z</time>
      </trkpt>
      <trkpt lat="45.98846" lon="4.82156">
        <ele>236</ele>
        <time>2018-05-16T11:12:35Z</time>
      </trkpt>
      <trkpt lat="45.98843" lon="4.82144">
        <ele>236</ele>
        <time>2018-05-16T11:12:37Z</time>
      </trkpt>
      <trkpt lat="45.98842" lon="4.82138">
        <ele>236</ele>
        <time>2018-05-16T11:12:38Z</time>
      </trkpt>
      <trkpt lat="45.9884" lon="4.82131">
        <ele>236</ele>
        <time>2018-05-16T11:12:39Z</time>
      </trkpt>
      <trkpt lat="45.98839" lon="4.82125">
        <ele>236</ele>
        <time>2018-05-16T11:12:40Z</time>
      </trkpt>
      <trkpt lat="45.98838" lon="4.82118">
        <ele>235</ele>
        <time>2018-05-16T11:12:41Z</time>
      </trkpt>
      <trkpt lat="45.98837" lon="4.82111">
        <ele>235</ele>
        <time>2018-05-16T11:12:42Z</time>
      </trkpt>
      <trkpt lat="45.98836" lon="4.82104">
        <ele>236</ele>
        <time>2018-05-16T11:12:43Z</time>
      </trkpt>
      <trkpt lat="45.98835" lon="4.82097">
        <ele>236</ele>
        <time>2018-05-16T11:12:44Z</time>
      </trkpt>
      <trkpt lat="45.98834" lon="4.82091">
        <ele>236</ele>
        <time>2018-05-16T11:12:45Z</time>
      </trkpt>
      <trkpt lat="45.98832" lon="4.82084">
        <ele>236</ele>
        <time>2018-05-16T11:12:46Z</time>
      </trkpt>
      <trkpt lat="45.98831" lon="4.82072">
        <ele>237</ele>
        <time>2018-05-16T11:12:48Z</time>
      </trkpt>
      <trkpt lat="45.9883" lon="4.82066">
        <ele>237</ele>
        <time>2018-05-16T11:12:49Z</time>
      </trkpt>
      <trkpt lat="45.98827" lon="4.82055">
        <ele>237</ele>
        <time>2018-05-16T11:12:51Z</time>
      </trkpt>
      <trkpt lat="45.98826" lon="4.82048">
        <ele>238</ele>
        <time>2018-05-16T11:12:52Z</time>
      </trkpt>
      <trkpt lat="45.98825" lon="4.82041">
        <ele>238</ele>
        <time>2018-05-16T11:12:53Z</time>
      </trkpt>
      <trkpt lat="45.98823" lon="4.82034">
        <ele>238</ele>
        <time>2018-05-16T11:12:54Z</time>
      </trkpt>
      <trkpt lat="45.98822" lon="4.82027">
        <ele>238</ele>
        <time>2018-05-16T11:12:55Z</time>
      </trkpt>
      <trkpt lat="45.98821" lon="4.82019">
        <ele>238</ele>
        <time>2018-05-16T11:12:56Z</time>
      </trkpt>
      <trkpt lat="45.9882" lon="4.82011">
        <ele>238</ele>
        <time>2018-05-16T11:12:57Z</time>
      </trkpt>
      <trkpt lat="45.98819" lon="4.82004">
        <ele>238</ele>
        <time>2018-05-16T11:12:58Z</time>
      </trkpt>
      <trkpt lat="45.98818" lon="4.81996">
        <ele>238</ele>
        <time>2018-05-16T11:12:59Z</time>
      </trkpt>
      <trkpt lat="45.98817" lon="4.81991">
        <ele>238</ele>
        <time>2018-05-16T11:13:00Z</time>
      </trkpt>
      <trkpt lat="45.98817" lon="4.81983">
        <ele>238</ele>
        <time>2018-05-16T11:13:01Z</time>
      </trkpt>
      <trkpt lat="45.98817" lon="4.81975">
        <ele>239</ele>
        <time>2018-05-16T11:13:02Z</time>
      </trkpt>
      <trkpt lat="45.98816" lon="4.81968">
        <ele>239</ele>
        <time>2018-05-16T11:13:03Z</time>
      </trkpt>
      <trkpt lat="45.98815" lon="4.8196">
        <ele>239</ele>
        <time>2018-05-16T11:13:04Z</time>
      </trkpt>
      <trkpt lat="45.98814" lon="4.81951">
        <ele>239</ele>
        <time>2018-05-16T11:13:05Z</time>
      </trkpt>
      <trkpt lat="45.98813" lon="4.81943">
        <ele>239</ele>
        <time>2018-05-16T11:13:06Z</time>
      </trkpt>
      <trkpt lat="45.98811" lon="4.81935">
        <ele>239</ele>
        <time>2018-05-16T11:13:07Z</time>
      </trkpt>
      <trkpt lat="45.9881" lon="4.81927">
        <ele>239</ele>
        <time>2018-05-16T11:13:08Z</time>
      </trkpt>
      <trkpt lat="45.98808" lon="4.81919">
        <ele>239</ele>
        <time>2018-05-16T11:13:09Z</time>
      </trkpt>
      <trkpt lat="45.98807" lon="4.81912">
        <ele>239</ele>
        <time>2018-05-16T11:13:10Z</time>
      </trkpt>
      <trkpt lat="45.98806" lon="4.81905">
        <ele>239</ele>
        <time>2018-05-16T11:13:11Z</time>
      </trkpt>
      <trkpt lat="45.98805" lon="4.81897">
        <ele>239</ele>
        <time>2018-05-16T11:13:12Z</time>
      </trkpt>
      <trkpt lat="45.98804" lon="4.81891">
        <ele>239</ele>
        <time>2018-05-16T11:13:13Z</time>
      </trkpt>
      <trkpt lat="45.98802" lon="4.81885">
        <ele>239</ele>
        <time>2018-05-16T11:13:14Z</time>
      </trkpt>
      <trkpt lat="45.988" lon="4.81878">
        <ele>239</ele>
        <time>2018-05-16T11:13:15Z</time>
      </trkpt>
      <trkpt lat="45.98798" lon="4.81873">
        <ele>239</ele>
        <time>2018-05-16T11:13:16Z</time>
      </trkpt>
      <trkpt lat="45.98794" lon="4.81867">
        <ele>239</ele>
        <time>2018-05-16T11:13:17Z</time>
      </trkpt>
      <trkpt lat="45.98791" lon="4.81862">
        <ele>239</ele>
        <time>2018-05-16T11:13:18Z</time>
      </trkpt>
      <trkpt lat="45.98787" lon="4.81852">
        <ele>239</ele>
        <time>2018-05-16T11:13:20Z</time>
      </trkpt>
      <trkpt lat="45.98785" lon="4.81846">
        <ele>239</ele>
        <time>2018-05-16T11:13:21Z</time>
      </trkpt>
      <trkpt lat="45.98783" lon="4.81838">
        <ele>239</ele>
        <time>2018-05-16T11:13:22Z</time>
      </trkpt>
      <trkpt lat="45.9878" lon="4.81834">
        <ele>239</ele>
        <time>2018-05-16T11:13:23Z</time>
      </trkpt>
      <trkpt lat="45.98779" lon="4.81824">
        <ele>240</ele>
        <time>2018-05-16T11:13:25Z</time>
      </trkpt>
      <trkpt lat="45.98778" lon="4.81818">
        <ele>240</ele>
        <time>2018-05-16T11:13:26Z</time>
      </trkpt>
      <trkpt lat="45.98776" lon="4.81813">
        <ele>240</ele>
        <time>2018-05-16T11:13:27Z</time>
      </trkpt>
      <trkpt lat="45.98771" lon="4.81809">
        <ele>240</ele>
        <time>2018-05-16T11:13:28Z</time>
      </trkpt>
      <trkpt lat="45.98765" lon="4.818">
        <ele>240</ele>
        <time>2018-05-16T11:13:31Z</time>
      </trkpt>
      <trkpt lat="45.98762" lon="4.81796">
        <ele>240</ele>
        <time>2018-05-16T11:13:32Z</time>
      </trkpt>
      <trkpt lat="45.98759" lon="4.8179">
        <ele>241</ele>
        <time>2018-05-16T11:13:34Z</time>
      </trkpt>
      <trkpt lat="45.98757" lon="4.81786">
        <ele>241</ele>
        <time>2018-05-16T11:13:35Z</time>
      </trkpt>
      <trkpt lat="45.98752" lon="4.81776">
        <ele>241</ele>
        <time>2018-05-16T11:13:38Z</time>
      </trkpt>
      <trkpt lat="45.9875" lon="4.81773">
        <ele>241</ele>
        <time>2018-05-16T11:13:39Z</time>
      </trkpt>
      <trkpt lat="45.98745" lon="4.81762">
        <ele>240</ele>
        <time>2018-05-16T11:13:40Z</time>
      </trkpt>
      <trkpt lat="45.98744" lon="4.81759">
        <ele>240</ele>
        <time>2018-05-16T11:13:41Z</time>
      </trkpt>
      <trkpt lat="45.98739" lon="4.81748">
        <ele>240</ele>
        <time>2018-05-16T11:13:42Z</time>
      </trkpt>
      <trkpt lat="45.98734" lon="4.81743">
        <ele>240</ele>
        <time>2018-05-16T11:13:43Z</time>
      </trkpt>
      <trkpt lat="45.98729" lon="4.8174">
        <ele>239</ele>
        <time>2018-05-16T11:13:44Z</time>
      </trkpt>
      <trkpt lat="45.98724" lon="4.81738">
        <ele>239</ele>
        <time>2018-05-16T11:13:45Z</time>
      </trkpt>
      <trkpt lat="45.9872" lon="4.81738">
        <ele>239</ele>
        <time>2018-05-16T11:13:46Z</time>
      </trkpt>
      <trkpt lat="45.98714" lon="4.81737">
        <ele>239</ele>
        <time>2018-05-16T11:13:47Z</time>
      </trkpt>
      <trkpt lat="45.9871" lon="4.81739">
        <ele>239</ele>
        <time>2018-05-16T11:13:48Z</time>
      </trkpt>
      <trkpt lat="45.98702" lon="4.81738">
        <ele>239</ele>
        <time>2018-05-16T11:13:50Z</time>
      </trkpt>
      <trkpt lat="45.98696" lon="4.81738">
        <ele>239</ele>
        <time>2018-05-16T11:13:51Z</time>
      </trkpt>
      <trkpt lat="45.98691" lon="4.81739">
        <ele>238</ele>
        <time>2018-05-16T11:13:54Z</time>
      </trkpt>
      <trkpt lat="45.98683" lon="4.8174">
        <ele>238</ele>
        <time>2018-05-16T11:13:55Z</time>
      </trkpt>
      <trkpt lat="45.98677" lon="4.81742">
        <ele>238</ele>
        <time>2018-05-16T11:13:56Z</time>
      </trkpt>
      <trkpt lat="45.98673" lon="4.81743">
        <ele>238</ele>
        <time>2018-05-16T11:13:57Z</time>
      </trkpt>
      <trkpt lat="45.98669" lon="4.81743">
        <ele>238</ele>
        <time>2018-05-16T11:13:58Z</time>
      </trkpt>
      <trkpt lat="45.98662" lon="4.81745">
        <ele>238</ele>
        <time>2018-05-16T11:13:59Z</time>
      </trkpt>
      <trkpt lat="45.98656" lon="4.81746">
        <ele>237</ele>
        <time>2018-05-16T11:14:00Z</time>
      </trkpt>
      <trkpt lat="45.98652" lon="4.81747">
        <ele>237</ele>
        <time>2018-05-16T11:14:01Z</time>
      </trkpt>
      <trkpt lat="45.98646" lon="4.81747">
        <ele>237</ele>
        <time>2018-05-16T11:14:02Z</time>
      </trkpt>
      <trkpt lat="45.98641" lon="4.81749">
        <ele>237</ele>
        <time>2018-05-16T11:14:03Z</time>
      </trkpt>
      <trkpt lat="45.98636" lon="4.8175">
        <ele>238</ele>
        <time>2018-05-16T11:14:04Z</time>
      </trkpt>
      <trkpt lat="45.98631" lon="4.81752">
        <ele>238</ele>
        <time>2018-05-16T11:14:05Z</time>
      </trkpt>
      <trkpt lat="45.98625" lon="4.81752">
        <ele>238</ele>
        <time>2018-05-16T11:14:06Z</time>
      </trkpt>
      <trkpt lat="45.98619" lon="4.81754">
        <ele>238</ele>
        <time>2018-05-16T11:14:07Z</time>
      </trkpt>
      <trkpt lat="45.98614" lon="4.81755">
        <ele>238</ele>
        <time>2018-05-16T11:14:08Z</time>
      </trkpt>
      <trkpt lat="45.98609" lon="4.81756">
        <ele>238</ele>
        <time>2018-05-16T11:14:09Z</time>
      </trkpt>
      <trkpt lat="45.98604" lon="4.81757">
        <ele>238</ele>
        <time>2018-05-16T11:14:10Z</time>
      </trkpt>
      <trkpt lat="45.98599" lon="4.81759">
        <ele>238</ele>
        <time>2018-05-16T11:14:11Z</time>
      </trkpt>
      <trkpt lat="45.98595" lon="4.81764">
        <ele>238</ele>
        <time>2018-05-16T11:14:12Z</time>
      </trkpt>
      <trkpt lat="45.98592" lon="4.81767">
        <ele>238</ele>
        <time>2018-05-16T11:14:13Z</time>
      </trkpt>
      <trkpt lat="45.98588" lon="4.81773">
        <ele>238</ele>
        <time>2018-05-16T11:14:14Z</time>
      </trkpt>
      <trkpt lat="45.98582" lon="4.8178">
        <ele>238</ele>
        <time>2018-05-16T11:14:15Z</time>
      </trkpt>
      <trkpt lat="45.98579" lon="4.81786">
        <ele>238</ele>
        <time>2018-05-16T11:14:16Z</time>
      </trkpt>
      <trkpt lat="45.98576" lon="4.8179">
        <ele>238</ele>
        <time>2018-05-16T11:14:17Z</time>
      </trkpt>
      <trkpt lat="45.98573" lon="4.81794">
        <ele>238</ele>
        <time>2018-05-16T11:14:18Z</time>
      </trkpt>
      <trkpt lat="45.98566" lon="4.81796">
        <ele>238</ele>
        <time>2018-05-16T11:14:19Z</time>
      </trkpt>
      <trkpt lat="45.98561" lon="4.818">
        <ele>238</ele>
        <time>2018-05-16T11:14:20Z</time>
      </trkpt>
      <trkpt lat="45.98555" lon="4.81801">
        <ele>238</ele>
        <time>2018-05-16T11:14:21Z</time>
      </trkpt>
      <trkpt lat="45.98549" lon="4.81802">
        <ele>238</ele>
        <time>2018-05-16T11:14:22Z</time>
      </trkpt>
      <trkpt lat="45.98546" lon="4.81802">
        <ele>238</ele>
        <time>2018-05-16T11:14:23Z</time>
      </trkpt>
      <trkpt lat="45.9854" lon="4.81799">
        <ele>238</ele>
        <time>2018-05-16T11:14:24Z</time>
      </trkpt>
      <trkpt lat="45.98536" lon="4.81794">
        <ele>238</ele>
        <time>2018-05-16T11:14:25Z</time>
      </trkpt>
      <trkpt lat="45.98532" lon="4.81788">
        <ele>238</ele>
        <time>2018-05-16T11:14:26Z</time>
      </trkpt>
      <trkpt lat="45.98529" lon="4.81784">
        <ele>238</ele>
        <time>2018-05-16T11:14:27Z</time>
      </trkpt>
      <trkpt lat="45.98526" lon="4.81779">
        <ele>238</ele>
        <time>2018-05-16T11:14:28Z</time>
      </trkpt>
      <trkpt lat="45.98523" lon="4.81774">
        <ele>238</ele>
        <time>2018-05-16T11:14:29Z</time>
      </trkpt>
      <trkpt lat="45.98516" lon="4.81766">
        <ele>237</ele>
        <time>2018-05-16T11:14:31Z</time>
      </trkpt>
      <trkpt lat="45.98512" lon="4.81761">
        <ele>237</ele>
        <time>2018-05-16T11:14:32Z</time>
      </trkpt>
      <trkpt lat="45.98508" lon="4.81757">
        <ele>237</ele>
        <time>2018-05-16T11:14:33Z</time>
      </trkpt>
      <trkpt lat="45.98504" lon="4.81754">
        <ele>237</ele>
        <time>2018-05-16T11:14:34Z</time>
      </trkpt>
      <trkpt lat="45.98499" lon="4.8175">
        <ele>237</ele>
        <time>2018-05-16T11:14:35Z</time>
      </trkpt>
      <trkpt lat="45.98495" lon="4.81747">
        <ele>237</ele>
        <time>2018-05-16T11:14:36Z</time>
      </trkpt>
      <trkpt lat="45.98488" lon="4.81739">
        <ele>238</ele>
        <time>2018-05-16T11:14:38Z</time>
      </trkpt>
      <trkpt lat="45.98485" lon="4.81735">
        <ele>238</ele>
        <time>2018-05-16T11:14:39Z</time>
      </trkpt>
      <trkpt lat="45.98481" lon="4.81732">
        <ele>238</ele>
        <time>2018-05-16T11:14:40Z</time>
      </trkpt>
      <trkpt lat="45.98477" lon="4.81729">
        <ele>238</ele>
        <time>2018-05-16T11:14:41Z</time>
      </trkpt>
      <trkpt lat="45.9847" lon="4.81722">
        <ele>239</ele>
        <time>2018-05-16T11:14:43Z</time>
      </trkpt>
      <trkpt lat="45.98466" lon="4.81719">
        <ele>239</ele>
        <time>2018-05-16T11:14:44Z</time>
      </trkpt>
      <trkpt lat="45.98462" lon="4.81712">
        <ele>239</ele>
        <time>2018-05-16T11:14:46Z</time>
      </trkpt>
      <trkpt lat="45.98458" lon="4.81706">
        <ele>239</ele>
        <time>2018-05-16T11:14:47Z</time>
      </trkpt>
      <trkpt lat="45.98452" lon="4.81698">
        <ele>239</ele>
        <time>2018-05-16T11:14:49Z</time>
      </trkpt>
      <trkpt lat="45.9845" lon="4.81693">
        <ele>239</ele>
        <time>2018-05-16T11:14:50Z</time>
      </trkpt>
      <trkpt lat="45.98445" lon="4.81684">
        <ele>239</ele>
        <time>2018-05-16T11:14:52Z</time>
      </trkpt>
      <trkpt lat="45.98443" lon="4.8168">
        <ele>239</ele>
        <time>2018-05-16T11:14:53Z</time>
      </trkpt>
      <trkpt lat="45.98437" lon="4.81672">
        <ele>240</ele>
        <time>2018-05-16T11:14:55Z</time>
      </trkpt>
      <trkpt lat="45.98433" lon="4.81669">
        <ele>240</ele>
        <time>2018-05-16T11:14:56Z</time>
      </trkpt>
      <trkpt lat="45.98426" lon="4.81664">
        <ele>240</ele>
        <time>2018-05-16T11:14:58Z</time>
      </trkpt>
      <trkpt lat="45.98421" lon="4.81663">
        <ele>240</ele>
        <time>2018-05-16T11:14:59Z</time>
      </trkpt>
      <trkpt lat="45.98412" lon="4.81662">
        <ele>241</ele>
        <time>2018-05-16T11:15:01Z</time>
      </trkpt>
      <trkpt lat="45.98408" lon="4.81663">
        <ele>241</ele>
        <time>2018-05-16T11:15:02Z</time>
      </trkpt>
      <trkpt lat="45.98399" lon="4.81664">
        <ele>242</ele>
        <time>2018-05-16T11:15:04Z</time>
      </trkpt>
      <trkpt lat="45.98395" lon="4.81665">
        <ele>242</ele>
        <time>2018-05-16T11:15:05Z</time>
      </trkpt>
      <trkpt lat="45.98387" lon="4.81667">
        <ele>243</ele>
        <time>2018-05-16T11:15:07Z</time>
      </trkpt>
      <trkpt lat="45.98383" lon="4.81669">
        <ele>243</ele>
        <time>2018-05-16T11:15:08Z</time>
      </trkpt>
      <trkpt lat="45.98374" lon="4.81671">
        <ele>244</ele>
        <time>2018-05-16T11:15:10Z</time>
      </trkpt>
      <trkpt lat="45.9837" lon="4.81672">
        <ele>244</ele>
        <time>2018-05-16T11:15:11Z</time>
      </trkpt>
      <trkpt lat="45.98362" lon="4.81673">
        <ele>244</ele>
        <time>2018-05-16T11:15:13Z</time>
      </trkpt>
      <trkpt lat="45.98358" lon="4.81673">
        <ele>245</ele>
        <time>2018-05-16T11:15:14Z</time>
      </trkpt>
      <trkpt lat="45.9835" lon="4.81672">
        <ele>245</ele>
        <time>2018-05-16T11:15:16Z</time>
      </trkpt>
      <trkpt lat="45.98346" lon="4.81671">
        <ele>245</ele>
        <time>2018-05-16T11:15:17Z</time>
      </trkpt>
      <trkpt lat="45.98339" lon="4.81669">
        <ele>246</ele>
        <time>2018-05-16T11:15:19Z</time>
      </trkpt>
      <trkpt lat="45.98336" lon="4.81667">
        <ele>246</ele>
        <time>2018-05-16T11:15:20Z</time>
      </trkpt>
      <trkpt lat="45.98328" lon="4.81663">
        <ele>246</ele>
        <time>2018-05-16T11:15:22Z</time>
      </trkpt>
      <trkpt lat="45.98325" lon="4.8166">
        <ele>246</ele>
        <time>2018-05-16T11:15:23Z</time>
      </trkpt>
      <trkpt lat="45.98318" lon="4.81655">
        <ele>246</ele>
        <time>2018-05-16T11:15:25Z</time>
      </trkpt>
      <trkpt lat="45.98315" lon="4.81652">
        <ele>246</ele>
        <time>2018-05-16T11:15:26Z</time>
      </trkpt>
      <trkpt lat="45.98308" lon="4.81646">
        <ele>246</ele>
        <time>2018-05-16T11:15:28Z</time>
      </trkpt>
      <trkpt lat="45.98304" lon="4.81643">
        <ele>246</ele>
        <time>2018-05-16T11:15:29Z</time>
      </trkpt>
      <trkpt lat="45.98296" lon="4.81636">
        <ele>247</ele>
        <time>2018-05-16T11:15:31Z</time>
      </trkpt>
      <trkpt lat="45.98293" lon="4.81632">
        <ele>247</ele>
        <time>2018-05-16T11:15:32Z</time>
      </trkpt>
      <trkpt lat="45.98286" lon="4.81624">
        <ele>247</ele>
        <time>2018-05-16T11:15:34Z</time>
      </trkpt>
      <trkpt lat="45.98283" lon="4.8162">
        <ele>247</ele>
        <time>2018-05-16T11:15:35Z</time>
      </trkpt>
      <trkpt lat="45.98277" lon="4.8161">
        <ele>247</ele>
        <time>2018-05-16T11:15:37Z</time>
      </trkpt>
      <trkpt lat="45.98275" lon="4.81605">
        <ele>247</ele>
        <time>2018-05-16T11:15:38Z</time>
      </trkpt>
      <trkpt lat="45.98271" lon="4.81595">
        <ele>247</ele>
        <time>2018-05-16T11:15:40Z</time>
      </trkpt>
      <trkpt lat="45.98269" lon="4.81589">
        <ele>247</ele>
        <time>2018-05-16T11:15:41Z</time>
      </trkpt>
      <trkpt lat="45.98266" lon="4.81578">
        <ele>247</ele>
        <time>2018-05-16T11:15:43Z</time>
      </trkpt>
      <trkpt lat="45.98264" lon="4.81572">
        <ele>247</ele>
        <time>2018-05-16T11:15:44Z</time>
      </trkpt>
      <trkpt lat="45.98261" lon="4.81561">
        <ele>247</ele>
        <time>2018-05-16T11:15:46Z</time>
      </trkpt>
      <trkpt lat="45.9826" lon="4.81555">
        <ele>247</ele>
        <time>2018-05-16T11:15:47Z</time>
      </trkpt>
      <trkpt lat="45.98256" lon="4.81544">
        <ele>247</ele>
        <time>2018-05-16T11:15:49Z</time>
      </trkpt>
      <trkpt lat="45.98254" lon="4.81537">
        <ele>247</ele>
        <time>2018-05-16T11:15:50Z</time>
      </trkpt>
      <trkpt lat="45.9825" lon="4.81526">
        <ele>247</ele>
        <time>2018-05-16T11:15:52Z</time>
      </trkpt>
      <trkpt lat="45.98249" lon="4.81519">
        <ele>249</ele>
        <time>2018-05-16T11:15:53Z</time>
      </trkpt>
      <trkpt lat="45.98245" lon="4.81509">
        <ele>249</ele>
        <time>2018-05-16T11:15:55Z</time>
      </trkpt>
      <trkpt lat="45.98243" lon="4.81503">
        <ele>249</ele>
        <time>2018-05-16T11:15:56Z</time>
      </trkpt>
      <trkpt lat="45.98238" lon="4.81493">
        <ele>249</ele>
        <time>2018-05-16T11:15:58Z</time>
      </trkpt>
      <trkpt lat="45.98237" lon="4.81488">
        <ele>249</ele>
        <time>2018-05-16T11:15:59Z</time>
      </trkpt>
      <trkpt lat="45.98234" lon="4.81478">
        <ele>249</ele>
        <time>2018-05-16T11:16:01Z</time>
      </trkpt>
      <trkpt lat="45.98232" lon="4.81472">
        <ele>249</ele>
        <time>2018-05-16T11:16:02Z</time>
      </trkpt>
      <trkpt lat="45.98228" lon="4.81461">
        <ele>249</ele>
        <time>2018-05-16T11:16:04Z</time>
      </trkpt>
      <trkpt lat="45.98226" lon="4.81455">
        <ele>249</ele>
        <time>2018-05-16T11:16:05Z</time>
      </trkpt>
      <trkpt lat="45.98223" lon="4.81444">
        <ele>249</ele>
        <time>2018-05-16T11:16:07Z</time>
      </trkpt>
      <trkpt lat="45.98221" lon="4.81439">
        <ele>249</ele>
        <time>2018-05-16T11:16:08Z</time>
      </trkpt>
      <trkpt lat="45.98217" lon="4.81427">
        <ele>249</ele>
        <time>2018-05-16T11:16:10Z</time>
      </trkpt>
      <trkpt lat="45.98216" lon="4.81422">
        <ele>249</ele>
        <time>2018-05-16T11:16:11Z</time>
      </trkpt>
      <trkpt lat="45.98215" lon="4.81416">
        <ele>248</ele>
        <time>2018-05-16T11:16:12Z</time>
      </trkpt>
      <trkpt lat="45.98213" lon="4.81409">
        <ele>248</ele>
        <time>2018-05-16T11:16:13Z</time>
      </trkpt>
      <trkpt lat="45.9821" lon="4.81403">
        <ele>248</ele>
        <time>2018-05-16T11:16:14Z</time>
      </trkpt>
      <trkpt lat="45.98209" lon="4.81396">
        <ele>248</ele>
        <time>2018-05-16T11:16:15Z</time>
      </trkpt>
      <trkpt lat="45.98206" lon="4.8139">
        <ele>248</ele>
        <time>2018-05-16T11:16:16Z</time>
      </trkpt>
      <trkpt lat="45.98204" lon="4.81383">
        <ele>248</ele>
        <time>2018-05-16T11:16:17Z</time>
      </trkpt>
      <trkpt lat="45.98203" lon="4.81375">
        <ele>248</ele>
        <time>2018-05-16T11:16:18Z</time>
      </trkpt>
      <trkpt lat="45.98201" lon="4.81367">
        <ele>248</ele>
        <time>2018-05-16T11:16:19Z</time>
      </trkpt>
      <trkpt lat="45.98199" lon="4.8136">
        <ele>248</ele>
        <time>2018-05-16T11:16:20Z</time>
      </trkpt>
      <trkpt lat="45.98197" lon="4.81353">
        <ele>248</ele>
        <time>2018-05-16T11:16:21Z</time>
      </trkpt>
      <trkpt lat="45.98195" lon="4.81345">
        <ele>248</ele>
        <time>2018-05-16T11:16:22Z</time>
      </trkpt>
      <trkpt lat="45.98194" lon="4.81337">
        <ele>248</ele>
        <time>2018-05-16T11:16:23Z</time>
      </trkpt>
      <trkpt lat="45.98193" lon="4.81327">
        <ele>247</ele>
        <time>2018-05-16T11:16:24Z</time>
      </trkpt>
      <trkpt lat="45.98192" lon="4.81319">
        <ele>247</ele>
        <time>2018-05-16T11:16:25Z</time>
      </trkpt>
      <trkpt lat="45.9819" lon="4.81309">
        <ele>247</ele>
        <time>2018-05-16T11:16:26Z</time>
      </trkpt>
      <trkpt lat="45.98188" lon="4.81301">
        <ele>247</ele>
        <time>2018-05-16T11:16:27Z</time>
      </trkpt>
      <trkpt lat="45.98186" lon="4.81293">
        <ele>247</ele>
        <time>2018-05-16T11:16:28Z</time>
      </trkpt>
      <trkpt lat="45.98184" lon="4.81285">
        <ele>247</ele>
        <time>2018-05-16T11:16:29Z</time>
      </trkpt>
      <trkpt lat="45.98182" lon="4.81276">
        <ele>247</ele>
        <time>2018-05-16T11:16:30Z</time>
      </trkpt>
      <trkpt lat="45.9818" lon="4.81268">
        <ele>247</ele>
        <time>2018-05-16T11:16:31Z</time>
      </trkpt>
      <trkpt lat="45.98179" lon="4.81259">
        <ele>247</ele>
        <time>2018-05-16T11:16:32Z</time>
      </trkpt>
      <trkpt lat="45.98177" lon="4.81251">
        <ele>247</ele>
        <time>2018-05-16T11:16:33Z</time>
      </trkpt>
      <trkpt lat="45.98176" lon="4.81242">
        <ele>247</ele>
        <time>2018-05-16T11:16:34Z</time>
      </trkpt>
      <trkpt lat="45.98174" lon="4.81234">
        <ele>246</ele>
        <time>2018-05-16T11:16:35Z</time>
      </trkpt>
      <trkpt lat="45.98172" lon="4.81225">
        <ele>246</ele>
        <time>2018-05-16T11:16:36Z</time>
      </trkpt>
      <trkpt lat="45.98171" lon="4.81216">
        <ele>246</ele>
        <time>2018-05-16T11:16:37Z</time>
      </trkpt>
      <trkpt lat="45.9817" lon="4.81208">
        <ele>246</ele>
        <time>2018-05-16T11:16:38Z</time>
      </trkpt>
      <trkpt lat="45.98169" lon="4.812">
        <ele>245</ele>
        <time>2018-05-16T11:16:39Z</time>
      </trkpt>
      <trkpt lat="45.98167" lon="4.81191">
        <ele>245</ele>
        <time>2018-05-16T11:16:40Z</time>
      </trkpt>
      <trkpt lat="45.98165" lon="4.81183">
        <ele>246</ele>
        <time>2018-05-16T11:16:41Z</time>
      </trkpt>
      <trkpt lat="45.98163" lon="4.81174">
        <ele>246</ele>
        <time>2018-05-16T11:16:42Z</time>
      </trkpt>
      <trkpt lat="45.98162" lon="4.81167">
        <ele>245</ele>
        <time>2018-05-16T11:16:43Z</time>
      </trkpt>
      <trkpt lat="45.98159" lon="4.81158">
        <ele>245</ele>
        <time>2018-05-16T11:16:44Z</time>
      </trkpt>
      <trkpt lat="45.98158" lon="4.81151">
        <ele>245</ele>
        <time>2018-05-16T11:16:45Z</time>
      </trkpt>
      <trkpt lat="45.98155" lon="4.81143">
        <ele>245</ele>
        <time>2018-05-16T11:16:46Z</time>
      </trkpt>
      <trkpt lat="45.98152" lon="4.81135">
        <ele>245</ele>
        <time>2018-05-16T11:16:47Z</time>
      </trkpt>
      <trkpt lat="45.98149" lon="4.81127">
        <ele>245</ele>
        <time>2018-05-16T11:16:48Z</time>
      </trkpt>
      <trkpt lat="45.98146" lon="4.81119">
        <ele>245</ele>
        <time>2018-05-16T11:16:49Z</time>
      </trkpt>
      <trkpt lat="45.98143" lon="4.81111">
        <ele>245</ele>
        <time>2018-05-16T11:16:50Z</time>
      </trkpt>
      <trkpt lat="45.9814" lon="4.81103">
        <ele>245</ele>
        <time>2018-05-16T11:16:51Z</time>
      </trkpt>
      <trkpt lat="45.98138" lon="4.81095">
        <ele>245</ele>
        <time>2018-05-16T11:16:52Z</time>
      </trkpt>
      <trkpt lat="45.98135" lon="4.81087">
        <ele>245</ele>
        <time>2018-05-16T11:16:53Z</time>
      </trkpt>
      <trkpt lat="45.98132" lon="4.8108">
        <ele>243</ele>
        <time>2018-05-16T11:16:54Z</time>
      </trkpt>
      <trkpt lat="45.98129" lon="4.81073">
        <ele>243</ele>
        <time>2018-05-16T11:16:55Z</time>
      </trkpt>
      <trkpt lat="45.98126" lon="4.81066">
        <ele>243</ele>
        <time>2018-05-16T11:16:56Z</time>
      </trkpt>
      <trkpt lat="45.98124" lon="4.81057">
        <ele>243</ele>
        <time>2018-05-16T11:16:57Z</time>
      </trkpt>
      <trkpt lat="45.98122" lon="4.8105">
        <ele>243</ele>
        <time>2018-05-16T11:16:58Z</time>
      </trkpt>
      <trkpt lat="45.98119" lon="4.81041">
        <ele>242</ele>
        <time>2018-05-16T11:16:59Z</time>
      </trkpt>
      <trkpt lat="45.98116" lon="4.81034">
        <ele>242</ele>
        <time>2018-05-16T11:17:00Z</time>
      </trkpt>
      <trkpt lat="45.98114" lon="4.81026">
        <ele>242</ele>
        <time>2018-05-16T11:17:01Z</time>
      </trkpt>
      <trkpt lat="45.98112" lon="4.81019">
        <ele>242</ele>
        <time>2018-05-16T11:17:02Z</time>
      </trkpt>
      <trkpt lat="45.98109" lon="4.81012">
        <ele>242</ele>
        <time>2018-05-16T11:17:03Z</time>
      </trkpt>
      <trkpt lat="45.98107" lon="4.81005">
        <ele>242</ele>
        <time>2018-05-16T11:17:04Z</time>
      </trkpt>
      <trkpt lat="45.98104" lon="4.80998">
        <ele>240</ele>
        <time>2018-05-16T11:17:05Z</time>
      </trkpt>
      <trkpt lat="45.98102" lon="4.80991">
        <ele>240</ele>
        <time>2018-05-16T11:17:06Z</time>
      </trkpt>
      <trkpt lat="45.98101" lon="4.80986">
        <ele>239</ele>
        <time>2018-05-16T11:17:07Z</time>
      </trkpt>
      <trkpt lat="45.98097" lon="4.80974">
        <ele>239</ele>
        <time>2018-05-16T11:17:09Z</time>
      </trkpt>
      <trkpt lat="45.98095" lon="4.80967">
        <ele>239</ele>
        <time>2018-05-16T11:17:10Z</time>
      </trkpt>
      <trkpt lat="45.98093" lon="4.80959">
        <ele>239</ele>
        <time>2018-05-16T11:17:11Z</time>
      </trkpt>
      <trkpt lat="45.98091" lon="4.80952">
        <ele>238</ele>
        <time>2018-05-16T11:17:12Z</time>
      </trkpt>
      <trkpt lat="45.98088" lon="4.80942">
        <ele>238</ele>
        <time>2018-05-16T11:17:13Z</time>
      </trkpt>
      <trkpt lat="45.98085" lon="4.80933">
        <ele>238</ele>
        <time>2018-05-16T11:17:14Z</time>
      </trkpt>
      <trkpt lat="45.98082" lon="4.80923">
        <ele>239</ele>
        <time>2018-05-16T11:17:15Z</time>
      </trkpt>
      <trkpt lat="45.98079" lon="4.80912">
        <ele>239</ele>
        <time>2018-05-16T11:17:16Z</time>
      </trkpt>
      <trkpt lat="45.98076" lon="4.80901">
        <ele>238</ele>
        <time>2018-05-16T11:17:17Z</time>
      </trkpt>
      <trkpt lat="45.98073" lon="4.80889">
        <ele>238</ele>
        <time>2018-05-16T11:17:18Z</time>
      </trkpt>
      <trkpt lat="45.9807" lon="4.80878">
        <ele>237</ele>
        <time>2018-05-16T11:17:19Z</time>
      </trkpt>
      <trkpt lat="45.98069" lon="4.80866">
        <ele>237</ele>
        <time>2018-05-16T11:17:20Z</time>
      </trkpt>
      <trkpt lat="45.98067" lon="4.80854">
        <ele>236</ele>
        <time>2018-05-16T11:17:21Z</time>
      </trkpt>
      <trkpt lat="45.98064" lon="4.80842">
        <ele>236</ele>
        <time>2018-05-16T11:17:22Z</time>
      </trkpt>
      <trkpt lat="45.98061" lon="4.8083">
        <ele>234</ele>
        <time>2018-05-16T11:17:23Z</time>
      </trkpt>
      <trkpt lat="45.98057" lon="4.80819">
        <ele>234</ele>
        <time>2018-05-16T11:17:24Z</time>
      </trkpt>
      <trkpt lat="45.98055" lon="4.80807">
        <ele>234</ele>
        <time>2018-05-16T11:17:25Z</time>
      </trkpt>
      <trkpt lat="45.98052" lon="4.80796">
        <ele>233</ele>
        <time>2018-05-16T11:17:26Z</time>
      </trkpt>
      <trkpt lat="45.9805" lon="4.80786">
        <ele>233</ele>
        <time>2018-05-16T11:17:27Z</time>
      </trkpt>
      <trkpt lat="45.98047" lon="4.80777">
        <ele>233</ele>
        <time>2018-05-16T11:17:28Z</time>
      </trkpt>
      <trkpt lat="45.98045" lon="4.80768">
        <ele>233</ele>
        <time>2018-05-16T11:17:29Z</time>
      </trkpt>
      <trkpt lat="45.98042" lon="4.80759">
        <ele>233</ele>
        <time>2018-05-16T11:17:30Z</time>
      </trkpt>
      <trkpt lat="45.9804" lon="4.80751">
        <ele>233</ele>
        <time>2018-05-16T11:17:31Z</time>
      </trkpt>
      <trkpt lat="45.98038" lon="4.80742">
        <ele>231</ele>
        <time>2018-05-16T11:17:32Z</time>
      </trkpt>
      <trkpt lat="45.98037" lon="4.80735">
        <ele>231</ele>
        <time>2018-05-16T11:17:33Z</time>
      </trkpt>
      <trkpt lat="45.98036" lon="4.80729">
        <ele>231</ele>
        <time>2018-05-16T11:17:34Z</time>
      </trkpt>
      <trkpt lat="45.98033" lon="4.80717">
        <ele>231</ele>
        <time>2018-05-16T11:17:37Z</time>
      </trkpt>
      <trkpt lat="45.98033" lon="4.80714">
        <ele>231</ele>
        <time>2018-05-16T11:17:38Z</time>
      </trkpt>
      <trkpt lat="45.98033" lon="4.80711">
        <ele>231</ele>
        <time>2018-05-16T11:17:39Z</time>
      </trkpt>
      <trkpt lat="45.98037" lon="4.80703">
        <ele>230</ele>
        <time>2018-05-16T11:17:40Z</time>
      </trkpt>
      <trkpt lat="45.98046" lon="4.807">
        <ele>230</ele>
        <time>2018-05-16T11:17:42Z</time>
      </trkpt>
      <trkpt lat="45.98051" lon="4.807">
        <ele>230</ele>
        <time>2018-05-16T11:17:43Z</time>
      </trkpt>
      <trkpt lat="45.98057" lon="4.80699">
        <ele>230</ele>
        <time>2018-05-16T11:17:44Z</time>
      </trkpt>
      <trkpt lat="45.98062" lon="4.80699">
        <ele>230</ele>
        <time>2018-05-16T11:17:45Z</time>
      </trkpt>
      <trkpt lat="45.98068" lon="4.80698">
        <ele>230</ele>
        <time>2018-05-16T11:17:46Z</time>
      </trkpt>
      <trkpt lat="45.98075" lon="4.80696">
        <ele>230</ele>
        <time>2018-05-16T11:17:47Z</time>
      </trkpt>
      <trkpt lat="45.98082" lon="4.80695">
        <ele>230</ele>
        <time>2018-05-16T11:17:48Z</time>
      </trkpt>
      <trkpt lat="45.98088" lon="4.80694">
        <ele>228</ele>
        <time>2018-05-16T11:17:49Z</time>
      </trkpt>
      <trkpt lat="45.98095" lon="4.80693">
        <ele>228</ele>
        <time>2018-05-16T11:17:50Z</time>
      </trkpt>
      <trkpt lat="45.98102" lon="4.80693">
        <ele>228</ele>
        <time>2018-05-16T11:17:51Z</time>
      </trkpt>
      <trkpt lat="45.98109" lon="4.80693">
        <ele>228</ele>
        <time>2018-05-16T11:17:52Z</time>
      </trkpt>
      <trkpt lat="45.98116" lon="4.80693">
        <ele>228</ele>
        <time>2018-05-16T11:17:53Z</time>
      </trkpt>
      <trkpt lat="45.98123" lon="4.80691">
        <ele>228</ele>
        <time>2018-05-16T11:17:54Z</time>
      </trkpt>
      <trkpt lat="45.9813" lon="4.80691">
        <ele>228</ele>
        <time>2018-05-16T11:17:55Z</time>
      </trkpt>
      <trkpt lat="45.98138" lon="4.8069">
        <ele>228</ele>
        <time>2018-05-16T11:17:56Z</time>
      </trkpt>
      <trkpt lat="45.98145" lon="4.80691">
        <ele>228</ele>
        <time>2018-05-16T11:17:57Z</time>
      </trkpt>
      <trkpt lat="45.98152" lon="4.8069">
        <ele>227</ele>
        <time>2018-05-16T11:17:58Z</time>
      </trkpt>
      <trkpt lat="45.98159" lon="4.80692">
        <ele>227</ele>
        <time>2018-05-16T11:17:59Z</time>
      </trkpt>
      <trkpt lat="45.98167" lon="4.80691">
        <ele>227</ele>
        <time>2018-05-16T11:18:00Z</time>
      </trkpt>
      <trkpt lat="45.98173" lon="4.8069">
        <ele>225</ele>
        <time>2018-05-16T11:18:01Z</time>
      </trkpt>
      <trkpt lat="45.98181" lon="4.80688">
        <ele>225</ele>
        <time>2018-05-16T11:18:02Z</time>
      </trkpt>
      <trkpt lat="45.98188" lon="4.80686">
        <ele>225</ele>
        <time>2018-05-16T11:18:03Z</time>
      </trkpt>
      <trkpt lat="45.98195" lon="4.80683">
        <ele>225</ele>
        <time>2018-05-16T11:18:04Z</time>
      </trkpt>
      <trkpt lat="45.98202" lon="4.80681">
        <ele>225</ele>
        <time>2018-05-16T11:18:05Z</time>
      </trkpt>
      <trkpt lat="45.98209" lon="4.80678">
        <ele>224</ele>
        <time>2018-05-16T11:18:06Z</time>
      </trkpt>
      <trkpt lat="45.98215" lon="4.80673">
        <ele>224</ele>
        <time>2018-05-16T11:18:07Z</time>
      </trkpt>
      <trkpt lat="45.98221" lon="4.80668">
        <ele>224</ele>
        <time>2018-05-16T11:18:08Z</time>
      </trkpt>
      <trkpt lat="45.98226" lon="4.80661">
        <ele>223</ele>
        <time>2018-05-16T11:18:09Z</time>
      </trkpt>
      <trkpt lat="45.9823" lon="4.80651">
        <ele>223</ele>
        <time>2018-05-16T11:18:10Z</time>
      </trkpt>
      <trkpt lat="45.98233" lon="4.80642">
        <ele>223</ele>
        <time>2018-05-16T11:18:11Z</time>
      </trkpt>
      <trkpt lat="45.98237" lon="4.80632">
        <ele>224</ele>
        <time>2018-05-16T11:18:12Z</time>
      </trkpt>
      <trkpt lat="45.9824" lon="4.80624">
        <ele>224</ele>
        <time>2018-05-16T11:18:13Z</time>
      </trkpt>
      <trkpt lat="45.98244" lon="4.80612">
        <ele>224</ele>
        <time>2018-05-16T11:18:14Z</time>
      </trkpt>
      <trkpt lat="45.98247" lon="4.80603">
        <ele>224</ele>
        <time>2018-05-16T11:18:15Z</time>
      </trkpt>
      <trkpt lat="45.9825" lon="4.80594">
        <ele>224</ele>
        <time>2018-05-16T11:18:16Z</time>
      </trkpt>
      <trkpt lat="45.98253" lon="4.80585">
        <ele>224</ele>
        <time>2018-05-16T11:18:17Z</time>
      </trkpt>
      <trkpt lat="45.98256" lon="4.80576">
        <ele>224</ele>
        <time>2018-05-16T11:18:18Z</time>
      </trkpt>
      <trkpt lat="45.98258" lon="4.80566">
        <ele>224</ele>
        <time>2018-05-16T11:18:19Z</time>
      </trkpt>
      <trkpt lat="45.9826" lon="4.80557">
        <ele>224</ele>
        <time>2018-05-16T11:18:20Z</time>
      </trkpt>
      <trkpt lat="45.98263" lon="4.80548">
        <ele>224</ele>
        <time>2018-05-16T11:18:21Z</time>
      </trkpt>
      <trkpt lat="45.98265" lon="4.8054">
        <ele>224</ele>
        <time>2018-05-16T11:18:22Z</time>
      </trkpt>
      <trkpt lat="45.98269" lon="4.80529">
        <ele>224</ele>
        <time>2018-05-16T11:18:23Z</time>
      </trkpt>
      <trkpt lat="45.98271" lon="4.80521">
        <ele>224</ele>
        <time>2018-05-16T11:18:24Z</time>
      </trkpt>
      <trkpt lat="45.98273" lon="4.80512">
        <ele>223</ele>
        <time>2018-05-16T11:18:25Z</time>
      </trkpt>
      <trkpt lat="45.98275" lon="4.80505">
        <ele>223</ele>
        <time>2018-05-16T11:18:26Z</time>
      </trkpt>
      <trkpt lat="45.98276" lon="4.80497">
        <ele>223</ele>
        <time>2018-05-16T11:18:27Z</time>
      </trkpt>
      <trkpt lat="45.98279" lon="4.8049">
        <ele>223</ele>
        <time>2018-05-16T11:18:28Z</time>
      </trkpt>
      <trkpt lat="45.98281" lon="4.80484">
        <ele>223</ele>
        <time>2018-05-16T11:18:29Z</time>
      </trkpt>
      <trkpt lat="45.98283" lon="4.80477">
        <ele>223</ele>
        <time>2018-05-16T11:18:30Z</time>
      </trkpt>
      <trkpt lat="45.98285" lon="4.80469">
        <ele>224</ele>
        <time>2018-05-16T11:18:31Z</time>
      </trkpt>
      <trkpt lat="45.98285" lon="4.80464">
        <ele>224</ele>
        <time>2018-05-16T11:18:32Z</time>
      </trkpt>
      <trkpt lat="45.98289" lon="4.80458">
        <ele>224</ele>
        <time>2018-05-16T11:18:33Z</time>
      </trkpt>
      <trkpt lat="45.9829" lon="4.80451">
        <ele>224</ele>
        <time>2018-05-16T11:18:34Z</time>
      </trkpt>
      <trkpt lat="45.98291" lon="4.80444">
        <ele>224</ele>
        <time>2018-05-16T11:18:35Z</time>
      </trkpt>
      <trkpt lat="45.98293" lon="4.80434">
        <ele>224</ele>
        <time>2018-05-16T11:18:36Z</time>
      </trkpt>
      <trkpt lat="45.98295" lon="4.80422">
        <ele>224</ele>
        <time>2018-05-16T11:18:37Z</time>
      </trkpt>
      <trkpt lat="45.98296" lon="4.80414">
        <ele>225</ele>
        <time>2018-05-16T11:18:38Z</time>
      </trkpt>
      <trkpt lat="45.98299" lon="4.80408">
        <ele>225</ele>
        <time>2018-05-16T11:18:39Z</time>
      </trkpt>
      <trkpt lat="45.98302" lon="4.804">
        <ele>225</ele>
        <time>2018-05-16T11:18:40Z</time>
      </trkpt>
      <trkpt lat="45.98302" lon="4.80392">
        <ele>225</ele>
        <time>2018-05-16T11:18:41Z</time>
      </trkpt>
      <trkpt lat="45.98304" lon="4.80384">
        <ele>225</ele>
        <time>2018-05-16T11:18:42Z</time>
      </trkpt>
      <trkpt lat="45.98304" lon="4.80373">
        <ele>225</ele>
        <time>2018-05-16T11:18:44Z</time>
      </trkpt>
      <trkpt lat="45.98306" lon="4.8037">
        <ele>225</ele>
        <time>2018-05-16T11:18:45Z</time>
      </trkpt>
      <trkpt lat="45.98309" lon="4.80362">
        <ele>225</ele>
        <time>2018-05-16T11:18:46Z</time>
      </trkpt>
      <trkpt lat="45.98309" lon="4.80356">
        <ele>226</ele>
        <time>2018-05-16T11:18:47Z</time>
      </trkpt>
      <trkpt lat="45.98311" lon="4.80348">
        <ele>226</ele>
        <time>2018-05-16T11:18:48Z</time>
      </trkpt>
      <trkpt lat="45.98312" lon="4.80343">
        <ele>226</ele>
        <time>2018-05-16T11:18:49Z</time>
      </trkpt>
      <trkpt lat="45.98313" lon="4.80335">
        <ele>227</ele>
        <time>2018-05-16T11:18:50Z</time>
      </trkpt>
      <trkpt lat="45.98315" lon="4.80327">
        <ele>227</ele>
        <time>2018-05-16T11:18:51Z</time>
      </trkpt>
      <trkpt lat="45.98316" lon="4.80319">
        <ele>227</ele>
        <time>2018-05-16T11:18:52Z</time>
      </trkpt>
      <trkpt lat="45.98318" lon="4.80314">
        <ele>227</ele>
        <time>2018-05-16T11:18:53Z</time>
      </trkpt>
      <trkpt lat="45.98321" lon="4.80306">
        <ele>227</ele>
        <time>2018-05-16T11:18:55Z</time>
      </trkpt>
      <trkpt lat="45.98322" lon="4.80298">
        <ele>227</ele>
        <time>2018-05-16T11:18:56Z</time>
      </trkpt>
      <trkpt lat="45.98323" lon="4.80292">
        <ele>227</ele>
        <time>2018-05-16T11:18:57Z</time>
      </trkpt>
      <trkpt lat="45.98325" lon="4.80285">
        <ele>227</ele>
        <time>2018-05-16T11:18:58Z</time>
      </trkpt>
      <trkpt lat="45.98327" lon="4.80273">
        <ele>227</ele>
        <time>2018-05-16T11:19:00Z</time>
      </trkpt>
      <trkpt lat="45.98327" lon="4.80267">
        <ele>228</ele>
        <time>2018-05-16T11:19:01Z</time>
      </trkpt>
      <trkpt lat="45.98328" lon="4.80261">
        <ele>228</ele>
        <time>2018-05-16T11:19:02Z</time>
      </trkpt>
      <trkpt lat="45.98331" lon="4.80252">
        <ele>229</ele>
        <time>2018-05-16T11:19:03Z</time>
      </trkpt>
      <trkpt lat="45.98333" lon="4.80242">
        <ele>229</ele>
        <time>2018-05-16T11:19:06Z</time>
      </trkpt>
      <trkpt lat="45.98335" lon="4.80228">
        <ele>230</ele>
        <time>2018-05-16T11:19:07Z</time>
      </trkpt>
      <trkpt lat="45.98334" lon="4.80218">
        <ele>230</ele>
        <time>2018-05-16T11:19:09Z</time>
      </trkpt>
      <trkpt lat="45.98332" lon="4.80213">
        <ele>227</ele>
        <time>2018-05-16T11:19:10Z</time>
      </trkpt>
      <trkpt lat="45.98329" lon="4.80205">
        <ele>227</ele>
        <time>2018-05-16T11:19:12Z</time>
      </trkpt>
      <trkpt lat="45.98326" lon="4.80197">
        <ele>227</ele>
        <time>2018-05-16T11:19:13Z</time>
      </trkpt>
      <trkpt lat="45.98323" lon="4.80191">
        <ele>227</ele>
        <time>2018-05-16T11:19:14Z</time>
      </trkpt>
      <trkpt lat="45.98321" lon="4.80186">
        <ele>227</ele>
        <time>2018-05-16T11:19:15Z</time>
      </trkpt>
      <trkpt lat="45.98319" lon="4.80177">
        <ele>227</ele>
        <time>2018-05-16T11:19:16Z</time>
      </trkpt>
      <trkpt lat="45.98317" lon="4.8017">
        <ele>227</ele>
        <time>2018-05-16T11:19:17Z</time>
      </trkpt>
      <trkpt lat="45.98313" lon="4.80159">
        <ele>228</ele>
        <time>2018-05-16T11:19:19Z</time>
      </trkpt>
      <trkpt lat="45.98312" lon="4.80153">
        <ele>228</ele>
        <time>2018-05-16T11:19:20Z</time>
      </trkpt>
      <trkpt lat="45.98309" lon="4.80147">
        <ele>228</ele>
        <time>2018-05-16T11:19:21Z</time>
      </trkpt>
      <trkpt lat="45.98307" lon="4.8014">
        <ele>228</ele>
        <time>2018-05-16T11:19:22Z</time>
      </trkpt>
      <trkpt lat="45.98305" lon="4.80134">
        <ele>228</ele>
        <time>2018-05-16T11:19:23Z</time>
      </trkpt>
      <trkpt lat="45.98303" lon="4.80127">
        <ele>228</ele>
        <time>2018-05-16T11:19:24Z</time>
      </trkpt>
      <trkpt lat="45.983" lon="4.80121">
        <ele>228</ele>
        <time>2018-05-16T11:19:25Z</time>
      </trkpt>
      <trkpt lat="45.98297" lon="4.80115">
        <ele>228</ele>
        <time>2018-05-16T11:19:26Z</time>
      </trkpt>
      <trkpt lat="45.98295" lon="4.80109">
        <ele>228</ele>
        <time>2018-05-16T11:19:27Z</time>
      </trkpt>
      <trkpt lat="45.98293" lon="4.80102">
        <ele>228</ele>
        <time>2018-05-16T11:19:28Z</time>
      </trkpt>
      <trkpt lat="45.98291" lon="4.80095">
        <ele>228</ele>
        <time>2018-05-16T11:19:29Z</time>
      </trkpt>
      <trkpt lat="45.98289" lon="4.80089">
        <ele>228</ele>
        <time>2018-05-16T11:19:30Z</time>
      </trkpt>
      <trkpt lat="45.98287" lon="4.80083">
        <ele>229</ele>
        <time>2018-05-16T11:19:31Z</time>
      </trkpt>
      <trkpt lat="45.98285" lon="4.80077">
        <ele>229</ele>
        <time>2018-05-16T11:19:32Z</time>
      </trkpt>
      <trkpt lat="45.98282" lon="4.80072">
        <ele>229</ele>
        <time>2018-05-16T11:19:33Z</time>
      </trkpt>
      <trkpt lat="45.9828" lon="4.80065">
        <ele>229</ele>
        <time>2018-05-16T11:19:34Z</time>
      </trkpt>
      <trkpt lat="45.98278" lon="4.80059">
        <ele>229</ele>
        <time>2018-05-16T11:19:35Z</time>
      </trkpt>
      <trkpt lat="45.98276" lon="4.80052">
        <ele>229</ele>
        <time>2018-05-16T11:19:36Z</time>
      </trkpt>
      <trkpt lat="45.98273" lon="4.80045">
        <ele>229</ele>
        <time>2018-05-16T11:19:37Z</time>
      </trkpt>
      <trkpt lat="45.9827" lon="4.80039">
        <ele>229</ele>
        <time>2018-05-16T11:19:38Z</time>
      </trkpt>
      <trkpt lat="45.98268" lon="4.80033">
        <ele>229</ele>
        <time>2018-05-16T11:19:39Z</time>
      </trkpt>
      <trkpt lat="45.98265" lon="4.80026">
        <ele>228</ele>
        <time>2018-05-16T11:19:40Z</time>
      </trkpt>
      <trkpt lat="45.98263" lon="4.80019">
        <ele>228</ele>
        <time>2018-05-16T11:19:41Z</time>
      </trkpt>
      <trkpt lat="45.9826" lon="4.80012">
        <ele>228</ele>
        <time>2018-05-16T11:19:42Z</time>
      </trkpt>
      <trkpt lat="45.98258" lon="4.80006">
        <ele>227</ele>
        <time>2018-05-16T11:19:43Z</time>
      </trkpt>
      <trkpt lat="45.98256" lon="4.8">
        <ele>227</ele>
        <time>2018-05-16T11:19:44Z</time>
      </trkpt>
      <trkpt lat="45.98254" lon="4.79994">
        <ele>227</ele>
        <time>2018-05-16T11:19:45Z</time>
      </trkpt>
      <trkpt lat="45.98251" lon="4.79988">
        <ele>227</ele>
        <time>2018-05-16T11:19:46Z</time>
      </trkpt>
      <trkpt lat="45.98248" lon="4.79981">
        <ele>225</ele>
        <time>2018-05-16T11:19:47Z</time>
      </trkpt>
      <trkpt lat="45.98246" lon="4.79975">
        <ele>225</ele>
        <time>2018-05-16T11:19:48Z</time>
      </trkpt>
      <trkpt lat="45.98244" lon="4.7997">
        <ele>225</ele>
        <time>2018-05-16T11:19:49Z</time>
      </trkpt>
      <trkpt lat="45.98242" lon="4.79964">
        <ele>225</ele>
        <time>2018-05-16T11:19:50Z</time>
      </trkpt>
      <trkpt lat="45.98238" lon="4.79953">
        <ele>225</ele>
        <time>2018-05-16T11:19:52Z</time>
      </trkpt>
      <trkpt lat="45.98236" lon="4.79947">
        <ele>225</ele>
        <time>2018-05-16T11:19:53Z</time>
      </trkpt>
      <trkpt lat="45.98233" lon="4.7994">
        <ele>225</ele>
        <time>2018-05-16T11:19:54Z</time>
      </trkpt>
      <trkpt lat="45.98232" lon="4.79934">
        <ele>225</ele>
        <time>2018-05-16T11:19:55Z</time>
      </trkpt>
      <trkpt lat="45.98228" lon="4.79922">
        <ele>225</ele>
        <time>2018-05-16T11:19:57Z</time>
      </trkpt>
      <trkpt lat="45.98226" lon="4.79916">
        <ele>225</ele>
        <time>2018-05-16T11:19:58Z</time>
      </trkpt>
      <trkpt lat="45.98224" lon="4.79911">
        <ele>225</ele>
        <time>2018-05-16T11:19:59Z</time>
      </trkpt>
      <trkpt lat="45.98221" lon="4.79905">
        <ele>225</ele>
        <time>2018-05-16T11:20:00Z</time>
      </trkpt>
      <trkpt lat="45.98219" lon="4.79899">
        <ele>225</ele>
        <time>2018-05-16T11:20:01Z</time>
      </trkpt>
      <trkpt lat="45.98217" lon="4.79893">
        <ele>225</ele>
        <time>2018-05-16T11:20:02Z</time>
      </trkpt>
      <trkpt lat="45.98215" lon="4.79881">
        <ele>225</ele>
        <time>2018-05-16T11:20:04Z</time>
      </trkpt>
      <trkpt lat="45.98216" lon="4.79879">
        <ele>225</ele>
        <time>2018-05-16T11:20:05Z</time>
      </trkpt>
      <trkpt lat="45.98211" lon="4.79868">
        <ele>225</ele>
        <time>2018-05-16T11:20:07Z</time>
      </trkpt>
      <trkpt lat="45.98209" lon="4.7986">
        <ele>225</ele>
        <time>2018-05-16T11:20:08Z</time>
      </trkpt>
      <trkpt lat="45.98207" lon="4.7985">
        <ele>225</ele>
        <time>2018-05-16T11:20:10Z</time>
      </trkpt>
      <trkpt lat="45.98205" lon="4.79843">
        <ele>225</ele>
        <time>2018-05-16T11:20:11Z</time>
      </trkpt>
      <trkpt lat="45.98203" lon="4.79837">
        <ele>225</ele>
        <time>2018-05-16T11:20:12Z</time>
      </trkpt>
      <trkpt lat="45.98201" lon="4.79831">
        <ele>225</ele>
        <time>2018-05-16T11:20:13Z</time>
      </trkpt>
      <trkpt lat="45.98197" lon="4.79819">
        <ele>226</ele>
        <time>2018-05-16T11:20:16Z</time>
      </trkpt>
      <trkpt lat="45.98196" lon="4.79816">
        <ele>226</ele>
        <time>2018-05-16T11:20:17Z</time>
      </trkpt>
      <trkpt lat="45.98193" lon="4.79804">
        <ele>226</ele>
        <time>2018-05-16T11:20:20Z</time>
      </trkpt>
      <trkpt lat="45.98191" lon="4.798">
        <ele>226</ele>
        <time>2018-05-16T11:20:21Z</time>
      </trkpt>
      <trkpt lat="45.9819" lon="4.79791">
        <ele>226</ele>
        <time>2018-05-16T11:20:23Z</time>
      </trkpt>
      <trkpt lat="45.98189" lon="4.79786">
        <ele>226</ele>
        <time>2018-05-16T11:20:24Z</time>
      </trkpt>
      <trkpt lat="45.9819" lon="4.79773">
        <ele>226</ele>
        <time>2018-05-16T11:20:27Z</time>
      </trkpt>
      <trkpt lat="45.98191" lon="4.7977">
        <ele>226</ele>
        <time>2018-05-16T11:20:28Z</time>
      </trkpt>
      <trkpt lat="45.98195" lon="4.79763">
        <ele>226</ele>
        <time>2018-05-16T11:20:30Z</time>
      </trkpt>
      <trkpt lat="45.98198" lon="4.7976">
        <ele>226</ele>
        <time>2018-05-16T11:20:31Z</time>
      </trkpt>
      <trkpt lat="45.98203" lon="4.79757">
        <ele>226</ele>
        <time>2018-05-16T11:20:33Z</time>
      </trkpt>
      <trkpt lat="45.98206" lon="4.79755">
        <ele>226</ele>
        <time>2018-05-16T11:20:34Z</time>
      </trkpt>
      <trkpt lat="45.98212" lon="4.79754">
        <ele>226</ele>
        <time>2018-05-16T11:20:36Z</time>
      </trkpt>
      <trkpt lat="45.98215" lon="4.79753">
        <ele>227</ele>
        <time>2018-05-16T11:20:37Z</time>
      </trkpt>
      <trkpt lat="45.98222" lon="4.79751">
        <ele>227</ele>
        <time>2018-05-16T11:20:39Z</time>
      </trkpt>
      <trkpt lat="45.98225" lon="4.79751">
        <ele>227</ele>
        <time>2018-05-16T11:20:40Z</time>
      </trkpt>
      <trkpt lat="45.98229" lon="4.7975">
        <ele>227</ele>
        <time>2018-05-16T11:20:41Z</time>
      </trkpt>
      <trkpt lat="45.98239" lon="4.79749">
        <ele>228</ele>
        <time>2018-05-16T11:20:42Z</time>
      </trkpt>
      <trkpt lat="45.98246" lon="4.79748">
        <ele>228</ele>
        <time>2018-05-16T11:20:45Z</time>
      </trkpt>
      <trkpt lat="45.98248" lon="4.79748">
        <ele>228</ele>
        <time>2018-05-16T11:20:46Z</time>
      </trkpt>
      <trkpt lat="45.98257" lon="4.79747">
        <ele>230</ele>
        <time>2018-05-16T11:20:49Z</time>
      </trkpt>
      <trkpt lat="45.9826" lon="4.79746">
        <ele>230</ele>
        <time>2018-05-16T11:20:50Z</time>
      </trkpt>
      <trkpt lat="45.98266" lon="4.79745">
        <ele>231</ele>
        <time>2018-05-16T11:20:52Z</time>
      </trkpt>
      <trkpt lat="45.98269" lon="4.79745">
        <ele>232</ele>
        <time>2018-05-16T11:20:53Z</time>
      </trkpt>
      <trkpt lat="45.98275" lon="4.79744">
        <ele>233</ele>
        <time>2018-05-16T11:20:55Z</time>
      </trkpt>
      <trkpt lat="45.98278" lon="4.79744">
        <ele>233</ele>
        <time>2018-05-16T11:20:56Z</time>
      </trkpt>
      <trkpt lat="45.98284" lon="4.79743">
        <ele>234</ele>
        <time>2018-05-16T11:20:58Z</time>
      </trkpt>
      <trkpt lat="45.98287" lon="4.79743">
        <ele>234</ele>
        <time>2018-05-16T11:20:59Z</time>
      </trkpt>
      <trkpt lat="45.98293" lon="4.79742">
        <ele>234</ele>
        <time>2018-05-16T11:21:01Z</time>
      </trkpt>
      <trkpt lat="45.98297" lon="4.79742">
        <ele>235</ele>
        <time>2018-05-16T11:21:02Z</time>
      </trkpt>
      <trkpt lat="45.98305" lon="4.79741">
        <ele>235</ele>
        <time>2018-05-16T11:21:05Z</time>
      </trkpt>
      <trkpt lat="45.98308" lon="4.79741">
        <ele>235</ele>
        <time>2018-05-16T11:21:06Z</time>
      </trkpt>
      <trkpt lat="45.98314" lon="4.7974">
        <ele>236</ele>
        <time>2018-05-16T11:21:08Z</time>
      </trkpt>
      <trkpt lat="45.98317" lon="4.7974">
        <ele>236</ele>
        <time>2018-05-16T11:21:09Z</time>
      </trkpt>
      <trkpt lat="45.98323" lon="4.79739">
        <ele>236</ele>
        <time>2018-05-16T11:21:11Z</time>
      </trkpt>
      <trkpt lat="45.98326" lon="4.79739">
        <ele>236</ele>
        <time>2018-05-16T11:21:12Z</time>
      </trkpt>
      <trkpt lat="45.98332" lon="4.79738">
        <ele>236</ele>
        <time>2018-05-16T11:21:14Z</time>
      </trkpt>
      <trkpt lat="45.98335" lon="4.79737">
        <ele>239</ele>
        <time>2018-05-16T11:21:15Z</time>
      </trkpt>
      <trkpt lat="45.98341" lon="4.79736">
        <ele>239</ele>
        <time>2018-05-16T11:21:17Z</time>
      </trkpt>
      <trkpt lat="45.98344" lon="4.79736">
        <ele>239</ele>
        <time>2018-05-16T11:21:18Z</time>
      </trkpt>
      <trkpt lat="45.98353" lon="4.79735">
        <ele>240</ele>
        <time>2018-05-16T11:21:21Z</time>
      </trkpt>
      <trkpt lat="45.98356" lon="4.79734">
        <ele>240</ele>
        <time>2018-05-16T11:21:22Z</time>
      </trkpt>
      <trkpt lat="45.98365" lon="4.79733">
        <ele>240</ele>
        <time>2018-05-16T11:21:25Z</time>
      </trkpt>
      <trkpt lat="45.98368" lon="4.79732">
        <ele>240</ele>
        <time>2018-05-16T11:21:26Z</time>
      </trkpt>
      <trkpt lat="45.98374" lon="4.79732">
        <ele>240</ele>
        <time>2018-05-16T11:21:28Z</time>
      </trkpt>
      <trkpt lat="45.98377" lon="4.79731">
        <ele>241</ele>
        <time>2018-05-16T11:21:29Z</time>
      </trkpt>
      <trkpt lat="45.98383" lon="4.79731">
        <ele>241</ele>
        <time>2018-05-16T11:21:31Z</time>
      </trkpt>
      <trkpt lat="45.98386" lon="4.79731">
        <ele>241</ele>
        <time>2018-05-16T11:21:32Z</time>
      </trkpt>
      <trkpt lat="45.98393" lon="4.7973">
        <ele>241</ele>
        <time>2018-05-16T11:21:34Z</time>
      </trkpt>
      <trkpt lat="45.98396" lon="4.7973">
        <ele>241</ele>
        <time>2018-05-16T11:21:35Z</time>
      </trkpt>
      <trkpt lat="45.984" lon="4.7973">
        <ele>241</ele>
        <time>2018-05-16T11:21:36Z</time>
      </trkpt>
      <trkpt lat="45.98409" lon="4.79729">
        <ele>241</ele>
        <time>2018-05-16T11:21:37Z</time>
      </trkpt>
      <trkpt lat="45.98413" lon="4.79728">
        <ele>241</ele>
        <time>2018-05-16T11:21:39Z</time>
      </trkpt>
      <trkpt lat="45.9842" lon="4.79727">
        <ele>242</ele>
        <time>2018-05-16T11:21:40Z</time>
      </trkpt>
      <trkpt lat="45.98426" lon="4.79727">
        <ele>242</ele>
        <time>2018-05-16T11:21:43Z</time>
      </trkpt>
      <trkpt lat="45.98434" lon="4.79727">
        <ele>242</ele>
        <time>2018-05-16T11:21:44Z</time>
      </trkpt>
      <trkpt lat="45.98441" lon="4.79728">
        <ele>242</ele>
        <time>2018-05-16T11:21:46Z</time>
      </trkpt>
      <trkpt lat="45.98443" lon="4.79727">
        <ele>242</ele>
        <time>2018-05-16T11:21:47Z</time>
      </trkpt>
      <trkpt lat="45.98448" lon="4.79727">
        <ele>242</ele>
        <time>2018-05-16T11:21:48Z</time>
      </trkpt>
      <trkpt lat="45.98452" lon="4.79727">
        <ele>243</ele>
        <time>2018-05-16T11:21:49Z</time>
      </trkpt>
      <trkpt lat="45.98459" lon="4.79727">
        <ele>243</ele>
        <time>2018-05-16T11:21:51Z</time>
      </trkpt>
      <trkpt lat="45.98463" lon="4.79727">
        <ele>243</ele>
        <time>2018-05-16T11:21:52Z</time>
      </trkpt>
      <trkpt lat="45.98471" lon="4.79727">
        <ele>243</ele>
        <time>2018-05-16T11:21:54Z</time>
      </trkpt>
      <trkpt lat="45.98475" lon="4.79727">
        <ele>243</ele>
        <time>2018-05-16T11:21:55Z</time>
      </trkpt>
      <trkpt lat="45.98483" lon="4.79728">
        <ele>243</ele>
        <time>2018-05-16T11:21:57Z</time>
      </trkpt>
      <trkpt lat="45.98487" lon="4.79728">
        <ele>243</ele>
        <time>2018-05-16T11:21:58Z</time>
      </trkpt>
      <trkpt lat="45.98495" lon="4.79728">
        <ele>243</ele>
        <time>2018-05-16T11:22:00Z</time>
      </trkpt>
      <trkpt lat="45.98498" lon="4.79729">
        <ele>243</ele>
        <time>2018-05-16T11:22:01Z</time>
      </trkpt>
      <trkpt lat="45.98506" lon="4.79728">
        <ele>244</ele>
        <time>2018-05-16T11:22:03Z</time>
      </trkpt>
      <trkpt lat="45.9851" lon="4.79728">
        <ele>244</ele>
        <time>2018-05-16T11:22:04Z</time>
      </trkpt>
      <trkpt lat="45.98518" lon="4.7973">
        <ele>244</ele>
        <time>2018-05-16T11:22:07Z</time>
      </trkpt>
      <trkpt lat="45.98522" lon="4.79729">
        <ele>244</ele>
        <time>2018-05-16T11:22:08Z</time>
      </trkpt>
      <trkpt lat="45.98529" lon="4.79725">
        <ele>244</ele>
        <time>2018-05-16T11:22:10Z</time>
      </trkpt>
      <trkpt lat="45.98533" lon="4.79723">
        <ele>244</ele>
        <time>2018-05-16T11:22:11Z</time>
      </trkpt>
      <trkpt lat="45.9854" lon="4.79718">
        <ele>244</ele>
        <time>2018-05-16T11:22:13Z</time>
      </trkpt>
      <trkpt lat="45.98544" lon="4.79716">
        <ele>244</ele>
        <time>2018-05-16T11:22:14Z</time>
      </trkpt>
      <trkpt lat="45.9855" lon="4.79711">
        <ele>244</ele>
        <time>2018-05-16T11:22:16Z</time>
      </trkpt>
      <trkpt lat="45.98555" lon="4.79707">
        <ele>244</ele>
        <time>2018-05-16T11:22:17Z</time>
      </trkpt>
      <trkpt lat="45.98561" lon="4.79702">
        <ele>244</ele>
        <time>2018-05-16T11:22:20Z</time>
      </trkpt>
      <trkpt lat="45.98563" lon="4.797">
        <ele>244</ele>
        <time>2018-05-16T11:22:21Z</time>
      </trkpt>
      <trkpt lat="45.98568" lon="4.79694">
        <ele>244</ele>
        <time>2018-05-16T11:22:23Z</time>
      </trkpt>
      <trkpt lat="45.98574" lon="4.79685">
        <ele>244</ele>
        <time>2018-05-16T11:22:24Z</time>
      </trkpt>
      <trkpt lat="45.98578" lon="4.79678">
        <ele>245</ele>
        <time>2018-05-16T11:22:27Z</time>
      </trkpt>
      <trkpt lat="45.98583" lon="4.7967">
        <ele>245</ele>
        <time>2018-05-16T11:22:28Z</time>
      </trkpt>
      <trkpt lat="45.98587" lon="4.79661">
        <ele>245</ele>
        <time>2018-05-16T11:22:30Z</time>
      </trkpt>
      <trkpt lat="45.98589" lon="4.79657">
        <ele>245</ele>
        <time>2018-05-16T11:22:31Z</time>
      </trkpt>
      <trkpt lat="45.98595" lon="4.79649">
        <ele>245</ele>
        <time>2018-05-16T11:22:33Z</time>
      </trkpt>
      <trkpt lat="45.98597" lon="4.79645">
        <ele>245</ele>
        <time>2018-05-16T11:22:34Z</time>
      </trkpt>
      <trkpt lat="45.98604" lon="4.79638">
        <ele>245</ele>
        <time>2018-05-16T11:22:36Z</time>
      </trkpt>
      <trkpt lat="45.98608" lon="4.79636">
        <ele>245</ele>
        <time>2018-05-16T11:22:37Z</time>
      </trkpt>
      <trkpt lat="45.98615" lon="4.79632">
        <ele>245</ele>
        <time>2018-05-16T11:22:39Z</time>
      </trkpt>
      <trkpt lat="45.98619" lon="4.7963">
        <ele>245</ele>
        <time>2018-05-16T11:22:40Z</time>
      </trkpt>
      <trkpt lat="45.98625" lon="4.79624">
        <ele>245</ele>
        <time>2018-05-16T11:22:42Z</time>
      </trkpt>
      <trkpt lat="45.98626" lon="4.79621">
        <ele>245</ele>
        <time>2018-05-16T11:22:43Z</time>
      </trkpt>
      <trkpt lat="45.98628" lon="4.79615">
        <ele>245</ele>
        <time>2018-05-16T11:22:44Z</time>
      </trkpt>
      <trkpt lat="45.98629" lon="4.79609">
        <ele>245</ele>
        <time>2018-05-16T11:22:45Z</time>
      </trkpt>
      <trkpt lat="45.98628" lon="4.79597">
        <ele>245</ele>
        <time>2018-05-16T11:22:47Z</time>
      </trkpt>
      <trkpt lat="45.98623" lon="4.79591">
        <ele>245</ele>
        <time>2018-05-16T11:22:48Z</time>
      </trkpt>
      <trkpt lat="45.9862" lon="4.79586">
        <ele>245</ele>
        <time>2018-05-16T11:22:49Z</time>
      </trkpt>
      <trkpt lat="45.98616" lon="4.79582">
        <ele>245</ele>
        <time>2018-05-16T11:22:50Z</time>
      </trkpt>
      <trkpt lat="45.98611" lon="4.7958">
        <ele>245</ele>
        <time>2018-05-16T11:22:51Z</time>
      </trkpt>
      <trkpt lat="45.98607" lon="4.7958">
        <ele>245</ele>
        <time>2018-05-16T11:22:52Z</time>
      </trkpt>
      <trkpt lat="45.98602" lon="4.79581">
        <ele>245</ele>
        <time>2018-05-16T11:22:53Z</time>
      </trkpt>
      <trkpt lat="45.98597" lon="4.79582">
        <ele>245</ele>
        <time>2018-05-16T11:22:54Z</time>
      </trkpt>
      <trkpt lat="45.98592" lon="4.79583">
        <ele>245</ele>
        <time>2018-05-16T11:22:55Z</time>
      </trkpt>
      <trkpt lat="45.98587" lon="4.79582">
        <ele>245</ele>
        <time>2018-05-16T11:22:56Z</time>
      </trkpt>
      <trkpt lat="45.98582" lon="4.7958">
        <ele>245</ele>
        <time>2018-05-16T11:22:57Z</time>
      </trkpt>
      <trkpt lat="45.98577" lon="4.79578">
        <ele>245</ele>
        <time>2018-05-16T11:22:58Z</time>
      </trkpt>
      <trkpt lat="45.98572" lon="4.79575">
        <ele>245</ele>
        <time>2018-05-16T11:22:59Z</time>
      </trkpt>
      <trkpt lat="45.98568" lon="4.79572">
        <ele>244</ele>
        <time>2018-05-16T11:23:00Z</time>
      </trkpt>
      <trkpt lat="45.98563" lon="4.79568">
        <ele>244</ele>
        <time>2018-05-16T11:23:01Z</time>
      </trkpt>
      <trkpt lat="45.98559" lon="4.79563">
        <ele>244</ele>
        <time>2018-05-16T11:23:02Z</time>
      </trkpt>
      <trkpt lat="45.98555" lon="4.79557">
        <ele>244</ele>
        <time>2018-05-16T11:23:03Z</time>
      </trkpt>
      <trkpt lat="45.98552" lon="4.79551">
        <ele>244</ele>
        <time>2018-05-16T11:23:04Z</time>
      </trkpt>
      <trkpt lat="45.98548" lon="4.79546">
        <ele>244</ele>
        <time>2018-05-16T11:23:05Z</time>
      </trkpt>
      <trkpt lat="45.98545" lon="4.7954">
        <ele>244</ele>
        <time>2018-05-16T11:23:06Z</time>
      </trkpt>
      <trkpt lat="45.98542" lon="4.79534">
        <ele>244</ele>
        <time>2018-05-16T11:23:07Z</time>
      </trkpt>
      <trkpt lat="45.98539" lon="4.79527">
        <ele>244</ele>
        <time>2018-05-16T11:23:08Z</time>
      </trkpt>
      <trkpt lat="45.98536" lon="4.79521">
        <ele>244</ele>
        <time>2018-05-16T11:23:09Z</time>
      </trkpt>
      <trkpt lat="45.98534" lon="4.79513">
        <ele>244</ele>
        <time>2018-05-16T11:23:10Z</time>
      </trkpt>
      <trkpt lat="45.98532" lon="4.79506">
        <ele>244</ele>
        <time>2018-05-16T11:23:11Z</time>
      </trkpt>
      <trkpt lat="45.98531" lon="4.79498">
        <ele>244</ele>
        <time>2018-05-16T11:23:12Z</time>
      </trkpt>
      <trkpt lat="45.98529" lon="4.79491">
        <ele>244</ele>
        <time>2018-05-16T11:23:13Z</time>
      </trkpt>
      <trkpt lat="45.98529" lon="4.79484">
        <ele>244</ele>
        <time>2018-05-16T11:23:14Z</time>
      </trkpt>
      <trkpt lat="45.98528" lon="4.79477">
        <ele>244</ele>
        <time>2018-05-16T11:23:15Z</time>
      </trkpt>
      <trkpt lat="45.98528" lon="4.7947">
        <ele>244</ele>
        <time>2018-05-16T11:23:16Z</time>
      </trkpt>
      <trkpt lat="45.98528" lon="4.79462">
        <ele>244</ele>
        <time>2018-05-16T11:23:17Z</time>
      </trkpt>
      <trkpt lat="45.98528" lon="4.79454">
        <ele>244</ele>
        <time>2018-05-16T11:23:18Z</time>
      </trkpt>
      <trkpt lat="45.98528" lon="4.79447">
        <ele>244</ele>
        <time>2018-05-16T11:23:19Z</time>
      </trkpt>
      <trkpt lat="45.98528" lon="4.79439">
        <ele>244</ele>
        <time>2018-05-16T11:23:20Z</time>
      </trkpt>
      <trkpt lat="45.98528" lon="4.79433">
        <ele>244</ele>
        <time>2018-05-16T11:23:21Z</time>
      </trkpt>
      <trkpt lat="45.98527" lon="4.79426">
        <ele>244</ele>
        <time>2018-05-16T11:23:22Z</time>
      </trkpt>
      <trkpt lat="45.98527" lon="4.7942">
        <ele>244</ele>
        <time>2018-05-16T11:23:23Z</time>
      </trkpt>
      <trkpt lat="45.98526" lon="4.79413">
        <ele>244</ele>
        <time>2018-05-16T11:23:24Z</time>
      </trkpt>
      <trkpt lat="45.98525" lon="4.79406">
        <ele>244</ele>
        <time>2018-05-16T11:23:25Z</time>
      </trkpt>
      <trkpt lat="45.98523" lon="4.794">
        <ele>244</ele>
        <time>2018-05-16T11:23:26Z</time>
      </trkpt>
      <trkpt lat="45.98522" lon="4.79394">
        <ele>244</ele>
        <time>2018-05-16T11:23:27Z</time>
      </trkpt>
      <trkpt lat="45.98521" lon="4.79387">
        <ele>244</ele>
        <time>2018-05-16T11:23:28Z</time>
      </trkpt>
      <trkpt lat="45.9852" lon="4.7938">
        <ele>244</ele>
        <time>2018-05-16T11:23:29Z</time>
      </trkpt>
      <trkpt lat="45.98519" lon="4.79373">
        <ele>243</ele>
        <time>2018-05-16T11:23:30Z</time>
      </trkpt>
      <trkpt lat="45.98518" lon="4.79365">
        <ele>243</ele>
        <time>2018-05-16T11:23:31Z</time>
      </trkpt>
      <trkpt lat="45.98516" lon="4.79357">
        <ele>243</ele>
        <time>2018-05-16T11:23:32Z</time>
      </trkpt>
      <trkpt lat="45.98514" lon="4.7935">
        <ele>243</ele>
        <time>2018-05-16T11:23:33Z</time>
      </trkpt>
      <trkpt lat="45.98512" lon="4.79343">
        <ele>243</ele>
        <time>2018-05-16T11:23:34Z</time>
      </trkpt>
      <trkpt lat="45.9851" lon="4.79337">
        <ele>243</ele>
        <time>2018-05-16T11:23:35Z</time>
      </trkpt>
      <trkpt lat="45.98509" lon="4.79329">
        <ele>243</ele>
        <time>2018-05-16T11:23:36Z</time>
      </trkpt>
      <trkpt lat="45.98507" lon="4.79323">
        <ele>243</ele>
        <time>2018-05-16T11:23:37Z</time>
      </trkpt>
      <trkpt lat="45.98505" lon="4.79316">
        <ele>243</ele>
        <time>2018-05-16T11:23:38Z</time>
      </trkpt>
      <trkpt lat="45.98502" lon="4.7931">
        <ele>243</ele>
        <time>2018-05-16T11:23:39Z</time>
      </trkpt>
      <trkpt lat="45.98499" lon="4.79303">
        <ele>243</ele>
        <time>2018-05-16T11:23:40Z</time>
      </trkpt>
      <trkpt lat="45.98497" lon="4.79297">
        <ele>243</ele>
        <time>2018-05-16T11:23:41Z</time>
      </trkpt>
      <trkpt lat="45.98494" lon="4.7929">
        <ele>243</ele>
        <time>2018-05-16T11:23:42Z</time>
      </trkpt>
      <trkpt lat="45.9849" lon="4.79283">
        <ele>243</ele>
        <time>2018-05-16T11:23:43Z</time>
      </trkpt>
      <trkpt lat="45.98487" lon="4.79277">
        <ele>243</ele>
        <time>2018-05-16T11:23:44Z</time>
      </trkpt>
      <trkpt lat="45.98485" lon="4.7927">
        <ele>243</ele>
        <time>2018-05-16T11:23:45Z</time>
      </trkpt>
      <trkpt lat="45.98482" lon="4.79264">
        <ele>243</ele>
        <time>2018-05-16T11:23:46Z</time>
      </trkpt>
      <trkpt lat="45.98479" lon="4.79258">
        <ele>243</ele>
        <time>2018-05-16T11:23:47Z</time>
      </trkpt>
      <trkpt lat="45.98476" lon="4.79253">
        <ele>243</ele>
        <time>2018-05-16T11:23:48Z</time>
      </trkpt>
      <trkpt lat="45.98473" lon="4.79247">
        <ele>243</ele>
        <time>2018-05-16T11:23:49Z</time>
      </trkpt>
      <trkpt lat="45.9847" lon="4.79241">
        <ele>243</ele>
        <time>2018-05-16T11:23:50Z</time>
      </trkpt>
      <trkpt lat="45.98467" lon="4.79236">
        <ele>243</ele>
        <time>2018-05-16T11:23:51Z</time>
      </trkpt>
      <trkpt lat="45.98464" lon="4.79231">
        <ele>243</ele>
        <time>2018-05-16T11:23:52Z</time>
      </trkpt>
      <trkpt lat="45.98461" lon="4.79225">
        <ele>243</ele>
        <time>2018-05-16T11:23:53Z</time>
      </trkpt>
      <trkpt lat="45.98458" lon="4.79219">
        <ele>243</ele>
        <time>2018-05-16T11:23:54Z</time>
      </trkpt>
      <trkpt lat="45.98455" lon="4.79212">
        <ele>242</ele>
        <time>2018-05-16T11:23:55Z</time>
      </trkpt>
      <trkpt lat="45.98451" lon="4.79205">
        <ele>242</ele>
        <time>2018-05-16T11:23:56Z</time>
      </trkpt>
      <trkpt lat="45.98448" lon="4.792">
        <ele>242</ele>
        <time>2018-05-16T11:23:57Z</time>
      </trkpt>
      <trkpt lat="45.98444" lon="4.79194">
        <ele>242</ele>
        <time>2018-05-16T11:23:58Z</time>
      </trkpt>
      <trkpt lat="45.98441" lon="4.79188">
        <ele>242</ele>
        <time>2018-05-16T11:23:59Z</time>
      </trkpt>
      <trkpt lat="45.98438" lon="4.79182">
        <ele>242</ele>
        <time>2018-05-16T11:24:00Z</time>
      </trkpt>
      <trkpt lat="45.98434" lon="4.79176">
        <ele>242</ele>
        <time>2018-05-16T11:24:01Z</time>
      </trkpt>
      <trkpt lat="45.98431" lon="4.7917">
        <ele>242</ele>
        <time>2018-05-16T11:24:02Z</time>
      </trkpt>
      <trkpt lat="45.98428" lon="4.79163">
        <ele>242</ele>
        <time>2018-05-16T11:24:03Z</time>
      </trkpt>
      <trkpt lat="45.98424" lon="4.79157">
        <ele>242</ele>
        <time>2018-05-16T11:24:04Z</time>
      </trkpt>
      <trkpt lat="45.98421" lon="4.7915">
        <ele>242</ele>
        <time>2018-05-16T11:24:05Z</time>
      </trkpt>
      <trkpt lat="45.98416" lon="4.79144">
        <ele>242</ele>
        <time>2018-05-16T11:24:06Z</time>
      </trkpt>
      <trkpt lat="45.98412" lon="4.79138">
        <ele>242</ele>
        <time>2018-05-16T11:24:07Z</time>
      </trkpt>
      <trkpt lat="45.9841" lon="4.79133">
        <ele>242</ele>
        <time>2018-05-16T11:24:08Z</time>
      </trkpt>
      <trkpt lat="45.98406" lon="4.79127">
        <ele>242</ele>
        <time>2018-05-16T11:24:09Z</time>
      </trkpt>
      <trkpt lat="45.98402" lon="4.79121">
        <ele>242</ele>
        <time>2018-05-16T11:24:10Z</time>
      </trkpt>
      <trkpt lat="45.98399" lon="4.79114">
        <ele>242</ele>
        <time>2018-05-16T11:24:11Z</time>
      </trkpt>
      <trkpt lat="45.98396" lon="4.79107">
        <ele>242</ele>
        <time>2018-05-16T11:24:12Z</time>
      </trkpt>
      <trkpt lat="45.98392" lon="4.791">
        <ele>242</ele>
        <time>2018-05-16T11:24:13Z</time>
      </trkpt>
      <trkpt lat="45.98388" lon="4.79093">
        <ele>242</ele>
        <time>2018-05-16T11:24:14Z</time>
      </trkpt>
      <trkpt lat="45.98384" lon="4.79086">
        <ele>242</ele>
        <time>2018-05-16T11:24:15Z</time>
      </trkpt>
      <trkpt lat="45.98381" lon="4.7908">
        <ele>242</ele>
        <time>2018-05-16T11:24:16Z</time>
      </trkpt>
      <trkpt lat="45.98377" lon="4.79074">
        <ele>242</ele>
        <time>2018-05-16T11:24:17Z</time>
      </trkpt>
      <trkpt lat="45.98373" lon="4.79068">
        <ele>242</ele>
        <time>2018-05-16T11:24:18Z</time>
      </trkpt>
      <trkpt lat="45.9837" lon="4.79061">
        <ele>242</ele>
        <time>2018-05-16T11:24:19Z</time>
      </trkpt>
      <trkpt lat="45.98366" lon="4.79054">
        <ele>242</ele>
        <time>2018-05-16T11:24:20Z</time>
      </trkpt>
      <trkpt lat="45.98363" lon="4.79048">
        <ele>242</ele>
        <time>2018-05-16T11:24:21Z</time>
      </trkpt>
      <trkpt lat="45.98359" lon="4.79042">
        <ele>242</ele>
        <time>2018-05-16T11:24:22Z</time>
      </trkpt>
      <trkpt lat="45.98356" lon="4.79036">
        <ele>242</ele>
        <time>2018-05-16T11:24:23Z</time>
      </trkpt>
      <trkpt lat="45.98351" lon="4.7903">
        <ele>242</ele>
        <time>2018-05-16T11:24:24Z</time>
      </trkpt>
      <trkpt lat="45.98347" lon="4.79025">
        <ele>242</ele>
        <time>2018-05-16T11:24:25Z</time>
      </trkpt>
      <trkpt lat="45.98343" lon="4.7902">
        <ele>242</ele>
        <time>2018-05-16T11:24:26Z</time>
      </trkpt>
      <trkpt lat="45.98337" lon="4.79016">
        <ele>242</ele>
        <time>2018-05-16T11:24:27Z</time>
      </trkpt>
      <trkpt lat="45.98332" lon="4.79013">
        <ele>242</ele>
        <time>2018-05-16T11:24:28Z</time>
      </trkpt>
      <trkpt lat="45.98327" lon="4.7901">
        <ele>242</ele>
        <time>2018-05-16T11:24:29Z</time>
      </trkpt>
      <trkpt lat="45.98322" lon="4.79007">
        <ele>242</ele>
        <time>2018-05-16T11:24:30Z</time>
      </trkpt>
      <trkpt lat="45.98317" lon="4.79005">
        <ele>242</ele>
        <time>2018-05-16T11:24:31Z</time>
      </trkpt>
      <trkpt lat="45.98313" lon="4.79002">
        <ele>242</ele>
        <time>2018-05-16T11:24:32Z</time>
      </trkpt>
      <trkpt lat="45.98308" lon="4.78999">
        <ele>241</ele>
        <time>2018-05-16T11:24:33Z</time>
      </trkpt>
      <trkpt lat="45.98303" lon="4.78997">
        <ele>241</ele>
        <time>2018-05-16T11:24:34Z</time>
      </trkpt>
      <trkpt lat="45.98297" lon="4.78993">
        <ele>241</ele>
        <time>2018-05-16T11:24:35Z</time>
      </trkpt>
      <trkpt lat="45.98292" lon="4.78989">
        <ele>241</ele>
        <time>2018-05-16T11:24:36Z</time>
      </trkpt>
      <trkpt lat="45.98286" lon="4.78986">
        <ele>241</ele>
        <time>2018-05-16T11:24:37Z</time>
      </trkpt>
      <trkpt lat="45.9828" lon="4.78983">
        <ele>241</ele>
        <time>2018-05-16T11:24:38Z</time>
      </trkpt>
      <trkpt lat="45.98276" lon="4.7898">
        <ele>241</ele>
        <time>2018-05-16T11:24:39Z</time>
      </trkpt>
      <trkpt lat="45.9827" lon="4.78976">
        <ele>241</ele>
        <time>2018-05-16T11:24:40Z</time>
      </trkpt>
      <trkpt lat="45.98265" lon="4.78973">
        <ele>241</ele>
        <time>2018-05-16T11:24:41Z</time>
      </trkpt>
      <trkpt lat="45.98259" lon="4.7897">
        <ele>241</ele>
        <time>2018-05-16T11:24:42Z</time>
      </trkpt>
      <trkpt lat="45.98253" lon="4.78967">
        <ele>241</ele>
        <time>2018-05-16T11:24:43Z</time>
      </trkpt>
      <trkpt lat="45.98248" lon="4.78965">
        <ele>241</ele>
        <time>2018-05-16T11:24:44Z</time>
      </trkpt>
      <trkpt lat="45.98242" lon="4.78961">
        <ele>241</ele>
        <time>2018-05-16T11:24:45Z</time>
      </trkpt>
      <trkpt lat="45.98236" lon="4.78958">
        <ele>241</ele>
        <time>2018-05-16T11:24:46Z</time>
      </trkpt>
      <trkpt lat="45.9823" lon="4.78954">
        <ele>241</ele>
        <time>2018-05-16T11:24:47Z</time>
      </trkpt>
      <trkpt lat="45.98224" lon="4.7895">
        <ele>241</ele>
        <time>2018-05-16T11:24:48Z</time>
      </trkpt>
      <trkpt lat="45.98218" lon="4.78947">
        <ele>241</ele>
        <time>2018-05-16T11:24:49Z</time>
      </trkpt>
      <trkpt lat="45.98211" lon="4.78942">
        <ele>241</ele>
        <time>2018-05-16T11:24:50Z</time>
      </trkpt>
      <trkpt lat="45.98205" lon="4.7894">
        <ele>241</ele>
        <time>2018-05-16T11:24:51Z</time>
      </trkpt>
      <trkpt lat="45.98199" lon="4.78937">
        <ele>241</ele>
        <time>2018-05-16T11:24:52Z</time>
      </trkpt>
      <trkpt lat="45.98193" lon="4.78934">
        <ele>241</ele>
        <time>2018-05-16T11:24:53Z</time>
      </trkpt>
      <trkpt lat="45.98187" lon="4.7893">
        <ele>241</ele>
        <time>2018-05-16T11:24:54Z</time>
      </trkpt>
      <trkpt lat="45.98183" lon="4.78925">
        <ele>240</ele>
        <time>2018-05-16T11:24:55Z</time>
      </trkpt>
      <trkpt lat="45.98177" lon="4.78922">
        <ele>240</ele>
        <time>2018-05-16T11:24:56Z</time>
      </trkpt>
      <trkpt lat="45.98173" lon="4.78919">
        <ele>240</ele>
        <time>2018-05-16T11:24:57Z</time>
      </trkpt>
      <trkpt lat="45.98167" lon="4.78916">
        <ele>240</ele>
        <time>2018-05-16T11:24:58Z</time>
      </trkpt>
      <trkpt lat="45.98163" lon="4.78912">
        <ele>240</ele>
        <time>2018-05-16T11:24:59Z</time>
      </trkpt>
      <trkpt lat="45.98158" lon="4.78909">
        <ele>240</ele>
        <time>2018-05-16T11:25:00Z</time>
      </trkpt>
      <trkpt lat="45.98154" lon="4.78907">
        <ele>240</ele>
        <time>2018-05-16T11:25:01Z</time>
      </trkpt>
      <trkpt lat="45.98148" lon="4.78904">
        <ele>240</ele>
        <time>2018-05-16T11:25:02Z</time>
      </trkpt>
      <trkpt lat="45.98143" lon="4.789">
        <ele>240</ele>
        <time>2018-05-16T11:25:03Z</time>
      </trkpt>
      <trkpt lat="45.98138" lon="4.78895">
        <ele>240</ele>
        <time>2018-05-16T11:25:04Z</time>
      </trkpt>
      <trkpt lat="45.98132" lon="4.78893">
        <ele>240</ele>
        <time>2018-05-16T11:25:05Z</time>
      </trkpt>
      <trkpt lat="45.98126" lon="4.7889">
        <ele>240</ele>
        <time>2018-05-16T11:25:06Z</time>
      </trkpt>
      <trkpt lat="45.9812" lon="4.78888">
        <ele>240</ele>
        <time>2018-05-16T11:25:07Z</time>
      </trkpt>
      <trkpt lat="45.98116" lon="4.78887">
        <ele>240</ele>
        <time>2018-05-16T11:25:08Z</time>
      </trkpt>
      <trkpt lat="45.98111" lon="4.78883">
        <ele>240</ele>
        <time>2018-05-16T11:25:09Z</time>
      </trkpt>
      <trkpt lat="45.98106" lon="4.7888">
        <ele>240</ele>
        <time>2018-05-16T11:25:10Z</time>
      </trkpt>
      <trkpt lat="45.98102" lon="4.78876">
        <ele>240</ele>
        <time>2018-05-16T11:25:11Z</time>
      </trkpt>
      <trkpt lat="45.98096" lon="4.78874">
        <ele>239</ele>
        <time>2018-05-16T11:25:12Z</time>
      </trkpt>
      <trkpt lat="45.9809" lon="4.78871">
        <ele>239</ele>
        <time>2018-05-16T11:25:13Z</time>
      </trkpt>
      <trkpt lat="45.98085" lon="4.78866">
        <ele>239</ele>
        <time>2018-05-16T11:25:14Z</time>
      </trkpt>
      <trkpt lat="45.9808" lon="4.78861">
        <ele>239</ele>
        <time>2018-05-16T11:25:15Z</time>
      </trkpt>
      <trkpt lat="45.98075" lon="4.78858">
        <ele>239</ele>
        <time>2018-05-16T11:25:16Z</time>
      </trkpt>
      <trkpt lat="45.98069" lon="4.78854">
        <ele>239</ele>
        <time>2018-05-16T11:25:17Z</time>
      </trkpt>
      <trkpt lat="45.98063" lon="4.78849">
        <ele>239</ele>
        <time>2018-05-16T11:25:18Z</time>
      </trkpt>
      <trkpt lat="45.98057" lon="4.78845">
        <ele>239</ele>
        <time>2018-05-16T11:25:19Z</time>
      </trkpt>
      <trkpt lat="45.98052" lon="4.78841">
        <ele>239</ele>
        <time>2018-05-16T11:25:20Z</time>
      </trkpt>
      <trkpt lat="45.98044" lon="4.78836">
        <ele>238</ele>
        <time>2018-05-16T11:25:22Z</time>
      </trkpt>
      <trkpt lat="45.98038" lon="4.78832">
        <ele>238</ele>
        <time>2018-05-16T11:25:23Z</time>
      </trkpt>
      <trkpt lat="45.98032" lon="4.78829">
        <ele>238</ele>
        <time>2018-05-16T11:25:24Z</time>
      </trkpt>
      <trkpt lat="45.98028" lon="4.78825">
        <ele>238</ele>
        <time>2018-05-16T11:25:25Z</time>
      </trkpt>
      <trkpt lat="45.98023" lon="4.78822">
        <ele>238</ele>
        <time>2018-05-16T11:25:26Z</time>
      </trkpt>
      <trkpt lat="45.98018" lon="4.78817">
        <ele>238</ele>
        <time>2018-05-16T11:25:27Z</time>
      </trkpt>
      <trkpt lat="45.98012" lon="4.78814">
        <ele>238</ele>
        <time>2018-05-16T11:25:28Z</time>
      </trkpt>
      <trkpt lat="45.98006" lon="4.7881">
        <ele>238</ele>
        <time>2018-05-16T11:25:29Z</time>
      </trkpt>
      <trkpt lat="45.98001" lon="4.78807">
        <ele>238</ele>
        <time>2018-05-16T11:25:30Z</time>
      </trkpt>
      <trkpt lat="45.97996" lon="4.78802">
        <ele>238</ele>
        <time>2018-05-16T11:25:31Z</time>
      </trkpt>
      <trkpt lat="45.97991" lon="4.78798">
        <ele>238</ele>
        <time>2018-05-16T11:25:32Z</time>
      </trkpt>
      <trkpt lat="45.97986" lon="4.78794">
        <ele>238</ele>
        <time>2018-05-16T11:25:33Z</time>
      </trkpt>
      <trkpt lat="45.9798" lon="4.78791">
        <ele>238</ele>
        <time>2018-05-16T11:25:34Z</time>
      </trkpt>
      <trkpt lat="45.97976" lon="4.78787">
        <ele>238</ele>
        <time>2018-05-16T11:25:35Z</time>
      </trkpt>
      <trkpt lat="45.97971" lon="4.78783">
        <ele>238</ele>
        <time>2018-05-16T11:25:36Z</time>
      </trkpt>
      <trkpt lat="45.97966" lon="4.78779">
        <ele>238</ele>
        <time>2018-05-16T11:25:37Z</time>
      </trkpt>
      <trkpt lat="45.9796" lon="4.78776">
        <ele>238</ele>
        <time>2018-05-16T11:25:38Z</time>
      </trkpt>
      <trkpt lat="45.97955" lon="4.78771">
        <ele>238</ele>
        <time>2018-05-16T11:25:39Z</time>
      </trkpt>
      <trkpt lat="45.97949" lon="4.78766">
        <ele>238</ele>
        <time>2018-05-16T11:25:40Z</time>
      </trkpt>
      <trkpt lat="45.97943" lon="4.78763">
        <ele>238</ele>
        <time>2018-05-16T11:25:41Z</time>
      </trkpt>
      <trkpt lat="45.97938" lon="4.78759">
        <ele>238</ele>
        <time>2018-05-16T11:25:42Z</time>
      </trkpt>
      <trkpt lat="45.97932" lon="4.78754">
        <ele>238</ele>
        <time>2018-05-16T11:25:43Z</time>
      </trkpt>
      <trkpt lat="45.97927" lon="4.78751">
        <ele>237</ele>
        <time>2018-05-16T11:25:44Z</time>
      </trkpt>
      <trkpt lat="45.97922" lon="4.78747">
        <ele>237</ele>
        <time>2018-05-16T11:25:45Z</time>
      </trkpt>
      <trkpt lat="45.97916" lon="4.78744">
        <ele>237</ele>
        <time>2018-05-16T11:25:46Z</time>
      </trkpt>
      <trkpt lat="45.97911" lon="4.7874">
        <ele>237</ele>
        <time>2018-05-16T11:25:47Z</time>
      </trkpt>
      <trkpt lat="45.97905" lon="4.78736">
        <ele>237</ele>
        <time>2018-05-16T11:25:48Z</time>
      </trkpt>
      <trkpt lat="45.97899" lon="4.78731">
        <ele>237</ele>
        <time>2018-05-16T11:25:49Z</time>
      </trkpt>
      <trkpt lat="45.97894" lon="4.78726">
        <ele>236</ele>
        <time>2018-05-16T11:25:50Z</time>
      </trkpt>
      <trkpt lat="45.97888" lon="4.78722">
        <ele>236</ele>
        <time>2018-05-16T11:25:51Z</time>
      </trkpt>
      <trkpt lat="45.97883" lon="4.78718">
        <ele>236</ele>
        <time>2018-05-16T11:25:52Z</time>
      </trkpt>
      <trkpt lat="45.97878" lon="4.78715">
        <ele>236</ele>
        <time>2018-05-16T11:25:53Z</time>
      </trkpt>
      <trkpt lat="45.97873" lon="4.78711">
        <ele>236</ele>
        <time>2018-05-16T11:25:54Z</time>
      </trkpt>
      <trkpt lat="45.97867" lon="4.78707">
        <ele>236</ele>
        <time>2018-05-16T11:25:55Z</time>
      </trkpt>
      <trkpt lat="45.97862" lon="4.78704">
        <ele>236</ele>
        <time>2018-05-16T11:25:56Z</time>
      </trkpt>
      <trkpt lat="45.97856" lon="4.78701">
        <ele>236</ele>
        <time>2018-05-16T11:25:57Z</time>
      </trkpt>
      <trkpt lat="45.9785" lon="4.78697">
        <ele>236</ele>
        <time>2018-05-16T11:25:58Z</time>
      </trkpt>
      <trkpt lat="45.97845" lon="4.78694">
        <ele>236</ele>
        <time>2018-05-16T11:25:59Z</time>
      </trkpt>
      <trkpt lat="45.9784" lon="4.78691">
        <ele>236</ele>
        <time>2018-05-16T11:26:00Z</time>
      </trkpt>
      <trkpt lat="45.97836" lon="4.78689">
        <ele>236</ele>
        <time>2018-05-16T11:26:01Z</time>
      </trkpt>
      <trkpt lat="45.9783" lon="4.78685">
        <ele>235</ele>
        <time>2018-05-16T11:26:02Z</time>
      </trkpt>
      <trkpt lat="45.97825" lon="4.78682">
        <ele>235</ele>
        <time>2018-05-16T11:26:03Z</time>
      </trkpt>
      <trkpt lat="45.9782" lon="4.78679">
        <ele>235</ele>
        <time>2018-05-16T11:26:04Z</time>
      </trkpt>
      <trkpt lat="45.97815" lon="4.78677">
        <ele>235</ele>
        <time>2018-05-16T11:26:05Z</time>
      </trkpt>
      <trkpt lat="45.9781" lon="4.78675">
        <ele>235</ele>
        <time>2018-05-16T11:26:06Z</time>
      </trkpt>
      <trkpt lat="45.97805" lon="4.78673">
        <ele>235</ele>
        <time>2018-05-16T11:26:07Z</time>
      </trkpt>
      <trkpt lat="45.978" lon="4.7867">
        <ele>235</ele>
        <time>2018-05-16T11:26:08Z</time>
      </trkpt>
      <trkpt lat="45.97794" lon="4.78668">
        <ele>235</ele>
        <time>2018-05-16T11:26:09Z</time>
      </trkpt>
      <trkpt lat="45.97788" lon="4.78665">
        <ele>235</ele>
        <time>2018-05-16T11:26:10Z</time>
      </trkpt>
      <trkpt lat="45.97782" lon="4.78663">
        <ele>235</ele>
        <time>2018-05-16T11:26:11Z</time>
      </trkpt>
      <trkpt lat="45.97778" lon="4.78662">
        <ele>235</ele>
        <time>2018-05-16T11:26:12Z</time>
      </trkpt>
      <trkpt lat="45.97772" lon="4.78659">
        <ele>235</ele>
        <time>2018-05-16T11:26:13Z</time>
      </trkpt>
      <trkpt lat="45.97765" lon="4.78657">
        <ele>235</ele>
        <time>2018-05-16T11:26:14Z</time>
      </trkpt>
      <trkpt lat="45.97759" lon="4.78654">
        <ele>235</ele>
        <time>2018-05-16T11:26:15Z</time>
      </trkpt>
      <trkpt lat="45.97753" lon="4.78652">
        <ele>235</ele>
        <time>2018-05-16T11:26:16Z</time>
      </trkpt>
      <trkpt lat="45.97747" lon="4.78649">
        <ele>234</ele>
        <time>2018-05-16T11:26:17Z</time>
      </trkpt>
      <trkpt lat="45.97741" lon="4.78646">
        <ele>234</ele>
        <time>2018-05-16T11:26:18Z</time>
      </trkpt>
      <trkpt lat="45.97736" lon="4.78643">
        <ele>234</ele>
        <time>2018-05-16T11:26:19Z</time>
      </trkpt>
      <trkpt lat="45.9773" lon="4.78641">
        <ele>234</ele>
        <time>2018-05-16T11:26:20Z</time>
      </trkpt>
      <trkpt lat="45.97724" lon="4.78638">
        <ele>234</ele>
        <time>2018-05-16T11:26:21Z</time>
      </trkpt>
      <trkpt lat="45.97719" lon="4.78635">
        <ele>234</ele>
        <time>2018-05-16T11:26:22Z</time>
      </trkpt>
      <trkpt lat="45.97714" lon="4.78633">
        <ele>234</ele>
        <time>2018-05-16T11:26:23Z</time>
      </trkpt>
      <trkpt lat="45.97708" lon="4.7863">
        <ele>234</ele>
        <time>2018-05-16T11:26:24Z</time>
      </trkpt>
      <trkpt lat="45.97703" lon="4.78628">
        <ele>234</ele>
        <time>2018-05-16T11:26:25Z</time>
      </trkpt>
      <trkpt lat="45.97697" lon="4.78626">
        <ele>234</ele>
        <time>2018-05-16T11:26:26Z</time>
      </trkpt>
      <trkpt lat="45.97691" lon="4.78623">
        <ele>234</ele>
        <time>2018-05-16T11:26:27Z</time>
      </trkpt>
      <trkpt lat="45.97685" lon="4.78621">
        <ele>234</ele>
        <time>2018-05-16T11:26:28Z</time>
      </trkpt>
      <trkpt lat="45.97679" lon="4.78618">
        <ele>234</ele>
        <time>2018-05-16T11:26:29Z</time>
      </trkpt>
      <trkpt lat="45.97673" lon="4.78615">
        <ele>234</ele>
        <time>2018-05-16T11:26:30Z</time>
      </trkpt>
      <trkpt lat="45.97668" lon="4.78613">
        <ele>234</ele>
        <time>2018-05-16T11:26:31Z</time>
      </trkpt>
      <trkpt lat="45.9766" lon="4.7861">
        <ele>233</ele>
        <time>2018-05-16T11:26:32Z</time>
      </trkpt>
      <trkpt lat="45.97654" lon="4.78608">
        <ele>233</ele>
        <time>2018-05-16T11:26:33Z</time>
      </trkpt>
      <trkpt lat="45.97647" lon="4.78605">
        <ele>233</ele>
        <time>2018-05-16T11:26:34Z</time>
      </trkpt>
      <trkpt lat="45.9764" lon="4.78602">
        <ele>233</ele>
        <time>2018-05-16T11:26:35Z</time>
      </trkpt>
      <trkpt lat="45.97634" lon="4.78599">
        <ele>233</ele>
        <time>2018-05-16T11:26:36Z</time>
      </trkpt>
      <trkpt lat="45.97628" lon="4.78597">
        <ele>233</ele>
        <time>2018-05-16T11:26:37Z</time>
      </trkpt>
      <trkpt lat="45.97623" lon="4.78594">
        <ele>233</ele>
        <time>2018-05-16T11:26:38Z</time>
      </trkpt>
      <trkpt lat="45.97617" lon="4.78592">
        <ele>233</ele>
        <time>2018-05-16T11:26:39Z</time>
      </trkpt>
      <trkpt lat="45.97611" lon="4.7859">
        <ele>233</ele>
        <time>2018-05-16T11:26:40Z</time>
      </trkpt>
      <trkpt lat="45.97606" lon="4.78589">
        <ele>233</ele>
        <time>2018-05-16T11:26:41Z</time>
      </trkpt>
      <trkpt lat="45.97601" lon="4.78586">
        <ele>233</ele>
        <time>2018-05-16T11:26:42Z</time>
      </trkpt>
      <trkpt lat="45.97596" lon="4.78584">
        <ele>233</ele>
        <time>2018-05-16T11:26:43Z</time>
      </trkpt>
      <trkpt lat="45.97591" lon="4.78582">
        <ele>233</ele>
        <time>2018-05-16T11:26:44Z</time>
      </trkpt>
      <trkpt lat="45.97586" lon="4.7858">
        <ele>233</ele>
        <time>2018-05-16T11:26:45Z</time>
      </trkpt>
      <trkpt lat="45.97581" lon="4.78578">
        <ele>233</ele>
        <time>2018-05-16T11:26:46Z</time>
      </trkpt>
      <trkpt lat="45.97576" lon="4.78576">
        <ele>233</ele>
        <time>2018-05-16T11:26:47Z</time>
      </trkpt>
      <trkpt lat="45.97571" lon="4.78574">
        <ele>233</ele>
        <time>2018-05-16T11:26:48Z</time>
      </trkpt>
      <trkpt lat="45.97565" lon="4.78572">
        <ele>233</ele>
        <time>2018-05-16T11:26:49Z</time>
      </trkpt>
      <trkpt lat="45.9756" lon="4.78569">
        <ele>233</ele>
        <time>2018-05-16T11:26:50Z</time>
      </trkpt>
      <trkpt lat="45.97554" lon="4.78567">
        <ele>234</ele>
        <time>2018-05-16T11:26:51Z</time>
      </trkpt>
      <trkpt lat="45.97548" lon="4.78566">
        <ele>234</ele>
        <time>2018-05-16T11:26:52Z</time>
      </trkpt>
      <trkpt lat="45.97543" lon="4.78563">
        <ele>234</ele>
        <time>2018-05-16T11:26:53Z</time>
      </trkpt>
      <trkpt lat="45.97537" lon="4.78561">
        <ele>234</ele>
        <time>2018-05-16T11:26:54Z</time>
      </trkpt>
      <trkpt lat="45.97532" lon="4.78558">
        <ele>234</ele>
        <time>2018-05-16T11:26:55Z</time>
      </trkpt>
      <trkpt lat="45.97526" lon="4.78556">
        <ele>234</ele>
        <time>2018-05-16T11:26:56Z</time>
      </trkpt>
      <trkpt lat="45.9752" lon="4.78554">
        <ele>234</ele>
        <time>2018-05-16T11:26:57Z</time>
      </trkpt>
      <trkpt lat="45.97515" lon="4.78551">
        <ele>234</ele>
        <time>2018-05-16T11:26:58Z</time>
      </trkpt>
      <trkpt lat="45.9751" lon="4.78548">
        <ele>234</ele>
        <time>2018-05-16T11:26:59Z</time>
      </trkpt>
      <trkpt lat="45.97505" lon="4.78544">
        <ele>234</ele>
        <time>2018-05-16T11:27:00Z</time>
      </trkpt>
      <trkpt lat="45.975" lon="4.7854">
        <ele>234</ele>
        <time>2018-05-16T11:27:01Z</time>
      </trkpt>
      <trkpt lat="45.97495" lon="4.78536">
        <ele>233</ele>
        <time>2018-05-16T11:27:02Z</time>
      </trkpt>
      <trkpt lat="45.97489" lon="4.78532">
        <ele>233</ele>
        <time>2018-05-16T11:27:03Z</time>
      </trkpt>
      <trkpt lat="45.97484" lon="4.78528">
        <ele>233</ele>
        <time>2018-05-16T11:27:04Z</time>
      </trkpt>
      <trkpt lat="45.9748" lon="4.78525">
        <ele>233</ele>
        <time>2018-05-16T11:27:05Z</time>
      </trkpt>
      <trkpt lat="45.97476" lon="4.7852">
        <ele>233</ele>
        <time>2018-05-16T11:27:06Z</time>
      </trkpt>
      <trkpt lat="45.97471" lon="4.78517">
        <ele>233</ele>
        <time>2018-05-16T11:27:07Z</time>
      </trkpt>
      <trkpt lat="45.97466" lon="4.78512">
        <ele>233</ele>
        <time>2018-05-16T11:27:08Z</time>
      </trkpt>
      <trkpt lat="45.97461" lon="4.78509">
        <ele>234</ele>
        <time>2018-05-16T11:27:09Z</time>
      </trkpt>
      <trkpt lat="45.97456" lon="4.78504">
        <ele>234</ele>
        <time>2018-05-16T11:27:10Z</time>
      </trkpt>
      <trkpt lat="45.97451" lon="4.785">
        <ele>234</ele>
        <time>2018-05-16T11:27:11Z</time>
      </trkpt>
      <trkpt lat="45.97445" lon="4.78497">
        <ele>234</ele>
        <time>2018-05-16T11:27:12Z</time>
      </trkpt>
      <trkpt lat="45.9744" lon="4.78494">
        <ele>234</ele>
        <time>2018-05-16T11:27:13Z</time>
      </trkpt>
      <trkpt lat="45.97435" lon="4.78489">
        <ele>234</ele>
        <time>2018-05-16T11:27:14Z</time>
      </trkpt>
      <trkpt lat="45.97429" lon="4.78485">
        <ele>234</ele>
        <time>2018-05-16T11:27:15Z</time>
      </trkpt>
      <trkpt lat="45.97425" lon="4.78481">
        <ele>234</ele>
        <time>2018-05-16T11:27:16Z</time>
      </trkpt>
      <trkpt lat="45.9742" lon="4.78476">
        <ele>234</ele>
        <time>2018-05-16T11:27:17Z</time>
      </trkpt>
      <trkpt lat="45.97416" lon="4.78471">
        <ele>233</ele>
        <time>2018-05-16T11:27:18Z</time>
      </trkpt>
      <trkpt lat="45.97412" lon="4.78467">
        <ele>233</ele>
        <time>2018-05-16T11:27:19Z</time>
      </trkpt>
      <trkpt lat="45.97408" lon="4.78463">
        <ele>233</ele>
        <time>2018-05-16T11:27:20Z</time>
      </trkpt>
      <trkpt lat="45.97404" lon="4.78459">
        <ele>233</ele>
        <time>2018-05-16T11:27:21Z</time>
      </trkpt>
      <trkpt lat="45.974" lon="4.78455">
        <ele>233</ele>
        <time>2018-05-16T11:27:22Z</time>
      </trkpt>
      <trkpt lat="45.97395" lon="4.78451">
        <ele>233</ele>
        <time>2018-05-16T11:27:23Z</time>
      </trkpt>
      <trkpt lat="45.97391" lon="4.78448">
        <ele>233</ele>
        <time>2018-05-16T11:27:24Z</time>
      </trkpt>
      <trkpt lat="45.97387" lon="4.78443">
        <ele>233</ele>
        <time>2018-05-16T11:27:25Z</time>
      </trkpt>
      <trkpt lat="45.97383" lon="4.78437">
        <ele>233</ele>
        <time>2018-05-16T11:27:26Z</time>
      </trkpt>
      <trkpt lat="45.97378" lon="4.78432">
        <ele>233</ele>
        <time>2018-05-16T11:27:27Z</time>
      </trkpt>
      <trkpt lat="45.97373" lon="4.78427">
        <ele>233</ele>
        <time>2018-05-16T11:27:28Z</time>
      </trkpt>
      <trkpt lat="45.97368" lon="4.78422">
        <ele>233</ele>
        <time>2018-05-16T11:27:29Z</time>
      </trkpt>
      <trkpt lat="45.97363" lon="4.78418">
        <ele>233</ele>
        <time>2018-05-16T11:27:30Z</time>
      </trkpt>
      <trkpt lat="45.97358" lon="4.78414">
        <ele>232</ele>
        <time>2018-05-16T11:27:31Z</time>
      </trkpt>
      <trkpt lat="45.97354" lon="4.78409">
        <ele>232</ele>
        <time>2018-05-16T11:27:32Z</time>
      </trkpt>
      <trkpt lat="45.97349" lon="4.78403">
        <ele>232</ele>
        <time>2018-05-16T11:27:33Z</time>
      </trkpt>
      <trkpt lat="45.97345" lon="4.78398">
        <ele>232</ele>
        <time>2018-05-16T11:27:34Z</time>
      </trkpt>
      <trkpt lat="45.9734" lon="4.78393">
        <ele>232</ele>
        <time>2018-05-16T11:27:35Z</time>
      </trkpt>
      <trkpt lat="45.97336" lon="4.78387">
        <ele>233</ele>
        <time>2018-05-16T11:27:36Z</time>
      </trkpt>
      <trkpt lat="45.97332" lon="4.78382">
        <ele>232</ele>
        <time>2018-05-16T11:27:37Z</time>
      </trkpt>
      <trkpt lat="45.97327" lon="4.78378">
        <ele>232</ele>
        <time>2018-05-16T11:27:38Z</time>
      </trkpt>
      <trkpt lat="45.97322" lon="4.78372">
        <ele>232</ele>
        <time>2018-05-16T11:27:39Z</time>
      </trkpt>
      <trkpt lat="45.97318" lon="4.78367">
        <ele>232</ele>
        <time>2018-05-16T11:27:40Z</time>
      </trkpt>
      <trkpt lat="45.97313" lon="4.78362">
        <ele>232</ele>
        <time>2018-05-16T11:27:41Z</time>
      </trkpt>
      <trkpt lat="45.97308" lon="4.78356">
        <ele>232</ele>
        <time>2018-05-16T11:27:42Z</time>
      </trkpt>
      <trkpt lat="45.97304" lon="4.7835">
        <ele>232</ele>
        <time>2018-05-16T11:27:43Z</time>
      </trkpt>
      <trkpt lat="45.973" lon="4.78345">
        <ele>232</ele>
        <time>2018-05-16T11:27:44Z</time>
      </trkpt>
      <trkpt lat="45.97295" lon="4.78339">
        <ele>232</ele>
        <time>2018-05-16T11:27:45Z</time>
      </trkpt>
      <trkpt lat="45.97291" lon="4.78333">
        <ele>232</ele>
        <time>2018-05-16T11:27:46Z</time>
      </trkpt>
      <trkpt lat="45.97287" lon="4.78327">
        <ele>232</ele>
        <time>2018-05-16T11:27:47Z</time>
      </trkpt>
      <trkpt lat="45.97283" lon="4.78322">
        <ele>232</ele>
        <time>2018-05-16T11:27:48Z</time>
      </trkpt>
      <trkpt lat="45.97279" lon="4.78318">
        <ele>232</ele>
        <time>2018-05-16T11:27:49Z</time>
      </trkpt>
      <trkpt lat="45.97276" lon="4.78312">
        <ele>232</ele>
        <time>2018-05-16T11:27:50Z</time>
      </trkpt>
      <trkpt lat="45.97273" lon="4.78307">
        <ele>232</ele>
        <time>2018-05-16T11:27:51Z</time>
      </trkpt>
      <trkpt lat="45.97269" lon="4.78301">
        <ele>232</ele>
        <time>2018-05-16T11:27:52Z</time>
      </trkpt>
      <trkpt lat="45.97265" lon="4.78295">
        <ele>232</ele>
        <time>2018-05-16T11:27:53Z</time>
      </trkpt>
      <trkpt lat="45.97262" lon="4.78289">
        <ele>232</ele>
        <time>2018-05-16T11:27:54Z</time>
      </trkpt>
      <trkpt lat="45.97258" lon="4.78282">
        <ele>232</ele>
        <time>2018-05-16T11:27:55Z</time>
      </trkpt>
      <trkpt lat="45.97254" lon="4.78276">
        <ele>232</ele>
        <time>2018-05-16T11:27:56Z</time>
      </trkpt>
      <trkpt lat="45.97249" lon="4.7827">
        <ele>231</ele>
        <time>2018-05-16T11:27:57Z</time>
      </trkpt>
      <trkpt lat="45.97245" lon="4.78264">
        <ele>231</ele>
        <time>2018-05-16T11:27:58Z</time>
      </trkpt>
      <trkpt lat="45.97241" lon="4.78257">
        <ele>231</ele>
        <time>2018-05-16T11:27:59Z</time>
      </trkpt>
      <trkpt lat="45.97237" lon="4.78251">
        <ele>231</ele>
        <time>2018-05-16T11:28:00Z</time>
      </trkpt>
      <trkpt lat="45.97233" lon="4.78245">
        <ele>231</ele>
        <time>2018-05-16T11:28:01Z</time>
      </trkpt>
      <trkpt lat="45.9723" lon="4.78239">
        <ele>231</ele>
        <time>2018-05-16T11:28:02Z</time>
      </trkpt>
      <trkpt lat="45.97226" lon="4.78233">
        <ele>231</ele>
        <time>2018-05-16T11:28:03Z</time>
      </trkpt>
      <trkpt lat="45.97222" lon="4.78227">
        <ele>231</ele>
        <time>2018-05-16T11:28:04Z</time>
      </trkpt>
      <trkpt lat="45.9722" lon="4.78221">
        <ele>231</ele>
        <time>2018-05-16T11:28:05Z</time>
      </trkpt>
      <trkpt lat="45.97217" lon="4.78216">
        <ele>231</ele>
        <time>2018-05-16T11:28:06Z</time>
      </trkpt>
      <trkpt lat="45.97213" lon="4.7821">
        <ele>231</ele>
        <time>2018-05-16T11:28:07Z</time>
      </trkpt>
      <trkpt lat="45.97209" lon="4.78204">
        <ele>231</ele>
        <time>2018-05-16T11:28:08Z</time>
      </trkpt>
      <trkpt lat="45.97206" lon="4.78198">
        <ele>231</ele>
        <time>2018-05-16T11:28:09Z</time>
      </trkpt>
      <trkpt lat="45.97204" lon="4.78193">
        <ele>231</ele>
        <time>2018-05-16T11:28:10Z</time>
      </trkpt>
      <trkpt lat="45.972" lon="4.78187">
        <ele>231</ele>
        <time>2018-05-16T11:28:11Z</time>
      </trkpt>
      <trkpt lat="45.97196" lon="4.78181">
        <ele>231</ele>
        <time>2018-05-16T11:28:12Z</time>
      </trkpt>
      <trkpt lat="45.97193" lon="4.78175">
        <ele>231</ele>
        <time>2018-05-16T11:28:13Z</time>
      </trkpt>
      <trkpt lat="45.9719" lon="4.78168">
        <ele>231</ele>
        <time>2018-05-16T11:28:14Z</time>
      </trkpt>
      <trkpt lat="45.97187" lon="4.78161">
        <ele>231</ele>
        <time>2018-05-16T11:28:15Z</time>
      </trkpt>
      <trkpt lat="45.97182" lon="4.78154">
        <ele>231</ele>
        <time>2018-05-16T11:28:16Z</time>
      </trkpt>
      <trkpt lat="45.97178" lon="4.78147">
        <ele>231</ele>
        <time>2018-05-16T11:28:17Z</time>
      </trkpt>
      <trkpt lat="45.97174" lon="4.78141">
        <ele>231</ele>
        <time>2018-05-16T11:28:18Z</time>
      </trkpt>
      <trkpt lat="45.97172" lon="4.78135">
        <ele>231</ele>
        <time>2018-05-16T11:28:19Z</time>
      </trkpt>
      <trkpt lat="45.97168" lon="4.78128">
        <ele>231</ele>
        <time>2018-05-16T11:28:20Z</time>
      </trkpt>
      <trkpt lat="45.97165" lon="4.78123">
        <ele>230</ele>
        <time>2018-05-16T11:28:21Z</time>
      </trkpt>
      <trkpt lat="45.97162" lon="4.78117">
        <ele>230</ele>
        <time>2018-05-16T11:28:22Z</time>
      </trkpt>
      <trkpt lat="45.97159" lon="4.78109">
        <ele>230</ele>
        <time>2018-05-16T11:28:23Z</time>
      </trkpt>
      <trkpt lat="45.97156" lon="4.78102">
        <ele>230</ele>
        <time>2018-05-16T11:28:24Z</time>
      </trkpt>
      <trkpt lat="45.97152" lon="4.78097">
        <ele>230</ele>
        <time>2018-05-16T11:28:25Z</time>
      </trkpt>
      <trkpt lat="45.97149" lon="4.78091">
        <ele>230</ele>
        <time>2018-05-16T11:28:26Z</time>
      </trkpt>
      <trkpt lat="45.97145" lon="4.78085">
        <ele>230</ele>
        <time>2018-05-16T11:28:27Z</time>
      </trkpt>
      <trkpt lat="45.97142" lon="4.78079">
        <ele>230</ele>
        <time>2018-05-16T11:28:28Z</time>
      </trkpt>
      <trkpt lat="45.97138" lon="4.78074">
        <ele>230</ele>
        <time>2018-05-16T11:28:29Z</time>
      </trkpt>
      <trkpt lat="45.97133" lon="4.78067">
        <ele>230</ele>
        <time>2018-05-16T11:28:30Z</time>
      </trkpt>
      <trkpt lat="45.97128" lon="4.78062">
        <ele>230</ele>
        <time>2018-05-16T11:28:31Z</time>
      </trkpt>
      <trkpt lat="45.97123" lon="4.78057">
        <ele>229</ele>
        <time>2018-05-16T11:28:32Z</time>
      </trkpt>
      <trkpt lat="45.97118" lon="4.78053">
        <ele>229</ele>
        <time>2018-05-16T11:28:33Z</time>
      </trkpt>
      <trkpt lat="45.97114" lon="4.78048">
        <ele>229</ele>
        <time>2018-05-16T11:28:34Z</time>
      </trkpt>
      <trkpt lat="45.97109" lon="4.78043">
        <ele>229</ele>
        <time>2018-05-16T11:28:35Z</time>
      </trkpt>
      <trkpt lat="45.97104" lon="4.78038">
        <ele>229</ele>
        <time>2018-05-16T11:28:36Z</time>
      </trkpt>
      <trkpt lat="45.971" lon="4.78035">
        <ele>229</ele>
        <time>2018-05-16T11:28:37Z</time>
      </trkpt>
      <trkpt lat="45.97095" lon="4.78031">
        <ele>229</ele>
        <time>2018-05-16T11:28:38Z</time>
      </trkpt>
      <trkpt lat="45.9709" lon="4.78027">
        <ele>229</ele>
        <time>2018-05-16T11:28:39Z</time>
      </trkpt>
      <trkpt lat="45.97086" lon="4.78024">
        <ele>229</ele>
        <time>2018-05-16T11:28:40Z</time>
      </trkpt>
      <trkpt lat="45.97081" lon="4.78019">
        <ele>229</ele>
        <time>2018-05-16T11:28:41Z</time>
      </trkpt>
      <trkpt lat="45.97077" lon="4.78015">
        <ele>229</ele>
        <time>2018-05-16T11:28:42Z</time>
      </trkpt>
      <trkpt lat="45.97073" lon="4.78011">
        <ele>229</ele>
        <time>2018-05-16T11:28:43Z</time>
      </trkpt>
      <trkpt lat="45.97069" lon="4.78006">
        <ele>229</ele>
        <time>2018-05-16T11:28:44Z</time>
      </trkpt>
      <trkpt lat="45.97065" lon="4.78001">
        <ele>229</ele>
        <time>2018-05-16T11:28:45Z</time>
      </trkpt>
      <trkpt lat="45.97062" lon="4.77996">
        <ele>229</ele>
        <time>2018-05-16T11:28:46Z</time>
      </trkpt>
      <trkpt lat="45.97057" lon="4.77991">
        <ele>229</ele>
        <time>2018-05-16T11:28:47Z</time>
      </trkpt>
      <trkpt lat="45.97053" lon="4.77986">
        <ele>229</ele>
        <time>2018-05-16T11:28:48Z</time>
      </trkpt>
      <trkpt lat="45.97049" lon="4.77981">
        <ele>229</ele>
        <time>2018-05-16T11:28:49Z</time>
      </trkpt>
      <trkpt lat="45.97044" lon="4.77976">
        <ele>229</ele>
        <time>2018-05-16T11:28:50Z</time>
      </trkpt>
      <trkpt lat="45.9704" lon="4.7797">
        <ele>229</ele>
        <time>2018-05-16T11:28:51Z</time>
      </trkpt>
      <trkpt lat="45.97036" lon="4.77965">
        <ele>229</ele>
        <time>2018-05-16T11:28:52Z</time>
      </trkpt>
      <trkpt lat="45.97031" lon="4.7796">
        <ele>228</ele>
        <time>2018-05-16T11:28:53Z</time>
      </trkpt>
      <trkpt lat="45.97027" lon="4.77955">
        <ele>228</ele>
        <time>2018-05-16T11:28:54Z</time>
      </trkpt>
      <trkpt lat="45.97022" lon="4.77949">
        <ele>228</ele>
        <time>2018-05-16T11:28:55Z</time>
      </trkpt>
      <trkpt lat="45.97018" lon="4.77944">
        <ele>228</ele>
        <time>2018-05-16T11:28:56Z</time>
      </trkpt>
      <trkpt lat="45.97014" lon="4.77939">
        <ele>228</ele>
        <time>2018-05-16T11:28:57Z</time>
      </trkpt>
      <trkpt lat="45.9701" lon="4.77934">
        <ele>228</ele>
        <time>2018-05-16T11:28:58Z</time>
      </trkpt>
      <trkpt lat="45.97006" lon="4.77929">
        <ele>228</ele>
        <time>2018-05-16T11:28:59Z</time>
      </trkpt>
      <trkpt lat="45.97001" lon="4.77922">
        <ele>227</ele>
        <time>2018-05-16T11:29:00Z</time>
      </trkpt>
      <trkpt lat="45.96997" lon="4.77916">
        <ele>227</ele>
        <time>2018-05-16T11:29:01Z</time>
      </trkpt>
      <trkpt lat="45.96992" lon="4.7791">
        <ele>227</ele>
        <time>2018-05-16T11:29:02Z</time>
      </trkpt>
      <trkpt lat="45.96988" lon="4.77904">
        <ele>227</ele>
        <time>2018-05-16T11:29:03Z</time>
      </trkpt>
      <trkpt lat="45.96984" lon="4.77898">
        <ele>228</ele>
        <time>2018-05-16T11:29:04Z</time>
      </trkpt>
      <trkpt lat="45.96978" lon="4.77893">
        <ele>228</ele>
        <time>2018-05-16T11:29:05Z</time>
      </trkpt>
      <trkpt lat="45.96974" lon="4.77887">
        <ele>228</ele>
        <time>2018-05-16T11:29:06Z</time>
      </trkpt>
      <trkpt lat="45.96969" lon="4.77881">
        <ele>228</ele>
        <time>2018-05-16T11:29:07Z</time>
      </trkpt>
      <trkpt lat="45.96964" lon="4.77876">
        <ele>228</ele>
        <time>2018-05-16T11:29:08Z</time>
      </trkpt>
      <trkpt lat="45.9696" lon="4.77871">
        <ele>228</ele>
        <time>2018-05-16T11:29:09Z</time>
      </trkpt>
      <trkpt lat="45.96955" lon="4.77866">
        <ele>228</ele>
        <time>2018-05-16T11:29:10Z</time>
      </trkpt>
      <trkpt lat="45.96951" lon="4.7786">
        <ele>228</ele>
        <time>2018-05-16T11:29:11Z</time>
      </trkpt>
      <trkpt lat="45.96947" lon="4.77855">
        <ele>228</ele>
        <time>2018-05-16T11:29:12Z</time>
      </trkpt>
      <trkpt lat="45.96942" lon="4.7785">
        <ele>228</ele>
        <time>2018-05-16T11:29:13Z</time>
      </trkpt>
      <trkpt lat="45.96938" lon="4.77845">
        <ele>228</ele>
        <time>2018-05-16T11:29:14Z</time>
      </trkpt>
      <trkpt lat="45.96933" lon="4.77841">
        <ele>228</ele>
        <time>2018-05-16T11:29:15Z</time>
      </trkpt>
      <trkpt lat="45.96928" lon="4.77836">
        <ele>228</ele>
        <time>2018-05-16T11:29:16Z</time>
      </trkpt>
      <trkpt lat="45.96924" lon="4.77831">
        <ele>228</ele>
        <time>2018-05-16T11:29:17Z</time>
      </trkpt>
      <trkpt lat="45.96919" lon="4.77826">
        <ele>228</ele>
        <time>2018-05-16T11:29:18Z</time>
      </trkpt>
      <trkpt lat="45.96914" lon="4.7782">
        <ele>228</ele>
        <time>2018-05-16T11:29:19Z</time>
      </trkpt>
      <trkpt lat="45.96909" lon="4.77816">
        <ele>228</ele>
        <time>2018-05-16T11:29:20Z</time>
      </trkpt>
      <trkpt lat="45.96905" lon="4.77811">
        <ele>228</ele>
        <time>2018-05-16T11:29:21Z</time>
      </trkpt>
      <trkpt lat="45.969" lon="4.77807">
        <ele>228</ele>
        <time>2018-05-16T11:29:22Z</time>
      </trkpt>
      <trkpt lat="45.96895" lon="4.77802">
        <ele>228</ele>
        <time>2018-05-16T11:29:23Z</time>
      </trkpt>
      <trkpt lat="45.9689" lon="4.77798">
        <ele>228</ele>
        <time>2018-05-16T11:29:24Z</time>
      </trkpt>
      <trkpt lat="45.96886" lon="4.77794">
        <ele>228</ele>
        <time>2018-05-16T11:29:25Z</time>
      </trkpt>
      <trkpt lat="45.96882" lon="4.77789">
        <ele>228</ele>
        <time>2018-05-16T11:29:26Z</time>
      </trkpt>
      <trkpt lat="45.96878" lon="4.77784">
        <ele>228</ele>
        <time>2018-05-16T11:29:27Z</time>
      </trkpt>
      <trkpt lat="45.96873" lon="4.77779">
        <ele>228</ele>
        <time>2018-05-16T11:29:28Z</time>
      </trkpt>
      <trkpt lat="45.96868" lon="4.77776">
        <ele>228</ele>
        <time>2018-05-16T11:29:29Z</time>
      </trkpt>
      <trkpt lat="45.96863" lon="4.77771">
        <ele>228</ele>
        <time>2018-05-16T11:29:30Z</time>
      </trkpt>
      <trkpt lat="45.96858" lon="4.77767">
        <ele>228</ele>
        <time>2018-05-16T11:29:31Z</time>
      </trkpt>
      <trkpt lat="45.96853" lon="4.77762">
        <ele>228</ele>
        <time>2018-05-16T11:29:32Z</time>
      </trkpt>
      <trkpt lat="45.96848" lon="4.77756">
        <ele>228</ele>
        <time>2018-05-16T11:29:33Z</time>
      </trkpt>
      <trkpt lat="45.96843" lon="4.77752">
        <ele>228</ele>
        <time>2018-05-16T11:29:34Z</time>
      </trkpt>
      <trkpt lat="45.96838" lon="4.77747">
        <ele>228</ele>
        <time>2018-05-16T11:29:35Z</time>
      </trkpt>
      <trkpt lat="45.96833" lon="4.77742">
        <ele>228</ele>
        <time>2018-05-16T11:29:36Z</time>
      </trkpt>
      <trkpt lat="45.96829" lon="4.77737">
        <ele>228</ele>
        <time>2018-05-16T11:29:37Z</time>
      </trkpt>
      <trkpt lat="45.96825" lon="4.77732">
        <ele>228</ele>
        <time>2018-05-16T11:29:38Z</time>
      </trkpt>
      <trkpt lat="45.9682" lon="4.77727">
        <ele>228</ele>
        <time>2018-05-16T11:29:39Z</time>
      </trkpt>
      <trkpt lat="45.96815" lon="4.77722">
        <ele>228</ele>
        <time>2018-05-16T11:29:40Z</time>
      </trkpt>
      <trkpt lat="45.9681" lon="4.77717">
        <ele>228</ele>
        <time>2018-05-16T11:29:41Z</time>
      </trkpt>
      <trkpt lat="45.96806" lon="4.77713">
        <ele>228</ele>
        <time>2018-05-16T11:29:42Z</time>
      </trkpt>
      <trkpt lat="45.96802" lon="4.77708">
        <ele>228</ele>
        <time>2018-05-16T11:29:43Z</time>
      </trkpt>
      <trkpt lat="45.96798" lon="4.77702">
        <ele>228</ele>
        <time>2018-05-16T11:29:44Z</time>
      </trkpt>
      <trkpt lat="45.96793" lon="4.77697">
        <ele>228</ele>
        <time>2018-05-16T11:29:45Z</time>
      </trkpt>
      <trkpt lat="45.96789" lon="4.77691">
        <ele>227</ele>
        <time>2018-05-16T11:29:46Z</time>
      </trkpt>
      <trkpt lat="45.96784" lon="4.77687">
        <ele>227</ele>
        <time>2018-05-16T11:29:47Z</time>
      </trkpt>
      <trkpt lat="45.9678" lon="4.77681">
        <ele>227</ele>
        <time>2018-05-16T11:29:48Z</time>
      </trkpt>
      <trkpt lat="45.96775" lon="4.77675">
        <ele>227</ele>
        <time>2018-05-16T11:29:49Z</time>
      </trkpt>
      <trkpt lat="45.96771" lon="4.77669">
        <ele>227</ele>
        <time>2018-05-16T11:29:50Z</time>
      </trkpt>
      <trkpt lat="45.96766" lon="4.77664">
        <ele>227</ele>
        <time>2018-05-16T11:29:51Z</time>
      </trkpt>
      <trkpt lat="45.96762" lon="4.77659">
        <ele>227</ele>
        <time>2018-05-16T11:29:52Z</time>
      </trkpt>
      <trkpt lat="45.96758" lon="4.77654">
        <ele>227</ele>
        <time>2018-05-16T11:29:53Z</time>
      </trkpt>
      <trkpt lat="45.96753" lon="4.77648">
        <ele>227</ele>
        <time>2018-05-16T11:29:54Z</time>
      </trkpt>
      <trkpt lat="45.96749" lon="4.77643">
        <ele>227</ele>
        <time>2018-05-16T11:29:55Z</time>
      </trkpt>
      <trkpt lat="45.96745" lon="4.77638">
        <ele>227</ele>
        <time>2018-05-16T11:29:56Z</time>
      </trkpt>
      <trkpt lat="45.96741" lon="4.77633">
        <ele>227</ele>
        <time>2018-05-16T11:29:57Z</time>
      </trkpt>
      <trkpt lat="45.96737" lon="4.77629">
        <ele>226</ele>
        <time>2018-05-16T11:29:58Z</time>
      </trkpt>
      <trkpt lat="45.96733" lon="4.77624">
        <ele>226</ele>
        <time>2018-05-16T11:29:59Z</time>
      </trkpt>
      <trkpt lat="45.96729" lon="4.77619">
        <ele>226</ele>
        <time>2018-05-16T11:30:00Z</time>
      </trkpt>
      <trkpt lat="45.96726" lon="4.77614">
        <ele>226</ele>
        <time>2018-05-16T11:30:01Z</time>
      </trkpt>
      <trkpt lat="45.96722" lon="4.7761">
        <ele>226</ele>
        <time>2018-05-16T11:30:02Z</time>
      </trkpt>
      <trkpt lat="45.96718" lon="4.77603">
        <ele>226</ele>
        <time>2018-05-16T11:30:03Z</time>
      </trkpt>
      <trkpt lat="45.96713" lon="4.77598">
        <ele>226</ele>
        <time>2018-05-16T11:30:04Z</time>
      </trkpt>
      <trkpt lat="45.96708" lon="4.77592">
        <ele>226</ele>
        <time>2018-05-16T11:30:05Z</time>
      </trkpt>
      <trkpt lat="45.96703" lon="4.77586">
        <ele>226</ele>
        <time>2018-05-16T11:30:06Z</time>
      </trkpt>
      <trkpt lat="45.96698" lon="4.7758">
        <ele>226</ele>
        <time>2018-05-16T11:30:07Z</time>
      </trkpt>
      <trkpt lat="45.96693" lon="4.77575">
        <ele>225</ele>
        <time>2018-05-16T11:30:08Z</time>
      </trkpt>
      <trkpt lat="45.96688" lon="4.77571">
        <ele>225</ele>
        <time>2018-05-16T11:30:09Z</time>
      </trkpt>
      <trkpt lat="45.96683" lon="4.77567">
        <ele>225</ele>
        <time>2018-05-16T11:30:10Z</time>
      </trkpt>
      <trkpt lat="45.96676" lon="4.77562">
        <ele>225</ele>
        <time>2018-05-16T11:30:11Z</time>
      </trkpt>
      <trkpt lat="45.9667" lon="4.77558">
        <ele>225</ele>
        <time>2018-05-16T11:30:12Z</time>
      </trkpt>
      <trkpt lat="45.96666" lon="4.77554">
        <ele>224</ele>
        <time>2018-05-16T11:30:13Z</time>
      </trkpt>
      <trkpt lat="45.9666" lon="4.77551">
        <ele>224</ele>
        <time>2018-05-16T11:30:14Z</time>
      </trkpt>
      <trkpt lat="45.96654" lon="4.77548">
        <ele>224</ele>
        <time>2018-05-16T11:30:15Z</time>
      </trkpt>
      <trkpt lat="45.9665" lon="4.77545">
        <ele>224</ele>
        <time>2018-05-16T11:30:16Z</time>
      </trkpt>
      <trkpt lat="45.96645" lon="4.77542">
        <ele>224</ele>
        <time>2018-05-16T11:30:17Z</time>
      </trkpt>
      <trkpt lat="45.96639" lon="4.77539">
        <ele>224</ele>
        <time>2018-05-16T11:30:18Z</time>
      </trkpt>
      <trkpt lat="45.96634" lon="4.77535">
        <ele>224</ele>
        <time>2018-05-16T11:30:19Z</time>
      </trkpt>
      <trkpt lat="45.96628" lon="4.77532">
        <ele>224</ele>
        <time>2018-05-16T11:30:20Z</time>
      </trkpt>
      <trkpt lat="45.96622" lon="4.77528">
        <ele>224</ele>
        <time>2018-05-16T11:30:21Z</time>
      </trkpt>
      <trkpt lat="45.96617" lon="4.77524">
        <ele>224</ele>
        <time>2018-05-16T11:30:22Z</time>
      </trkpt>
      <trkpt lat="45.96612" lon="4.77521">
        <ele>224</ele>
        <time>2018-05-16T11:30:23Z</time>
      </trkpt>
      <trkpt lat="45.96607" lon="4.77517">
        <ele>224</ele>
        <time>2018-05-16T11:30:24Z</time>
      </trkpt>
      <trkpt lat="45.96601" lon="4.77513">
        <ele>224</ele>
        <time>2018-05-16T11:30:25Z</time>
      </trkpt>
      <trkpt lat="45.96595" lon="4.77509">
        <ele>224</ele>
        <time>2018-05-16T11:30:26Z</time>
      </trkpt>
      <trkpt lat="45.9659" lon="4.77506">
        <ele>224</ele>
        <time>2018-05-16T11:30:27Z</time>
      </trkpt>
      <trkpt lat="45.96584" lon="4.77502">
        <ele>224</ele>
        <time>2018-05-16T11:30:28Z</time>
      </trkpt>
      <trkpt lat="45.96579" lon="4.77498">
        <ele>224</ele>
        <time>2018-05-16T11:30:29Z</time>
      </trkpt>
      <trkpt lat="45.96573" lon="4.77495">
        <ele>224</ele>
        <time>2018-05-16T11:30:30Z</time>
      </trkpt>
      <trkpt lat="45.96568" lon="4.77492">
        <ele>224</ele>
        <time>2018-05-16T11:30:31Z</time>
      </trkpt>
      <trkpt lat="45.96563" lon="4.77489">
        <ele>224</ele>
        <time>2018-05-16T11:30:32Z</time>
      </trkpt>
      <trkpt lat="45.96557" lon="4.77486">
        <ele>224</ele>
        <time>2018-05-16T11:30:33Z</time>
      </trkpt>
      <trkpt lat="45.96551" lon="4.77482">
        <ele>223</ele>
        <time>2018-05-16T11:30:34Z</time>
      </trkpt>
      <trkpt lat="45.96545" lon="4.77478">
        <ele>223</ele>
        <time>2018-05-16T11:30:35Z</time>
      </trkpt>
      <trkpt lat="45.96539" lon="4.77474">
        <ele>223</ele>
        <time>2018-05-16T11:30:36Z</time>
      </trkpt>
      <trkpt lat="45.96533" lon="4.7747">
        <ele>223</ele>
        <time>2018-05-16T11:30:37Z</time>
      </trkpt>
      <trkpt lat="45.96528" lon="4.77466">
        <ele>223</ele>
        <time>2018-05-16T11:30:38Z</time>
      </trkpt>
      <trkpt lat="45.96521" lon="4.77462">
        <ele>223</ele>
        <time>2018-05-16T11:30:39Z</time>
      </trkpt>
      <trkpt lat="45.96516" lon="4.77459">
        <ele>223</ele>
        <time>2018-05-16T11:30:40Z</time>
      </trkpt>
      <trkpt lat="45.9651" lon="4.77456">
        <ele>223</ele>
        <time>2018-05-16T11:30:41Z</time>
      </trkpt>
      <trkpt lat="45.96504" lon="4.77451">
        <ele>223</ele>
        <time>2018-05-16T11:30:42Z</time>
      </trkpt>
      <trkpt lat="45.96499" lon="4.77447">
        <ele>221</ele>
        <time>2018-05-16T11:30:43Z</time>
      </trkpt>
      <trkpt lat="45.96493" lon="4.77443">
        <ele>222</ele>
        <time>2018-05-16T11:30:44Z</time>
      </trkpt>
      <trkpt lat="45.96487" lon="4.7744">
        <ele>222</ele>
        <time>2018-05-16T11:30:45Z</time>
      </trkpt>
      <trkpt lat="45.96481" lon="4.77436">
        <ele>222</ele>
        <time>2018-05-16T11:30:46Z</time>
      </trkpt>
      <trkpt lat="45.96476" lon="4.77433">
        <ele>221</ele>
        <time>2018-05-16T11:30:47Z</time>
      </trkpt>
      <trkpt lat="45.9647" lon="4.7743">
        <ele>221</ele>
        <time>2018-05-16T11:30:48Z</time>
      </trkpt>
      <trkpt lat="45.96464" lon="4.77426">
        <ele>221</ele>
        <time>2018-05-16T11:30:49Z</time>
      </trkpt>
      <trkpt lat="45.96459" lon="4.77422">
        <ele>221</ele>
        <time>2018-05-16T11:30:50Z</time>
      </trkpt>
      <trkpt lat="45.96454" lon="4.77419">
        <ele>221</ele>
        <time>2018-05-16T11:30:51Z</time>
      </trkpt>
      <trkpt lat="45.96448" lon="4.77416">
        <ele>222</ele>
        <time>2018-05-16T11:30:52Z</time>
      </trkpt>
      <trkpt lat="45.96443" lon="4.77412">
        <ele>222</ele>
        <time>2018-05-16T11:30:53Z</time>
      </trkpt>
      <trkpt lat="45.96437" lon="4.77409">
        <ele>222</ele>
        <time>2018-05-16T11:30:54Z</time>
      </trkpt>
      <trkpt lat="45.96432" lon="4.77406">
        <ele>222</ele>
        <time>2018-05-16T11:30:55Z</time>
      </trkpt>
      <trkpt lat="45.96427" lon="4.77402">
        <ele>222</ele>
        <time>2018-05-16T11:30:56Z</time>
      </trkpt>
      <trkpt lat="45.96421" lon="4.77399">
        <ele>222</ele>
        <time>2018-05-16T11:30:57Z</time>
      </trkpt>
      <trkpt lat="45.96415" lon="4.77396">
        <ele>220</ele>
        <time>2018-05-16T11:30:58Z</time>
      </trkpt>
      <trkpt lat="45.9641" lon="4.77393">
        <ele>220</ele>
        <time>2018-05-16T11:30:59Z</time>
      </trkpt>
      <trkpt lat="45.96404" lon="4.7739">
        <ele>220</ele>
        <time>2018-05-16T11:31:00Z</time>
      </trkpt>
      <trkpt lat="45.96399" lon="4.77387">
        <ele>220</ele>
        <time>2018-05-16T11:31:01Z</time>
      </trkpt>
      <trkpt lat="45.96394" lon="4.77384">
        <ele>220</ele>
        <time>2018-05-16T11:31:02Z</time>
      </trkpt>
      <trkpt lat="45.96388" lon="4.77381">
        <ele>220</ele>
        <time>2018-05-16T11:31:03Z</time>
      </trkpt>
      <trkpt lat="45.96382" lon="4.77378">
        <ele>220</ele>
        <time>2018-05-16T11:31:04Z</time>
      </trkpt>
      <trkpt lat="45.96376" lon="4.77374">
        <ele>220</ele>
        <time>2018-05-16T11:31:05Z</time>
      </trkpt>
      <trkpt lat="45.9637" lon="4.77371">
        <ele>219</ele>
        <time>2018-05-16T11:31:06Z</time>
      </trkpt>
      <trkpt lat="45.96364" lon="4.77367">
        <ele>219</ele>
        <time>2018-05-16T11:31:07Z</time>
      </trkpt>
      <trkpt lat="45.96358" lon="4.77364">
        <ele>219</ele>
        <time>2018-05-16T11:31:08Z</time>
      </trkpt>
      <trkpt lat="45.96352" lon="4.77362">
        <ele>219</ele>
        <time>2018-05-16T11:31:09Z</time>
      </trkpt>
      <trkpt lat="45.96346" lon="4.77357">
        <ele>219</ele>
        <time>2018-05-16T11:31:10Z</time>
      </trkpt>
      <trkpt lat="45.9634" lon="4.77354">
        <ele>219</ele>
        <time>2018-05-16T11:31:11Z</time>
      </trkpt>
      <trkpt lat="45.96334" lon="4.77351">
        <ele>220</ele>
        <time>2018-05-16T11:31:12Z</time>
      </trkpt>
      <trkpt lat="45.96327" lon="4.77349">
        <ele>218</ele>
        <time>2018-05-16T11:31:13Z</time>
      </trkpt>
      <trkpt lat="45.96321" lon="4.77345">
        <ele>218</ele>
        <time>2018-05-16T11:31:14Z</time>
      </trkpt>
      <trkpt lat="45.96316" lon="4.77342">
        <ele>218</ele>
        <time>2018-05-16T11:31:15Z</time>
      </trkpt>
      <trkpt lat="45.9631" lon="4.77338">
        <ele>217</ele>
        <time>2018-05-16T11:31:16Z</time>
      </trkpt>
      <trkpt lat="45.96305" lon="4.77335">
        <ele>217</ele>
        <time>2018-05-16T11:31:17Z</time>
      </trkpt>
      <trkpt lat="45.96299" lon="4.77331">
        <ele>219</ele>
        <time>2018-05-16T11:31:18Z</time>
      </trkpt>
      <trkpt lat="45.96294" lon="4.77328">
        <ele>219</ele>
        <time>2018-05-16T11:31:19Z</time>
      </trkpt>
      <trkpt lat="45.96288" lon="4.77325">
        <ele>219</ele>
        <time>2018-05-16T11:31:20Z</time>
      </trkpt>
      <trkpt lat="45.96282" lon="4.77323">
        <ele>219</ele>
        <time>2018-05-16T11:31:21Z</time>
      </trkpt>
      <trkpt lat="45.96277" lon="4.7732">
        <ele>219</ele>
        <time>2018-05-16T11:31:22Z</time>
      </trkpt>
      <trkpt lat="45.96271" lon="4.77316">
        <ele>218</ele>
        <time>2018-05-16T11:31:23Z</time>
      </trkpt>
      <trkpt lat="45.96266" lon="4.77313">
        <ele>218</ele>
        <time>2018-05-16T11:31:24Z</time>
      </trkpt>
      <trkpt lat="45.9626" lon="4.7731">
        <ele>218</ele>
        <time>2018-05-16T11:31:25Z</time>
      </trkpt>
      <trkpt lat="45.96254" lon="4.77307">
        <ele>218</ele>
        <time>2018-05-16T11:31:26Z</time>
      </trkpt>
      <trkpt lat="45.96248" lon="4.77304">
        <ele>217</ele>
        <time>2018-05-16T11:31:27Z</time>
      </trkpt>
      <trkpt lat="45.96243" lon="4.773">
        <ele>217</ele>
        <time>2018-05-16T11:31:28Z</time>
      </trkpt>
      <trkpt lat="45.96238" lon="4.77297">
        <ele>217</ele>
        <time>2018-05-16T11:31:29Z</time>
      </trkpt>
      <trkpt lat="45.96233" lon="4.77294">
        <ele>217</ele>
        <time>2018-05-16T11:31:30Z</time>
      </trkpt>
      <trkpt lat="45.96227" lon="4.7729">
        <ele>217</ele>
        <time>2018-05-16T11:31:31Z</time>
      </trkpt>
      <trkpt lat="45.96221" lon="4.77287">
        <ele>217</ele>
        <time>2018-05-16T11:31:32Z</time>
      </trkpt>
      <trkpt lat="45.96216" lon="4.77284">
        <ele>217</ele>
        <time>2018-05-16T11:31:33Z</time>
      </trkpt>
      <trkpt lat="45.9621" lon="4.7728">
        <ele>217</ele>
        <time>2018-05-16T11:31:34Z</time>
      </trkpt>
      <trkpt lat="45.96205" lon="4.77277">
        <ele>217</ele>
        <time>2018-05-16T11:31:35Z</time>
      </trkpt>
      <trkpt lat="45.96199" lon="4.77275">
        <ele>216</ele>
        <time>2018-05-16T11:31:36Z</time>
      </trkpt>
      <trkpt lat="45.96194" lon="4.77271">
        <ele>216</ele>
        <time>2018-05-16T11:31:37Z</time>
      </trkpt>
      <trkpt lat="45.96188" lon="4.77269">
        <ele>216</ele>
        <time>2018-05-16T11:31:38Z</time>
      </trkpt>
      <trkpt lat="45.96182" lon="4.77265">
        <ele>216</ele>
        <time>2018-05-16T11:31:39Z</time>
      </trkpt>
      <trkpt lat="45.96177" lon="4.77262">
        <ele>216</ele>
        <time>2018-05-16T11:31:40Z</time>
      </trkpt>
      <trkpt lat="45.96171" lon="4.77259">
        <ele>216</ele>
        <time>2018-05-16T11:31:41Z</time>
      </trkpt>
      <trkpt lat="45.96165" lon="4.77255">
        <ele>215</ele>
        <time>2018-05-16T11:31:42Z</time>
      </trkpt>
      <trkpt lat="45.96159" lon="4.77252">
        <ele>215</ele>
        <time>2018-05-16T11:31:43Z</time>
      </trkpt>
      <trkpt lat="45.96154" lon="4.77249">
        <ele>215</ele>
        <time>2018-05-16T11:31:44Z</time>
      </trkpt>
      <trkpt lat="45.96147" lon="4.77247">
        <ele>215</ele>
        <time>2018-05-16T11:31:45Z</time>
      </trkpt>
      <trkpt lat="45.96141" lon="4.77244">
        <ele>215</ele>
        <time>2018-05-16T11:31:46Z</time>
      </trkpt>
      <trkpt lat="45.96135" lon="4.77242">
        <ele>215</ele>
        <time>2018-05-16T11:31:47Z</time>
      </trkpt>
      <trkpt lat="45.96129" lon="4.77241">
        <ele>215</ele>
        <time>2018-05-16T11:31:48Z</time>
      </trkpt>
      <trkpt lat="45.96123" lon="4.77238">
        <ele>214</ele>
        <time>2018-05-16T11:31:49Z</time>
      </trkpt>
      <trkpt lat="45.96116" lon="4.77238">
        <ele>214</ele>
        <time>2018-05-16T11:31:50Z</time>
      </trkpt>
      <trkpt lat="45.96109" lon="4.77237">
        <ele>214</ele>
        <time>2018-05-16T11:31:51Z</time>
      </trkpt>
      <trkpt lat="45.96103" lon="4.77237">
        <ele>213</ele>
        <time>2018-05-16T11:31:52Z</time>
      </trkpt>
      <trkpt lat="45.96097" lon="4.77237">
        <ele>213</ele>
        <time>2018-05-16T11:31:53Z</time>
      </trkpt>
      <trkpt lat="45.9609" lon="4.77239">
        <ele>212</ele>
        <time>2018-05-16T11:31:54Z</time>
      </trkpt>
      <trkpt lat="45.96083" lon="4.7724">
        <ele>210</ele>
        <time>2018-05-16T11:31:55Z</time>
      </trkpt>
      <trkpt lat="45.96076" lon="4.77241">
        <ele>210</ele>
        <time>2018-05-16T11:31:56Z</time>
      </trkpt>
      <trkpt lat="45.96069" lon="4.77241">
        <ele>210</ele>
        <time>2018-05-16T11:31:57Z</time>
      </trkpt>
      <trkpt lat="45.96062" lon="4.77241">
        <ele>209</ele>
        <time>2018-05-16T11:31:58Z</time>
      </trkpt>
      <trkpt lat="45.96055" lon="4.77242">
        <ele>209</ele>
        <time>2018-05-16T11:31:59Z</time>
      </trkpt>
      <trkpt lat="45.96047" lon="4.77243">
        <ele>209</ele>
        <time>2018-05-16T11:32:00Z</time>
      </trkpt>
      <trkpt lat="45.9604" lon="4.77243">
        <ele>208</ele>
        <time>2018-05-16T11:32:01Z</time>
      </trkpt>
      <trkpt lat="45.96032" lon="4.77243">
        <ele>208</ele>
        <time>2018-05-16T11:32:02Z</time>
      </trkpt>
      <trkpt lat="45.96025" lon="4.77244">
        <ele>207</ele>
        <time>2018-05-16T11:32:03Z</time>
      </trkpt>
      <trkpt lat="45.96017" lon="4.77244">
        <ele>206</ele>
        <time>2018-05-16T11:32:04Z</time>
      </trkpt>
      <trkpt lat="45.96009" lon="4.77244">
        <ele>205</ele>
        <time>2018-05-16T11:32:05Z</time>
      </trkpt>
      <trkpt lat="45.96001" lon="4.77243">
        <ele>205</ele>
        <time>2018-05-16T11:32:06Z</time>
      </trkpt>
      <trkpt lat="45.95993" lon="4.77241">
        <ele>202</ele>
        <time>2018-05-16T11:32:07Z</time>
      </trkpt>
      <trkpt lat="45.95986" lon="4.77237">
        <ele>202</ele>
        <time>2018-05-16T11:32:08Z</time>
      </trkpt>
      <trkpt lat="45.95979" lon="4.77232">
        <ele>202</ele>
        <time>2018-05-16T11:32:09Z</time>
      </trkpt>
      <trkpt lat="45.95972" lon="4.77226">
        <ele>202</ele>
        <time>2018-05-16T11:32:10Z</time>
      </trkpt>
      <trkpt lat="45.95965" lon="4.77218">
        <ele>201</ele>
        <time>2018-05-16T11:32:11Z</time>
      </trkpt>
      <trkpt lat="45.9596" lon="4.77209">
        <ele>201</ele>
        <time>2018-05-16T11:32:12Z</time>
      </trkpt>
      <trkpt lat="45.95954" lon="4.77199">
        <ele>201</ele>
        <time>2018-05-16T11:32:13Z</time>
      </trkpt>
      <trkpt lat="45.9595" lon="4.77189">
        <ele>201</ele>
        <time>2018-05-16T11:32:14Z</time>
      </trkpt>
      <trkpt lat="45.95947" lon="4.77178">
        <ele>201</ele>
        <time>2018-05-16T11:32:15Z</time>
      </trkpt>
      <trkpt lat="45.95945" lon="4.77166">
        <ele>201</ele>
        <time>2018-05-16T11:32:16Z</time>
      </trkpt>
      <trkpt lat="45.95944" lon="4.77154">
        <ele>201</ele>
        <time>2018-05-16T11:32:17Z</time>
      </trkpt>
      <trkpt lat="45.95943" lon="4.77143">
        <ele>201</ele>
        <time>2018-05-16T11:32:18Z</time>
      </trkpt>
      <trkpt lat="45.95942" lon="4.7713">
        <ele>201</ele>
        <time>2018-05-16T11:32:19Z</time>
      </trkpt>
      <trkpt lat="45.95943" lon="4.77119">
        <ele>201</ele>
        <time>2018-05-16T11:32:20Z</time>
      </trkpt>
      <trkpt lat="45.95944" lon="4.77107">
        <ele>201</ele>
        <time>2018-05-16T11:32:21Z</time>
      </trkpt>
      <trkpt lat="45.95946" lon="4.77096">
        <ele>201</ele>
        <time>2018-05-16T11:32:22Z</time>
      </trkpt>
      <trkpt lat="45.95948" lon="4.77085">
        <ele>201</ele>
        <time>2018-05-16T11:32:23Z</time>
      </trkpt>
      <trkpt lat="45.95951" lon="4.77073">
        <ele>200</ele>
        <time>2018-05-16T11:32:24Z</time>
      </trkpt>
      <trkpt lat="45.95955" lon="4.77062">
        <ele>200</ele>
        <time>2018-05-16T11:32:25Z</time>
      </trkpt>
      <trkpt lat="45.95959" lon="4.77052">
        <ele>200</ele>
        <time>2018-05-16T11:32:26Z</time>
      </trkpt>
      <trkpt lat="45.95962" lon="4.77041">
        <ele>200</ele>
        <time>2018-05-16T11:32:27Z</time>
      </trkpt>
      <trkpt lat="45.95966" lon="4.77031">
        <ele>200</ele>
        <time>2018-05-16T11:32:28Z</time>
      </trkpt>
      <trkpt lat="45.9597" lon="4.77021">
        <ele>200</ele>
        <time>2018-05-16T11:32:29Z</time>
      </trkpt>
      <trkpt lat="45.95973" lon="4.77011">
        <ele>200</ele>
        <time>2018-05-16T11:32:30Z</time>
      </trkpt>
      <trkpt lat="45.95978" lon="4.77">
        <ele>198</ele>
        <time>2018-05-16T11:32:31Z</time>
      </trkpt>
      <trkpt lat="45.95981" lon="4.76989">
        <ele>198</ele>
        <time>2018-05-16T11:32:32Z</time>
      </trkpt>
      <trkpt lat="45.95983" lon="4.76977">
        <ele>197</ele>
        <time>2018-05-16T11:32:33Z</time>
      </trkpt>
      <trkpt lat="45.95983" lon="4.76966">
        <ele>197</ele>
        <time>2018-05-16T11:32:34Z</time>
      </trkpt>
      <trkpt lat="45.95981" lon="4.76954">
        <ele>196</ele>
        <time>2018-05-16T11:32:35Z</time>
      </trkpt>
      <trkpt lat="45.95977" lon="4.76942">
        <ele>196</ele>
        <time>2018-05-16T11:32:36Z</time>
      </trkpt>
      <trkpt lat="45.95972" lon="4.76931">
        <ele>195</ele>
        <time>2018-05-16T11:32:37Z</time>
      </trkpt>
      <trkpt lat="45.95966" lon="4.76923">
        <ele>195</ele>
        <time>2018-05-16T11:32:38Z</time>
      </trkpt>
      <trkpt lat="45.95959" lon="4.76915">
        <ele>193</ele>
        <time>2018-05-16T11:32:39Z</time>
      </trkpt>
      <trkpt lat="45.95952" lon="4.76907">
        <ele>193</ele>
        <time>2018-05-16T11:32:40Z</time>
      </trkpt>
      <trkpt lat="45.95945" lon="4.76901">
        <ele>193</ele>
        <time>2018-05-16T11:32:41Z</time>
      </trkpt>
      <trkpt lat="45.95938" lon="4.76893">
        <ele>192</ele>
        <time>2018-05-16T11:32:42Z</time>
      </trkpt>
      <trkpt lat="45.95931" lon="4.76886">
        <ele>192</ele>
        <time>2018-05-16T11:32:43Z</time>
      </trkpt>
      <trkpt lat="45.95924" lon="4.76878">
        <ele>192</ele>
        <time>2018-05-16T11:32:44Z</time>
      </trkpt>
      <trkpt lat="45.95917" lon="4.76871">
        <ele>191</ele>
        <time>2018-05-16T11:32:45Z</time>
      </trkpt>
      <trkpt lat="45.9591" lon="4.76864">
        <ele>191</ele>
        <time>2018-05-16T11:32:46Z</time>
      </trkpt>
      <trkpt lat="45.95902" lon="4.76856">
        <ele>191</ele>
        <time>2018-05-16T11:32:47Z</time>
      </trkpt>
      <trkpt lat="45.95896" lon="4.76848">
        <ele>191</ele>
        <time>2018-05-16T11:32:48Z</time>
      </trkpt>
      <trkpt lat="45.95888" lon="4.76841">
        <ele>191</ele>
        <time>2018-05-16T11:32:49Z</time>
      </trkpt>
      <trkpt lat="45.95882" lon="4.76834">
        <ele>191</ele>
        <time>2018-05-16T11:32:50Z</time>
      </trkpt>
      <trkpt lat="45.95875" lon="4.76827">
        <ele>191</ele>
        <time>2018-05-16T11:32:51Z</time>
      </trkpt>
      <trkpt lat="45.95868" lon="4.76821">
        <ele>191</ele>
        <time>2018-05-16T11:32:52Z</time>
      </trkpt>
      <trkpt lat="45.95861" lon="4.76813">
        <ele>191</ele>
        <time>2018-05-16T11:32:53Z</time>
      </trkpt>
      <trkpt lat="45.95855" lon="4.76807">
        <ele>191</ele>
        <time>2018-05-16T11:32:54Z</time>
      </trkpt>
      <trkpt lat="45.95848" lon="4.76802">
        <ele>191</ele>
        <time>2018-05-16T11:32:55Z</time>
      </trkpt>
      <trkpt lat="45.95843" lon="4.76795">
        <ele>191</ele>
        <time>2018-05-16T11:32:56Z</time>
      </trkpt>
      <trkpt lat="45.95838" lon="4.76788">
        <ele>191</ele>
        <time>2018-05-16T11:32:57Z</time>
      </trkpt>
      <trkpt lat="45.95834" lon="4.7678">
        <ele>191</ele>
        <time>2018-05-16T11:32:58Z</time>
      </trkpt>
      <trkpt lat="45.95831" lon="4.76773">
        <ele>190</ele>
        <time>2018-05-16T11:32:59Z</time>
      </trkpt>
      <trkpt lat="45.95829" lon="4.76765">
        <ele>190</ele>
        <time>2018-05-16T11:33:00Z</time>
      </trkpt>
      <trkpt lat="45.95826" lon="4.76756">
        <ele>191</ele>
        <time>2018-05-16T11:33:01Z</time>
      </trkpt>
      <trkpt lat="45.95825" lon="4.76746">
        <ele>190</ele>
        <time>2018-05-16T11:33:02Z</time>
      </trkpt>
      <trkpt lat="45.95824" lon="4.76737">
        <ele>190</ele>
        <time>2018-05-16T11:33:03Z</time>
      </trkpt>
      <trkpt lat="45.95823" lon="4.76728">
        <ele>190</ele>
        <time>2018-05-16T11:33:04Z</time>
      </trkpt>
      <trkpt lat="45.95821" lon="4.76718">
        <ele>189</ele>
        <time>2018-05-16T11:33:05Z</time>
      </trkpt>
      <trkpt lat="45.9582" lon="4.76707">
        <ele>189</ele>
        <time>2018-05-16T11:33:06Z</time>
      </trkpt>
      <trkpt lat="45.95819" lon="4.76697">
        <ele>189</ele>
        <time>2018-05-16T11:33:07Z</time>
      </trkpt>
      <trkpt lat="45.95817" lon="4.76687">
        <ele>189</ele>
        <time>2018-05-16T11:33:08Z</time>
      </trkpt>
      <trkpt lat="45.95816" lon="4.76676">
        <ele>189</ele>
        <time>2018-05-16T11:33:09Z</time>
      </trkpt>
      <trkpt lat="45.95815" lon="4.76667">
        <ele>188</ele>
        <time>2018-05-16T11:33:10Z</time>
      </trkpt>
      <trkpt lat="45.95814" lon="4.76658">
        <ele>188</ele>
        <time>2018-05-16T11:33:11Z</time>
      </trkpt>
      <trkpt lat="45.95813" lon="4.76649">
        <ele>188</ele>
        <time>2018-05-16T11:33:12Z</time>
      </trkpt>
      <trkpt lat="45.95812" lon="4.7664">
        <ele>188</ele>
        <time>2018-05-16T11:33:13Z</time>
      </trkpt>
      <trkpt lat="45.9581" lon="4.76631">
        <ele>188</ele>
        <time>2018-05-16T11:33:14Z</time>
      </trkpt>
      <trkpt lat="45.9581" lon="4.76622">
        <ele>188</ele>
        <time>2018-05-16T11:33:15Z</time>
      </trkpt>
      <trkpt lat="45.95808" lon="4.76613">
        <ele>188</ele>
        <time>2018-05-16T11:33:16Z</time>
      </trkpt>
      <trkpt lat="45.95808" lon="4.76604">
        <ele>188</ele>
        <time>2018-05-16T11:33:17Z</time>
      </trkpt>
      <trkpt lat="45.95807" lon="4.76595">
        <ele>188</ele>
        <time>2018-05-16T11:33:18Z</time>
      </trkpt>
      <trkpt lat="45.95806" lon="4.76586">
        <ele>188</ele>
        <time>2018-05-16T11:33:19Z</time>
      </trkpt>
      <trkpt lat="45.95805" lon="4.76578">
        <ele>187</ele>
        <time>2018-05-16T11:33:20Z</time>
      </trkpt>
      <trkpt lat="45.95804" lon="4.76569">
        <ele>187</ele>
        <time>2018-05-16T11:33:21Z</time>
      </trkpt>
      <trkpt lat="45.95803" lon="4.7656">
        <ele>187</ele>
        <time>2018-05-16T11:33:22Z</time>
      </trkpt>
      <trkpt lat="45.95802" lon="4.76551">
        <ele>187</ele>
        <time>2018-05-16T11:33:23Z</time>
      </trkpt>
      <trkpt lat="45.95801" lon="4.76543">
        <ele>187</ele>
        <time>2018-05-16T11:33:24Z</time>
      </trkpt>
      <trkpt lat="45.958" lon="4.76534">
        <ele>187</ele>
        <time>2018-05-16T11:33:25Z</time>
      </trkpt>
      <trkpt lat="45.95799" lon="4.76526">
        <ele>187</ele>
        <time>2018-05-16T11:33:26Z</time>
      </trkpt>
      <trkpt lat="45.95797" lon="4.76518">
        <ele>187</ele>
        <time>2018-05-16T11:33:27Z</time>
      </trkpt>
      <trkpt lat="45.95796" lon="4.7651">
        <ele>187</ele>
        <time>2018-05-16T11:33:28Z</time>
      </trkpt>
      <trkpt lat="45.95794" lon="4.76503">
        <ele>187</ele>
        <time>2018-05-16T11:33:29Z</time>
      </trkpt>
      <trkpt lat="45.95792" lon="4.76494">
        <ele>187</ele>
        <time>2018-05-16T11:33:30Z</time>
      </trkpt>
      <trkpt lat="45.95791" lon="4.76486">
        <ele>186</ele>
        <time>2018-05-16T11:33:31Z</time>
      </trkpt>
      <trkpt lat="45.9579" lon="4.76477">
        <ele>186</ele>
        <time>2018-05-16T11:33:32Z</time>
      </trkpt>
      <trkpt lat="45.95788" lon="4.76469">
        <ele>186</ele>
        <time>2018-05-16T11:33:33Z</time>
      </trkpt>
      <trkpt lat="45.95787" lon="4.76461">
        <ele>186</ele>
        <time>2018-05-16T11:33:34Z</time>
      </trkpt>
      <trkpt lat="45.95786" lon="4.76452">
        <ele>186</ele>
        <time>2018-05-16T11:33:35Z</time>
      </trkpt>
      <trkpt lat="45.95785" lon="4.76444">
        <ele>186</ele>
        <time>2018-05-16T11:33:36Z</time>
      </trkpt>
      <trkpt lat="45.95784" lon="4.76436">
        <ele>186</ele>
        <time>2018-05-16T11:33:37Z</time>
      </trkpt>
      <trkpt lat="45.95782" lon="4.76429">
        <ele>186</ele>
        <time>2018-05-16T11:33:38Z</time>
      </trkpt>
      <trkpt lat="45.95781" lon="4.76422">
        <ele>186</ele>
        <time>2018-05-16T11:33:39Z</time>
      </trkpt>
      <trkpt lat="45.9578" lon="4.76415">
        <ele>186</ele>
        <time>2018-05-16T11:33:40Z</time>
      </trkpt>
      <trkpt lat="45.95779" lon="4.76406">
        <ele>186</ele>
        <time>2018-05-16T11:33:41Z</time>
      </trkpt>
      <trkpt lat="45.95779" lon="4.76399">
        <ele>186</ele>
        <time>2018-05-16T11:33:42Z</time>
      </trkpt>
      <trkpt lat="45.95779" lon="4.76392">
        <ele>186</ele>
        <time>2018-05-16T11:33:43Z</time>
      </trkpt>
      <trkpt lat="45.95779" lon="4.76383">
        <ele>186</ele>
        <time>2018-05-16T11:33:44Z</time>
      </trkpt>
      <trkpt lat="45.9578" lon="4.76375">
        <ele>186</ele>
        <time>2018-05-16T11:33:45Z</time>
      </trkpt>
      <trkpt lat="45.95779" lon="4.76367">
        <ele>186</ele>
        <time>2018-05-16T11:33:46Z</time>
      </trkpt>
      <trkpt lat="45.95778" lon="4.76359">
        <ele>186</ele>
        <time>2018-05-16T11:33:47Z</time>
      </trkpt>
      <trkpt lat="45.95778" lon="4.76352">
        <ele>186</ele>
        <time>2018-05-16T11:33:48Z</time>
      </trkpt>
      <trkpt lat="45.95778" lon="4.76344">
        <ele>186</ele>
        <time>2018-05-16T11:33:49Z</time>
      </trkpt>
      <trkpt lat="45.95778" lon="4.76336">
        <ele>186</ele>
        <time>2018-05-16T11:33:50Z</time>
      </trkpt>
      <trkpt lat="45.95777" lon="4.76327">
        <ele>186</ele>
        <time>2018-05-16T11:33:51Z</time>
      </trkpt>
      <trkpt lat="45.95777" lon="4.76319">
        <ele>186</ele>
        <time>2018-05-16T11:33:52Z</time>
      </trkpt>
      <trkpt lat="45.95776" lon="4.7631">
        <ele>186</ele>
        <time>2018-05-16T11:33:53Z</time>
      </trkpt>
      <trkpt lat="45.95776" lon="4.76302">
        <ele>186</ele>
        <time>2018-05-16T11:33:54Z</time>
      </trkpt>
      <trkpt lat="45.95775" lon="4.76294">
        <ele>186</ele>
        <time>2018-05-16T11:33:55Z</time>
      </trkpt>
      <trkpt lat="45.95774" lon="4.76286">
        <ele>186</ele>
        <time>2018-05-16T11:33:56Z</time>
      </trkpt>
      <trkpt lat="45.95774" lon="4.76279">
        <ele>186</ele>
        <time>2018-05-16T11:33:57Z</time>
      </trkpt>
      <trkpt lat="45.95773" lon="4.76271">
        <ele>186</ele>
        <time>2018-05-16T11:33:58Z</time>
      </trkpt>
      <trkpt lat="45.95773" lon="4.76262">
        <ele>186</ele>
        <time>2018-05-16T11:33:59Z</time>
      </trkpt>
      <trkpt lat="45.95773" lon="4.76255">
        <ele>186</ele>
        <time>2018-05-16T11:34:00Z</time>
      </trkpt>
      <trkpt lat="45.95772" lon="4.76247">
        <ele>186</ele>
        <time>2018-05-16T11:34:01Z</time>
      </trkpt>
      <trkpt lat="45.95772" lon="4.76239">
        <ele>186</ele>
        <time>2018-05-16T11:34:02Z</time>
      </trkpt>
      <trkpt lat="45.95771" lon="4.76231">
        <ele>186</ele>
        <time>2018-05-16T11:34:03Z</time>
      </trkpt>
      <trkpt lat="45.95771" lon="4.76223">
        <ele>186</ele>
        <time>2018-05-16T11:34:04Z</time>
      </trkpt>
      <trkpt lat="45.95771" lon="4.76215">
        <ele>186</ele>
        <time>2018-05-16T11:34:05Z</time>
      </trkpt>
      <trkpt lat="45.95771" lon="4.76206">
        <ele>186</ele>
        <time>2018-05-16T11:34:06Z</time>
      </trkpt>
      <trkpt lat="45.9577" lon="4.76198">
        <ele>186</ele>
        <time>2018-05-16T11:34:07Z</time>
      </trkpt>
      <trkpt lat="45.9577" lon="4.7619">
        <ele>186</ele>
        <time>2018-05-16T11:34:08Z</time>
      </trkpt>
      <trkpt lat="45.9577" lon="4.76182">
        <ele>186</ele>
        <time>2018-05-16T11:34:09Z</time>
      </trkpt>
      <trkpt lat="45.95769" lon="4.76175">
        <ele>186</ele>
        <time>2018-05-16T11:34:10Z</time>
      </trkpt>
      <trkpt lat="45.95768" lon="4.76167">
        <ele>186</ele>
        <time>2018-05-16T11:34:11Z</time>
      </trkpt>
      <trkpt lat="45.95767" lon="4.76158">
        <ele>186</ele>
        <time>2018-05-16T11:34:12Z</time>
      </trkpt>
      <trkpt lat="45.95767" lon="4.76151">
        <ele>186</ele>
        <time>2018-05-16T11:34:13Z</time>
      </trkpt>
      <trkpt lat="45.95766" lon="4.76142">
        <ele>186</ele>
        <time>2018-05-16T11:34:14Z</time>
      </trkpt>
      <trkpt lat="45.95765" lon="4.76135">
        <ele>186</ele>
        <time>2018-05-16T11:34:15Z</time>
      </trkpt>
      <trkpt lat="45.95765" lon="4.76128">
        <ele>186</ele>
        <time>2018-05-16T11:34:16Z</time>
      </trkpt>
      <trkpt lat="45.95763" lon="4.76121">
        <ele>186</ele>
        <time>2018-05-16T11:34:17Z</time>
      </trkpt>
      <trkpt lat="45.95762" lon="4.76114">
        <ele>186</ele>
        <time>2018-05-16T11:34:18Z</time>
      </trkpt>
      <trkpt lat="45.9576" lon="4.76108">
        <ele>186</ele>
        <time>2018-05-16T11:34:19Z</time>
      </trkpt>
      <trkpt lat="45.95758" lon="4.76101">
        <ele>186</ele>
        <time>2018-05-16T11:34:20Z</time>
      </trkpt>
      <trkpt lat="45.95756" lon="4.76093">
        <ele>186</ele>
        <time>2018-05-16T11:34:21Z</time>
      </trkpt>
      <trkpt lat="45.95753" lon="4.76085">
        <ele>185</ele>
        <time>2018-05-16T11:34:22Z</time>
      </trkpt>
      <trkpt lat="45.9575" lon="4.76077">
        <ele>186</ele>
        <time>2018-05-16T11:34:23Z</time>
      </trkpt>
      <trkpt lat="45.95748" lon="4.7607">
        <ele>185</ele>
        <time>2018-05-16T11:34:24Z</time>
      </trkpt>
      <trkpt lat="45.95745" lon="4.76062">
        <ele>185</ele>
        <time>2018-05-16T11:34:25Z</time>
      </trkpt>
      <trkpt lat="45.95742" lon="4.76055">
        <ele>184</ele>
        <time>2018-05-16T11:34:26Z</time>
      </trkpt>
      <trkpt lat="45.95738" lon="4.76047">
        <ele>184</ele>
        <time>2018-05-16T11:34:27Z</time>
      </trkpt>
      <trkpt lat="45.95735" lon="4.76039">
        <ele>184</ele>
        <time>2018-05-16T11:34:28Z</time>
      </trkpt>
      <trkpt lat="45.95731" lon="4.76031">
        <ele>184</ele>
        <time>2018-05-16T11:34:29Z</time>
      </trkpt>
      <trkpt lat="45.95728" lon="4.76024">
        <ele>185</ele>
        <time>2018-05-16T11:34:30Z</time>
      </trkpt>
      <trkpt lat="45.95724" lon="4.76017">
        <ele>185</ele>
        <time>2018-05-16T11:34:31Z</time>
      </trkpt>
      <trkpt lat="45.95721" lon="4.7601">
        <ele>184</ele>
        <time>2018-05-16T11:34:32Z</time>
      </trkpt>
      <trkpt lat="45.95718" lon="4.76004">
        <ele>184</ele>
        <time>2018-05-16T11:34:33Z</time>
      </trkpt>
      <trkpt lat="45.95714" lon="4.75997">
        <ele>185</ele>
        <time>2018-05-16T11:34:34Z</time>
      </trkpt>
      <trkpt lat="45.95711" lon="4.7599">
        <ele>185</ele>
        <time>2018-05-16T11:34:35Z</time>
      </trkpt>
      <trkpt lat="45.95708" lon="4.75983">
        <ele>185</ele>
        <time>2018-05-16T11:34:36Z</time>
      </trkpt>
      <trkpt lat="45.95705" lon="4.75976">
        <ele>185</ele>
        <time>2018-05-16T11:34:37Z</time>
      </trkpt>
      <trkpt lat="45.95702" lon="4.7597">
        <ele>185</ele>
        <time>2018-05-16T11:34:38Z</time>
      </trkpt>
      <trkpt lat="45.95699" lon="4.75963">
        <ele>185</ele>
        <time>2018-05-16T11:34:39Z</time>
      </trkpt>
      <trkpt lat="45.95696" lon="4.75956">
        <ele>185</ele>
        <time>2018-05-16T11:34:40Z</time>
      </trkpt>
      <trkpt lat="45.95692" lon="4.75948">
        <ele>185</ele>
        <time>2018-05-16T11:34:41Z</time>
      </trkpt>
      <trkpt lat="45.95689" lon="4.7594">
        <ele>185</ele>
        <time>2018-05-16T11:34:42Z</time>
      </trkpt>
      <trkpt lat="45.95686" lon="4.75934">
        <ele>185</ele>
        <time>2018-05-16T11:34:43Z</time>
      </trkpt>
      <trkpt lat="45.95683" lon="4.75926">
        <ele>185</ele>
        <time>2018-05-16T11:34:44Z</time>
      </trkpt>
      <trkpt lat="45.9568" lon="4.75919">
        <ele>185</ele>
        <time>2018-05-16T11:34:45Z</time>
      </trkpt>
      <trkpt lat="45.95677" lon="4.75911">
        <ele>185</ele>
        <time>2018-05-16T11:34:46Z</time>
      </trkpt>
      <trkpt lat="45.95675" lon="4.75904">
        <ele>185</ele>
        <time>2018-05-16T11:34:47Z</time>
      </trkpt>
      <trkpt lat="45.95672" lon="4.75897">
        <ele>186</ele>
        <time>2018-05-16T11:34:48Z</time>
      </trkpt>
      <trkpt lat="45.95669" lon="4.7589">
        <ele>186</ele>
        <time>2018-05-16T11:34:49Z</time>
      </trkpt>
      <trkpt lat="45.95667" lon="4.75882">
        <ele>186</ele>
        <time>2018-05-16T11:34:50Z</time>
      </trkpt>
      <trkpt lat="45.95665" lon="4.75875">
        <ele>184</ele>
        <time>2018-05-16T11:34:51Z</time>
      </trkpt>
      <trkpt lat="45.95663" lon="4.75868">
        <ele>184</ele>
        <time>2018-05-16T11:34:52Z</time>
      </trkpt>
      <trkpt lat="45.9566" lon="4.75861">
        <ele>184</ele>
        <time>2018-05-16T11:34:53Z</time>
      </trkpt>
      <trkpt lat="45.95658" lon="4.75854">
        <ele>185</ele>
        <time>2018-05-16T11:34:54Z</time>
      </trkpt>
      <trkpt lat="45.95657" lon="4.75845">
        <ele>185</ele>
        <time>2018-05-16T11:34:55Z</time>
      </trkpt>
      <trkpt lat="45.95655" lon="4.75839">
        <ele>185</ele>
        <time>2018-05-16T11:34:56Z</time>
      </trkpt>
      <trkpt lat="45.95653" lon="4.75832">
        <ele>186</ele>
        <time>2018-05-16T11:34:57Z</time>
      </trkpt>
      <trkpt lat="45.95651" lon="4.75825">
        <ele>185</ele>
        <time>2018-05-16T11:34:58Z</time>
      </trkpt>
      <trkpt lat="45.9565" lon="4.75817">
        <ele>185</ele>
        <time>2018-05-16T11:34:59Z</time>
      </trkpt>
      <trkpt lat="45.95648" lon="4.7581">
        <ele>185</ele>
        <time>2018-05-16T11:35:00Z</time>
      </trkpt>
      <trkpt lat="45.95647" lon="4.75803">
        <ele>185</ele>
        <time>2018-05-16T11:35:01Z</time>
      </trkpt>
      <trkpt lat="45.95646" lon="4.75797">
        <ele>185</ele>
        <time>2018-05-16T11:35:02Z</time>
      </trkpt>
      <trkpt lat="45.95645" lon="4.7579">
        <ele>185</ele>
        <time>2018-05-16T11:35:03Z</time>
      </trkpt>
      <trkpt lat="45.95644" lon="4.75783">
        <ele>186</ele>
        <time>2018-05-16T11:35:04Z</time>
      </trkpt>
      <trkpt lat="45.95643" lon="4.75775">
        <ele>186</ele>
        <time>2018-05-16T11:35:05Z</time>
      </trkpt>
      <trkpt lat="45.95643" lon="4.75768">
        <ele>186</ele>
        <time>2018-05-16T11:35:06Z</time>
      </trkpt>
      <trkpt lat="45.95642" lon="4.75761">
        <ele>186</ele>
        <time>2018-05-16T11:35:07Z</time>
      </trkpt>
      <trkpt lat="45.95641" lon="4.75754">
        <ele>186</ele>
        <time>2018-05-16T11:35:08Z</time>
      </trkpt>
      <trkpt lat="45.9564" lon="4.75747">
        <ele>187</ele>
        <time>2018-05-16T11:35:09Z</time>
      </trkpt>
      <trkpt lat="45.95638" lon="4.75739">
        <ele>187</ele>
        <time>2018-05-16T11:35:10Z</time>
      </trkpt>
      <trkpt lat="45.95636" lon="4.75732">
        <ele>187</ele>
        <time>2018-05-16T11:35:11Z</time>
      </trkpt>
      <trkpt lat="45.95634" lon="4.75725">
        <ele>187</ele>
        <time>2018-05-16T11:35:12Z</time>
      </trkpt>
      <trkpt lat="45.95633" lon="4.75718">
        <ele>187</ele>
        <time>2018-05-16T11:35:13Z</time>
      </trkpt>
      <trkpt lat="45.95632" lon="4.75705">
        <ele>187</ele>
        <time>2018-05-16T11:35:15Z</time>
      </trkpt>
      <trkpt lat="45.95631" lon="4.75698">
        <ele>187</ele>
        <time>2018-05-16T11:35:16Z</time>
      </trkpt>
      <trkpt lat="45.9563" lon="4.75692">
        <ele>187</ele>
        <time>2018-05-16T11:35:17Z</time>
      </trkpt>
      <trkpt lat="45.95629" lon="4.75684">
        <ele>187</ele>
        <time>2018-05-16T11:35:18Z</time>
      </trkpt>
      <trkpt lat="45.95628" lon="4.75676">
        <ele>187</ele>
        <time>2018-05-16T11:35:19Z</time>
      </trkpt>
      <trkpt lat="45.95626" lon="4.75668">
        <ele>187</ele>
        <time>2018-05-16T11:35:20Z</time>
      </trkpt>
      <trkpt lat="45.95625" lon="4.75662">
        <ele>188</ele>
        <time>2018-05-16T11:35:21Z</time>
      </trkpt>
      <trkpt lat="45.95623" lon="4.75654">
        <ele>188</ele>
        <time>2018-05-16T11:35:22Z</time>
      </trkpt>
      <trkpt lat="45.95621" lon="4.75648">
        <ele>188</ele>
        <time>2018-05-16T11:35:23Z</time>
      </trkpt>
      <trkpt lat="45.95619" lon="4.75641">
        <ele>188</ele>
        <time>2018-05-16T11:35:24Z</time>
      </trkpt>
      <trkpt lat="45.95618" lon="4.75634">
        <ele>188</ele>
        <time>2018-05-16T11:35:25Z</time>
      </trkpt>
      <trkpt lat="45.95615" lon="4.75628">
        <ele>188</ele>
        <time>2018-05-16T11:35:26Z</time>
      </trkpt>
      <trkpt lat="45.95614" lon="4.75622">
        <ele>188</ele>
        <time>2018-05-16T11:35:27Z</time>
      </trkpt>
      <trkpt lat="45.95611" lon="4.75615">
        <ele>188</ele>
        <time>2018-05-16T11:35:28Z</time>
      </trkpt>
      <trkpt lat="45.95609" lon="4.75608">
        <ele>188</ele>
        <time>2018-05-16T11:35:29Z</time>
      </trkpt>
      <trkpt lat="45.95608" lon="4.756">
        <ele>187</ele>
        <time>2018-05-16T11:35:30Z</time>
      </trkpt>
      <trkpt lat="45.95604" lon="4.75594">
        <ele>187</ele>
        <time>2018-05-16T11:35:31Z</time>
      </trkpt>
      <trkpt lat="45.95602" lon="4.75588">
        <ele>187</ele>
        <time>2018-05-16T11:35:32Z</time>
      </trkpt>
      <trkpt lat="45.95599" lon="4.75581">
        <ele>188</ele>
        <time>2018-05-16T11:35:33Z</time>
      </trkpt>
      <trkpt lat="45.95595" lon="4.75575">
        <ele>188</ele>
        <time>2018-05-16T11:35:34Z</time>
      </trkpt>
      <trkpt lat="45.95591" lon="4.75567">
        <ele>188</ele>
        <time>2018-05-16T11:35:35Z</time>
      </trkpt>
      <trkpt lat="45.95588" lon="4.75561">
        <ele>188</ele>
        <time>2018-05-16T11:35:36Z</time>
      </trkpt>
      <trkpt lat="45.95583" lon="4.75554">
        <ele>186</ele>
        <time>2018-05-16T11:35:37Z</time>
      </trkpt>
      <trkpt lat="45.95579" lon="4.75548">
        <ele>186</ele>
        <time>2018-05-16T11:35:38Z</time>
      </trkpt>
      <trkpt lat="45.95574" lon="4.75541">
        <ele>186</ele>
        <time>2018-05-16T11:35:39Z</time>
      </trkpt>
      <trkpt lat="45.9557" lon="4.75535">
        <ele>186</ele>
        <time>2018-05-16T11:35:40Z</time>
      </trkpt>
      <trkpt lat="45.95565" lon="4.75531">
        <ele>186</ele>
        <time>2018-05-16T11:35:41Z</time>
      </trkpt>
      <trkpt lat="45.95559" lon="4.75525">
        <ele>186</ele>
        <time>2018-05-16T11:35:42Z</time>
      </trkpt>
      <trkpt lat="45.95555" lon="4.7552">
        <ele>186</ele>
        <time>2018-05-16T11:35:43Z</time>
      </trkpt>
      <trkpt lat="45.95551" lon="4.75515">
        <ele>186</ele>
        <time>2018-05-16T11:35:44Z</time>
      </trkpt>
      <trkpt lat="45.95547" lon="4.75509">
        <ele>186</ele>
        <time>2018-05-16T11:35:45Z</time>
      </trkpt>
      <trkpt lat="45.95544" lon="4.75503">
        <ele>186</ele>
        <time>2018-05-16T11:35:46Z</time>
      </trkpt>
      <trkpt lat="45.95542" lon="4.75495">
        <ele>187</ele>
        <time>2018-05-16T11:35:47Z</time>
      </trkpt>
      <trkpt lat="45.95542" lon="4.75487">
        <ele>187</ele>
        <time>2018-05-16T11:35:48Z</time>
      </trkpt>
      <trkpt lat="45.95541" lon="4.7548">
        <ele>187</ele>
        <time>2018-05-16T11:35:49Z</time>
      </trkpt>
      <trkpt lat="45.95541" lon="4.75472">
        <ele>187</ele>
        <time>2018-05-16T11:35:50Z</time>
      </trkpt>
      <trkpt lat="45.95538" lon="4.75465">
        <ele>187</ele>
        <time>2018-05-16T11:35:51Z</time>
      </trkpt>
      <trkpt lat="45.95534" lon="4.75458">
        <ele>187</ele>
        <time>2018-05-16T11:35:52Z</time>
      </trkpt>
      <trkpt lat="45.9553" lon="4.75452">
        <ele>187</ele>
        <time>2018-05-16T11:35:53Z</time>
      </trkpt>
      <trkpt lat="45.95526" lon="4.75445">
        <ele>187</ele>
        <time>2018-05-16T11:35:54Z</time>
      </trkpt>
      <trkpt lat="45.95521" lon="4.75437">
        <ele>187</ele>
        <time>2018-05-16T11:35:55Z</time>
      </trkpt>
      <trkpt lat="45.95517" lon="4.7543">
        <ele>187</ele>
        <time>2018-05-16T11:35:56Z</time>
      </trkpt>
      <trkpt lat="45.95515" lon="4.75422">
        <ele>186</ele>
        <time>2018-05-16T11:35:57Z</time>
      </trkpt>
      <trkpt lat="45.95512" lon="4.75414">
        <ele>187</ele>
        <time>2018-05-16T11:35:58Z</time>
      </trkpt>
      <trkpt lat="45.9551" lon="4.75406">
        <ele>187</ele>
        <time>2018-05-16T11:35:59Z</time>
      </trkpt>
      <trkpt lat="45.95507" lon="4.75398">
        <ele>187</ele>
        <time>2018-05-16T11:36:00Z</time>
      </trkpt>
      <trkpt lat="45.95504" lon="4.75391">
        <ele>188</ele>
        <time>2018-05-16T11:36:01Z</time>
      </trkpt>
      <trkpt lat="45.95502" lon="4.75385">
        <ele>188</ele>
        <time>2018-05-16T11:36:02Z</time>
      </trkpt>
      <trkpt lat="45.95498" lon="4.75378">
        <ele>185</ele>
        <time>2018-05-16T11:36:03Z</time>
      </trkpt>
      <trkpt lat="45.95495" lon="4.75372">
        <ele>186</ele>
        <time>2018-05-16T11:36:04Z</time>
      </trkpt>
      <trkpt lat="45.95492" lon="4.75365">
        <ele>186</ele>
        <time>2018-05-16T11:36:05Z</time>
      </trkpt>
      <trkpt lat="45.95489" lon="4.7536">
        <ele>186</ele>
        <time>2018-05-16T11:36:06Z</time>
      </trkpt>
      <trkpt lat="45.95486" lon="4.75354">
        <ele>186</ele>
        <time>2018-05-16T11:36:07Z</time>
      </trkpt>
      <trkpt lat="45.95484" lon="4.75347">
        <ele>186</ele>
        <time>2018-05-16T11:36:08Z</time>
      </trkpt>
      <trkpt lat="45.95481" lon="4.75341">
        <ele>186</ele>
        <time>2018-05-16T11:36:09Z</time>
      </trkpt>
      <trkpt lat="45.95477" lon="4.75335">
        <ele>186</ele>
        <time>2018-05-16T11:36:10Z</time>
      </trkpt>
      <trkpt lat="45.95475" lon="4.75329">
        <ele>188</ele>
        <time>2018-05-16T11:36:11Z</time>
      </trkpt>
      <trkpt lat="45.95471" lon="4.75324">
        <ele>188</ele>
        <time>2018-05-16T11:36:12Z</time>
      </trkpt>
      <trkpt lat="45.95468" lon="4.75318">
        <ele>188</ele>
        <time>2018-05-16T11:36:13Z</time>
      </trkpt>
      <trkpt lat="45.95465" lon="4.75313">
        <ele>188</ele>
        <time>2018-05-16T11:36:14Z</time>
      </trkpt>
      <trkpt lat="45.95462" lon="4.75308">
        <ele>188</ele>
        <time>2018-05-16T11:36:15Z</time>
      </trkpt>
      <trkpt lat="45.95458" lon="4.75304">
        <ele>188</ele>
        <time>2018-05-16T11:36:16Z</time>
      </trkpt>
      <trkpt lat="45.95456" lon="4.75297">
        <ele>188</ele>
        <time>2018-05-16T11:36:17Z</time>
      </trkpt>
      <trkpt lat="45.95453" lon="4.75292">
        <ele>188</ele>
        <time>2018-05-16T11:36:18Z</time>
      </trkpt>
      <trkpt lat="45.9545" lon="4.75286">
        <ele>188</ele>
        <time>2018-05-16T11:36:19Z</time>
      </trkpt>
      <trkpt lat="45.95447" lon="4.75281">
        <ele>189</ele>
        <time>2018-05-16T11:36:20Z</time>
      </trkpt>
      <trkpt lat="45.95444" lon="4.75275">
        <ele>189</ele>
        <time>2018-05-16T11:36:21Z</time>
      </trkpt>
      <trkpt lat="45.95442" lon="4.75268">
        <ele>189</ele>
        <time>2018-05-16T11:36:22Z</time>
      </trkpt>
      <trkpt lat="45.95439" lon="4.75263">
        <ele>189</ele>
        <time>2018-05-16T11:36:23Z</time>
      </trkpt>
      <trkpt lat="45.95436" lon="4.75256">
        <ele>189</ele>
        <time>2018-05-16T11:36:24Z</time>
      </trkpt>
      <trkpt lat="45.95434" lon="4.75251">
        <ele>189</ele>
        <time>2018-05-16T11:36:25Z</time>
      </trkpt>
      <trkpt lat="45.95432" lon="4.75244">
        <ele>190</ele>
        <time>2018-05-16T11:36:26Z</time>
      </trkpt>
      <trkpt lat="45.9543" lon="4.75238">
        <ele>190</ele>
        <time>2018-05-16T11:36:27Z</time>
      </trkpt>
      <trkpt lat="45.95426" lon="4.75233">
        <ele>190</ele>
        <time>2018-05-16T11:36:28Z</time>
      </trkpt>
      <trkpt lat="45.95424" lon="4.75227">
        <ele>191</ele>
        <time>2018-05-16T11:36:29Z</time>
      </trkpt>
      <trkpt lat="45.95421" lon="4.75222">
        <ele>191</ele>
        <time>2018-05-16T11:36:30Z</time>
      </trkpt>
      <trkpt lat="45.95416" lon="4.75217">
        <ele>189</ele>
        <time>2018-05-16T11:36:31Z</time>
      </trkpt>
      <trkpt lat="45.95414" lon="4.75212">
        <ele>189</ele>
        <time>2018-05-16T11:36:32Z</time>
      </trkpt>
      <trkpt lat="45.95411" lon="4.75207">
        <ele>189</ele>
        <time>2018-05-16T11:36:33Z</time>
      </trkpt>
      <trkpt lat="45.95408" lon="4.75202">
        <ele>189</ele>
        <time>2018-05-16T11:36:34Z</time>
      </trkpt>
      <trkpt lat="45.95405" lon="4.75197">
        <ele>189</ele>
        <time>2018-05-16T11:36:35Z</time>
      </trkpt>
      <trkpt lat="45.95401" lon="4.75192">
        <ele>189</ele>
        <time>2018-05-16T11:36:36Z</time>
      </trkpt>
      <trkpt lat="45.95399" lon="4.75187">
        <ele>189</ele>
        <time>2018-05-16T11:36:37Z</time>
      </trkpt>
      <trkpt lat="45.95395" lon="4.75181">
        <ele>189</ele>
        <time>2018-05-16T11:36:38Z</time>
      </trkpt>
      <trkpt lat="45.95392" lon="4.75176">
        <ele>189</ele>
        <time>2018-05-16T11:36:39Z</time>
      </trkpt>
      <trkpt lat="45.95388" lon="4.75171">
        <ele>189</ele>
        <time>2018-05-16T11:36:40Z</time>
      </trkpt>
      <trkpt lat="45.95385" lon="4.75166">
        <ele>191</ele>
        <time>2018-05-16T11:36:41Z</time>
      </trkpt>
      <trkpt lat="45.95381" lon="4.7516">
        <ele>191</ele>
        <time>2018-05-16T11:36:42Z</time>
      </trkpt>
      <trkpt lat="45.95378" lon="4.75155">
        <ele>191</ele>
        <time>2018-05-16T11:36:43Z</time>
      </trkpt>
      <trkpt lat="45.95374" lon="4.75151">
        <ele>191</ele>
        <time>2018-05-16T11:36:44Z</time>
      </trkpt>
      <trkpt lat="45.95372" lon="4.75145">
        <ele>191</ele>
        <time>2018-05-16T11:36:45Z</time>
      </trkpt>
      <trkpt lat="45.95369" lon="4.7514">
        <ele>191</ele>
        <time>2018-05-16T11:36:46Z</time>
      </trkpt>
      <trkpt lat="45.95366" lon="4.75134">
        <ele>191</ele>
        <time>2018-05-16T11:36:47Z</time>
      </trkpt>
      <trkpt lat="45.95363" lon="4.75129">
        <ele>191</ele>
        <time>2018-05-16T11:36:48Z</time>
      </trkpt>
      <trkpt lat="45.9536" lon="4.75125">
        <ele>191</ele>
        <time>2018-05-16T11:36:49Z</time>
      </trkpt>
      <trkpt lat="45.95356" lon="4.7512">
        <ele>191</ele>
        <time>2018-05-16T11:36:50Z</time>
      </trkpt>
      <trkpt lat="45.95353" lon="4.75115">
        <ele>192</ele>
        <time>2018-05-16T11:36:51Z</time>
      </trkpt>
      <trkpt lat="45.9535" lon="4.7511">
        <ele>192</ele>
        <time>2018-05-16T11:36:52Z</time>
      </trkpt>
      <trkpt lat="45.95347" lon="4.75104">
        <ele>192</ele>
        <time>2018-05-16T11:36:53Z</time>
      </trkpt>
      <trkpt lat="45.95344" lon="4.75099">
        <ele>192</ele>
        <time>2018-05-16T11:36:54Z</time>
      </trkpt>
      <trkpt lat="45.9534" lon="4.75094">
        <ele>192</ele>
        <time>2018-05-16T11:36:55Z</time>
      </trkpt>
      <trkpt lat="45.95337" lon="4.75089">
        <ele>193</ele>
        <time>2018-05-16T11:36:56Z</time>
      </trkpt>
      <trkpt lat="45.95334" lon="4.75084">
        <ele>193</ele>
        <time>2018-05-16T11:36:57Z</time>
      </trkpt>
      <trkpt lat="45.95331" lon="4.75079">
        <ele>193</ele>
        <time>2018-05-16T11:36:58Z</time>
      </trkpt>
      <trkpt lat="45.95328" lon="4.75073">
        <ele>192</ele>
        <time>2018-05-16T11:36:59Z</time>
      </trkpt>
      <trkpt lat="45.95325" lon="4.75068">
        <ele>192</ele>
        <time>2018-05-16T11:37:00Z</time>
      </trkpt>
      <trkpt lat="45.95322" lon="4.75063">
        <ele>192</ele>
        <time>2018-05-16T11:37:01Z</time>
      </trkpt>
      <trkpt lat="45.95318" lon="4.75058">
        <ele>192</ele>
        <time>2018-05-16T11:37:02Z</time>
      </trkpt>
      <trkpt lat="45.95315" lon="4.75052">
        <ele>192</ele>
        <time>2018-05-16T11:37:03Z</time>
      </trkpt>
      <trkpt lat="45.95311" lon="4.75047">
        <ele>192</ele>
        <time>2018-05-16T11:37:04Z</time>
      </trkpt>
      <trkpt lat="45.95308" lon="4.75041">
        <ele>192</ele>
        <time>2018-05-16T11:37:05Z</time>
      </trkpt>
      <trkpt lat="45.95304" lon="4.75037">
        <ele>192</ele>
        <time>2018-05-16T11:37:06Z</time>
      </trkpt>
      <trkpt lat="45.953" lon="4.75032">
        <ele>192</ele>
        <time>2018-05-16T11:37:07Z</time>
      </trkpt>
      <trkpt lat="45.95297" lon="4.75026">
        <ele>191</ele>
        <time>2018-05-16T11:37:08Z</time>
      </trkpt>
      <trkpt lat="45.95294" lon="4.75021">
        <ele>191</ele>
        <time>2018-05-16T11:37:09Z</time>
      </trkpt>
      <trkpt lat="45.9529" lon="4.75014">
        <ele>191</ele>
        <time>2018-05-16T11:37:10Z</time>
      </trkpt>
      <trkpt lat="45.95287" lon="4.75009">
        <ele>191</ele>
        <time>2018-05-16T11:37:11Z</time>
      </trkpt>
      <trkpt lat="45.95284" lon="4.75004">
        <ele>191</ele>
        <time>2018-05-16T11:37:12Z</time>
      </trkpt>
      <trkpt lat="45.9528" lon="4.74998">
        <ele>192</ele>
        <time>2018-05-16T11:37:13Z</time>
      </trkpt>
      <trkpt lat="45.95277" lon="4.74992">
        <ele>192</ele>
        <time>2018-05-16T11:37:14Z</time>
      </trkpt>
      <trkpt lat="45.95273" lon="4.74987">
        <ele>192</ele>
        <time>2018-05-16T11:37:15Z</time>
      </trkpt>
      <trkpt lat="45.95269" lon="4.74981">
        <ele>192</ele>
        <time>2018-05-16T11:37:16Z</time>
      </trkpt>
      <trkpt lat="45.95265" lon="4.74976">
        <ele>192</ele>
        <time>2018-05-16T11:37:17Z</time>
      </trkpt>
      <trkpt lat="45.95262" lon="4.74971">
        <ele>192</ele>
        <time>2018-05-16T11:37:18Z</time>
      </trkpt>
      <trkpt lat="45.95259" lon="4.74966">
        <ele>192</ele>
        <time>2018-05-16T11:37:19Z</time>
      </trkpt>
      <trkpt lat="45.95255" lon="4.7496">
        <ele>192</ele>
        <time>2018-05-16T11:37:20Z</time>
      </trkpt>
      <trkpt lat="45.9525" lon="4.74954">
        <ele>192</ele>
        <time>2018-05-16T11:37:21Z</time>
      </trkpt>
      <trkpt lat="45.95247" lon="4.74948">
        <ele>192</ele>
        <time>2018-05-16T11:37:22Z</time>
      </trkpt>
      <trkpt lat="45.95243" lon="4.74942">
        <ele>192</ele>
        <time>2018-05-16T11:37:23Z</time>
      </trkpt>
      <trkpt lat="45.95239" lon="4.74936">
        <ele>192</ele>
        <time>2018-05-16T11:37:24Z</time>
      </trkpt>
      <trkpt lat="45.95235" lon="4.7493">
        <ele>192</ele>
        <time>2018-05-16T11:37:25Z</time>
      </trkpt>
      <trkpt lat="45.95231" lon="4.74924">
        <ele>192</ele>
        <time>2018-05-16T11:37:26Z</time>
      </trkpt>
      <trkpt lat="45.95228" lon="4.74918">
        <ele>192</ele>
        <time>2018-05-16T11:37:27Z</time>
      </trkpt>
      <trkpt lat="45.95224" lon="4.74912">
        <ele>193</ele>
        <time>2018-05-16T11:37:28Z</time>
      </trkpt>
      <trkpt lat="45.9522" lon="4.74906">
        <ele>193</ele>
        <time>2018-05-16T11:37:29Z</time>
      </trkpt>
      <trkpt lat="45.95217" lon="4.74901">
        <ele>193</ele>
        <time>2018-05-16T11:37:30Z</time>
      </trkpt>
      <trkpt lat="45.95213" lon="4.74896">
        <ele>193</ele>
        <time>2018-05-16T11:37:31Z</time>
      </trkpt>
      <trkpt lat="45.95209" lon="4.74891">
        <ele>193</ele>
        <time>2018-05-16T11:37:32Z</time>
      </trkpt>
      <trkpt lat="45.95206" lon="4.74885">
        <ele>194</ele>
        <time>2018-05-16T11:37:33Z</time>
      </trkpt>
      <trkpt lat="45.95202" lon="4.74881">
        <ele>194</ele>
        <time>2018-05-16T11:37:34Z</time>
      </trkpt>
      <trkpt lat="45.95199" lon="4.74876">
        <ele>194</ele>
        <time>2018-05-16T11:37:35Z</time>
      </trkpt>
      <trkpt lat="45.95195" lon="4.74871">
        <ele>194</ele>
        <time>2018-05-16T11:37:36Z</time>
      </trkpt>
      <trkpt lat="45.95192" lon="4.74866">
        <ele>194</ele>
        <time>2018-05-16T11:37:37Z</time>
      </trkpt>
      <trkpt lat="45.95188" lon="4.7486">
        <ele>194</ele>
        <time>2018-05-16T11:37:38Z</time>
      </trkpt>
      <trkpt lat="45.95184" lon="4.74853">
        <ele>194</ele>
        <time>2018-05-16T11:37:39Z</time>
      </trkpt>
      <trkpt lat="45.9518" lon="4.74846">
        <ele>194</ele>
        <time>2018-05-16T11:37:40Z</time>
      </trkpt>
      <trkpt lat="45.95176" lon="4.74839">
        <ele>194</ele>
        <time>2018-05-16T11:37:41Z</time>
      </trkpt>
      <trkpt lat="45.95172" lon="4.74833">
        <ele>194</ele>
        <time>2018-05-16T11:37:42Z</time>
      </trkpt>
      <trkpt lat="45.95168" lon="4.74827">
        <ele>194</ele>
        <time>2018-05-16T11:37:43Z</time>
      </trkpt>
      <trkpt lat="45.95164" lon="4.7482">
        <ele>194</ele>
        <time>2018-05-16T11:37:44Z</time>
      </trkpt>
      <trkpt lat="45.9516" lon="4.74814">
        <ele>194</ele>
        <time>2018-05-16T11:37:45Z</time>
      </trkpt>
      <trkpt lat="45.95157" lon="4.74808">
        <ele>194</ele>
        <time>2018-05-16T11:37:46Z</time>
      </trkpt>
      <trkpt lat="45.95153" lon="4.74802">
        <ele>194</ele>
        <time>2018-05-16T11:37:47Z</time>
      </trkpt>
      <trkpt lat="45.9515" lon="4.74796">
        <ele>194</ele>
        <time>2018-05-16T11:37:48Z</time>
      </trkpt>
      <trkpt lat="45.95147" lon="4.7479">
        <ele>194</ele>
        <time>2018-05-16T11:37:49Z</time>
      </trkpt>
      <trkpt lat="45.95143" lon="4.74784">
        <ele>194</ele>
        <time>2018-05-16T11:37:50Z</time>
      </trkpt>
      <trkpt lat="45.95139" lon="4.74779">
        <ele>194</ele>
        <time>2018-05-16T11:37:51Z</time>
      </trkpt>
      <trkpt lat="45.95136" lon="4.74773">
        <ele>194</ele>
        <time>2018-05-16T11:37:52Z</time>
      </trkpt>
      <trkpt lat="45.95132" lon="4.74766">
        <ele>194</ele>
        <time>2018-05-16T11:37:53Z</time>
      </trkpt>
      <trkpt lat="45.95128" lon="4.74759">
        <ele>194</ele>
        <time>2018-05-16T11:37:54Z</time>
      </trkpt>
      <trkpt lat="45.95125" lon="4.74753">
        <ele>194</ele>
        <time>2018-05-16T11:37:55Z</time>
      </trkpt>
      <trkpt lat="45.95121" lon="4.74747">
        <ele>194</ele>
        <time>2018-05-16T11:37:56Z</time>
      </trkpt>
      <trkpt lat="45.95118" lon="4.74741">
        <ele>194</ele>
        <time>2018-05-16T11:37:57Z</time>
      </trkpt>
      <trkpt lat="45.95112" lon="4.74736">
        <ele>194</ele>
        <time>2018-05-16T11:37:58Z</time>
      </trkpt>
      <trkpt lat="45.95109" lon="4.74729">
        <ele>194</ele>
        <time>2018-05-16T11:37:59Z</time>
      </trkpt>
      <trkpt lat="45.95106" lon="4.74722">
        <ele>194</ele>
        <time>2018-05-16T11:38:00Z</time>
      </trkpt>
      <trkpt lat="45.95103" lon="4.74715">
        <ele>194</ele>
        <time>2018-05-16T11:38:01Z</time>
      </trkpt>
      <trkpt lat="45.95099" lon="4.74709">
        <ele>194</ele>
        <time>2018-05-16T11:38:02Z</time>
      </trkpt>
      <trkpt lat="45.95094" lon="4.74704">
        <ele>194</ele>
        <time>2018-05-16T11:38:03Z</time>
      </trkpt>
      <trkpt lat="45.9509" lon="4.74698">
        <ele>194</ele>
        <time>2018-05-16T11:38:04Z</time>
      </trkpt>
      <trkpt lat="45.95086" lon="4.74692">
        <ele>195</ele>
        <time>2018-05-16T11:38:05Z</time>
      </trkpt>
      <trkpt lat="45.95082" lon="4.74686">
        <ele>194</ele>
        <time>2018-05-16T11:38:06Z</time>
      </trkpt>
      <trkpt lat="45.95078" lon="4.74679">
        <ele>194</ele>
        <time>2018-05-16T11:38:07Z</time>
      </trkpt>
      <trkpt lat="45.95074" lon="4.74672">
        <ele>194</ele>
        <time>2018-05-16T11:38:08Z</time>
      </trkpt>
      <trkpt lat="45.95071" lon="4.74666">
        <ele>195</ele>
        <time>2018-05-16T11:38:09Z</time>
      </trkpt>
      <trkpt lat="45.95067" lon="4.74659">
        <ele>195</ele>
        <time>2018-05-16T11:38:10Z</time>
      </trkpt>
      <trkpt lat="45.95065" lon="4.74652">
        <ele>195</ele>
        <time>2018-05-16T11:38:11Z</time>
      </trkpt>
      <trkpt lat="45.95062" lon="4.74645">
        <ele>194</ele>
        <time>2018-05-16T11:38:12Z</time>
      </trkpt>
      <trkpt lat="45.95058" lon="4.74637">
        <ele>194</ele>
        <time>2018-05-16T11:38:13Z</time>
      </trkpt>
      <trkpt lat="45.95054" lon="4.74631">
        <ele>194</ele>
        <time>2018-05-16T11:38:14Z</time>
      </trkpt>
      <trkpt lat="45.9505" lon="4.74624">
        <ele>194</ele>
        <time>2018-05-16T11:38:15Z</time>
      </trkpt>
      <trkpt lat="45.95046" lon="4.74616">
        <ele>194</ele>
        <time>2018-05-16T11:38:16Z</time>
      </trkpt>
      <trkpt lat="45.95042" lon="4.74608">
        <ele>194</ele>
        <time>2018-05-16T11:38:17Z</time>
      </trkpt>
      <trkpt lat="45.95038" lon="4.746">
        <ele>194</ele>
        <time>2018-05-16T11:38:18Z</time>
      </trkpt>
      <trkpt lat="45.95034" lon="4.74593">
        <ele>194</ele>
        <time>2018-05-16T11:38:19Z</time>
      </trkpt>
      <trkpt lat="45.9503" lon="4.74587">
        <ele>194</ele>
        <time>2018-05-16T11:38:20Z</time>
      </trkpt>
      <trkpt lat="45.95026" lon="4.74579">
        <ele>194</ele>
        <time>2018-05-16T11:38:21Z</time>
      </trkpt>
      <trkpt lat="45.95021" lon="4.74571">
        <ele>194</ele>
        <time>2018-05-16T11:38:22Z</time>
      </trkpt>
      <trkpt lat="45.95017" lon="4.74563">
        <ele>194</ele>
        <time>2018-05-16T11:38:23Z</time>
      </trkpt>
      <trkpt lat="45.95012" lon="4.74556">
        <ele>194</ele>
        <time>2018-05-16T11:38:24Z</time>
      </trkpt>
      <trkpt lat="45.95007" lon="4.74547">
        <ele>194</ele>
        <time>2018-05-16T11:38:25Z</time>
      </trkpt>
      <trkpt lat="45.95003" lon="4.74538">
        <ele>194</ele>
        <time>2018-05-16T11:38:26Z</time>
      </trkpt>
      <trkpt lat="45.94998" lon="4.7453">
        <ele>193</ele>
        <time>2018-05-16T11:38:27Z</time>
      </trkpt>
      <trkpt lat="45.94994" lon="4.74522">
        <ele>193</ele>
        <time>2018-05-16T11:38:28Z</time>
      </trkpt>
      <trkpt lat="45.9499" lon="4.74513">
        <ele>193</ele>
        <time>2018-05-16T11:38:29Z</time>
      </trkpt>
      <trkpt lat="45.94986" lon="4.74505">
        <ele>193</ele>
        <time>2018-05-16T11:38:30Z</time>
      </trkpt>
      <trkpt lat="45.94982" lon="4.74495">
        <ele>193</ele>
        <time>2018-05-16T11:38:31Z</time>
      </trkpt>
      <trkpt lat="45.94978" lon="4.74487">
        <ele>193</ele>
        <time>2018-05-16T11:38:32Z</time>
      </trkpt>
      <trkpt lat="45.94973" lon="4.74478">
        <ele>193</ele>
        <time>2018-05-16T11:38:33Z</time>
      </trkpt>
      <trkpt lat="45.94969" lon="4.74469">
        <ele>193</ele>
        <time>2018-05-16T11:38:34Z</time>
      </trkpt>
      <trkpt lat="45.94964" lon="4.74461">
        <ele>193</ele>
        <time>2018-05-16T11:38:35Z</time>
      </trkpt>
      <trkpt lat="45.9496" lon="4.74452">
        <ele>192</ele>
        <time>2018-05-16T11:38:36Z</time>
      </trkpt>
      <trkpt lat="45.94955" lon="4.74443">
        <ele>192</ele>
        <time>2018-05-16T11:38:37Z</time>
      </trkpt>
      <trkpt lat="45.94951" lon="4.74435">
        <ele>192</ele>
        <time>2018-05-16T11:38:38Z</time>
      </trkpt>
      <trkpt lat="45.94947" lon="4.74427">
        <ele>192</ele>
        <time>2018-05-16T11:38:39Z</time>
      </trkpt>
      <trkpt lat="45.94943" lon="4.74418">
        <ele>192</ele>
        <time>2018-05-16T11:38:40Z</time>
      </trkpt>
      <trkpt lat="45.94938" lon="4.74409">
        <ele>192</ele>
        <time>2018-05-16T11:38:41Z</time>
      </trkpt>
      <trkpt lat="45.94933" lon="4.744">
        <ele>192</ele>
        <time>2018-05-16T11:38:42Z</time>
      </trkpt>
      <trkpt lat="45.94929" lon="4.74392">
        <ele>192</ele>
        <time>2018-05-16T11:38:43Z</time>
      </trkpt>
      <trkpt lat="45.94923" lon="4.74383">
        <ele>192</ele>
        <time>2018-05-16T11:38:44Z</time>
      </trkpt>
      <trkpt lat="45.94919" lon="4.74375">
        <ele>192</ele>
        <time>2018-05-16T11:38:45Z</time>
      </trkpt>
      <trkpt lat="45.94914" lon="4.74366">
        <ele>191</ele>
        <time>2018-05-16T11:38:46Z</time>
      </trkpt>
      <trkpt lat="45.94909" lon="4.74358">
        <ele>191</ele>
        <time>2018-05-16T11:38:47Z</time>
      </trkpt>
      <trkpt lat="45.94905" lon="4.74349">
        <ele>191</ele>
        <time>2018-05-16T11:38:48Z</time>
      </trkpt>
      <trkpt lat="45.949" lon="4.74341">
        <ele>191</ele>
        <time>2018-05-16T11:38:49Z</time>
      </trkpt>
      <trkpt lat="45.94896" lon="4.74332">
        <ele>191</ele>
        <time>2018-05-16T11:38:50Z</time>
      </trkpt>
      <trkpt lat="45.94892" lon="4.74324">
        <ele>191</ele>
        <time>2018-05-16T11:38:51Z</time>
      </trkpt>
      <trkpt lat="45.94887" lon="4.74316">
        <ele>191</ele>
        <time>2018-05-16T11:38:52Z</time>
      </trkpt>
      <trkpt lat="45.94883" lon="4.74309">
        <ele>191</ele>
        <time>2018-05-16T11:38:53Z</time>
      </trkpt>
      <trkpt lat="45.9488" lon="4.74301">
        <ele>191</ele>
        <time>2018-05-16T11:38:54Z</time>
      </trkpt>
      <trkpt lat="45.94876" lon="4.74294">
        <ele>191</ele>
        <time>2018-05-16T11:38:55Z</time>
      </trkpt>
      <trkpt lat="45.94872" lon="4.74286">
        <ele>191</ele>
        <time>2018-05-16T11:38:56Z</time>
      </trkpt>
      <trkpt lat="45.94867" lon="4.74278">
        <ele>191</ele>
        <time>2018-05-16T11:38:57Z</time>
      </trkpt>
      <trkpt lat="45.94863" lon="4.74269">
        <ele>190</ele>
        <time>2018-05-16T11:38:58Z</time>
      </trkpt>
      <trkpt lat="45.9486" lon="4.74261">
        <ele>190</ele>
        <time>2018-05-16T11:38:59Z</time>
      </trkpt>
      <trkpt lat="45.94856" lon="4.74253">
        <ele>190</ele>
        <time>2018-05-16T11:39:00Z</time>
      </trkpt>
      <trkpt lat="45.94853" lon="4.74245">
        <ele>190</ele>
        <time>2018-05-16T11:39:01Z</time>
      </trkpt>
      <trkpt lat="45.94849" lon="4.74237">
        <ele>190</ele>
        <time>2018-05-16T11:39:02Z</time>
      </trkpt>
      <trkpt lat="45.94845" lon="4.74229">
        <ele>190</ele>
        <time>2018-05-16T11:39:03Z</time>
      </trkpt>
      <trkpt lat="45.94841" lon="4.74221">
        <ele>190</ele>
        <time>2018-05-16T11:39:04Z</time>
      </trkpt>
      <trkpt lat="45.94837" lon="4.74214">
        <ele>190</ele>
        <time>2018-05-16T11:39:05Z</time>
      </trkpt>
      <trkpt lat="45.94832" lon="4.74208">
        <ele>189</ele>
        <time>2018-05-16T11:39:06Z</time>
      </trkpt>
      <trkpt lat="45.94829" lon="4.74201">
        <ele>189</ele>
        <time>2018-05-16T11:39:07Z</time>
      </trkpt>
      <trkpt lat="45.94825" lon="4.74194">
        <ele>189</ele>
        <time>2018-05-16T11:39:08Z</time>
      </trkpt>
      <trkpt lat="45.94822" lon="4.74187">
        <ele>189</ele>
        <time>2018-05-16T11:39:09Z</time>
      </trkpt>
      <trkpt lat="45.94817" lon="4.74179">
        <ele>189</ele>
        <time>2018-05-16T11:39:10Z</time>
      </trkpt>
      <trkpt lat="45.94813" lon="4.74173">
        <ele>189</ele>
        <time>2018-05-16T11:39:11Z</time>
      </trkpt>
      <trkpt lat="45.94809" lon="4.74166">
        <ele>189</ele>
        <time>2018-05-16T11:39:12Z</time>
      </trkpt>
      <trkpt lat="45.94805" lon="4.7416">
        <ele>189</ele>
        <time>2018-05-16T11:39:13Z</time>
      </trkpt>
      <trkpt lat="45.94801" lon="4.74154">
        <ele>189</ele>
        <time>2018-05-16T11:39:14Z</time>
      </trkpt>
      <trkpt lat="45.94797" lon="4.74148">
        <ele>189</ele>
        <time>2018-05-16T11:39:15Z</time>
      </trkpt>
      <trkpt lat="45.94792" lon="4.74142">
        <ele>189</ele>
        <time>2018-05-16T11:39:16Z</time>
      </trkpt>
      <trkpt lat="45.94789" lon="4.74137">
        <ele>189</ele>
        <time>2018-05-16T11:39:17Z</time>
      </trkpt>
      <trkpt lat="45.94784" lon="4.74131">
        <ele>189</ele>
        <time>2018-05-16T11:39:18Z</time>
      </trkpt>
      <trkpt lat="45.9478" lon="4.74125">
        <ele>189</ele>
        <time>2018-05-16T11:39:19Z</time>
      </trkpt>
      <trkpt lat="45.94775" lon="4.74119">
        <ele>189</ele>
        <time>2018-05-16T11:39:20Z</time>
      </trkpt>
      <trkpt lat="45.94771" lon="4.74113">
        <ele>189</ele>
        <time>2018-05-16T11:39:21Z</time>
      </trkpt>
      <trkpt lat="45.94767" lon="4.74107">
        <ele>189</ele>
        <time>2018-05-16T11:39:22Z</time>
      </trkpt>
      <trkpt lat="45.94762" lon="4.74101">
        <ele>189</ele>
        <time>2018-05-16T11:39:23Z</time>
      </trkpt>
      <trkpt lat="45.94758" lon="4.74095">
        <ele>189</ele>
        <time>2018-05-16T11:39:24Z</time>
      </trkpt>
      <trkpt lat="45.94754" lon="4.74089">
        <ele>189</ele>
        <time>2018-05-16T11:39:25Z</time>
      </trkpt>
      <trkpt lat="45.9475" lon="4.74083">
        <ele>189</ele>
        <time>2018-05-16T11:39:26Z</time>
      </trkpt>
      <trkpt lat="45.94747" lon="4.74078">
        <ele>189</ele>
        <time>2018-05-16T11:39:27Z</time>
      </trkpt>
      <trkpt lat="45.94743" lon="4.74073">
        <ele>188</ele>
        <time>2018-05-16T11:39:28Z</time>
      </trkpt>
      <trkpt lat="45.94739" lon="4.74068">
        <ele>188</ele>
        <time>2018-05-16T11:39:29Z</time>
      </trkpt>
      <trkpt lat="45.94735" lon="4.74062">
        <ele>188</ele>
        <time>2018-05-16T11:39:30Z</time>
      </trkpt>
      <trkpt lat="45.9473" lon="4.74056">
        <ele>188</ele>
        <time>2018-05-16T11:39:31Z</time>
      </trkpt>
      <trkpt lat="45.94726" lon="4.7405">
        <ele>188</ele>
        <time>2018-05-16T11:39:32Z</time>
      </trkpt>
      <trkpt lat="45.94723" lon="4.74045">
        <ele>187</ele>
        <time>2018-05-16T11:39:33Z</time>
      </trkpt>
      <trkpt lat="45.94718" lon="4.74039">
        <ele>187</ele>
        <time>2018-05-16T11:39:34Z</time>
      </trkpt>
      <trkpt lat="45.94715" lon="4.74034">
        <ele>187</ele>
        <time>2018-05-16T11:39:35Z</time>
      </trkpt>
      <trkpt lat="45.94711" lon="4.74029">
        <ele>187</ele>
        <time>2018-05-16T11:39:36Z</time>
      </trkpt>
      <trkpt lat="45.94707" lon="4.74024">
        <ele>187</ele>
        <time>2018-05-16T11:39:37Z</time>
      </trkpt>
      <trkpt lat="45.94704" lon="4.7402">
        <ele>187</ele>
        <time>2018-05-16T11:39:38Z</time>
      </trkpt>
      <trkpt lat="45.94698" lon="4.74011">
        <ele>187</ele>
        <time>2018-05-16T11:39:40Z</time>
      </trkpt>
      <trkpt lat="45.94694" lon="4.74006">
        <ele>187</ele>
        <time>2018-05-16T11:39:41Z</time>
      </trkpt>
      <trkpt lat="45.9469" lon="4.74001">
        <ele>187</ele>
        <time>2018-05-16T11:39:42Z</time>
      </trkpt>
      <trkpt lat="45.94687" lon="4.73995">
        <ele>187</ele>
        <time>2018-05-16T11:39:43Z</time>
      </trkpt>
      <trkpt lat="45.94683" lon="4.7399">
        <ele>187</ele>
        <time>2018-05-16T11:39:44Z</time>
      </trkpt>
      <trkpt lat="45.94679" lon="4.73983">
        <ele>187</ele>
        <time>2018-05-16T11:39:45Z</time>
      </trkpt>
      <trkpt lat="45.94675" lon="4.73978">
        <ele>187</ele>
        <time>2018-05-16T11:39:46Z</time>
      </trkpt>
      <trkpt lat="45.94671" lon="4.73972">
        <ele>187</ele>
        <time>2018-05-16T11:39:47Z</time>
      </trkpt>
      <trkpt lat="45.94667" lon="4.73966">
        <ele>187</ele>
        <time>2018-05-16T11:39:48Z</time>
      </trkpt>
      <trkpt lat="45.94662" lon="4.7396">
        <ele>187</ele>
        <time>2018-05-16T11:39:49Z</time>
      </trkpt>
      <trkpt lat="45.94658" lon="4.73953">
        <ele>187</ele>
        <time>2018-05-16T11:39:50Z</time>
      </trkpt>
      <trkpt lat="45.94653" lon="4.73947">
        <ele>187</ele>
        <time>2018-05-16T11:39:51Z</time>
      </trkpt>
      <trkpt lat="45.94649" lon="4.73941">
        <ele>187</ele>
        <time>2018-05-16T11:39:52Z</time>
      </trkpt>
      <trkpt lat="45.94644" lon="4.73935">
        <ele>187</ele>
        <time>2018-05-16T11:39:53Z</time>
      </trkpt>
      <trkpt lat="45.94639" lon="4.73929">
        <ele>187</ele>
        <time>2018-05-16T11:39:54Z</time>
      </trkpt>
      <trkpt lat="45.94634" lon="4.73922">
        <ele>187</ele>
        <time>2018-05-16T11:39:55Z</time>
      </trkpt>
      <trkpt lat="45.94629" lon="4.73915">
        <ele>187</ele>
        <time>2018-05-16T11:39:56Z</time>
      </trkpt>
      <trkpt lat="45.94624" lon="4.73908">
        <ele>187</ele>
        <time>2018-05-16T11:39:57Z</time>
      </trkpt>
      <trkpt lat="45.94618" lon="4.73902">
        <ele>187</ele>
        <time>2018-05-16T11:39:58Z</time>
      </trkpt>
      <trkpt lat="45.94613" lon="4.73895">
        <ele>187</ele>
        <time>2018-05-16T11:39:59Z</time>
      </trkpt>
      <trkpt lat="45.94608" lon="4.73888">
        <ele>187</ele>
        <time>2018-05-16T11:40:00Z</time>
      </trkpt>
      <trkpt lat="45.94603" lon="4.73884">
        <ele>187</ele>
        <time>2018-05-16T11:40:01Z</time>
      </trkpt>
      <trkpt lat="45.94597" lon="4.73878">
        <ele>187</ele>
        <time>2018-05-16T11:40:02Z</time>
      </trkpt>
      <trkpt lat="45.94592" lon="4.73872">
        <ele>187</ele>
        <time>2018-05-16T11:40:03Z</time>
      </trkpt>
      <trkpt lat="45.94587" lon="4.73866">
        <ele>187</ele>
        <time>2018-05-16T11:40:04Z</time>
      </trkpt>
      <trkpt lat="45.94581" lon="4.7386">
        <ele>186</ele>
        <time>2018-05-16T11:40:05Z</time>
      </trkpt>
      <trkpt lat="45.94575" lon="4.73855">
        <ele>186</ele>
        <time>2018-05-16T11:40:06Z</time>
      </trkpt>
      <trkpt lat="45.9457" lon="4.7385">
        <ele>186</ele>
        <time>2018-05-16T11:40:07Z</time>
      </trkpt>
      <trkpt lat="45.94565" lon="4.73844">
        <ele>186</ele>
        <time>2018-05-16T11:40:08Z</time>
      </trkpt>
      <trkpt lat="45.94559" lon="4.73838">
        <ele>186</ele>
        <time>2018-05-16T11:40:09Z</time>
      </trkpt>
      <trkpt lat="45.94553" lon="4.73832">
        <ele>186</ele>
        <time>2018-05-16T11:40:10Z</time>
      </trkpt>
      <trkpt lat="45.94548" lon="4.73827">
        <ele>186</ele>
        <time>2018-05-16T11:40:11Z</time>
      </trkpt>
      <trkpt lat="45.94542" lon="4.73821">
        <ele>186</ele>
        <time>2018-05-16T11:40:12Z</time>
      </trkpt>
      <trkpt lat="45.94538" lon="4.73817">
        <ele>186</ele>
        <time>2018-05-16T11:40:13Z</time>
      </trkpt>
      <trkpt lat="45.94532" lon="4.73812">
        <ele>186</ele>
        <time>2018-05-16T11:40:14Z</time>
      </trkpt>
      <trkpt lat="45.94527" lon="4.73807">
        <ele>186</ele>
        <time>2018-05-16T11:40:15Z</time>
      </trkpt>
      <trkpt lat="45.94522" lon="4.73801">
        <ele>186</ele>
        <time>2018-05-16T11:40:16Z</time>
      </trkpt>
      <trkpt lat="45.94517" lon="4.73797">
        <ele>186</ele>
        <time>2018-05-16T11:40:17Z</time>
      </trkpt>
      <trkpt lat="45.94513" lon="4.73792">
        <ele>186</ele>
        <time>2018-05-16T11:40:18Z</time>
      </trkpt>
      <trkpt lat="45.94508" lon="4.73788">
        <ele>186</ele>
        <time>2018-05-16T11:40:19Z</time>
      </trkpt>
      <trkpt lat="45.94504" lon="4.73784">
        <ele>186</ele>
        <time>2018-05-16T11:40:20Z</time>
      </trkpt>
      <trkpt lat="45.945" lon="4.73779">
        <ele>186</ele>
        <time>2018-05-16T11:40:21Z</time>
      </trkpt>
      <trkpt lat="45.94495" lon="4.7377">
        <ele>186</ele>
        <time>2018-05-16T11:40:23Z</time>
      </trkpt>
      <trkpt lat="45.94494" lon="4.73765">
        <ele>186</ele>
        <time>2018-05-16T11:40:24Z</time>
      </trkpt>
      <trkpt lat="45.94489" lon="4.73755">
        <ele>186</ele>
        <time>2018-05-16T11:40:26Z</time>
      </trkpt>
      <trkpt lat="45.94488" lon="4.73748">
        <ele>186</ele>
        <time>2018-05-16T11:40:27Z</time>
      </trkpt>
      <trkpt lat="45.94488" lon="4.73741">
        <ele>186</ele>
        <time>2018-05-16T11:40:28Z</time>
      </trkpt>
      <trkpt lat="45.94489" lon="4.73733">
        <ele>186</ele>
        <time>2018-05-16T11:40:29Z</time>
      </trkpt>
      <trkpt lat="45.9449" lon="4.73725">
        <ele>186</ele>
        <time>2018-05-16T11:40:30Z</time>
      </trkpt>
      <trkpt lat="45.94492" lon="4.73716">
        <ele>186</ele>
        <time>2018-05-16T11:40:31Z</time>
      </trkpt>
      <trkpt lat="45.94493" lon="4.73706">
        <ele>186</ele>
        <time>2018-05-16T11:40:32Z</time>
      </trkpt>
      <trkpt lat="45.94495" lon="4.73698">
        <ele>186</ele>
        <time>2018-05-16T11:40:33Z</time>
      </trkpt>
      <trkpt lat="45.94496" lon="4.73689">
        <ele>186</ele>
        <time>2018-05-16T11:40:34Z</time>
      </trkpt>
      <trkpt lat="45.94497" lon="4.73681">
        <ele>185</ele>
        <time>2018-05-16T11:40:35Z</time>
      </trkpt>
      <trkpt lat="45.94499" lon="4.73672">
        <ele>185</ele>
        <time>2018-05-16T11:40:36Z</time>
      </trkpt>
      <trkpt lat="45.945" lon="4.73663">
        <ele>185</ele>
        <time>2018-05-16T11:40:37Z</time>
      </trkpt>
      <trkpt lat="45.94502" lon="4.73654">
        <ele>184</ele>
        <time>2018-05-16T11:40:38Z</time>
      </trkpt>
      <trkpt lat="45.94503" lon="4.73646">
        <ele>184</ele>
        <time>2018-05-16T11:40:39Z</time>
      </trkpt>
      <trkpt lat="45.94504" lon="4.73637">
        <ele>184</ele>
        <time>2018-05-16T11:40:40Z</time>
      </trkpt>
      <trkpt lat="45.94506" lon="4.73628">
        <ele>184</ele>
        <time>2018-05-16T11:40:41Z</time>
      </trkpt>
      <trkpt lat="45.94507" lon="4.73619">
        <ele>184</ele>
        <time>2018-05-16T11:40:42Z</time>
      </trkpt>
      <trkpt lat="45.94507" lon="4.73611">
        <ele>184</ele>
        <time>2018-05-16T11:40:43Z</time>
      </trkpt>
      <trkpt lat="45.94508" lon="4.73603">
        <ele>184</ele>
        <time>2018-05-16T11:40:44Z</time>
      </trkpt>
      <trkpt lat="45.94509" lon="4.73595">
        <ele>184</ele>
        <time>2018-05-16T11:40:45Z</time>
      </trkpt>
      <trkpt lat="45.94509" lon="4.73585">
        <ele>184</ele>
        <time>2018-05-16T11:40:46Z</time>
      </trkpt>
      <trkpt lat="45.9451" lon="4.73575">
        <ele>184</ele>
        <time>2018-05-16T11:40:47Z</time>
      </trkpt>
      <trkpt lat="45.9451" lon="4.73566">
        <ele>184</ele>
        <time>2018-05-16T11:40:48Z</time>
      </trkpt>
      <trkpt lat="45.9451" lon="4.73556">
        <ele>183</ele>
        <time>2018-05-16T11:40:49Z</time>
      </trkpt>
      <trkpt lat="45.9451" lon="4.73546">
        <ele>183</ele>
        <time>2018-05-16T11:40:50Z</time>
      </trkpt>
      <trkpt lat="45.9451" lon="4.73536">
        <ele>183</ele>
        <time>2018-05-16T11:40:51Z</time>
      </trkpt>
      <trkpt lat="45.9451" lon="4.73526">
        <ele>183</ele>
        <time>2018-05-16T11:40:52Z</time>
      </trkpt>
      <trkpt lat="45.9451" lon="4.73516">
        <ele>183</ele>
        <time>2018-05-16T11:40:53Z</time>
      </trkpt>
      <trkpt lat="45.9451" lon="4.73506">
        <ele>183</ele>
        <time>2018-05-16T11:40:54Z</time>
      </trkpt>
      <trkpt lat="45.9451" lon="4.73498">
        <ele>182</ele>
        <time>2018-05-16T11:40:55Z</time>
      </trkpt>
      <trkpt lat="45.94511" lon="4.73487">
        <ele>182</ele>
        <time>2018-05-16T11:40:56Z</time>
      </trkpt>
      <trkpt lat="45.94511" lon="4.73477">
        <ele>182</ele>
        <time>2018-05-16T11:40:57Z</time>
      </trkpt>
      <trkpt lat="45.9451" lon="4.73467">
        <ele>181</ele>
        <time>2018-05-16T11:40:58Z</time>
      </trkpt>
      <trkpt lat="45.9451" lon="4.73455">
        <ele>181</ele>
        <time>2018-05-16T11:40:59Z</time>
      </trkpt>
      <trkpt lat="45.94509" lon="4.73445">
        <ele>181</ele>
        <time>2018-05-16T11:41:00Z</time>
      </trkpt>
      <trkpt lat="45.94508" lon="4.73433">
        <ele>181</ele>
        <time>2018-05-16T11:41:01Z</time>
      </trkpt>
      <trkpt lat="45.94508" lon="4.73422">
        <ele>180</ele>
        <time>2018-05-16T11:41:02Z</time>
      </trkpt>
      <trkpt lat="45.94506" lon="4.73411">
        <ele>179</ele>
        <time>2018-05-16T11:41:03Z</time>
      </trkpt>
      <trkpt lat="45.94506" lon="4.73399">
        <ele>179</ele>
        <time>2018-05-16T11:41:04Z</time>
      </trkpt>
      <trkpt lat="45.94506" lon="4.73386">
        <ele>179</ele>
        <time>2018-05-16T11:41:05Z</time>
      </trkpt>
      <trkpt lat="45.94505" lon="4.73374">
        <ele>178</ele>
        <time>2018-05-16T11:41:06Z</time>
      </trkpt>
      <trkpt lat="45.94504" lon="4.73362">
        <ele>178</ele>
        <time>2018-05-16T11:41:07Z</time>
      </trkpt>
      <trkpt lat="45.94503" lon="4.73349">
        <ele>178</ele>
        <time>2018-05-16T11:41:08Z</time>
      </trkpt>
      <trkpt lat="45.94502" lon="4.73337">
        <ele>177</ele>
        <time>2018-05-16T11:41:09Z</time>
      </trkpt>
      <trkpt lat="45.945" lon="4.73324">
        <ele>177</ele>
        <time>2018-05-16T11:41:10Z</time>
      </trkpt>
      <trkpt lat="45.94498" lon="4.73312">
        <ele>177</ele>
        <time>2018-05-16T11:41:11Z</time>
      </trkpt>
      <trkpt lat="45.94496" lon="4.733">
        <ele>177</ele>
        <time>2018-05-16T11:41:12Z</time>
      </trkpt>
      <trkpt lat="45.94493" lon="4.73288">
        <ele>177</ele>
        <time>2018-05-16T11:41:13Z</time>
      </trkpt>
      <trkpt lat="45.94492" lon="4.73276">
        <ele>177</ele>
        <time>2018-05-16T11:41:14Z</time>
      </trkpt>
      <trkpt lat="45.94492" lon="4.73264">
        <ele>176</ele>
        <time>2018-05-16T11:41:15Z</time>
      </trkpt>
      <trkpt lat="45.9449" lon="4.73252">
        <ele>176</ele>
        <time>2018-05-16T11:41:16Z</time>
      </trkpt>
      <trkpt lat="45.94488" lon="4.73239">
        <ele>175</ele>
        <time>2018-05-16T11:41:17Z</time>
      </trkpt>
      <trkpt lat="45.94486" lon="4.73226">
        <ele>175</ele>
        <time>2018-05-16T11:41:18Z</time>
      </trkpt>
      <trkpt lat="45.94484" lon="4.73214">
        <ele>175</ele>
        <time>2018-05-16T11:41:19Z</time>
      </trkpt>
      <trkpt lat="45.94482" lon="4.73201">
        <ele>175</ele>
        <time>2018-05-16T11:41:20Z</time>
      </trkpt>
      <trkpt lat="45.9448" lon="4.73189">
        <ele>174</ele>
        <time>2018-05-16T11:41:21Z</time>
      </trkpt>
      <trkpt lat="45.94478" lon="4.73176">
        <ele>174</ele>
        <time>2018-05-16T11:41:22Z</time>
      </trkpt>
      <trkpt lat="45.94477" lon="4.73164">
        <ele>173</ele>
        <time>2018-05-16T11:41:23Z</time>
      </trkpt>
      <trkpt lat="45.94476" lon="4.73152">
        <ele>172</ele>
        <time>2018-05-16T11:41:24Z</time>
      </trkpt>
      <trkpt lat="45.94474" lon="4.7314">
        <ele>172</ele>
        <time>2018-05-16T11:41:25Z</time>
      </trkpt>
      <trkpt lat="45.94473" lon="4.73129">
        <ele>172</ele>
        <time>2018-05-16T11:41:26Z</time>
      </trkpt>
      <trkpt lat="45.94472" lon="4.73118">
        <ele>172</ele>
        <time>2018-05-16T11:41:27Z</time>
      </trkpt>
      <trkpt lat="45.94472" lon="4.73106">
        <ele>172</ele>
        <time>2018-05-16T11:41:28Z</time>
      </trkpt>
      <trkpt lat="45.9447" lon="4.73095">
        <ele>172</ele>
        <time>2018-05-16T11:41:29Z</time>
      </trkpt>
      <trkpt lat="45.94469" lon="4.73085">
        <ele>172</ele>
        <time>2018-05-16T11:41:30Z</time>
      </trkpt>
      <trkpt lat="45.94467" lon="4.73074">
        <ele>170</ele>
        <time>2018-05-16T11:41:31Z</time>
      </trkpt>
      <trkpt lat="45.94465" lon="4.73065">
        <ele>170</ele>
        <time>2018-05-16T11:41:32Z</time>
      </trkpt>
      <trkpt lat="45.94463" lon="4.73056">
        <ele>170</ele>
        <time>2018-05-16T11:41:33Z</time>
      </trkpt>
      <trkpt lat="45.94462" lon="4.73048">
        <ele>170</ele>
        <time>2018-05-16T11:41:34Z</time>
      </trkpt>
      <trkpt lat="45.94461" lon="4.7304">
        <ele>170</ele>
        <time>2018-05-16T11:41:35Z</time>
      </trkpt>
      <trkpt lat="45.94459" lon="4.73033">
        <ele>169</ele>
        <time>2018-05-16T11:41:36Z</time>
      </trkpt>
      <trkpt lat="45.94458" lon="4.73025">
        <ele>169</ele>
        <time>2018-05-16T11:41:37Z</time>
      </trkpt>
      <trkpt lat="45.94456" lon="4.73016">
        <ele>169</ele>
        <time>2018-05-16T11:41:38Z</time>
      </trkpt>
      <trkpt lat="45.94455" lon="4.73007">
        <ele>169</ele>
        <time>2018-05-16T11:41:39Z</time>
      </trkpt>
      <trkpt lat="45.94455" lon="4.72998">
        <ele>168</ele>
        <time>2018-05-16T11:41:40Z</time>
      </trkpt>
      <trkpt lat="45.94453" lon="4.72991">
        <ele>167</ele>
        <time>2018-05-16T11:41:41Z</time>
      </trkpt>
      <trkpt lat="45.94452" lon="4.72983">
        <ele>167</ele>
        <time>2018-05-16T11:41:42Z</time>
      </trkpt>
      <trkpt lat="45.94451" lon="4.72975">
        <ele>167</ele>
        <time>2018-05-16T11:41:43Z</time>
      </trkpt>
      <trkpt lat="45.9445" lon="4.72967">
        <ele>167</ele>
        <time>2018-05-16T11:41:44Z</time>
      </trkpt>
      <trkpt lat="45.94449" lon="4.7296">
        <ele>167</ele>
        <time>2018-05-16T11:41:45Z</time>
      </trkpt>
      <trkpt lat="45.94449" lon="4.72951">
        <ele>167</ele>
        <time>2018-05-16T11:41:46Z</time>
      </trkpt>
      <trkpt lat="45.94448" lon="4.72943">
        <ele>167</ele>
        <time>2018-05-16T11:41:47Z</time>
      </trkpt>
      <trkpt lat="45.94447" lon="4.72935">
        <ele>167</ele>
        <time>2018-05-16T11:41:48Z</time>
      </trkpt>
      <trkpt lat="45.94446" lon="4.72929">
        <ele>167</ele>
        <time>2018-05-16T11:41:49Z</time>
      </trkpt>
      <trkpt lat="45.94445" lon="4.72921">
        <ele>167</ele>
        <time>2018-05-16T11:41:50Z</time>
      </trkpt>
      <trkpt lat="45.94444" lon="4.72914">
        <ele>166</ele>
        <time>2018-05-16T11:41:51Z</time>
      </trkpt>
      <trkpt lat="45.94443" lon="4.72907">
        <ele>166</ele>
        <time>2018-05-16T11:41:52Z</time>
      </trkpt>
      <trkpt lat="45.94442" lon="4.72899">
        <ele>166</ele>
        <time>2018-05-16T11:41:53Z</time>
      </trkpt>
      <trkpt lat="45.94441" lon="4.72891">
        <ele>166</ele>
        <time>2018-05-16T11:41:54Z</time>
      </trkpt>
      <trkpt lat="45.9444" lon="4.72883">
        <ele>166</ele>
        <time>2018-05-16T11:41:55Z</time>
      </trkpt>
      <trkpt lat="45.94439" lon="4.72874">
        <ele>166</ele>
        <time>2018-05-16T11:41:56Z</time>
      </trkpt>
      <trkpt lat="45.94438" lon="4.72864">
        <ele>166</ele>
        <time>2018-05-16T11:41:57Z</time>
      </trkpt>
      <trkpt lat="45.94437" lon="4.72856">
        <ele>166</ele>
        <time>2018-05-16T11:41:58Z</time>
      </trkpt>
      <trkpt lat="45.94435" lon="4.72847">
        <ele>166</ele>
        <time>2018-05-16T11:41:59Z</time>
      </trkpt>
      <trkpt lat="45.94434" lon="4.72837">
        <ele>166</ele>
        <time>2018-05-16T11:42:00Z</time>
      </trkpt>
      <trkpt lat="45.94433" lon="4.72827">
        <ele>167</ele>
        <time>2018-05-16T11:42:01Z</time>
      </trkpt>
      <trkpt lat="45.94431" lon="4.72817">
        <ele>167</ele>
        <time>2018-05-16T11:42:02Z</time>
      </trkpt>
      <trkpt lat="45.9443" lon="4.72806">
        <ele>167</ele>
        <time>2018-05-16T11:42:03Z</time>
      </trkpt>
      <trkpt lat="45.94428" lon="4.72795">
        <ele>168</ele>
        <time>2018-05-16T11:42:04Z</time>
      </trkpt>
      <trkpt lat="45.94427" lon="4.72784">
        <ele>168</ele>
        <time>2018-05-16T11:42:05Z</time>
      </trkpt>
      <trkpt lat="45.94426" lon="4.72773">
        <ele>168</ele>
        <time>2018-05-16T11:42:06Z</time>
      </trkpt>
      <trkpt lat="45.94424" lon="4.72763">
        <ele>169</ele>
        <time>2018-05-16T11:42:07Z</time>
      </trkpt>
      <trkpt lat="45.94423" lon="4.72752">
        <ele>170</ele>
        <time>2018-05-16T11:42:08Z</time>
      </trkpt>
      <trkpt lat="45.94422" lon="4.72741">
        <ele>171</ele>
        <time>2018-05-16T11:42:09Z</time>
      </trkpt>
      <trkpt lat="45.9442" lon="4.72731">
        <ele>171</ele>
        <time>2018-05-16T11:42:10Z</time>
      </trkpt>
      <trkpt lat="45.94419" lon="4.7272">
        <ele>171</ele>
        <time>2018-05-16T11:42:11Z</time>
      </trkpt>
      <trkpt lat="45.94418" lon="4.72709">
        <ele>172</ele>
        <time>2018-05-16T11:42:12Z</time>
      </trkpt>
      <trkpt lat="45.94416" lon="4.72698">
        <ele>172</ele>
        <time>2018-05-16T11:42:13Z</time>
      </trkpt>
      <trkpt lat="45.94414" lon="4.72688">
        <ele>173</ele>
        <time>2018-05-16T11:42:14Z</time>
      </trkpt>
      <trkpt lat="45.94413" lon="4.72678">
        <ele>173</ele>
        <time>2018-05-16T11:42:15Z</time>
      </trkpt>
      <trkpt lat="45.94412" lon="4.72668">
        <ele>174</ele>
        <time>2018-05-16T11:42:16Z</time>
      </trkpt>
      <trkpt lat="45.94411" lon="4.72656">
        <ele>174</ele>
        <time>2018-05-16T11:42:17Z</time>
      </trkpt>
      <trkpt lat="45.9441" lon="4.72645">
        <ele>174</ele>
        <time>2018-05-16T11:42:18Z</time>
      </trkpt>
      <trkpt lat="45.94409" lon="4.72635">
        <ele>174</ele>
        <time>2018-05-16T11:42:19Z</time>
      </trkpt>
      <trkpt lat="45.94407" lon="4.72625">
        <ele>174</ele>
        <time>2018-05-16T11:42:20Z</time>
      </trkpt>
      <trkpt lat="45.94406" lon="4.72615">
        <ele>173</ele>
        <time>2018-05-16T11:42:21Z</time>
      </trkpt>
      <trkpt lat="45.94405" lon="4.72606">
        <ele>173</ele>
        <time>2018-05-16T11:42:22Z</time>
      </trkpt>
      <trkpt lat="45.94403" lon="4.72595">
        <ele>173</ele>
        <time>2018-05-16T11:42:23Z</time>
      </trkpt>
      <trkpt lat="45.94402" lon="4.72585">
        <ele>173</ele>
        <time>2018-05-16T11:42:24Z</time>
      </trkpt>
      <trkpt lat="45.944" lon="4.72576">
        <ele>173</ele>
        <time>2018-05-16T11:42:25Z</time>
      </trkpt>
      <trkpt lat="45.94399" lon="4.72568">
        <ele>173</ele>
        <time>2018-05-16T11:42:26Z</time>
      </trkpt>
      <trkpt lat="45.94397" lon="4.7256">
        <ele>173</ele>
        <time>2018-05-16T11:42:27Z</time>
      </trkpt>
      <trkpt lat="45.94395" lon="4.72551">
        <ele>173</ele>
        <time>2018-05-16T11:42:28Z</time>
      </trkpt>
      <trkpt lat="45.94394" lon="4.72543">
        <ele>173</ele>
        <time>2018-05-16T11:42:29Z</time>
      </trkpt>
      <trkpt lat="45.94392" lon="4.72535">
        <ele>174</ele>
        <time>2018-05-16T11:42:30Z</time>
      </trkpt>
      <trkpt lat="45.9439" lon="4.72527">
        <ele>174</ele>
        <time>2018-05-16T11:42:31Z</time>
      </trkpt>
      <trkpt lat="45.94387" lon="4.7252">
        <ele>174</ele>
        <time>2018-05-16T11:42:32Z</time>
      </trkpt>
      <trkpt lat="45.94386" lon="4.72515">
        <ele>174</ele>
        <time>2018-05-16T11:42:33Z</time>
      </trkpt>
      <trkpt lat="45.94383" lon="4.72508">
        <ele>174</ele>
        <time>2018-05-16T11:42:34Z</time>
      </trkpt>
      <trkpt lat="45.94381" lon="4.72501">
        <ele>174</ele>
        <time>2018-05-16T11:42:35Z</time>
      </trkpt>
      <trkpt lat="45.94379" lon="4.72494">
        <ele>173</ele>
        <time>2018-05-16T11:42:36Z</time>
      </trkpt>
      <trkpt lat="45.94376" lon="4.72486">
        <ele>173</ele>
        <time>2018-05-16T11:42:37Z</time>
      </trkpt>
      <trkpt lat="45.94373" lon="4.72479">
        <ele>173</ele>
        <time>2018-05-16T11:42:38Z</time>
      </trkpt>
      <trkpt lat="45.94369" lon="4.72471">
        <ele>173</ele>
        <time>2018-05-16T11:42:39Z</time>
      </trkpt>
      <trkpt lat="45.94365" lon="4.72463">
        <ele>173</ele>
        <time>2018-05-16T11:42:40Z</time>
      </trkpt>
      <trkpt lat="45.94362" lon="4.72456">
        <ele>173</ele>
        <time>2018-05-16T11:42:41Z</time>
      </trkpt>
      <trkpt lat="45.9436" lon="4.72449">
        <ele>173</ele>
        <time>2018-05-16T11:42:42Z</time>
      </trkpt>
      <trkpt lat="45.94355" lon="4.72442">
        <ele>173</ele>
        <time>2018-05-16T11:42:43Z</time>
      </trkpt>
      <trkpt lat="45.94352" lon="4.72434">
        <ele>173</ele>
        <time>2018-05-16T11:42:44Z</time>
      </trkpt>
      <trkpt lat="45.94349" lon="4.72428">
        <ele>173</ele>
        <time>2018-05-16T11:42:45Z</time>
      </trkpt>
      <trkpt lat="45.94346" lon="4.72421">
        <ele>173</ele>
        <time>2018-05-16T11:42:46Z</time>
      </trkpt>
      <trkpt lat="45.94342" lon="4.72413">
        <ele>173</ele>
        <time>2018-05-16T11:42:47Z</time>
      </trkpt>
      <trkpt lat="45.94338" lon="4.72407">
        <ele>173</ele>
        <time>2018-05-16T11:42:48Z</time>
      </trkpt>
      <trkpt lat="45.94334" lon="4.724">
        <ele>173</ele>
        <time>2018-05-16T11:42:49Z</time>
      </trkpt>
      <trkpt lat="45.9433" lon="4.72393">
        <ele>172</ele>
        <time>2018-05-16T11:42:50Z</time>
      </trkpt>
      <trkpt lat="45.94328" lon="4.72385">
        <ele>172</ele>
        <time>2018-05-16T11:42:51Z</time>
      </trkpt>
      <trkpt lat="45.94325" lon="4.72378">
        <ele>172</ele>
        <time>2018-05-16T11:42:52Z</time>
      </trkpt>
      <trkpt lat="45.94327" lon="4.72371">
        <ele>172</ele>
        <time>2018-05-16T11:42:53Z</time>
      </trkpt>
      <trkpt lat="45.94325" lon="4.72365">
        <ele>172</ele>
        <time>2018-05-16T11:42:54Z</time>
      </trkpt>
      <trkpt lat="45.94324" lon="4.72357">
        <ele>172</ele>
        <time>2018-05-16T11:42:55Z</time>
      </trkpt>
      <trkpt lat="45.94322" lon="4.7235">
        <ele>172</ele>
        <time>2018-05-16T11:42:56Z</time>
      </trkpt>
      <trkpt lat="45.94317" lon="4.72343">
        <ele>172</ele>
        <time>2018-05-16T11:42:57Z</time>
      </trkpt>
      <trkpt lat="45.94314" lon="4.72337">
        <ele>172</ele>
        <time>2018-05-16T11:42:58Z</time>
      </trkpt>
      <trkpt lat="45.94312" lon="4.72331">
        <ele>172</ele>
        <time>2018-05-16T11:42:59Z</time>
      </trkpt>
      <trkpt lat="45.9431" lon="4.72325">
        <ele>172</ele>
        <time>2018-05-16T11:43:00Z</time>
      </trkpt>
      <trkpt lat="45.94307" lon="4.72317">
        <ele>171</ele>
        <time>2018-05-16T11:43:01Z</time>
      </trkpt>
      <trkpt lat="45.94303" lon="4.7231">
        <ele>171</ele>
        <time>2018-05-16T11:43:02Z</time>
      </trkpt>
      <trkpt lat="45.943" lon="4.72302">
        <ele>171</ele>
        <time>2018-05-16T11:43:03Z</time>
      </trkpt>
      <trkpt lat="45.94298" lon="4.72294">
        <ele>171</ele>
        <time>2018-05-16T11:43:04Z</time>
      </trkpt>
      <trkpt lat="45.94295" lon="4.72288">
        <ele>171</ele>
        <time>2018-05-16T11:43:05Z</time>
      </trkpt>
      <trkpt lat="45.9429" lon="4.7228">
        <ele>171</ele>
        <time>2018-05-16T11:43:06Z</time>
      </trkpt>
      <trkpt lat="45.94286" lon="4.72275">
        <ele>171</ele>
        <time>2018-05-16T11:43:07Z</time>
      </trkpt>
      <trkpt lat="45.94279" lon="4.72272">
        <ele>171</ele>
        <time>2018-05-16T11:43:08Z</time>
      </trkpt>
      <trkpt lat="45.94272" lon="4.72272">
        <ele>171</ele>
        <time>2018-05-16T11:43:09Z</time>
      </trkpt>
      <trkpt lat="45.94266" lon="4.72274">
        <ele>171</ele>
        <time>2018-05-16T11:43:10Z</time>
      </trkpt>
      <trkpt lat="45.94261" lon="4.72277">
        <ele>171</ele>
        <time>2018-05-16T11:43:11Z</time>
      </trkpt>
      <trkpt lat="45.94255" lon="4.7228">
        <ele>171</ele>
        <time>2018-05-16T11:43:12Z</time>
      </trkpt>
      <trkpt lat="45.94249" lon="4.72282">
        <ele>171</ele>
        <time>2018-05-16T11:43:13Z</time>
      </trkpt>
      <trkpt lat="45.94243" lon="4.72283">
        <ele>171</ele>
        <time>2018-05-16T11:43:14Z</time>
      </trkpt>
      <trkpt lat="45.94236" lon="4.72284">
        <ele>171</ele>
        <time>2018-05-16T11:43:15Z</time>
      </trkpt>
      <trkpt lat="45.9423" lon="4.72287">
        <ele>171</ele>
        <time>2018-05-16T11:43:16Z</time>
      </trkpt>
      <trkpt lat="45.94224" lon="4.72289">
        <ele>171</ele>
        <time>2018-05-16T11:43:17Z</time>
      </trkpt>
      <trkpt lat="45.94218" lon="4.7229">
        <ele>171</ele>
        <time>2018-05-16T11:43:18Z</time>
      </trkpt>
      <trkpt lat="45.94212" lon="4.7229">
        <ele>171</ele>
        <time>2018-05-16T11:43:19Z</time>
      </trkpt>
      <trkpt lat="45.94206" lon="4.7229">
        <ele>171</ele>
        <time>2018-05-16T11:43:20Z</time>
      </trkpt>
      <trkpt lat="45.94199" lon="4.7229">
        <ele>171</ele>
        <time>2018-05-16T11:43:21Z</time>
      </trkpt>
      <trkpt lat="45.94193" lon="4.72289">
        <ele>171</ele>
        <time>2018-05-16T11:43:22Z</time>
      </trkpt>
      <trkpt lat="45.94186" lon="4.72288">
        <ele>171</ele>
        <time>2018-05-16T11:43:23Z</time>
      </trkpt>
      <trkpt lat="45.9418" lon="4.72287">
        <ele>171</ele>
        <time>2018-05-16T11:43:24Z</time>
      </trkpt>
      <trkpt lat="45.94173" lon="4.72285">
        <ele>171</ele>
        <time>2018-05-16T11:43:25Z</time>
      </trkpt>
      <trkpt lat="45.94167" lon="4.72287">
        <ele>171</ele>
        <time>2018-05-16T11:43:26Z</time>
      </trkpt>
      <trkpt lat="45.94161" lon="4.72285">
        <ele>171</ele>
        <time>2018-05-16T11:43:27Z</time>
      </trkpt>
      <trkpt lat="45.94154" lon="4.72285">
        <ele>171</ele>
        <time>2018-05-16T11:43:28Z</time>
      </trkpt>
      <trkpt lat="45.94148" lon="4.72283">
        <ele>171</ele>
        <time>2018-05-16T11:43:29Z</time>
      </trkpt>
      <trkpt lat="45.94142" lon="4.72279">
        <ele>171</ele>
        <time>2018-05-16T11:43:30Z</time>
      </trkpt>
      <trkpt lat="45.94136" lon="4.72275">
        <ele>171</ele>
        <time>2018-05-16T11:43:31Z</time>
      </trkpt>
      <trkpt lat="45.9413" lon="4.72272">
        <ele>171</ele>
        <time>2018-05-16T11:43:32Z</time>
      </trkpt>
      <trkpt lat="45.94124" lon="4.72269">
        <ele>171</ele>
        <time>2018-05-16T11:43:33Z</time>
      </trkpt>
      <trkpt lat="45.94118" lon="4.72267">
        <ele>171</ele>
        <time>2018-05-16T11:43:34Z</time>
      </trkpt>
      <trkpt lat="45.94111" lon="4.72265">
        <ele>171</ele>
        <time>2018-05-16T11:43:35Z</time>
      </trkpt>
      <trkpt lat="45.94105" lon="4.72264">
        <ele>171</ele>
        <time>2018-05-16T11:43:36Z</time>
      </trkpt>
      <trkpt lat="45.94098" lon="4.72264">
        <ele>171</ele>
        <time>2018-05-16T11:43:37Z</time>
      </trkpt>
      <trkpt lat="45.94092" lon="4.72265">
        <ele>171</ele>
        <time>2018-05-16T11:43:38Z</time>
      </trkpt>
      <trkpt lat="45.94084" lon="4.72267">
        <ele>171</ele>
        <time>2018-05-16T11:43:39Z</time>
      </trkpt>
      <trkpt lat="45.94078" lon="4.7227">
        <ele>171</ele>
        <time>2018-05-16T11:43:40Z</time>
      </trkpt>
      <trkpt lat="45.94072" lon="4.72275">
        <ele>171</ele>
        <time>2018-05-16T11:43:41Z</time>
      </trkpt>
      <trkpt lat="45.94067" lon="4.72281">
        <ele>171</ele>
        <time>2018-05-16T11:43:42Z</time>
      </trkpt>
      <trkpt lat="45.94061" lon="4.72287">
        <ele>171</ele>
        <time>2018-05-16T11:43:43Z</time>
      </trkpt>
      <trkpt lat="45.94056" lon="4.72294">
        <ele>171</ele>
        <time>2018-05-16T11:43:44Z</time>
      </trkpt>
      <trkpt lat="45.94052" lon="4.72302">
        <ele>171</ele>
        <time>2018-05-16T11:43:45Z</time>
      </trkpt>
      <trkpt lat="45.94046" lon="4.72309">
        <ele>171</ele>
        <time>2018-05-16T11:43:46Z</time>
      </trkpt>
      <trkpt lat="45.94041" lon="4.72316">
        <ele>171</ele>
        <time>2018-05-16T11:43:47Z</time>
      </trkpt>
      <trkpt lat="45.94035" lon="4.72324">
        <ele>171</ele>
        <time>2018-05-16T11:43:48Z</time>
      </trkpt>
      <trkpt lat="45.9403" lon="4.72332">
        <ele>171</ele>
        <time>2018-05-16T11:43:49Z</time>
      </trkpt>
      <trkpt lat="45.94025" lon="4.72339">
        <ele>171</ele>
        <time>2018-05-16T11:43:50Z</time>
      </trkpt>
      <trkpt lat="45.94019" lon="4.72346">
        <ele>171</ele>
        <time>2018-05-16T11:43:51Z</time>
      </trkpt>
      <trkpt lat="45.94014" lon="4.72353">
        <ele>171</ele>
        <time>2018-05-16T11:43:52Z</time>
      </trkpt>
      <trkpt lat="45.94009" lon="4.72359">
        <ele>171</ele>
        <time>2018-05-16T11:43:53Z</time>
      </trkpt>
      <trkpt lat="45.94004" lon="4.72366">
        <ele>171</ele>
        <time>2018-05-16T11:43:54Z</time>
      </trkpt>
      <trkpt lat="45.93999" lon="4.72372">
        <ele>171</ele>
        <time>2018-05-16T11:43:55Z</time>
      </trkpt>
      <trkpt lat="45.93994" lon="4.72377">
        <ele>171</ele>
        <time>2018-05-16T11:43:56Z</time>
      </trkpt>
      <trkpt lat="45.93989" lon="4.72383">
        <ele>171</ele>
        <time>2018-05-16T11:43:57Z</time>
      </trkpt>
      <trkpt lat="45.93985" lon="4.72388">
        <ele>171</ele>
        <time>2018-05-16T11:43:58Z</time>
      </trkpt>
      <trkpt lat="45.9398" lon="4.72394">
        <ele>171</ele>
        <time>2018-05-16T11:43:59Z</time>
      </trkpt>
      <trkpt lat="45.93974" lon="4.72404">
        <ele>171</ele>
        <time>2018-05-16T11:44:00Z</time>
      </trkpt>
      <trkpt lat="45.93969" lon="4.72411">
        <ele>171</ele>
        <time>2018-05-16T11:44:01Z</time>
      </trkpt>
      <trkpt lat="45.93965" lon="4.72416">
        <ele>171</ele>
        <time>2018-05-16T11:44:02Z</time>
      </trkpt>
      <trkpt lat="45.93961" lon="4.72421">
        <ele>171</ele>
        <time>2018-05-16T11:44:03Z</time>
      </trkpt>
      <trkpt lat="45.93956" lon="4.72427">
        <ele>171</ele>
        <time>2018-05-16T11:44:04Z</time>
      </trkpt>
      <trkpt lat="45.93951" lon="4.72432">
        <ele>171</ele>
        <time>2018-05-16T11:44:05Z</time>
      </trkpt>
      <trkpt lat="45.93947" lon="4.72437">
        <ele>171</ele>
        <time>2018-05-16T11:44:06Z</time>
      </trkpt>
      <trkpt lat="45.93943" lon="4.72442">
        <ele>171</ele>
        <time>2018-05-16T11:44:07Z</time>
      </trkpt>
      <trkpt lat="45.93939" lon="4.72447">
        <ele>171</ele>
        <time>2018-05-16T11:44:08Z</time>
      </trkpt>
      <trkpt lat="45.93935" lon="4.72454">
        <ele>171</ele>
        <time>2018-05-16T11:44:09Z</time>
      </trkpt>
      <trkpt lat="45.93932" lon="4.72459">
        <ele>171</ele>
        <time>2018-05-16T11:44:10Z</time>
      </trkpt>
      <trkpt lat="45.93928" lon="4.72464">
        <ele>171</ele>
        <time>2018-05-16T11:44:11Z</time>
      </trkpt>
      <trkpt lat="45.93924" lon="4.72468">
        <ele>171</ele>
        <time>2018-05-16T11:44:12Z</time>
      </trkpt>
      <trkpt lat="45.9392" lon="4.72473">
        <ele>171</ele>
        <time>2018-05-16T11:44:13Z</time>
      </trkpt>
      <trkpt lat="45.93916" lon="4.72478">
        <ele>172</ele>
        <time>2018-05-16T11:44:14Z</time>
      </trkpt>
      <trkpt lat="45.93912" lon="4.72483">
        <ele>172</ele>
        <time>2018-05-16T11:44:15Z</time>
      </trkpt>
      <trkpt lat="45.93909" lon="4.72487">
        <ele>172</ele>
        <time>2018-05-16T11:44:16Z</time>
      </trkpt>
      <trkpt lat="45.93905" lon="4.72491">
        <ele>172</ele>
        <time>2018-05-16T11:44:17Z</time>
      </trkpt>
      <trkpt lat="45.93902" lon="4.72496">
        <ele>172</ele>
        <time>2018-05-16T11:44:18Z</time>
      </trkpt>
      <trkpt lat="45.93895" lon="4.72503">
        <ele>172</ele>
        <time>2018-05-16T11:44:20Z</time>
      </trkpt>
      <trkpt lat="45.93891" lon="4.72507">
        <ele>173</ele>
        <time>2018-05-16T11:44:21Z</time>
      </trkpt>
      <trkpt lat="45.93885" lon="4.72515">
        <ele>173</ele>
        <time>2018-05-16T11:44:23Z</time>
      </trkpt>
      <trkpt lat="45.93881" lon="4.72519">
        <ele>173</ele>
        <time>2018-05-16T11:44:24Z</time>
      </trkpt>
      <trkpt lat="45.93877" lon="4.7252">
        <ele>173</ele>
        <time>2018-05-16T11:44:25Z</time>
      </trkpt>
      <trkpt lat="45.93872" lon="4.7252">
        <ele>173</ele>
        <time>2018-05-16T11:44:26Z</time>
      </trkpt>
      <trkpt lat="45.93867" lon="4.72519">
        <ele>173</ele>
        <time>2018-05-16T11:44:27Z</time>
      </trkpt>
      <trkpt lat="45.93863" lon="4.72516">
        <ele>173</ele>
        <time>2018-05-16T11:44:28Z</time>
      </trkpt>
      <trkpt lat="45.93855" lon="4.72511">
        <ele>173</ele>
        <time>2018-05-16T11:44:30Z</time>
      </trkpt>
      <trkpt lat="45.93853" lon="4.7251">
        <ele>173</ele>
        <time>2018-05-16T11:44:31Z</time>
      </trkpt>
      <trkpt lat="45.93853" lon="4.7251">
        <ele>173</ele>
        <time>2018-05-16T11:44:32Z</time>
      </trkpt>
      <trkpt lat="45.93826" lon="4.72467">
        <ele>172</ele>
        <time>2018-05-16T11:44:36Z</time>
      </trkpt>
      <trkpt lat="45.93818" lon="4.72467">
        <ele>172</ele>
        <time>2018-05-16T11:44:38Z</time>
      </trkpt>
      <trkpt lat="45.93814" lon="4.72463">
        <ele>172</ele>
        <time>2018-05-16T11:44:39Z</time>
      </trkpt>
      <trkpt lat="45.93807" lon="4.72462">
        <ele>172</ele>
        <time>2018-05-16T11:44:40Z</time>
      </trkpt>
      <trkpt lat="45.93801" lon="4.72461">
        <ele>172</ele>
        <time>2018-05-16T11:44:41Z</time>
      </trkpt>
      <trkpt lat="45.93799" lon="4.72452">
        <ele>172</ele>
        <time>2018-05-16T11:44:42Z</time>
      </trkpt>
      <trkpt lat="45.93797" lon="4.72449">
        <ele>172</ele>
        <time>2018-05-16T11:44:43Z</time>
      </trkpt>
      <trkpt lat="45.93794" lon="4.72445">
        <ele>172</ele>
        <time>2018-05-16T11:44:45Z</time>
      </trkpt>
      <trkpt lat="45.93789" lon="4.72441">
        <ele>172</ele>
        <time>2018-05-16T11:44:46Z</time>
      </trkpt>
      <trkpt lat="45.93782" lon="4.72432">
        <ele>172</ele>
        <time>2018-05-16T11:44:48Z</time>
      </trkpt>
      <trkpt lat="45.93778" lon="4.72429">
        <ele>172</ele>
        <time>2018-05-16T11:44:49Z</time>
      </trkpt>
      <trkpt lat="45.93771" lon="4.72423">
        <ele>171</ele>
        <time>2018-05-16T11:44:51Z</time>
      </trkpt>
      <trkpt lat="45.93767" lon="4.7242">
        <ele>171</ele>
        <time>2018-05-16T11:44:52Z</time>
      </trkpt>
      <trkpt lat="45.93763" lon="4.72415">
        <ele>171</ele>
        <time>2018-05-16T11:44:53Z</time>
      </trkpt>
      <trkpt lat="45.9376" lon="4.72411">
        <ele>171</ele>
        <time>2018-05-16T11:44:54Z</time>
      </trkpt>
      <trkpt lat="45.93756" lon="4.72407">
        <ele>171</ele>
        <time>2018-05-16T11:44:55Z</time>
      </trkpt>
      <trkpt lat="45.93752" lon="4.72404">
        <ele>171</ele>
        <time>2018-05-16T11:44:56Z</time>
      </trkpt>
      <trkpt lat="45.93748" lon="4.72399">
        <ele>171</ele>
        <time>2018-05-16T11:44:57Z</time>
      </trkpt>
      <trkpt lat="45.93743" lon="4.72395">
        <ele>171</ele>
        <time>2018-05-16T11:44:58Z</time>
      </trkpt>
      <trkpt lat="45.93739" lon="4.72391">
        <ele>171</ele>
        <time>2018-05-16T11:44:59Z</time>
      </trkpt>
      <trkpt lat="45.93735" lon="4.72387">
        <ele>171</ele>
        <time>2018-05-16T11:45:00Z</time>
      </trkpt>
      <trkpt lat="45.93731" lon="4.72382">
        <ele>171</ele>
        <time>2018-05-16T11:45:01Z</time>
      </trkpt>
      <trkpt lat="45.93727" lon="4.72379">
        <ele>171</ele>
        <time>2018-05-16T11:45:02Z</time>
      </trkpt>
      <trkpt lat="45.93723" lon="4.72374">
        <ele>172</ele>
        <time>2018-05-16T11:45:03Z</time>
      </trkpt>
      <trkpt lat="45.9372" lon="4.7237">
        <ele>172</ele>
        <time>2018-05-16T11:45:04Z</time>
      </trkpt>
      <trkpt lat="45.93717" lon="4.72364">
        <ele>172</ele>
        <time>2018-05-16T11:45:05Z</time>
      </trkpt>
      <trkpt lat="45.93712" lon="4.7236">
        <ele>172</ele>
        <time>2018-05-16T11:45:06Z</time>
      </trkpt>
      <trkpt lat="45.93708" lon="4.72356">
        <ele>171</ele>
        <time>2018-05-16T11:45:07Z</time>
      </trkpt>
      <trkpt lat="45.93704" lon="4.72352">
        <ele>171</ele>
        <time>2018-05-16T11:45:08Z</time>
      </trkpt>
      <trkpt lat="45.93699" lon="4.72344">
        <ele>171</ele>
        <time>2018-05-16T11:45:10Z</time>
      </trkpt>
      <trkpt lat="45.93693" lon="4.72342">
        <ele>171</ele>
        <time>2018-05-16T11:45:11Z</time>
      </trkpt>
      <trkpt lat="45.93689" lon="4.72338">
        <ele>171</ele>
        <time>2018-05-16T11:45:12Z</time>
      </trkpt>
      <trkpt lat="45.93683" lon="4.72333">
        <ele>171</ele>
        <time>2018-05-16T11:45:13Z</time>
      </trkpt>
      <trkpt lat="45.93679" lon="4.72329">
        <ele>171</ele>
        <time>2018-05-16T11:45:14Z</time>
      </trkpt>
      <trkpt lat="45.93673" lon="4.72326">
        <ele>171</ele>
        <time>2018-05-16T11:45:15Z</time>
      </trkpt>
      <trkpt lat="45.93669" lon="4.72322">
        <ele>171</ele>
        <time>2018-05-16T11:45:16Z</time>
      </trkpt>
      <trkpt lat="45.93665" lon="4.72319">
        <ele>172</ele>
        <time>2018-05-16T11:45:17Z</time>
      </trkpt>
      <trkpt lat="45.93662" lon="4.72315">
        <ele>172</ele>
        <time>2018-05-16T11:45:18Z</time>
      </trkpt>
      <trkpt lat="45.93658" lon="4.72311">
        <ele>172</ele>
        <time>2018-05-16T11:45:19Z</time>
      </trkpt>
      <trkpt lat="45.93651" lon="4.72304">
        <ele>172</ele>
        <time>2018-05-16T11:45:21Z</time>
      </trkpt>
      <trkpt lat="45.93646" lon="4.72301">
        <ele>172</ele>
        <time>2018-05-16T11:45:22Z</time>
      </trkpt>
      <trkpt lat="45.93642" lon="4.72296">
        <ele>172</ele>
        <time>2018-05-16T11:45:23Z</time>
      </trkpt>
      <trkpt lat="45.93636" lon="4.72293">
        <ele>172</ele>
        <time>2018-05-16T11:45:24Z</time>
      </trkpt>
      <trkpt lat="45.9363" lon="4.72285">
        <ele>172</ele>
        <time>2018-05-16T11:45:26Z</time>
      </trkpt>
      <trkpt lat="45.93626" lon="4.72281">
        <ele>172</ele>
        <time>2018-05-16T11:45:27Z</time>
      </trkpt>
      <trkpt lat="45.93622" lon="4.72277">
        <ele>172</ele>
        <time>2018-05-16T11:45:28Z</time>
      </trkpt>
      <trkpt lat="45.93618" lon="4.72272">
        <ele>172</ele>
        <time>2018-05-16T11:45:29Z</time>
      </trkpt>
      <trkpt lat="45.93613" lon="4.7227">
        <ele>172</ele>
        <time>2018-05-16T11:45:30Z</time>
      </trkpt>
      <trkpt lat="45.9361" lon="4.72265">
        <ele>172</ele>
        <time>2018-05-16T11:45:31Z</time>
      </trkpt>
      <trkpt lat="45.93603" lon="4.72258">
        <ele>173</ele>
        <time>2018-05-16T11:45:33Z</time>
      </trkpt>
      <trkpt lat="45.936" lon="4.72255">
        <ele>173</ele>
        <time>2018-05-16T11:45:34Z</time>
      </trkpt>
      <trkpt lat="45.93597" lon="4.72252">
        <ele>173</ele>
        <time>2018-05-16T11:45:36Z</time>
      </trkpt>
      <trkpt lat="45.93591" lon="4.72245">
        <ele>173</ele>
        <time>2018-05-16T11:45:37Z</time>
      </trkpt>
      <trkpt lat="45.93586" lon="4.72239">
        <ele>173</ele>
        <time>2018-05-16T11:45:39Z</time>
      </trkpt>
      <trkpt lat="45.93582" lon="4.72234">
        <ele>173</ele>
        <time>2018-05-16T11:45:40Z</time>
      </trkpt>
      <trkpt lat="45.93575" lon="4.72227">
        <ele>173</ele>
        <time>2018-05-16T11:45:44Z</time>
      </trkpt>
      <trkpt lat="45.93573" lon="4.72225">
        <ele>173</ele>
        <time>2018-05-16T11:45:45Z</time>
      </trkpt>
      <trkpt lat="45.93566" lon="4.72218">
        <ele>173</ele>
        <time>2018-05-16T11:45:59Z</time>
      </trkpt>
      <trkpt lat="45.93565" lon="4.72217">
        <ele>173</ele>
        <time>2018-05-16T11:46:00Z</time>
      </trkpt>
      <trkpt lat="45.93557" lon="4.72218">
        <ele>173</ele>
        <time>2018-05-16T11:46:09Z</time>
      </trkpt>
      <trkpt lat="45.93552" lon="4.72226">
        <ele>173</ele>
        <time>2018-05-16T11:46:10Z</time>
      </trkpt>
      <trkpt lat="45.93548" lon="4.72236">
        <ele>172</ele>
        <time>2018-05-16T11:46:12Z</time>
      </trkpt>
      <trkpt lat="45.93546" lon="4.72241">
        <ele>172</ele>
        <time>2018-05-16T11:46:13Z</time>
      </trkpt>
      <trkpt lat="45.93541" lon="4.72251">
        <ele>172</ele>
        <time>2018-05-16T11:46:15Z</time>
      </trkpt>
      <trkpt lat="45.93539" lon="4.72257">
        <ele>172</ele>
        <time>2018-05-16T11:46:16Z</time>
      </trkpt>
      <trkpt lat="45.93536" lon="4.72263">
        <ele>172</ele>
        <time>2018-05-16T11:46:17Z</time>
      </trkpt>
      <trkpt lat="45.93534" lon="4.72269">
        <ele>172</ele>
        <time>2018-05-16T11:46:18Z</time>
      </trkpt>
      <trkpt lat="45.93531" lon="4.72276">
        <ele>172</ele>
        <time>2018-05-16T11:46:19Z</time>
      </trkpt>
      <trkpt lat="45.93528" lon="4.72281">
        <ele>172</ele>
        <time>2018-05-16T11:46:20Z</time>
      </trkpt>
      <trkpt lat="45.93526" lon="4.72287">
        <ele>172</ele>
        <time>2018-05-16T11:46:21Z</time>
      </trkpt>
      <trkpt lat="45.93523" lon="4.72293">
        <ele>172</ele>
        <time>2018-05-16T11:46:22Z</time>
      </trkpt>
      <trkpt lat="45.93519" lon="4.72299">
        <ele>172</ele>
        <time>2018-05-16T11:46:23Z</time>
      </trkpt>
      <trkpt lat="45.93516" lon="4.72306">
        <ele>173</ele>
        <time>2018-05-16T11:46:24Z</time>
      </trkpt>
      <trkpt lat="45.93511" lon="4.72313">
        <ele>173</ele>
        <time>2018-05-16T11:46:25Z</time>
      </trkpt>
      <trkpt lat="45.93506" lon="4.7232">
        <ele>173</ele>
        <time>2018-05-16T11:46:26Z</time>
      </trkpt>
      <trkpt lat="45.93502" lon="4.72325">
        <ele>173</ele>
        <time>2018-05-16T11:46:27Z</time>
      </trkpt>
      <trkpt lat="45.93498" lon="4.72331">
        <ele>173</ele>
        <time>2018-05-16T11:46:28Z</time>
      </trkpt>
      <trkpt lat="45.93493" lon="4.72337">
        <ele>173</ele>
        <time>2018-05-16T11:46:29Z</time>
      </trkpt>
      <trkpt lat="45.9349" lon="4.72342">
        <ele>173</ele>
        <time>2018-05-16T11:46:30Z</time>
      </trkpt>
      <trkpt lat="45.93485" lon="4.72349">
        <ele>173</ele>
        <time>2018-05-16T11:46:31Z</time>
      </trkpt>
      <trkpt lat="45.9348" lon="4.72354">
        <ele>173</ele>
        <time>2018-05-16T11:46:32Z</time>
      </trkpt>
      <trkpt lat="45.93476" lon="4.72359">
        <ele>173</ele>
        <time>2018-05-16T11:46:33Z</time>
      </trkpt>
      <trkpt lat="45.93471" lon="4.72364">
        <ele>173</ele>
        <time>2018-05-16T11:46:34Z</time>
      </trkpt>
      <trkpt lat="45.93467" lon="4.72369">
        <ele>173</ele>
        <time>2018-05-16T11:46:35Z</time>
      </trkpt>
      <trkpt lat="45.93463" lon="4.72373">
        <ele>173</ele>
        <time>2018-05-16T11:46:36Z</time>
      </trkpt>
      <trkpt lat="45.93459" lon="4.7238">
        <ele>173</ele>
        <time>2018-05-16T11:46:37Z</time>
      </trkpt>
      <trkpt lat="45.93454" lon="4.72385">
        <ele>173</ele>
        <time>2018-05-16T11:46:38Z</time>
      </trkpt>
      <trkpt lat="45.93449" lon="4.72388">
        <ele>173</ele>
        <time>2018-05-16T11:46:39Z</time>
      </trkpt>
      <trkpt lat="45.93445" lon="4.72391">
        <ele>173</ele>
        <time>2018-05-16T11:46:40Z</time>
      </trkpt>
      <trkpt lat="45.93439" lon="4.72395">
        <ele>173</ele>
        <time>2018-05-16T11:46:41Z</time>
      </trkpt>
      <trkpt lat="45.93434" lon="4.72396">
        <ele>173</ele>
        <time>2018-05-16T11:46:42Z</time>
      </trkpt>
      <trkpt lat="45.93429" lon="4.72398">
        <ele>174</ele>
        <time>2018-05-16T11:46:43Z</time>
      </trkpt>
      <trkpt lat="45.93424" lon="4.724">
        <ele>174</ele>
        <time>2018-05-16T11:46:44Z</time>
      </trkpt>
      <trkpt lat="45.93416" lon="4.72404">
        <ele>174</ele>
        <time>2018-05-16T11:46:46Z</time>
      </trkpt>
      <trkpt lat="45.93412" lon="4.72405">
        <ele>174</ele>
        <time>2018-05-16T11:46:47Z</time>
      </trkpt>
      <trkpt lat="45.93403" lon="4.72405">
        <ele>174</ele>
        <time>2018-05-16T11:46:49Z</time>
      </trkpt>
      <trkpt lat="45.93398" lon="4.72404">
        <ele>174</ele>
        <time>2018-05-16T11:46:50Z</time>
      </trkpt>
      <trkpt lat="45.9339" lon="4.72408">
        <ele>174</ele>
        <time>2018-05-16T11:46:52Z</time>
      </trkpt>
      <trkpt lat="45.93387" lon="4.72413">
        <ele>174</ele>
        <time>2018-05-16T11:46:53Z</time>
      </trkpt>
      <trkpt lat="45.93385" lon="4.72421">
        <ele>173</ele>
        <time>2018-05-16T11:46:54Z</time>
      </trkpt>
      <trkpt lat="45.93385" lon="4.72427">
        <ele>173</ele>
        <time>2018-05-16T11:46:55Z</time>
      </trkpt>
      <trkpt lat="45.93387" lon="4.72434">
        <ele>173</ele>
        <time>2018-05-16T11:46:56Z</time>
      </trkpt>
      <trkpt lat="45.93389" lon="4.72442">
        <ele>173</ele>
        <time>2018-05-16T11:46:57Z</time>
      </trkpt>
      <trkpt lat="45.93391" lon="4.72449">
        <ele>173</ele>
        <time>2018-05-16T11:46:58Z</time>
      </trkpt>
      <trkpt lat="45.93391" lon="4.72456">
        <ele>173</ele>
        <time>2018-05-16T11:46:59Z</time>
      </trkpt>
      <trkpt lat="45.9339" lon="4.72463">
        <ele>173</ele>
        <time>2018-05-16T11:47:00Z</time>
      </trkpt>
      <trkpt lat="45.93387" lon="4.72469">
        <ele>173</ele>
        <time>2018-05-16T11:47:01Z</time>
      </trkpt>
      <trkpt lat="45.93384" lon="4.72476">
        <ele>173</ele>
        <time>2018-05-16T11:47:02Z</time>
      </trkpt>
      <trkpt lat="45.9338" lon="4.7248">
        <ele>173</ele>
        <time>2018-05-16T11:47:03Z</time>
      </trkpt>
      <trkpt lat="45.93377" lon="4.72484">
        <ele>173</ele>
        <time>2018-05-16T11:47:04Z</time>
      </trkpt>
      <trkpt lat="45.93372" lon="4.7249">
        <ele>173</ele>
        <time>2018-05-16T11:47:05Z</time>
      </trkpt>
      <trkpt lat="45.93368" lon="4.72495">
        <ele>173</ele>
        <time>2018-05-16T11:47:06Z</time>
      </trkpt>
      <trkpt lat="45.93364" lon="4.72501">
        <ele>172</ele>
        <time>2018-05-16T11:47:07Z</time>
      </trkpt>
      <trkpt lat="45.9336" lon="4.72506">
        <ele>172</ele>
        <time>2018-05-16T11:47:08Z</time>
      </trkpt>
      <trkpt lat="45.93356" lon="4.72511">
        <ele>172</ele>
        <time>2018-05-16T11:47:09Z</time>
      </trkpt>
      <trkpt lat="45.93351" lon="4.72515">
        <ele>172</ele>
        <time>2018-05-16T11:47:10Z</time>
      </trkpt>
      <trkpt lat="45.93347" lon="4.7252">
        <ele>172</ele>
        <time>2018-05-16T11:47:11Z</time>
      </trkpt>
      <trkpt lat="45.93343" lon="4.72526">
        <ele>172</ele>
        <time>2018-05-16T11:47:12Z</time>
      </trkpt>
      <trkpt lat="45.93338" lon="4.7253">
        <ele>172</ele>
        <time>2018-05-16T11:47:13Z</time>
      </trkpt>
      <trkpt lat="45.93334" lon="4.72535">
        <ele>172</ele>
        <time>2018-05-16T11:47:14Z</time>
      </trkpt>
      <trkpt lat="45.93329" lon="4.72539">
        <ele>172</ele>
        <time>2018-05-16T11:47:15Z</time>
      </trkpt>
      <trkpt lat="45.93325" lon="4.72543">
        <ele>172</ele>
        <time>2018-05-16T11:47:16Z</time>
      </trkpt>
      <trkpt lat="45.9332" lon="4.72548">
        <ele>172</ele>
        <time>2018-05-16T11:47:17Z</time>
      </trkpt>
      <trkpt lat="45.93314" lon="4.72555">
        <ele>172</ele>
        <time>2018-05-16T11:47:19Z</time>
      </trkpt>
      <trkpt lat="45.9331" lon="4.7256">
        <ele>172</ele>
        <time>2018-05-16T11:47:20Z</time>
      </trkpt>
      <trkpt lat="45.93306" lon="4.72565">
        <ele>171</ele>
        <time>2018-05-16T11:47:21Z</time>
      </trkpt>
      <trkpt lat="45.93302" lon="4.7257">
        <ele>171</ele>
        <time>2018-05-16T11:47:22Z</time>
      </trkpt>
      <trkpt lat="45.93298" lon="4.72575">
        <ele>171</ele>
        <time>2018-05-16T11:47:23Z</time>
      </trkpt>
      <trkpt lat="45.93294" lon="4.72579">
        <ele>171</ele>
        <time>2018-05-16T11:47:24Z</time>
      </trkpt>
      <trkpt lat="45.9329" lon="4.72583">
        <ele>171</ele>
        <time>2018-05-16T11:47:25Z</time>
      </trkpt>
      <trkpt lat="45.93286" lon="4.72589">
        <ele>170</ele>
        <time>2018-05-16T11:47:26Z</time>
      </trkpt>
      <trkpt lat="45.93281" lon="4.72593">
        <ele>170</ele>
        <time>2018-05-16T11:47:27Z</time>
      </trkpt>
      <trkpt lat="45.93277" lon="4.72598">
        <ele>170</ele>
        <time>2018-05-16T11:47:28Z</time>
      </trkpt>
      <trkpt lat="45.93273" lon="4.72603">
        <ele>170</ele>
        <time>2018-05-16T11:47:29Z</time>
      </trkpt>
      <trkpt lat="45.93269" lon="4.72608">
        <ele>170</ele>
        <time>2018-05-16T11:47:30Z</time>
      </trkpt>
      <trkpt lat="45.93265" lon="4.72614">
        <ele>170</ele>
        <time>2018-05-16T11:47:31Z</time>
      </trkpt>
      <trkpt lat="45.93259" lon="4.72619">
        <ele>170</ele>
        <time>2018-05-16T11:47:32Z</time>
      </trkpt>
      <trkpt lat="45.93255" lon="4.72624">
        <ele>170</ele>
        <time>2018-05-16T11:47:33Z</time>
      </trkpt>
      <trkpt lat="45.9325" lon="4.7263">
        <ele>170</ele>
        <time>2018-05-16T11:47:34Z</time>
      </trkpt>
      <trkpt lat="45.93246" lon="4.72635">
        <ele>170</ele>
        <time>2018-05-16T11:47:35Z</time>
      </trkpt>
      <trkpt lat="45.93242" lon="4.7264">
        <ele>170</ele>
        <time>2018-05-16T11:47:36Z</time>
      </trkpt>
      <trkpt lat="45.93238" lon="4.72645">
        <ele>170</ele>
        <time>2018-05-16T11:47:37Z</time>
      </trkpt>
      <trkpt lat="45.93233" lon="4.72649">
        <ele>170</ele>
        <time>2018-05-16T11:47:38Z</time>
      </trkpt>
      <trkpt lat="45.93229" lon="4.72652">
        <ele>170</ele>
        <time>2018-05-16T11:47:39Z</time>
      </trkpt>
      <trkpt lat="45.93225" lon="4.72656">
        <ele>170</ele>
        <time>2018-05-16T11:47:40Z</time>
      </trkpt>
      <trkpt lat="45.93221" lon="4.7266">
        <ele>170</ele>
        <time>2018-05-16T11:47:41Z</time>
      </trkpt>
      <trkpt lat="45.93217" lon="4.72664">
        <ele>170</ele>
        <time>2018-05-16T11:47:42Z</time>
      </trkpt>
      <trkpt lat="45.93213" lon="4.7267">
        <ele>169</ele>
        <time>2018-05-16T11:47:43Z</time>
      </trkpt>
      <trkpt lat="45.93209" lon="4.72674">
        <ele>169</ele>
        <time>2018-05-16T11:47:44Z</time>
      </trkpt>
      <trkpt lat="45.93205" lon="4.72679">
        <ele>169</ele>
        <time>2018-05-16T11:47:45Z</time>
      </trkpt>
      <trkpt lat="45.93201" lon="4.72685">
        <ele>169</ele>
        <time>2018-05-16T11:47:46Z</time>
      </trkpt>
      <trkpt lat="45.93197" lon="4.72689">
        <ele>169</ele>
        <time>2018-05-16T11:47:47Z</time>
      </trkpt>
      <trkpt lat="45.93193" lon="4.72696">
        <ele>169</ele>
        <time>2018-05-16T11:47:48Z</time>
      </trkpt>
      <trkpt lat="45.93189" lon="4.72701">
        <ele>169</ele>
        <time>2018-05-16T11:47:49Z</time>
      </trkpt>
      <trkpt lat="45.93185" lon="4.72706">
        <ele>169</ele>
        <time>2018-05-16T11:47:50Z</time>
      </trkpt>
      <trkpt lat="45.93181" lon="4.72711">
        <ele>169</ele>
        <time>2018-05-16T11:47:51Z</time>
      </trkpt>
      <trkpt lat="45.93177" lon="4.72715">
        <ele>169</ele>
        <time>2018-05-16T11:47:52Z</time>
      </trkpt>
      <trkpt lat="45.93173" lon="4.72722">
        <ele>170</ele>
        <time>2018-05-16T11:47:53Z</time>
      </trkpt>
      <trkpt lat="45.93169" lon="4.72727">
        <ele>170</ele>
        <time>2018-05-16T11:47:54Z</time>
      </trkpt>
      <trkpt lat="45.93165" lon="4.72732">
        <ele>170</ele>
        <time>2018-05-16T11:47:55Z</time>
      </trkpt>
      <trkpt lat="45.93159" lon="4.72737">
        <ele>170</ele>
        <time>2018-05-16T11:47:56Z</time>
      </trkpt>
      <trkpt lat="45.93154" lon="4.72743">
        <ele>170</ele>
        <time>2018-05-16T11:47:57Z</time>
      </trkpt>
      <trkpt lat="45.93149" lon="4.72748">
        <ele>170</ele>
        <time>2018-05-16T11:47:58Z</time>
      </trkpt>
      <trkpt lat="45.93143" lon="4.72755">
        <ele>171</ele>
        <time>2018-05-16T11:47:59Z</time>
      </trkpt>
      <trkpt lat="45.93138" lon="4.72761">
        <ele>171</ele>
        <time>2018-05-16T11:48:00Z</time>
      </trkpt>
      <trkpt lat="45.93133" lon="4.72768">
        <ele>171</ele>
        <time>2018-05-16T11:48:01Z</time>
      </trkpt>
      <trkpt lat="45.93128" lon="4.72775">
        <ele>171</ele>
        <time>2018-05-16T11:48:02Z</time>
      </trkpt>
      <trkpt lat="45.93123" lon="4.72781">
        <ele>171</ele>
        <time>2018-05-16T11:48:03Z</time>
      </trkpt>
      <trkpt lat="45.93118" lon="4.72788">
        <ele>171</ele>
        <time>2018-05-16T11:48:04Z</time>
      </trkpt>
      <trkpt lat="45.93113" lon="4.72794">
        <ele>171</ele>
        <time>2018-05-16T11:48:05Z</time>
      </trkpt>
      <trkpt lat="45.93108" lon="4.728">
        <ele>171</ele>
        <time>2018-05-16T11:48:06Z</time>
      </trkpt>
      <trkpt lat="45.93104" lon="4.72805">
        <ele>171</ele>
        <time>2018-05-16T11:48:07Z</time>
      </trkpt>
      <trkpt lat="45.93099" lon="4.7281">
        <ele>172</ele>
        <time>2018-05-16T11:48:08Z</time>
      </trkpt>
      <trkpt lat="45.93094" lon="4.72815">
        <ele>172</ele>
        <time>2018-05-16T11:48:09Z</time>
      </trkpt>
      <trkpt lat="45.9309" lon="4.7282">
        <ele>172</ele>
        <time>2018-05-16T11:48:10Z</time>
      </trkpt>
      <trkpt lat="45.93085" lon="4.72825">
        <ele>172</ele>
        <time>2018-05-16T11:48:11Z</time>
      </trkpt>
      <trkpt lat="45.93082" lon="4.72829">
        <ele>173</ele>
        <time>2018-05-16T11:48:12Z</time>
      </trkpt>
      <trkpt lat="45.93079" lon="4.72828">
        <ele>173</ele>
        <time>2018-05-16T11:48:14Z</time>
      </trkpt>
      <trkpt lat="45.9307" lon="4.72838">
        <ele>173</ele>
        <time>2018-05-16T11:48:15Z</time>
      </trkpt>
      <trkpt lat="45.93068" lon="4.72844">
        <ele>172</ele>
        <time>2018-05-16T11:48:16Z</time>
      </trkpt>
      <trkpt lat="45.93063" lon="4.72852">
        <ele>172</ele>
        <time>2018-05-16T11:48:17Z</time>
      </trkpt>
      <trkpt lat="45.93052" lon="4.72851">
        <ele>172</ele>
        <time>2018-05-16T11:48:18Z</time>
      </trkpt>
      <trkpt lat="45.9305" lon="4.72851">
        <ele>172</ele>
        <time>2018-05-16T11:48:19Z</time>
      </trkpt>
      <trkpt lat="45.93045" lon="4.72862">
        <ele>172</ele>
        <time>2018-05-16T11:48:20Z</time>
      </trkpt>
      <trkpt lat="45.9304" lon="4.72869">
        <ele>172</ele>
        <time>2018-05-16T11:48:21Z</time>
      </trkpt>
      <trkpt lat="45.93036" lon="4.72876">
        <ele>172</ele>
        <time>2018-05-16T11:48:22Z</time>
      </trkpt>
      <trkpt lat="45.93032" lon="4.7288">
        <ele>172</ele>
        <time>2018-05-16T11:48:23Z</time>
      </trkpt>
      <trkpt lat="45.93027" lon="4.72886">
        <ele>172</ele>
        <time>2018-05-16T11:48:24Z</time>
      </trkpt>
      <trkpt lat="45.93023" lon="4.72891">
        <ele>172</ele>
        <time>2018-05-16T11:48:25Z</time>
      </trkpt>
      <trkpt lat="45.93018" lon="4.72897">
        <ele>172</ele>
        <time>2018-05-16T11:48:26Z</time>
      </trkpt>
      <trkpt lat="45.93013" lon="4.72902">
        <ele>172</ele>
        <time>2018-05-16T11:48:27Z</time>
      </trkpt>
      <trkpt lat="45.93009" lon="4.72906">
        <ele>171</ele>
        <time>2018-05-16T11:48:28Z</time>
      </trkpt>
      <trkpt lat="45.93005" lon="4.72912">
        <ele>171</ele>
        <time>2018-05-16T11:48:29Z</time>
      </trkpt>
      <trkpt lat="45.93" lon="4.72917">
        <ele>171</ele>
        <time>2018-05-16T11:48:30Z</time>
      </trkpt>
      <trkpt lat="45.92996" lon="4.72922">
        <ele>171</ele>
        <time>2018-05-16T11:48:31Z</time>
      </trkpt>
      <trkpt lat="45.92991" lon="4.72928">
        <ele>171</ele>
        <time>2018-05-16T11:48:32Z</time>
      </trkpt>
      <trkpt lat="45.92987" lon="4.72932">
        <ele>171</ele>
        <time>2018-05-16T11:48:33Z</time>
      </trkpt>
      <trkpt lat="45.92983" lon="4.72938">
        <ele>171</ele>
        <time>2018-05-16T11:48:34Z</time>
      </trkpt>
      <trkpt lat="45.92979" lon="4.72943">
        <ele>171</ele>
        <time>2018-05-16T11:48:35Z</time>
      </trkpt>
      <trkpt lat="45.92974" lon="4.72949">
        <ele>171</ele>
        <time>2018-05-16T11:48:36Z</time>
      </trkpt>
      <trkpt lat="45.92969" lon="4.72954">
        <ele>171</ele>
        <time>2018-05-16T11:48:37Z</time>
      </trkpt>
      <trkpt lat="45.92965" lon="4.72959">
        <ele>171</ele>
        <time>2018-05-16T11:48:38Z</time>
      </trkpt>
      <trkpt lat="45.9296" lon="4.72965">
        <ele>171</ele>
        <time>2018-05-16T11:48:39Z</time>
      </trkpt>
      <trkpt lat="45.92955" lon="4.72972">
        <ele>171</ele>
        <time>2018-05-16T11:48:40Z</time>
      </trkpt>
      <trkpt lat="45.9295" lon="4.72977">
        <ele>171</ele>
        <time>2018-05-16T11:48:41Z</time>
      </trkpt>
      <trkpt lat="45.92946" lon="4.72982">
        <ele>171</ele>
        <time>2018-05-16T11:48:42Z</time>
      </trkpt>
      <trkpt lat="45.9294" lon="4.72989">
        <ele>171</ele>
        <time>2018-05-16T11:48:43Z</time>
      </trkpt>
      <trkpt lat="45.92936" lon="4.72995">
        <ele>171</ele>
        <time>2018-05-16T11:48:44Z</time>
      </trkpt>
      <trkpt lat="45.92932" lon="4.73001">
        <ele>171</ele>
        <time>2018-05-16T11:48:45Z</time>
      </trkpt>
      <trkpt lat="45.92928" lon="4.73006">
        <ele>172</ele>
        <time>2018-05-16T11:48:46Z</time>
      </trkpt>
      <trkpt lat="45.92923" lon="4.73013">
        <ele>172</ele>
        <time>2018-05-16T11:48:47Z</time>
      </trkpt>
      <trkpt lat="45.92919" lon="4.73019">
        <ele>172</ele>
        <time>2018-05-16T11:48:48Z</time>
      </trkpt>
      <trkpt lat="45.92915" lon="4.73024">
        <ele>172</ele>
        <time>2018-05-16T11:48:49Z</time>
      </trkpt>
      <trkpt lat="45.92912" lon="4.73029">
        <ele>172</ele>
        <time>2018-05-16T11:48:50Z</time>
      </trkpt>
      <trkpt lat="45.92908" lon="4.73035">
        <ele>172</ele>
        <time>2018-05-16T11:48:51Z</time>
      </trkpt>
      <trkpt lat="45.92904" lon="4.7304">
        <ele>172</ele>
        <time>2018-05-16T11:48:52Z</time>
      </trkpt>
      <trkpt lat="45.92898" lon="4.73049">
        <ele>172</ele>
        <time>2018-05-16T11:48:54Z</time>
      </trkpt>
      <trkpt lat="45.92894" lon="4.73054">
        <ele>172</ele>
        <time>2018-05-16T11:48:55Z</time>
      </trkpt>
      <trkpt lat="45.92891" lon="4.73058">
        <ele>172</ele>
        <time>2018-05-16T11:48:56Z</time>
      </trkpt>
      <trkpt lat="45.92888" lon="4.73064">
        <ele>172</ele>
        <time>2018-05-16T11:48:57Z</time>
      </trkpt>
      <trkpt lat="45.92885" lon="4.73069">
        <ele>172</ele>
        <time>2018-05-16T11:48:58Z</time>
      </trkpt>
      <trkpt lat="45.92882" lon="4.73073">
        <ele>172</ele>
        <time>2018-05-16T11:48:59Z</time>
      </trkpt>
      <trkpt lat="45.92879" lon="4.73079">
        <ele>172</ele>
        <time>2018-05-16T11:49:00Z</time>
      </trkpt>
      <trkpt lat="45.92876" lon="4.73085">
        <ele>172</ele>
        <time>2018-05-16T11:49:01Z</time>
      </trkpt>
      <trkpt lat="45.92873" lon="4.73089">
        <ele>172</ele>
        <time>2018-05-16T11:49:02Z</time>
      </trkpt>
      <trkpt lat="45.92869" lon="4.73095">
        <ele>172</ele>
        <time>2018-05-16T11:49:03Z</time>
      </trkpt>
      <trkpt lat="45.92863" lon="4.73104">
        <ele>171</ele>
        <time>2018-05-16T11:49:05Z</time>
      </trkpt>
      <trkpt lat="45.9286" lon="4.7311">
        <ele>171</ele>
        <time>2018-05-16T11:49:06Z</time>
      </trkpt>
      <trkpt lat="45.92854" lon="4.73109">
        <ele>171</ele>
        <time>2018-05-16T11:49:08Z</time>
      </trkpt>
      <trkpt lat="45.92851" lon="4.73104">
        <ele>171</ele>
        <time>2018-05-16T11:49:09Z</time>
      </trkpt>
      <trkpt lat="45.9285" lon="4.73098">
        <ele>171</ele>
        <time>2018-05-16T11:49:10Z</time>
      </trkpt>
      <trkpt lat="45.9285" lon="4.73091">
        <ele>171</ele>
        <time>2018-05-16T11:49:11Z</time>
      </trkpt>
      <trkpt lat="45.9285" lon="4.73084">
        <ele>171</ele>
        <time>2018-05-16T11:49:12Z</time>
      </trkpt>
      <trkpt lat="45.92849" lon="4.73077">
        <ele>171</ele>
        <time>2018-05-16T11:49:13Z</time>
      </trkpt>
      <trkpt lat="45.92848" lon="4.73069">
        <ele>171</ele>
        <time>2018-05-16T11:49:14Z</time>
      </trkpt>
      <trkpt lat="45.92847" lon="4.73063">
        <ele>171</ele>
        <time>2018-05-16T11:49:15Z</time>
      </trkpt>
      <trkpt lat="45.92845" lon="4.73052">
        <ele>171</ele>
        <time>2018-05-16T11:49:17Z</time>
      </trkpt>
      <trkpt lat="45.92844" lon="4.73045">
        <ele>171</ele>
        <time>2018-05-16T11:49:18Z</time>
      </trkpt>
      <trkpt lat="45.92843" lon="4.7304">
        <ele>171</ele>
        <time>2018-05-16T11:49:19Z</time>
      </trkpt>
      <trkpt lat="45.92842" lon="4.73032">
        <ele>171</ele>
        <time>2018-05-16T11:49:20Z</time>
      </trkpt>
      <trkpt lat="45.9284" lon="4.73021">
        <ele>171</ele>
        <time>2018-05-16T11:49:22Z</time>
      </trkpt>
      <trkpt lat="45.92839" lon="4.73013">
        <ele>171</ele>
        <time>2018-05-16T11:49:23Z</time>
      </trkpt>
      <trkpt lat="45.92838" lon="4.73006">
        <ele>170</ele>
        <time>2018-05-16T11:49:24Z</time>
      </trkpt>
      <trkpt lat="45.92837" lon="4.73">
        <ele>170</ele>
        <time>2018-05-16T11:49:25Z</time>
      </trkpt>
      <trkpt lat="45.92835" lon="4.72988">
        <ele>170</ele>
        <time>2018-05-16T11:49:27Z</time>
      </trkpt>
      <trkpt lat="45.92835" lon="4.72982">
        <ele>171</ele>
        <time>2018-05-16T11:49:28Z</time>
      </trkpt>
      <trkpt lat="45.92834" lon="4.7297">
        <ele>171</ele>
        <time>2018-05-16T11:49:30Z</time>
      </trkpt>
      <trkpt lat="45.92833" lon="4.72964">
        <ele>171</ele>
        <time>2018-05-16T11:49:31Z</time>
      </trkpt>
      <trkpt lat="45.92832" lon="4.72952">
        <ele>170</ele>
        <time>2018-05-16T11:49:33Z</time>
      </trkpt>
      <trkpt lat="45.92832" lon="4.72946">
        <ele>170</ele>
        <time>2018-05-16T11:49:34Z</time>
      </trkpt>
      <trkpt lat="45.9283" lon="4.72933">
        <ele>170</ele>
        <time>2018-05-16T11:49:36Z</time>
      </trkpt>
      <trkpt lat="45.9283" lon="4.72927">
        <ele>170</ele>
        <time>2018-05-16T11:49:37Z</time>
      </trkpt>
      <trkpt lat="45.92828" lon="4.72915">
        <ele>170</ele>
        <time>2018-05-16T11:49:39Z</time>
      </trkpt>
      <trkpt lat="45.92828" lon="4.72909">
        <ele>170</ele>
        <time>2018-05-16T11:49:40Z</time>
      </trkpt>
      <trkpt lat="45.92826" lon="4.72898">
        <ele>170</ele>
        <time>2018-05-16T11:49:42Z</time>
      </trkpt>
      <trkpt lat="45.92825" lon="4.72892">
        <ele>170</ele>
        <time>2018-05-16T11:49:43Z</time>
      </trkpt>
      <trkpt lat="45.92823" lon="4.7288">
        <ele>170</ele>
        <time>2018-05-16T11:49:45Z</time>
      </trkpt>
      <trkpt lat="45.92822" lon="4.72874">
        <ele>170</ele>
        <time>2018-05-16T11:49:46Z</time>
      </trkpt>
      <trkpt lat="45.92819" lon="4.72863">
        <ele>170</ele>
        <time>2018-05-16T11:49:48Z</time>
      </trkpt>
      <trkpt lat="45.92817" lon="4.72856">
        <ele>170</ele>
        <time>2018-05-16T11:49:49Z</time>
      </trkpt>
      <trkpt lat="45.92816" lon="4.7285">
        <ele>170</ele>
        <time>2018-05-16T11:49:50Z</time>
      </trkpt>
      <trkpt lat="45.92813" lon="4.72842">
        <ele>170</ele>
        <time>2018-05-16T11:49:51Z</time>
      </trkpt>
      <trkpt lat="45.92811" lon="4.72835">
        <ele>170</ele>
        <time>2018-05-16T11:49:52Z</time>
      </trkpt>
      <trkpt lat="45.9281" lon="4.72827">
        <ele>171</ele>
        <time>2018-05-16T11:49:53Z</time>
      </trkpt>
      <trkpt lat="45.92809" lon="4.72819">
        <ele>171</ele>
        <time>2018-05-16T11:49:54Z</time>
      </trkpt>
      <trkpt lat="45.92808" lon="4.72813">
        <ele>171</ele>
        <time>2018-05-16T11:49:55Z</time>
      </trkpt>
      <trkpt lat="45.92806" lon="4.72806">
        <ele>171</ele>
        <time>2018-05-16T11:49:56Z</time>
      </trkpt>
      <trkpt lat="45.92804" lon="4.728">
        <ele>171</ele>
        <time>2018-05-16T11:49:57Z</time>
      </trkpt>
      <trkpt lat="45.92801" lon="4.72791">
        <ele>171</ele>
        <time>2018-05-16T11:49:59Z</time>
      </trkpt>
      <trkpt lat="45.92796" lon="4.72788">
        <ele>171</ele>
        <time>2018-05-16T11:50:00Z</time>
      </trkpt>
      <trkpt lat="45.92789" lon="4.72791">
        <ele>170</ele>
        <time>2018-05-16T11:50:02Z</time>
      </trkpt>
      <trkpt lat="45.92785" lon="4.72792">
        <ele>170</ele>
        <time>2018-05-16T11:50:03Z</time>
      </trkpt>
      <trkpt lat="45.92777" lon="4.728">
        <ele>170</ele>
        <time>2018-05-16T11:50:05Z</time>
      </trkpt>
      <trkpt lat="45.92773" lon="4.72803">
        <ele>170</ele>
        <time>2018-05-16T11:50:06Z</time>
      </trkpt>
      <trkpt lat="45.92769" lon="4.72806">
        <ele>170</ele>
        <time>2018-05-16T11:50:07Z</time>
      </trkpt>
      <trkpt lat="45.92765" lon="4.72809">
        <ele>170</ele>
        <time>2018-05-16T11:50:08Z</time>
      </trkpt>
      <trkpt lat="45.9276" lon="4.72813">
        <ele>170</ele>
        <time>2018-05-16T11:50:09Z</time>
      </trkpt>
      <trkpt lat="45.92755" lon="4.72816">
        <ele>170</ele>
        <time>2018-05-16T11:50:10Z</time>
      </trkpt>
      <trkpt lat="45.92751" lon="4.72821">
        <ele>170</ele>
        <time>2018-05-16T11:50:11Z</time>
      </trkpt>
      <trkpt lat="45.92746" lon="4.72824">
        <ele>169</ele>
        <time>2018-05-16T11:50:12Z</time>
      </trkpt>
      <trkpt lat="45.92742" lon="4.72827">
        <ele>169</ele>
        <time>2018-05-16T11:50:13Z</time>
      </trkpt>
      <trkpt lat="45.92738" lon="4.7283">
        <ele>169</ele>
        <time>2018-05-16T11:50:14Z</time>
      </trkpt>
      <trkpt lat="45.92732" lon="4.72834">
        <ele>169</ele>
        <time>2018-05-16T11:50:15Z</time>
      </trkpt>
      <trkpt lat="45.92728" lon="4.72837">
        <ele>169</ele>
        <time>2018-05-16T11:50:16Z</time>
      </trkpt>
      <trkpt lat="45.92723" lon="4.72841">
        <ele>169</ele>
        <time>2018-05-16T11:50:17Z</time>
      </trkpt>
      <trkpt lat="45.92719" lon="4.72844">
        <ele>169</ele>
        <time>2018-05-16T11:50:18Z</time>
      </trkpt>
      <trkpt lat="45.92715" lon="4.72849">
        <ele>169</ele>
        <time>2018-05-16T11:50:19Z</time>
      </trkpt>
      <trkpt lat="45.9271" lon="4.72852">
        <ele>169</ele>
        <time>2018-05-16T11:50:20Z</time>
      </trkpt>
      <trkpt lat="45.92705" lon="4.72856">
        <ele>169</ele>
        <time>2018-05-16T11:50:21Z</time>
      </trkpt>
      <trkpt lat="45.92701" lon="4.7286">
        <ele>169</ele>
        <time>2018-05-16T11:50:22Z</time>
      </trkpt>
      <trkpt lat="45.92696" lon="4.72863">
        <ele>169</ele>
        <time>2018-05-16T11:50:23Z</time>
      </trkpt>
      <trkpt lat="45.92691" lon="4.72866">
        <ele>169</ele>
        <time>2018-05-16T11:50:24Z</time>
      </trkpt>
      <trkpt lat="45.92687" lon="4.7287">
        <ele>169</ele>
        <time>2018-05-16T11:50:25Z</time>
      </trkpt>
      <trkpt lat="45.92682" lon="4.72874">
        <ele>169</ele>
        <time>2018-05-16T11:50:26Z</time>
      </trkpt>
      <trkpt lat="45.92677" lon="4.72877">
        <ele>170</ele>
        <time>2018-05-16T11:50:27Z</time>
      </trkpt>
      <trkpt lat="45.92673" lon="4.7288">
        <ele>170</ele>
        <time>2018-05-16T11:50:28Z</time>
      </trkpt>
      <trkpt lat="45.92668" lon="4.72883">
        <ele>170</ele>
        <time>2018-05-16T11:50:29Z</time>
      </trkpt>
      <trkpt lat="45.92662" lon="4.72887">
        <ele>169</ele>
        <time>2018-05-16T11:50:30Z</time>
      </trkpt>
      <trkpt lat="45.92658" lon="4.7289">
        <ele>169</ele>
        <time>2018-05-16T11:50:31Z</time>
      </trkpt>
      <trkpt lat="45.92653" lon="4.72894">
        <ele>169</ele>
        <time>2018-05-16T11:50:32Z</time>
      </trkpt>
      <trkpt lat="45.92649" lon="4.72897">
        <ele>169</ele>
        <time>2018-05-16T11:50:33Z</time>
      </trkpt>
      <trkpt lat="45.92645" lon="4.729">
        <ele>169</ele>
        <time>2018-05-16T11:50:34Z</time>
      </trkpt>
      <trkpt lat="45.9264" lon="4.72904">
        <ele>169</ele>
        <time>2018-05-16T11:50:35Z</time>
      </trkpt>
      <trkpt lat="45.92636" lon="4.72908">
        <ele>169</ele>
        <time>2018-05-16T11:50:36Z</time>
      </trkpt>
      <trkpt lat="45.92632" lon="4.72911">
        <ele>169</ele>
        <time>2018-05-16T11:50:37Z</time>
      </trkpt>
      <trkpt lat="45.92628" lon="4.72916">
        <ele>169</ele>
        <time>2018-05-16T11:50:38Z</time>
      </trkpt>
      <trkpt lat="45.92623" lon="4.72919">
        <ele>169</ele>
        <time>2018-05-16T11:50:39Z</time>
      </trkpt>
      <trkpt lat="45.92618" lon="4.72925">
        <ele>169</ele>
        <time>2018-05-16T11:50:40Z</time>
      </trkpt>
      <trkpt lat="45.92614" lon="4.7293">
        <ele>169</ele>
        <time>2018-05-16T11:50:41Z</time>
      </trkpt>
      <trkpt lat="45.92609" lon="4.72934">
        <ele>169</ele>
        <time>2018-05-16T11:50:42Z</time>
      </trkpt>
      <trkpt lat="45.92605" lon="4.72939">
        <ele>169</ele>
        <time>2018-05-16T11:50:43Z</time>
      </trkpt>
      <trkpt lat="45.926" lon="4.72945">
        <ele>169</ele>
        <time>2018-05-16T11:50:44Z</time>
      </trkpt>
      <trkpt lat="45.92594" lon="4.7295">
        <ele>169</ele>
        <time>2018-05-16T11:50:45Z</time>
      </trkpt>
      <trkpt lat="45.92589" lon="4.72955">
        <ele>169</ele>
        <time>2018-05-16T11:50:46Z</time>
      </trkpt>
      <trkpt lat="45.92584" lon="4.7296">
        <ele>169</ele>
        <time>2018-05-16T11:50:47Z</time>
      </trkpt>
      <trkpt lat="45.9258" lon="4.72966">
        <ele>169</ele>
        <time>2018-05-16T11:50:48Z</time>
      </trkpt>
      <trkpt lat="45.92575" lon="4.72973">
        <ele>169</ele>
        <time>2018-05-16T11:50:49Z</time>
      </trkpt>
      <trkpt lat="45.92571" lon="4.72979">
        <ele>169</ele>
        <time>2018-05-16T11:50:50Z</time>
      </trkpt>
      <trkpt lat="45.92566" lon="4.72984">
        <ele>169</ele>
        <time>2018-05-16T11:50:51Z</time>
      </trkpt>
      <trkpt lat="45.92561" lon="4.72989">
        <ele>169</ele>
        <time>2018-05-16T11:50:52Z</time>
      </trkpt>
      <trkpt lat="45.92557" lon="4.72995">
        <ele>169</ele>
        <time>2018-05-16T11:50:53Z</time>
      </trkpt>
      <trkpt lat="45.92552" lon="4.72999">
        <ele>169</ele>
        <time>2018-05-16T11:50:54Z</time>
      </trkpt>
      <trkpt lat="45.92546" lon="4.73003">
        <ele>169</ele>
        <time>2018-05-16T11:50:55Z</time>
      </trkpt>
      <trkpt lat="45.92541" lon="4.73007">
        <ele>169</ele>
        <time>2018-05-16T11:50:56Z</time>
      </trkpt>
      <trkpt lat="45.92536" lon="4.73012">
        <ele>169</ele>
        <time>2018-05-16T11:50:57Z</time>
      </trkpt>
      <trkpt lat="45.9253" lon="4.73017">
        <ele>169</ele>
        <time>2018-05-16T11:50:58Z</time>
      </trkpt>
      <trkpt lat="45.92525" lon="4.73022">
        <ele>169</ele>
        <time>2018-05-16T11:50:59Z</time>
      </trkpt>
      <trkpt lat="45.9252" lon="4.73026">
        <ele>169</ele>
        <time>2018-05-16T11:51:00Z</time>
      </trkpt>
      <trkpt lat="45.92515" lon="4.73031">
        <ele>169</ele>
        <time>2018-05-16T11:51:01Z</time>
      </trkpt>
      <trkpt lat="45.92509" lon="4.73036">
        <ele>169</ele>
        <time>2018-05-16T11:51:02Z</time>
      </trkpt>
      <trkpt lat="45.92504" lon="4.73041">
        <ele>169</ele>
        <time>2018-05-16T11:51:03Z</time>
      </trkpt>
      <trkpt lat="45.92499" lon="4.73047">
        <ele>170</ele>
        <time>2018-05-16T11:51:04Z</time>
      </trkpt>
      <trkpt lat="45.92493" lon="4.73051">
        <ele>170</ele>
        <time>2018-05-16T11:51:05Z</time>
      </trkpt>
      <trkpt lat="45.92488" lon="4.73055">
        <ele>170</ele>
        <time>2018-05-16T11:51:06Z</time>
      </trkpt>
      <trkpt lat="45.92482" lon="4.73061">
        <ele>170</ele>
        <time>2018-05-16T11:51:07Z</time>
      </trkpt>
      <trkpt lat="45.92476" lon="4.73066">
        <ele>170</ele>
        <time>2018-05-16T11:51:08Z</time>
      </trkpt>
      <trkpt lat="45.9247" lon="4.73071">
        <ele>170</ele>
        <time>2018-05-16T11:51:09Z</time>
      </trkpt>
      <trkpt lat="45.92465" lon="4.73076">
        <ele>170</ele>
        <time>2018-05-16T11:51:10Z</time>
      </trkpt>
      <trkpt lat="45.92459" lon="4.73083">
        <ele>170</ele>
        <time>2018-05-16T11:51:11Z</time>
      </trkpt>
      <trkpt lat="45.92454" lon="4.73088">
        <ele>170</ele>
        <time>2018-05-16T11:51:12Z</time>
      </trkpt>
      <trkpt lat="45.92448" lon="4.73093">
        <ele>170</ele>
        <time>2018-05-16T11:51:13Z</time>
      </trkpt>
      <trkpt lat="45.92442" lon="4.73098">
        <ele>170</ele>
        <time>2018-05-16T11:51:14Z</time>
      </trkpt>
      <trkpt lat="45.92436" lon="4.73102">
        <ele>170</ele>
        <time>2018-05-16T11:51:15Z</time>
      </trkpt>
      <trkpt lat="45.92431" lon="4.73106">
        <ele>170</ele>
        <time>2018-05-16T11:51:16Z</time>
      </trkpt>
      <trkpt lat="45.92425" lon="4.73111">
        <ele>170</ele>
        <time>2018-05-16T11:51:17Z</time>
      </trkpt>
      <trkpt lat="45.9242" lon="4.73116">
        <ele>170</ele>
        <time>2018-05-16T11:51:18Z</time>
      </trkpt>
      <trkpt lat="45.92415" lon="4.73121">
        <ele>171</ele>
        <time>2018-05-16T11:51:19Z</time>
      </trkpt>
      <trkpt lat="45.92412" lon="4.73128">
        <ele>171</ele>
        <time>2018-05-16T11:51:20Z</time>
      </trkpt>
      <trkpt lat="45.9241" lon="4.73137">
        <ele>171</ele>
        <time>2018-05-16T11:51:21Z</time>
      </trkpt>
      <trkpt lat="45.92409" lon="4.73145">
        <ele>171</ele>
        <time>2018-05-16T11:51:22Z</time>
      </trkpt>
      <trkpt lat="45.92409" lon="4.73154">
        <ele>170</ele>
        <time>2018-05-16T11:51:23Z</time>
      </trkpt>
      <trkpt lat="45.92408" lon="4.73164">
        <ele>170</ele>
        <time>2018-05-16T11:51:24Z</time>
      </trkpt>
      <trkpt lat="45.92408" lon="4.73173">
        <ele>170</ele>
        <time>2018-05-16T11:51:25Z</time>
      </trkpt>
      <trkpt lat="45.92408" lon="4.7318">
        <ele>171</ele>
        <time>2018-05-16T11:51:26Z</time>
      </trkpt>
      <trkpt lat="45.92408" lon="4.73188">
        <ele>171</ele>
        <time>2018-05-16T11:51:27Z</time>
      </trkpt>
      <trkpt lat="45.92408" lon="4.73195">
        <ele>171</ele>
        <time>2018-05-16T11:51:28Z</time>
      </trkpt>
      <trkpt lat="45.92408" lon="4.73203">
        <ele>171</ele>
        <time>2018-05-16T11:51:29Z</time>
      </trkpt>
      <trkpt lat="45.92408" lon="4.7321">
        <ele>171</ele>
        <time>2018-05-16T11:51:30Z</time>
      </trkpt>
      <trkpt lat="45.92408" lon="4.73216">
        <ele>171</ele>
        <time>2018-05-16T11:51:31Z</time>
      </trkpt>
      <trkpt lat="45.92409" lon="4.73223">
        <ele>171</ele>
        <time>2018-05-16T11:51:32Z</time>
      </trkpt>
      <trkpt lat="45.92409" lon="4.73231">
        <ele>171</ele>
        <time>2018-05-16T11:51:33Z</time>
      </trkpt>
      <trkpt lat="45.9241" lon="4.73238">
        <ele>171</ele>
        <time>2018-05-16T11:51:34Z</time>
      </trkpt>
      <trkpt lat="45.92411" lon="4.73245">
        <ele>171</ele>
        <time>2018-05-16T11:51:35Z</time>
      </trkpt>
      <trkpt lat="45.92411" lon="4.73252">
        <ele>171</ele>
        <time>2018-05-16T11:51:36Z</time>
      </trkpt>
      <trkpt lat="45.92411" lon="4.73256">
        <ele>171</ele>
        <time>2018-05-16T11:51:37Z</time>
      </trkpt>
      <trkpt lat="45.92411" lon="4.73265">
        <ele>171</ele>
        <time>2018-05-16T11:51:38Z</time>
      </trkpt>
      <trkpt lat="45.92412" lon="4.73272">
        <ele>171</ele>
        <time>2018-05-16T11:51:39Z</time>
      </trkpt>
      <trkpt lat="45.92413" lon="4.73279">
        <ele>171</ele>
        <time>2018-05-16T11:51:40Z</time>
      </trkpt>
      <trkpt lat="45.92414" lon="4.73285">
        <ele>171</ele>
        <time>2018-05-16T11:51:41Z</time>
      </trkpt>
      <trkpt lat="45.92414" lon="4.73292">
        <ele>171</ele>
        <time>2018-05-16T11:51:42Z</time>
      </trkpt>
      <trkpt lat="45.92415" lon="4.733">
        <ele>171</ele>
        <time>2018-05-16T11:51:43Z</time>
      </trkpt>
      <trkpt lat="45.92415" lon="4.73306">
        <ele>171</ele>
        <time>2018-05-16T11:51:44Z</time>
      </trkpt>
      <trkpt lat="45.92416" lon="4.73314">
        <ele>171</ele>
        <time>2018-05-16T11:51:45Z</time>
      </trkpt>
      <trkpt lat="45.92417" lon="4.73322">
        <ele>171</ele>
        <time>2018-05-16T11:51:46Z</time>
      </trkpt>
      <trkpt lat="45.92418" lon="4.73332">
        <ele>171</ele>
        <time>2018-05-16T11:51:47Z</time>
      </trkpt>
      <trkpt lat="45.92419" lon="4.73339">
        <ele>171</ele>
        <time>2018-05-16T11:51:48Z</time>
      </trkpt>
      <trkpt lat="45.92419" lon="4.73347">
        <ele>171</ele>
        <time>2018-05-16T11:51:49Z</time>
      </trkpt>
      <trkpt lat="45.92419" lon="4.73353">
        <ele>171</ele>
        <time>2018-05-16T11:51:50Z</time>
      </trkpt>
      <trkpt lat="45.92421" lon="4.73365">
        <ele>172</ele>
        <time>2018-05-16T11:51:52Z</time>
      </trkpt>
      <trkpt lat="45.92423" lon="4.73371">
        <ele>172</ele>
        <time>2018-05-16T11:51:53Z</time>
      </trkpt>
      <trkpt lat="45.92424" lon="4.73377">
        <ele>172</ele>
        <time>2018-05-16T11:51:54Z</time>
      </trkpt>
      <trkpt lat="45.92425" lon="4.73384">
        <ele>172</ele>
        <time>2018-05-16T11:51:55Z</time>
      </trkpt>
      <trkpt lat="45.92426" lon="4.73391">
        <ele>172</ele>
        <time>2018-05-16T11:51:56Z</time>
      </trkpt>
      <trkpt lat="45.92427" lon="4.73397">
        <ele>172</ele>
        <time>2018-05-16T11:51:57Z</time>
      </trkpt>
      <trkpt lat="45.92431" lon="4.73409">
        <ele>172</ele>
        <time>2018-05-16T11:51:59Z</time>
      </trkpt>
      <trkpt lat="45.92433" lon="4.73415">
        <ele>172</ele>
        <time>2018-05-16T11:52:00Z</time>
      </trkpt>
      <trkpt lat="45.92438" lon="4.73422">
        <ele>173</ele>
        <time>2018-05-16T11:52:02Z</time>
      </trkpt>
      <trkpt lat="45.92443" lon="4.73426">
        <ele>173</ele>
        <time>2018-05-16T11:52:03Z</time>
      </trkpt>
      <trkpt lat="45.92449" lon="4.7343">
        <ele>173</ele>
        <time>2018-05-16T11:52:05Z</time>
      </trkpt>
      <trkpt lat="45.92453" lon="4.73433">
        <ele>173</ele>
        <time>2018-05-16T11:52:06Z</time>
      </trkpt>
      <trkpt lat="45.92461" lon="4.73437">
        <ele>173</ele>
        <time>2018-05-16T11:52:08Z</time>
      </trkpt>
      <trkpt lat="45.92465" lon="4.73441">
        <ele>173</ele>
        <time>2018-05-16T11:52:09Z</time>
      </trkpt>
      <trkpt lat="45.92469" lon="4.73452">
        <ele>173</ele>
        <time>2018-05-16T11:52:11Z</time>
      </trkpt>
      <trkpt lat="45.9247" lon="4.73458">
        <ele>173</ele>
        <time>2018-05-16T11:52:12Z</time>
      </trkpt>
      <trkpt lat="45.92472" lon="4.7347">
        <ele>173</ele>
        <time>2018-05-16T11:52:14Z</time>
      </trkpt>
      <trkpt lat="45.92472" lon="4.73477">
        <ele>173</ele>
        <time>2018-05-16T11:52:15Z</time>
      </trkpt>
      <trkpt lat="45.92472" lon="4.73484">
        <ele>173</ele>
        <time>2018-05-16T11:52:16Z</time>
      </trkpt>
      <trkpt lat="45.92472" lon="4.7349">
        <ele>173</ele>
        <time>2018-05-16T11:52:17Z</time>
      </trkpt>
      <trkpt lat="45.92472" lon="4.73497">
        <ele>173</ele>
        <time>2018-05-16T11:52:18Z</time>
      </trkpt>
      <trkpt lat="45.92471" lon="4.73503">
        <ele>174</ele>
        <time>2018-05-16T11:52:19Z</time>
      </trkpt>
      <trkpt lat="45.92471" lon="4.7351">
        <ele>174</ele>
        <time>2018-05-16T11:52:20Z</time>
      </trkpt>
      <trkpt lat="45.92471" lon="4.73517">
        <ele>174</ele>
        <time>2018-05-16T11:52:21Z</time>
      </trkpt>
      <trkpt lat="45.9247" lon="4.73522">
        <ele>174</ele>
        <time>2018-05-16T11:52:22Z</time>
      </trkpt>
      <trkpt lat="45.9247" lon="4.7353">
        <ele>174</ele>
        <time>2018-05-16T11:52:23Z</time>
      </trkpt>
      <trkpt lat="45.92469" lon="4.73543">
        <ele>173</ele>
        <time>2018-05-16T11:52:25Z</time>
      </trkpt>
      <trkpt lat="45.92469" lon="4.73549">
        <ele>173</ele>
        <time>2018-05-16T11:52:26Z</time>
      </trkpt>
      <trkpt lat="45.9247" lon="4.73561">
        <ele>173</ele>
        <time>2018-05-16T11:52:28Z</time>
      </trkpt>
      <trkpt lat="45.9247" lon="4.73567">
        <ele>173</ele>
        <time>2018-05-16T11:52:29Z</time>
      </trkpt>
      <trkpt lat="45.92471" lon="4.73573">
        <ele>173</ele>
        <time>2018-05-16T11:52:30Z</time>
      </trkpt>
      <trkpt lat="45.92471" lon="4.7358">
        <ele>173</ele>
        <time>2018-05-16T11:52:31Z</time>
      </trkpt>
      <trkpt lat="45.92471" lon="4.73587">
        <ele>174</ele>
        <time>2018-05-16T11:52:32Z</time>
      </trkpt>
      <trkpt lat="45.9247" lon="4.73595">
        <ele>174</ele>
        <time>2018-05-16T11:52:33Z</time>
      </trkpt>
      <trkpt lat="45.9247" lon="4.73602">
        <ele>174</ele>
        <time>2018-05-16T11:52:34Z</time>
      </trkpt>
      <trkpt lat="45.92471" lon="4.7361">
        <ele>174</ele>
        <time>2018-05-16T11:52:35Z</time>
      </trkpt>
      <trkpt lat="45.92471" lon="4.73618">
        <ele>174</ele>
        <time>2018-05-16T11:52:36Z</time>
      </trkpt>
      <trkpt lat="45.92472" lon="4.73626">
        <ele>174</ele>
        <time>2018-05-16T11:52:37Z</time>
      </trkpt>
      <trkpt lat="45.92472" lon="4.73633">
        <ele>174</ele>
        <time>2018-05-16T11:52:38Z</time>
      </trkpt>
      <trkpt lat="45.92472" lon="4.73641">
        <ele>174</ele>
        <time>2018-05-16T11:52:39Z</time>
      </trkpt>
      <trkpt lat="45.92472" lon="4.73648">
        <ele>174</ele>
        <time>2018-05-16T11:52:40Z</time>
      </trkpt>
      <trkpt lat="45.92472" lon="4.73654">
        <ele>174</ele>
        <time>2018-05-16T11:52:41Z</time>
      </trkpt>
      <trkpt lat="45.92472" lon="4.73665">
        <ele>174</ele>
        <time>2018-05-16T11:52:44Z</time>
      </trkpt>
      <trkpt lat="45.92472" lon="4.73667">
        <ele>174</ele>
        <time>2018-05-16T11:52:45Z</time>
      </trkpt>
      <trkpt lat="45.92471" lon="4.7368">
        <ele>174</ele>
        <time>2018-05-16T11:52:47Z</time>
      </trkpt>
      <trkpt lat="45.9247" lon="4.73688">
        <ele>174</ele>
        <time>2018-05-16T11:52:48Z</time>
      </trkpt>
      <trkpt lat="45.92467" lon="4.737">
        <ele>174</ele>
        <time>2018-05-16T11:52:59Z</time>
      </trkpt>
      <trkpt lat="45.92467" lon="4.737">
        <ele>174</ele>
        <time>2018-05-16T11:53:00Z</time>
      </trkpt>
      <trkpt lat="45.9246" lon="4.73707">
        <ele>174</ele>
        <time>2018-05-16T11:53:28.571Z</time>
      </trkpt>
    </trkseg>
  </trk>
</gpx>